<?xml version="1.0" encoding="UTF-8" standalone="no" ?>
<gpx xmlns="http://www.topografix.com/GPX/1/1" xmlns:xsi="http://www.w3.org/2001/XMLSchema-instance" xsi:schemaLocation="http://www.topografix.com/GPX/1/1 http://www.topografix.com/GPX/1/1/gpx.xsd" version="1.1" creator="VisuGPX - https://www.visugpx.com">
  <metadata>
    <name>St Laurent du Pape</name>
    <desc><![CDATA[St Laurent du Pape ]]></desc>
  </metadata>
  <trk>
    <name><![CDATA[Seul]]></name>
    <trkseg>
      <trkpt lat="45.11582" lon="4.96476">
        <ele>201.48699951172</ele>
        <time>2011-04-06T11:13:26Z</time>
      </trkpt>
      <trkpt lat="45.11583" lon="4.96497">
        <ele>200.88600158691</ele>
        <time>2011-04-06T11:13:31Z</time>
      </trkpt>
      <trkpt lat="45.11584" lon="4.96504">
        <ele>200.4700012207</ele>
        <time>2011-04-06T11:13:37Z</time>
      </trkpt>
      <trkpt lat="45.11589" lon="4.96519">
        <ele>200.37899780273</ele>
        <time>2011-04-06T11:13:42Z</time>
      </trkpt>
      <trkpt lat="45.11597" lon="4.96541">
        <ele>200.32099914551</ele>
        <time>2011-04-06T11:13:47Z</time>
      </trkpt>
      <trkpt lat="45.11602" lon="4.96564">
        <ele>200.15100097656</ele>
        <time>2011-04-06T11:13:51Z</time>
      </trkpt>
      <trkpt lat="45.11617" lon="4.96602">
        <ele>200.1369934082</ele>
        <time>2011-04-06T11:13:57Z</time>
      </trkpt>
      <trkpt lat="45.11632" lon="4.96642">
        <ele>200.03999328613</ele>
        <time>2011-04-06T11:14:03Z</time>
      </trkpt>
      <trkpt lat="45.11654" lon="4.96699">
        <ele>200.88400268555</ele>
        <time>2011-04-06T11:14:11Z</time>
      </trkpt>
      <trkpt lat="45.11684" lon="4.9676">
        <ele>201.47099304199</ele>
        <time>2011-04-06T11:14:20Z</time>
      </trkpt>
      <trkpt lat="45.11718" lon="4.96817">
        <ele>202.23399353027</ele>
        <time>2011-04-06T11:14:29Z</time>
      </trkpt>
      <trkpt lat="45.11726" lon="4.9683">
        <ele>202.34800720215</ele>
        <time>2011-04-06T11:14:31Z</time>
      </trkpt>
      <trkpt lat="45.1174" lon="4.96869">
        <ele>202.22599792481</ele>
        <time>2011-04-06T11:14:36Z</time>
      </trkpt>
      <trkpt lat="45.1175" lon="4.9688">
        <ele>202.11799621582</ele>
        <time>2011-04-06T11:14:38Z</time>
      </trkpt>
      <trkpt lat="45.11779" lon="4.96915">
        <ele>202.75999450684</ele>
        <time>2011-04-06T11:14:44Z</time>
      </trkpt>
      <trkpt lat="45.11805" lon="4.96955">
        <ele>203.08399963379</ele>
        <time>2011-04-06T11:14:50Z</time>
      </trkpt>
      <trkpt lat="45.11844" lon="4.97013">
        <ele>203.34100341797</ele>
        <time>2011-04-06T11:14:59Z</time>
      </trkpt>
      <trkpt lat="45.11872" lon="4.9705">
        <ele>203.33399963379</ele>
        <time>2011-04-06T11:15:05Z</time>
      </trkpt>
      <trkpt lat="45.11882" lon="4.97082">
        <ele>204.15199279785</ele>
        <time>2011-04-06T11:15:09Z</time>
      </trkpt>
      <trkpt lat="45.11877" lon="4.97132">
        <ele>203.44500732422</ele>
        <time>2011-04-06T11:15:14Z</time>
      </trkpt>
      <trkpt lat="45.11879" lon="4.97173">
        <ele>202.73199462891</ele>
        <time>2011-04-06T11:15:18Z</time>
      </trkpt>
      <trkpt lat="45.11887" lon="4.97225">
        <ele>201.66900634766</ele>
        <time>2011-04-06T11:15:23Z</time>
      </trkpt>
      <trkpt lat="45.11909" lon="4.97352">
        <ele>200.83999633789</ele>
        <time>2011-04-06T11:15:35Z</time>
      </trkpt>
      <trkpt lat="45.11928" lon="4.9746">
        <ele>201.5890045166</ele>
        <time>2011-04-06T11:15:46Z</time>
      </trkpt>
      <trkpt lat="45.11943" lon="4.97549">
        <ele>202.82600402832</ele>
        <time>2011-04-06T11:15:56Z</time>
      </trkpt>
      <trkpt lat="45.11956" lon="4.97625">
        <ele>203.26600646973</ele>
        <time>2011-04-06T11:16:05Z</time>
      </trkpt>
      <trkpt lat="45.1197" lon="4.97706">
        <ele>204.06300354004</ele>
        <time>2011-04-06T11:16:14Z</time>
      </trkpt>
      <trkpt lat="45.11988" lon="4.97808">
        <ele>204.30400085449</ele>
        <time>2011-04-06T11:16:25Z</time>
      </trkpt>
      <trkpt lat="45.12004" lon="4.97903">
        <ele>204.66400146484</ele>
        <time>2011-04-06T11:16:36Z</time>
      </trkpt>
      <trkpt lat="45.12019" lon="4.97968">
        <ele>205.27000427246</ele>
        <time>2011-04-06T11:16:44Z</time>
      </trkpt>
      <trkpt lat="45.12042" lon="4.98052">
        <ele>206.73300170898</ele>
        <time>2011-04-06T11:16:54Z</time>
      </trkpt>
      <trkpt lat="45.12061" lon="4.98135">
        <ele>207.04800415039</ele>
        <time>2011-04-06T11:17:04Z</time>
      </trkpt>
      <trkpt lat="45.12068" lon="4.98202">
        <ele>207.56500244141</ele>
        <time>2011-04-06T11:17:12Z</time>
      </trkpt>
      <trkpt lat="45.12067" lon="4.98272">
        <ele>208.10899353027</ele>
        <time>2011-04-06T11:17:20Z</time>
      </trkpt>
      <trkpt lat="45.12056" lon="4.9834">
        <ele>208.3690032959</ele>
        <time>2011-04-06T11:17:28Z</time>
      </trkpt>
      <trkpt lat="45.12045" lon="4.98386">
        <ele>209.26499938965</ele>
        <time>2011-04-06T11:17:34Z</time>
      </trkpt>
      <trkpt lat="45.12033" lon="4.98426">
        <ele>209.45899963379</ele>
        <time>2011-04-06T11:17:40Z</time>
      </trkpt>
      <trkpt lat="45.12043" lon="4.9844">
        <ele>209.79699707031</ele>
        <time>2011-04-06T11:17:43Z</time>
      </trkpt>
      <trkpt lat="45.12053" lon="4.98436">
        <ele>210.02000427246</ele>
        <time>2011-04-06T11:17:45Z</time>
      </trkpt>
      <trkpt lat="45.12067" lon="4.98419">
        <ele>209.82200622559</ele>
        <time>2011-04-06T11:17:49Z</time>
      </trkpt>
      <trkpt lat="45.12075" lon="4.98416">
        <ele>209.77499389648</ele>
        <time>2011-04-06T11:17:51Z</time>
      </trkpt>
      <trkpt lat="45.12081" lon="4.98416">
        <ele>209.97599792481</ele>
        <time>2011-04-06T11:17:53Z</time>
      </trkpt>
      <trkpt lat="45.12088" lon="4.98418">
        <ele>209.98599243164</ele>
        <time>2011-04-06T11:17:57Z</time>
      </trkpt>
      <trkpt lat="45.121" lon="4.98419">
        <ele>210.20599365234</ele>
        <time>2011-04-06T11:18:03Z</time>
      </trkpt>
      <trkpt lat="45.12105" lon="4.98419">
        <ele>210.20300292969</ele>
        <time>2011-04-06T11:18:08Z</time>
      </trkpt>
      <trkpt lat="45.121" lon="4.98417">
        <ele>210.0890045166</ele>
        <time>2011-04-06T11:18:12Z</time>
      </trkpt>
      <trkpt lat="45.1209" lon="4.98416">
        <ele>209.94999694824</ele>
        <time>2011-04-06T11:18:17Z</time>
      </trkpt>
      <trkpt lat="45.12081" lon="4.98407">
        <ele>209.91499328613</ele>
        <time>2011-04-06T11:18:21Z</time>
      </trkpt>
      <trkpt lat="45.12077" lon="4.98406">
        <ele>209.92399597168</ele>
        <time>2011-04-06T11:18:22Z</time>
      </trkpt>
      <trkpt lat="45.12053" lon="4.98398">
        <ele>209.90100097656</ele>
        <time>2011-04-06T11:18:28Z</time>
      </trkpt>
      <trkpt lat="45.12036" lon="4.98405">
        <ele>210.05400085449</ele>
        <time>2011-04-06T11:18:32Z</time>
      </trkpt>
      <trkpt lat="45.12032" lon="4.98419">
        <ele>209.91499328613</ele>
        <time>2011-04-06T11:18:34Z</time>
      </trkpt>
      <trkpt lat="45.12025" lon="4.98453">
        <ele>209.87199401856</ele>
        <time>2011-04-06T11:18:40Z</time>
      </trkpt>
      <trkpt lat="45.12024" lon="4.98455">
        <ele>209.98699951172</ele>
        <time>2011-04-06T11:18:41Z</time>
      </trkpt>
      <trkpt lat="45.12022" lon="4.98459">
        <ele>210.32800292969</ele>
        <time>2011-04-06T11:18:45Z</time>
      </trkpt>
      <trkpt lat="45.12026" lon="4.98447">
        <ele>210.29499816894</ele>
        <time>2011-04-06T11:18:52Z</time>
      </trkpt>
      <trkpt lat="45.12029" lon="4.98432">
        <ele>210.17100524902</ele>
        <time>2011-04-06T11:19:01Z</time>
      </trkpt>
      <trkpt lat="45.12029" lon="4.9842">
        <ele>210.18899536133</ele>
        <time>2011-04-06T11:19:08Z</time>
      </trkpt>
      <trkpt lat="45.12027" lon="4.98416">
        <ele>210.09199523926</ele>
        <time>2011-04-06T11:19:12Z</time>
      </trkpt>
      <trkpt lat="45.12024" lon="4.9841">
        <ele>209.72500610352</ele>
        <time>2011-04-06T11:19:16Z</time>
      </trkpt>
      <trkpt lat="45.12019" lon="4.98408">
        <ele>209.50700378418</ele>
        <time>2011-04-06T11:19:21Z</time>
      </trkpt>
      <trkpt lat="45.12019" lon="4.98406">
        <ele>209.25100708008</ele>
        <time>2011-04-06T11:19:23Z</time>
      </trkpt>
      <trkpt lat="45.12021" lon="4.98408">
        <ele>209.31700134277</ele>
        <time>2011-04-06T11:19:26Z</time>
      </trkpt>
      <trkpt lat="45.12024" lon="4.9841">
        <ele>209.49200439453</ele>
        <time>2011-04-06T11:19:28Z</time>
      </trkpt>
      <trkpt lat="45.12027" lon="4.98416">
        <ele>209.89199829102</ele>
        <time>2011-04-06T11:19:32Z</time>
      </trkpt>
      <trkpt lat="45.12029" lon="4.98422">
        <ele>210.11500549316</ele>
        <time>2011-04-06T11:19:35Z</time>
      </trkpt>
      <trkpt lat="45.12029" lon="4.98425">
        <ele>210.19299316406</ele>
        <time>2011-04-06T11:19:36Z</time>
      </trkpt>
      <trkpt lat="45.12027" lon="4.98442">
        <ele>210.0950012207</ele>
        <time>2011-04-06T11:19:43Z</time>
      </trkpt>
      <trkpt lat="45.12025" lon="4.9845">
        <ele>210.18699645996</ele>
        <time>2011-04-06T11:19:49Z</time>
      </trkpt>
      <trkpt lat="45.12025" lon="4.98451">
        <ele>210.22500610352</ele>
        <time>2011-04-06T11:19:50Z</time>
      </trkpt>
      <trkpt lat="45.1203" lon="4.98455">
        <ele>206.60200500488</ele>
        <time>2011-04-06T11:34:34Z</time>
      </trkpt>
      <trkpt lat="45.12039" lon="4.9845">
        <ele>206.42599487305</ele>
        <time>2011-04-06T11:34:38Z</time>
      </trkpt>
      <trkpt lat="45.12041" lon="4.98447">
        <ele>206.44400024414</ele>
        <time>2011-04-06T11:34:39Z</time>
      </trkpt>
      <trkpt lat="45.12052" lon="4.98434">
        <ele>206.72399902344</ele>
        <time>2011-04-06T11:34:44Z</time>
      </trkpt>
      <trkpt lat="45.12058" lon="4.98421">
        <ele>206.65899658203</ele>
        <time>2011-04-06T11:34:47Z</time>
      </trkpt>
      <trkpt lat="45.12056" lon="4.98391">
        <ele>206.58700561523</ele>
        <time>2011-04-06T11:34:52Z</time>
      </trkpt>
      <trkpt lat="45.12056" lon="4.98378">
        <ele>206.26100158691</ele>
        <time>2011-04-06T11:34:54Z</time>
      </trkpt>
      <trkpt lat="45.12067" lon="4.98316">
        <ele>204.82600402832</ele>
        <time>2011-04-06T11:35:02Z</time>
      </trkpt>
      <trkpt lat="45.12075" lon="4.98247">
        <ele>204.31399536133</ele>
        <time>2011-04-06T11:35:10Z</time>
      </trkpt>
      <trkpt lat="45.12074" lon="4.98169">
        <ele>203.74099731445</ele>
        <time>2011-04-06T11:35:19Z</time>
      </trkpt>
      <trkpt lat="45.12069" lon="4.98133">
        <ele>203.28300476074</ele>
        <time>2011-04-06T11:35:23Z</time>
      </trkpt>
      <trkpt lat="45.12062" lon="4.98097">
        <ele>202.98199462891</ele>
        <time>2011-04-06T11:35:27Z</time>
      </trkpt>
      <trkpt lat="45.12039" lon="4.98007">
        <ele>202.16799926758</ele>
        <time>2011-04-06T11:35:37Z</time>
      </trkpt>
      <trkpt lat="45.12015" lon="4.9791">
        <ele>201.90800476074</ele>
        <time>2011-04-06T11:35:48Z</time>
      </trkpt>
      <trkpt lat="45.11995" lon="4.97796">
        <ele>200.13800048828</ele>
        <time>2011-04-06T11:36:00Z</time>
      </trkpt>
      <trkpt lat="45.11974" lon="4.97675">
        <ele>200.00199890137</ele>
        <time>2011-04-06T11:36:13Z</time>
      </trkpt>
      <trkpt lat="45.11957" lon="4.97575">
        <ele>200.27799987793</ele>
        <time>2011-04-06T11:36:24Z</time>
      </trkpt>
      <trkpt lat="45.11947" lon="4.97518">
        <ele>199.11399841309</ele>
        <time>2011-04-06T11:36:30Z</time>
      </trkpt>
      <trkpt lat="45.11925" lon="4.9739">
        <ele>198.26699829102</ele>
        <time>2011-04-06T11:36:43Z</time>
      </trkpt>
      <trkpt lat="45.11906" lon="4.9728">
        <ele>197.46600341797</ele>
        <time>2011-04-06T11:36:55Z</time>
      </trkpt>
      <trkpt lat="45.1189" lon="4.97193">
        <ele>197.83500671387</ele>
        <time>2011-04-06T11:37:05Z</time>
      </trkpt>
      <trkpt lat="45.11884" lon="4.97151">
        <ele>198.31799316406</ele>
        <time>2011-04-06T11:37:10Z</time>
      </trkpt>
      <trkpt lat="45.11891" lon="4.97104">
        <ele>199.79499816894</ele>
        <time>2011-04-06T11:37:16Z</time>
      </trkpt>
      <trkpt lat="45.11905" lon="4.97082">
        <ele>200.38400268555</ele>
        <time>2011-04-06T11:37:20Z</time>
      </trkpt>
      <trkpt lat="45.119" lon="4.97062">
        <ele>200.71499633789</ele>
        <time>2011-04-06T11:37:23Z</time>
      </trkpt>
      <trkpt lat="45.11895" lon="4.97058">
        <ele>200.82400512695</ele>
        <time>2011-04-06T11:37:24Z</time>
      </trkpt>
      <trkpt lat="45.11861" lon="4.9702">
        <ele>200.59100341797</ele>
        <time>2011-04-06T11:37:31Z</time>
      </trkpt>
      <trkpt lat="45.11814" lon="4.96955">
        <ele>200.00999450684</ele>
        <time>2011-04-06T11:37:42Z</time>
      </trkpt>
      <trkpt lat="45.11784" lon="4.96906">
        <ele>200.25700378418</ele>
        <time>2011-04-06T11:37:50Z</time>
      </trkpt>
      <trkpt lat="45.11771" lon="4.96887">
        <ele>199.88900756836</ele>
        <time>2011-04-06T11:37:53Z</time>
      </trkpt>
      <trkpt lat="45.11767" lon="4.96857">
        <ele>199.375</ele>
        <time>2011-04-06T11:37:57Z</time>
      </trkpt>
      <trkpt lat="45.11764" lon="4.96834">
        <ele>199.77799987793</ele>
        <time>2011-04-06T11:38:00Z</time>
      </trkpt>
      <trkpt lat="45.1175" lon="4.96821">
        <ele>199.93600463867</ele>
        <time>2011-04-06T11:38:03Z</time>
      </trkpt>
      <trkpt lat="45.11724" lon="4.96806">
        <ele>199.84700012207</ele>
        <time>2011-04-06T11:38:08Z</time>
      </trkpt>
      <trkpt lat="45.11694" lon="4.96763">
        <ele>198.88900756836</ele>
        <time>2011-04-06T11:38:15Z</time>
      </trkpt>
      <trkpt lat="45.11672" lon="4.96723">
        <ele>198.57299804688</ele>
        <time>2011-04-06T11:38:21Z</time>
      </trkpt>
      <trkpt lat="45.11645" lon="4.96655">
        <ele>198.68200683594</ele>
        <time>2011-04-06T11:38:30Z</time>
      </trkpt>
      <trkpt lat="45.11612" lon="4.96571">
        <ele>197.74699401856</ele>
        <time>2011-04-06T11:38:41Z</time>
      </trkpt>
      <trkpt lat="45.11576" lon="4.96484">
        <ele>197.61399841309</ele>
        <time>2011-04-06T11:38:53Z</time>
      </trkpt>
      <trkpt lat="45.11545" lon="4.96433">
        <ele>197.89599609375</ele>
        <time>2011-04-06T11:39:01Z</time>
      </trkpt>
      <trkpt lat="45.11509" lon="4.96377">
        <ele>198.74299621582</ele>
        <time>2011-04-06T11:39:10Z</time>
      </trkpt>
      <trkpt lat="45.11477" lon="4.96328">
        <ele>198.91000366211</ele>
        <time>2011-04-06T11:39:18Z</time>
      </trkpt>
      <trkpt lat="45.1145" lon="4.96286">
        <ele>199.42700195312</ele>
        <time>2011-04-06T11:39:25Z</time>
      </trkpt>
      <trkpt lat="45.11426" lon="4.96242">
        <ele>200.30499267578</ele>
        <time>2011-04-06T11:39:32Z</time>
      </trkpt>
      <trkpt lat="45.11393" lon="4.96173">
        <ele>199.38400268555</ele>
        <time>2011-04-06T11:39:42Z</time>
      </trkpt>
      <trkpt lat="45.1136" lon="4.96106">
        <ele>198.93899536133</ele>
        <time>2011-04-06T11:39:51Z</time>
      </trkpt>
      <trkpt lat="45.11325" lon="4.96046">
        <ele>198.59899902344</ele>
        <time>2011-04-06T11:39:59Z</time>
      </trkpt>
      <trkpt lat="45.1128" lon="4.95973">
        <ele>197.30200195312</ele>
        <time>2011-04-06T11:40:09Z</time>
      </trkpt>
      <trkpt lat="45.11247" lon="4.95916">
        <ele>196.13999938965</ele>
        <time>2011-04-06T11:40:17Z</time>
      </trkpt>
      <trkpt lat="45.11211" lon="4.95862">
        <ele>196.1609954834</ele>
        <time>2011-04-06T11:40:25Z</time>
      </trkpt>
      <trkpt lat="45.11156" lon="4.95779">
        <ele>195.80000305176</ele>
        <time>2011-04-06T11:40:37Z</time>
      </trkpt>
      <trkpt lat="45.11125" lon="4.95719">
        <ele>196.4880065918</ele>
        <time>2011-04-06T11:40:45Z</time>
      </trkpt>
      <trkpt lat="45.11098" lon="4.95679">
        <ele>197.51100158691</ele>
        <time>2011-04-06T11:40:51Z</time>
      </trkpt>
      <trkpt lat="45.11044" lon="4.95625">
        <ele>197.41700744629</ele>
        <time>2011-04-06T11:41:01Z</time>
      </trkpt>
      <trkpt lat="45.11004" lon="4.95573">
        <ele>196.53700256348</ele>
        <time>2011-04-06T11:41:09Z</time>
      </trkpt>
      <trkpt lat="45.10976" lon="4.95518">
        <ele>196.0119934082</ele>
        <time>2011-04-06T11:41:16Z</time>
      </trkpt>
      <trkpt lat="45.10952" lon="4.95444">
        <ele>194.93200683594</ele>
        <time>2011-04-06T11:41:24Z</time>
      </trkpt>
      <trkpt lat="45.10933" lon="4.95362">
        <ele>194.67700195312</ele>
        <time>2011-04-06T11:41:33Z</time>
      </trkpt>
      <trkpt lat="45.10911" lon="4.95296">
        <ele>195.2380065918</ele>
        <time>2011-04-06T11:41:41Z</time>
      </trkpt>
      <trkpt lat="45.10889" lon="4.95232">
        <ele>195.26800537109</ele>
        <time>2011-04-06T11:41:49Z</time>
      </trkpt>
      <trkpt lat="45.10866" lon="4.95163">
        <ele>197.4880065918</ele>
        <time>2011-04-06T11:41:59Z</time>
      </trkpt>
      <trkpt lat="45.10858" lon="4.95131">
        <ele>198.74600219727</ele>
        <time>2011-04-06T11:42:04Z</time>
      </trkpt>
      <trkpt lat="45.10852" lon="4.95082">
        <ele>200.99000549316</ele>
        <time>2011-04-06T11:42:12Z</time>
      </trkpt>
      <trkpt lat="45.10852" lon="4.95054">
        <ele>202.72300720215</ele>
        <time>2011-04-06T11:42:17Z</time>
      </trkpt>
      <trkpt lat="45.10854" lon="4.95026">
        <ele>204.30799865723</ele>
        <time>2011-04-06T11:42:22Z</time>
      </trkpt>
      <trkpt lat="45.10857" lon="4.94977">
        <ele>206.73399353027</ele>
        <time>2011-04-06T11:42:31Z</time>
      </trkpt>
      <trkpt lat="45.1086" lon="4.9493">
        <ele>208.94500732422</ele>
        <time>2011-04-06T11:42:40Z</time>
      </trkpt>
      <trkpt lat="45.10863" lon="4.94875">
        <ele>212.22500610352</ele>
        <time>2011-04-06T11:42:50Z</time>
      </trkpt>
      <trkpt lat="45.10871" lon="4.94845">
        <ele>212.83000183106</ele>
        <time>2011-04-06T11:42:56Z</time>
      </trkpt>
      <trkpt lat="45.10876" lon="4.94825">
        <ele>214.05200195312</ele>
        <time>2011-04-06T11:43:01Z</time>
      </trkpt>
      <trkpt lat="45.10878" lon="4.94798">
        <ele>214.27099609375</ele>
        <time>2011-04-06T11:43:06Z</time>
      </trkpt>
      <trkpt lat="45.1089" lon="4.94758">
        <ele>213.92900085449</ele>
        <time>2011-04-06T11:43:13Z</time>
      </trkpt>
      <trkpt lat="45.10905" lon="4.94705">
        <ele>213.89700317383</ele>
        <time>2011-04-06T11:43:21Z</time>
      </trkpt>
      <trkpt lat="45.10925" lon="4.94633">
        <ele>214.1190032959</ele>
        <time>2011-04-06T11:43:31Z</time>
      </trkpt>
      <trkpt lat="45.10933" lon="4.94567">
        <ele>213.83299255371</ele>
        <time>2011-04-06T11:43:39Z</time>
      </trkpt>
      <trkpt lat="45.10932" lon="4.94497">
        <ele>213.81700134277</ele>
        <time>2011-04-06T11:43:47Z</time>
      </trkpt>
      <trkpt lat="45.10927" lon="4.94407">
        <ele>213.61999511719</ele>
        <time>2011-04-06T11:43:57Z</time>
      </trkpt>
      <trkpt lat="45.10922" lon="4.94338">
        <ele>214.00100708008</ele>
        <time>2011-04-06T11:44:05Z</time>
      </trkpt>
      <trkpt lat="45.10908" lon="4.94298">
        <ele>214.64199829102</ele>
        <time>2011-04-06T11:44:10Z</time>
      </trkpt>
      <trkpt lat="45.10894" lon="4.94277">
        <ele>213.94099426269</ele>
        <time>2011-04-06T11:44:13Z</time>
      </trkpt>
      <trkpt lat="45.10827" lon="4.942">
        <ele>212.8869934082</ele>
        <time>2011-04-06T11:44:25Z</time>
      </trkpt>
      <trkpt lat="45.10774" lon="4.94136">
        <ele>213.02799987793</ele>
        <time>2011-04-06T11:44:35Z</time>
      </trkpt>
      <trkpt lat="45.10741" lon="4.94081">
        <ele>214.63400268555</ele>
        <time>2011-04-06T11:44:43Z</time>
      </trkpt>
      <trkpt lat="45.10714" lon="4.94013">
        <ele>215.49600219727</ele>
        <time>2011-04-06T11:44:52Z</time>
      </trkpt>
      <trkpt lat="45.10699" lon="4.93949">
        <ele>216.65899658203</ele>
        <time>2011-04-06T11:45:00Z</time>
      </trkpt>
      <trkpt lat="45.10687" lon="4.93857">
        <ele>217.21000671387</ele>
        <time>2011-04-06T11:45:11Z</time>
      </trkpt>
      <trkpt lat="45.10678" lon="4.93772">
        <ele>215.78300476074</ele>
        <time>2011-04-06T11:45:20Z</time>
      </trkpt>
      <trkpt lat="45.10668" lon="4.93684">
        <ele>213.52299499512</ele>
        <time>2011-04-06T11:45:28Z</time>
      </trkpt>
      <trkpt lat="45.1066" lon="4.93622">
        <ele>211.16900634766</ele>
        <time>2011-04-06T11:45:33Z</time>
      </trkpt>
      <trkpt lat="45.10648" lon="4.93556">
        <ele>208.05000305176</ele>
        <time>2011-04-06T11:45:38Z</time>
      </trkpt>
      <trkpt lat="45.10634" lon="4.93485">
        <ele>204.70300292969</ele>
        <time>2011-04-06T11:45:43Z</time>
      </trkpt>
      <trkpt lat="45.1062" lon="4.93414">
        <ele>201.96800231934</ele>
        <time>2011-04-06T11:45:48Z</time>
      </trkpt>
      <trkpt lat="45.10617" lon="4.934">
        <ele>201.75500488281</ele>
        <time>2011-04-06T11:45:49Z</time>
      </trkpt>
      <trkpt lat="45.10604" lon="4.93333">
        <ele>201.21699523926</ele>
        <time>2011-04-06T11:45:54Z</time>
      </trkpt>
      <trkpt lat="45.10596" lon="4.93296">
        <ele>200.50199890137</ele>
        <time>2011-04-06T11:45:57Z</time>
      </trkpt>
      <trkpt lat="45.10575" lon="4.93186">
        <ele>198.45300292969</ele>
        <time>2011-04-06T11:46:06Z</time>
      </trkpt>
      <trkpt lat="45.10559" lon="4.93106">
        <ele>197.47500610352</ele>
        <time>2011-04-06T11:46:13Z</time>
      </trkpt>
      <trkpt lat="45.10545" lon="4.93034">
        <ele>197.49499511719</ele>
        <time>2011-04-06T11:46:20Z</time>
      </trkpt>
      <trkpt lat="45.1053" lon="4.92957">
        <ele>197.31100463867</ele>
        <time>2011-04-06T11:46:28Z</time>
      </trkpt>
      <trkpt lat="45.10516" lon="4.92889">
        <ele>196.60499572754</ele>
        <time>2011-04-06T11:46:36Z</time>
      </trkpt>
      <trkpt lat="45.10503" lon="4.9282">
        <ele>196.69500732422</ele>
        <time>2011-04-06T11:46:44Z</time>
      </trkpt>
      <trkpt lat="45.10495" lon="4.92775">
        <ele>196.39799499512</ele>
        <time>2011-04-06T11:46:49Z</time>
      </trkpt>
      <trkpt lat="45.10486" lon="4.9273">
        <ele>196.04899597168</ele>
        <time>2011-04-06T11:46:55Z</time>
      </trkpt>
      <trkpt lat="45.10473" lon="4.92679">
        <ele>196.12899780273</ele>
        <time>2011-04-06T11:47:01Z</time>
      </trkpt>
      <trkpt lat="45.10469" lon="4.92652">
        <ele>196.25500488281</ele>
        <time>2011-04-06T11:47:04Z</time>
      </trkpt>
      <trkpt lat="45.1046" lon="4.926">
        <ele>196.45700073242</ele>
        <time>2011-04-06T11:47:10Z</time>
      </trkpt>
      <trkpt lat="45.10452" lon="4.92555">
        <ele>195.89300537109</ele>
        <time>2011-04-06T11:47:15Z</time>
      </trkpt>
      <trkpt lat="45.10436" lon="4.92472">
        <ele>194.30900573731</ele>
        <time>2011-04-06T11:47:23Z</time>
      </trkpt>
      <trkpt lat="45.10426" lon="4.92418">
        <ele>193.23699951172</ele>
        <time>2011-04-06T11:47:28Z</time>
      </trkpt>
      <trkpt lat="45.10413" lon="4.92344">
        <ele>193.04400634766</ele>
        <time>2011-04-06T11:47:35Z</time>
      </trkpt>
      <trkpt lat="45.10397" lon="4.92253">
        <ele>192.45700073242</ele>
        <time>2011-04-06T11:47:44Z</time>
      </trkpt>
      <trkpt lat="45.10383" lon="4.92174">
        <ele>192.36000061035</ele>
        <time>2011-04-06T11:47:52Z</time>
      </trkpt>
      <trkpt lat="45.10365" lon="4.92069">
        <ele>193.21800231934</ele>
        <time>2011-04-06T11:48:03Z</time>
      </trkpt>
      <trkpt lat="45.10355" lon="4.92015">
        <ele>193.85899353027</ele>
        <time>2011-04-06T11:48:09Z</time>
      </trkpt>
      <trkpt lat="45.10338" lon="4.91921">
        <ele>195.15199279785</ele>
        <time>2011-04-06T11:48:20Z</time>
      </trkpt>
      <trkpt lat="45.1032" lon="4.9182">
        <ele>195.91700744629</ele>
        <time>2011-04-06T11:48:32Z</time>
      </trkpt>
      <trkpt lat="45.10315" lon="4.91789">
        <ele>196.60499572754</ele>
        <time>2011-04-06T11:48:36Z</time>
      </trkpt>
      <trkpt lat="45.10302" lon="4.91765">
        <ele>196.76400756836</ele>
        <time>2011-04-06T11:48:40Z</time>
      </trkpt>
      <trkpt lat="45.10286" lon="4.91758">
        <ele>196.29800415039</ele>
        <time>2011-04-06T11:48:43Z</time>
      </trkpt>
      <trkpt lat="45.1028" lon="4.91759">
        <ele>196.13400268555</ele>
        <time>2011-04-06T11:48:44Z</time>
      </trkpt>
      <trkpt lat="45.10218" lon="4.91769">
        <ele>195.76499938965</ele>
        <time>2011-04-06T11:48:54Z</time>
      </trkpt>
      <trkpt lat="45.10192" lon="4.91773">
        <ele>195.58599853516</ele>
        <time>2011-04-06T11:48:58Z</time>
      </trkpt>
      <trkpt lat="45.10132" lon="4.91783">
        <ele>195.39100646973</ele>
        <time>2011-04-06T11:49:07Z</time>
      </trkpt>
      <trkpt lat="45.1007" lon="4.91792">
        <ele>195.88900756836</ele>
        <time>2011-04-06T11:49:16Z</time>
      </trkpt>
      <trkpt lat="45.1001" lon="4.91804">
        <ele>196.2859954834</ele>
        <time>2011-04-06T11:49:25Z</time>
      </trkpt>
      <trkpt lat="45.09924" lon="4.91821">
        <ele>196.8390045166</ele>
        <time>2011-04-06T11:49:38Z</time>
      </trkpt>
      <trkpt lat="45.0985" lon="4.91835">
        <ele>197.20700073242</ele>
        <time>2011-04-06T11:49:49Z</time>
      </trkpt>
      <trkpt lat="45.09784" lon="4.91848">
        <ele>198.09700012207</ele>
        <time>2011-04-06T11:49:59Z</time>
      </trkpt>
      <trkpt lat="45.09709" lon="4.91862">
        <ele>199.25900268555</ele>
        <time>2011-04-06T11:50:11Z</time>
      </trkpt>
      <trkpt lat="45.09648" lon="4.91873">
        <ele>201.04699707031</ele>
        <time>2011-04-06T11:50:21Z</time>
      </trkpt>
      <trkpt lat="45.0957" lon="4.91885">
        <ele>202.21699523926</ele>
        <time>2011-04-06T11:50:34Z</time>
      </trkpt>
      <trkpt lat="45.09509" lon="4.91891">
        <ele>203.65899658203</ele>
        <time>2011-04-06T11:50:44Z</time>
      </trkpt>
      <trkpt lat="45.09503" lon="4.91891">
        <ele>203.74000549316</ele>
        <time>2011-04-06T11:50:45Z</time>
      </trkpt>
      <trkpt lat="45.09454" lon="4.91877">
        <ele>205.07699584961</ele>
        <time>2011-04-06T11:50:53Z</time>
      </trkpt>
      <trkpt lat="45.09412" lon="4.91862">
        <ele>206.97799682617</ele>
        <time>2011-04-06T11:51:01Z</time>
      </trkpt>
      <trkpt lat="45.09385" lon="4.91853">
        <ele>208.36500549316</ele>
        <time>2011-04-06T11:51:07Z</time>
      </trkpt>
      <trkpt lat="45.09335" lon="4.91834">
        <ele>211.17500305176</ele>
        <time>2011-04-06T11:51:19Z</time>
      </trkpt>
      <trkpt lat="45.09291" lon="4.91819">
        <ele>213.55900573731</ele>
        <time>2011-04-06T11:51:29Z</time>
      </trkpt>
      <trkpt lat="45.09253" lon="4.91806">
        <ele>215.97099304199</ele>
        <time>2011-04-06T11:51:38Z</time>
      </trkpt>
      <trkpt lat="45.09215" lon="4.91806">
        <ele>218.09199523926</ele>
        <time>2011-04-06T11:51:47Z</time>
      </trkpt>
      <trkpt lat="45.09179" lon="4.91818">
        <ele>220.47999572754</ele>
        <time>2011-04-06T11:51:56Z</time>
      </trkpt>
      <trkpt lat="45.0914" lon="4.91832">
        <ele>223.04299926758</ele>
        <time>2011-04-06T11:52:06Z</time>
      </trkpt>
      <trkpt lat="45.09101" lon="4.91847">
        <ele>225.35400390625</ele>
        <time>2011-04-06T11:52:16Z</time>
      </trkpt>
      <trkpt lat="45.09056" lon="4.91863">
        <ele>227.88299560547</ele>
        <time>2011-04-06T11:52:27Z</time>
      </trkpt>
      <trkpt lat="45.09009" lon="4.91876">
        <ele>230.20500183106</ele>
        <time>2011-04-06T11:52:38Z</time>
      </trkpt>
      <trkpt lat="45.08964" lon="4.91885">
        <ele>231.68299865723</ele>
        <time>2011-04-06T11:52:48Z</time>
      </trkpt>
      <trkpt lat="45.08912" lon="4.91897">
        <ele>233.28300476074</ele>
        <time>2011-04-06T11:52:59Z</time>
      </trkpt>
      <trkpt lat="45.08857" lon="4.91904">
        <ele>235.04100036621</ele>
        <time>2011-04-06T11:53:10Z</time>
      </trkpt>
      <trkpt lat="45.08804" lon="4.91909">
        <ele>236.89300537109</ele>
        <time>2011-04-06T11:53:21Z</time>
      </trkpt>
      <trkpt lat="45.08757" lon="4.91913">
        <ele>238.51300048828</ele>
        <time>2011-04-06T11:53:31Z</time>
      </trkpt>
      <trkpt lat="45.08699" lon="4.91917">
        <ele>240.52499389648</ele>
        <time>2011-04-06T11:53:43Z</time>
      </trkpt>
      <trkpt lat="45.08647" lon="4.9192">
        <ele>242.53199768066</ele>
        <time>2011-04-06T11:53:54Z</time>
      </trkpt>
      <trkpt lat="45.08598" lon="4.91927">
        <ele>244.42799377441</ele>
        <time>2011-04-06T11:54:04Z</time>
      </trkpt>
      <trkpt lat="45.08588" lon="4.9193">
        <ele>244.8390045166</ele>
        <time>2011-04-06T11:54:06Z</time>
      </trkpt>
      <trkpt lat="45.0855" lon="4.91946">
        <ele>246.45899963379</ele>
        <time>2011-04-06T11:54:14Z</time>
      </trkpt>
      <trkpt lat="45.08501" lon="4.91967">
        <ele>248.14900207519</ele>
        <time>2011-04-06T11:54:24Z</time>
      </trkpt>
      <trkpt lat="45.08465" lon="4.91983">
        <ele>248.2440032959</ele>
        <time>2011-04-06T11:54:31Z</time>
      </trkpt>
      <trkpt lat="45.08415" lon="4.92004">
        <ele>247.7559967041</ele>
        <time>2011-04-06T11:54:40Z</time>
      </trkpt>
      <trkpt lat="45.08387" lon="4.92015">
        <ele>247.49299621582</ele>
        <time>2011-04-06T11:54:45Z</time>
      </trkpt>
      <trkpt lat="45.08364" lon="4.92026">
        <ele>246.97399902344</ele>
        <time>2011-04-06T11:54:49Z</time>
      </trkpt>
      <trkpt lat="45.08352" lon="4.9203">
        <ele>246.72500610352</ele>
        <time>2011-04-06T11:54:51Z</time>
      </trkpt>
      <trkpt lat="45.08334" lon="4.92033">
        <ele>246.27099609375</ele>
        <time>2011-04-06T11:54:54Z</time>
      </trkpt>
      <trkpt lat="45.08294" lon="4.92035">
        <ele>246.51100158691</ele>
        <time>2011-04-06T11:55:01Z</time>
      </trkpt>
      <trkpt lat="45.08254" lon="4.92034">
        <ele>248.01600646973</ele>
        <time>2011-04-06T11:55:09Z</time>
      </trkpt>
      <trkpt lat="45.08244" lon="4.92032">
        <ele>248.44000244141</ele>
        <time>2011-04-06T11:55:11Z</time>
      </trkpt>
      <trkpt lat="45.0822" lon="4.92015">
        <ele>249.44500732422</ele>
        <time>2011-04-06T11:55:16Z</time>
      </trkpt>
      <trkpt lat="45.082" lon="4.91984">
        <ele>251.18499755859</ele>
        <time>2011-04-06T11:55:22Z</time>
      </trkpt>
      <trkpt lat="45.08179" lon="4.91935">
        <ele>252.05900573731</ele>
        <time>2011-04-06T11:55:30Z</time>
      </trkpt>
      <trkpt lat="45.08159" lon="4.91878">
        <ele>251.61599731445</ele>
        <time>2011-04-06T11:55:38Z</time>
      </trkpt>
      <trkpt lat="45.08156" lon="4.91821">
        <ele>249.00500488281</ele>
        <time>2011-04-06T11:55:44Z</time>
      </trkpt>
      <trkpt lat="45.0817" lon="4.91736">
        <ele>245.69500732422</ele>
        <time>2011-04-06T11:55:52Z</time>
      </trkpt>
      <trkpt lat="45.08172" lon="4.91725">
        <ele>245.38999938965</ele>
        <time>2011-04-06T11:55:53Z</time>
      </trkpt>
      <trkpt lat="45.08178" lon="4.91689">
        <ele>243.88200378418</ele>
        <time>2011-04-06T11:55:56Z</time>
      </trkpt>
      <trkpt lat="45.08184" lon="4.9165">
        <ele>242.70899963379</ele>
        <time>2011-04-06T11:55:59Z</time>
      </trkpt>
      <trkpt lat="45.08181" lon="4.91597">
        <ele>240.13000488281</ele>
        <time>2011-04-06T11:56:03Z</time>
      </trkpt>
      <trkpt lat="45.08178" lon="4.91584">
        <ele>239.63200378418</ele>
        <time>2011-04-06T11:56:04Z</time>
      </trkpt>
      <trkpt lat="45.08174" lon="4.91571">
        <ele>239.04200744629</ele>
        <time>2011-04-06T11:56:05Z</time>
      </trkpt>
      <trkpt lat="45.08155" lon="4.91539">
        <ele>237.11999511719</ele>
        <time>2011-04-06T11:56:08Z</time>
      </trkpt>
      <trkpt lat="45.08147" lon="4.9153">
        <ele>236.16499328613</ele>
        <time>2011-04-06T11:56:09Z</time>
      </trkpt>
      <trkpt lat="45.08113" lon="4.91497">
        <ele>233.08399963379</ele>
        <time>2011-04-06T11:56:13Z</time>
      </trkpt>
      <trkpt lat="45.08078" lon="4.91461">
        <ele>230.1369934082</ele>
        <time>2011-04-06T11:56:17Z</time>
      </trkpt>
      <trkpt lat="45.08043" lon="4.91423">
        <ele>227.96000671387</ele>
        <time>2011-04-06T11:56:21Z</time>
      </trkpt>
      <trkpt lat="45.07985" lon="4.9135">
        <ele>224.27600097656</ele>
        <time>2011-04-06T11:56:28Z</time>
      </trkpt>
      <trkpt lat="45.07941" lon="4.91285">
        <ele>221.57699584961</ele>
        <time>2011-04-06T11:56:34Z</time>
      </trkpt>
      <trkpt lat="45.07874" lon="4.91173">
        <ele>216.53399658203</ele>
        <time>2011-04-06T11:56:44Z</time>
      </trkpt>
      <trkpt lat="45.07835" lon="4.91127">
        <ele>215.00799560547</ele>
        <time>2011-04-06T11:56:49Z</time>
      </trkpt>
      <trkpt lat="45.07795" lon="4.91087">
        <ele>214.36599731445</ele>
        <time>2011-04-06T11:56:54Z</time>
      </trkpt>
      <trkpt lat="45.07764" lon="4.91043">
        <ele>213.90299987793</ele>
        <time>2011-04-06T11:56:59Z</time>
      </trkpt>
      <trkpt lat="45.07746" lon="4.91016">
        <ele>213.4049987793</ele>
        <time>2011-04-06T11:57:02Z</time>
      </trkpt>
      <trkpt lat="45.0774" lon="4.91007">
        <ele>213.18099975586</ele>
        <time>2011-04-06T11:57:03Z</time>
      </trkpt>
      <trkpt lat="45.07697" lon="4.9094">
        <ele>212.22099304199</ele>
        <time>2011-04-06T11:57:10Z</time>
      </trkpt>
      <trkpt lat="45.07676" lon="4.90895">
        <ele>210.80299377441</ele>
        <time>2011-04-06T11:57:14Z</time>
      </trkpt>
      <trkpt lat="45.07651" lon="4.90826">
        <ele>209.92199707031</ele>
        <time>2011-04-06T11:57:20Z</time>
      </trkpt>
      <trkpt lat="45.07631" lon="4.90767">
        <ele>208.93699645996</ele>
        <time>2011-04-06T11:57:25Z</time>
      </trkpt>
      <trkpt lat="45.07624" lon="4.90743">
        <ele>208.38400268555</ele>
        <time>2011-04-06T11:57:27Z</time>
      </trkpt>
      <trkpt lat="45.07618" lon="4.90666">
        <ele>207.57400512695</ele>
        <time>2011-04-06T11:57:33Z</time>
      </trkpt>
      <trkpt lat="45.07626" lon="4.90588">
        <ele>205.49899291992</ele>
        <time>2011-04-06T11:57:39Z</time>
      </trkpt>
      <trkpt lat="45.07644" lon="4.90523">
        <ele>203.14300537109</ele>
        <time>2011-04-06T11:57:44Z</time>
      </trkpt>
      <trkpt lat="45.0767" lon="4.90462">
        <ele>199.9049987793</ele>
        <time>2011-04-06T11:57:49Z</time>
      </trkpt>
      <trkpt lat="45.07707" lon="4.90377">
        <ele>195.66799926758</ele>
        <time>2011-04-06T11:57:56Z</time>
      </trkpt>
      <trkpt lat="45.07711" lon="4.90364">
        <ele>195.59300231934</ele>
        <time>2011-04-06T11:57:57Z</time>
      </trkpt>
      <trkpt lat="45.07722" lon="4.9028">
        <ele>193.54800415039</ele>
        <time>2011-04-06T11:58:03Z</time>
      </trkpt>
      <trkpt lat="45.07724" lon="4.90184">
        <ele>191.32200622559</ele>
        <time>2011-04-06T11:58:10Z</time>
      </trkpt>
      <trkpt lat="45.07725" lon="4.9013">
        <ele>190.30299377441</ele>
        <time>2011-04-06T11:58:14Z</time>
      </trkpt>
      <trkpt lat="45.07731" lon="4.90066">
        <ele>188.84300231934</ele>
        <time>2011-04-06T11:58:19Z</time>
      </trkpt>
      <trkpt lat="45.07753" lon="4.89981">
        <ele>187.33000183106</ele>
        <time>2011-04-06T11:58:26Z</time>
      </trkpt>
      <trkpt lat="45.07756" lon="4.89969">
        <ele>187.34300231934</ele>
        <time>2011-04-06T11:58:27Z</time>
      </trkpt>
      <trkpt lat="45.07801" lon="4.89892">
        <ele>184.58200073242</ele>
        <time>2011-04-06T11:58:35Z</time>
      </trkpt>
      <trkpt lat="45.07844" lon="4.89818">
        <ele>183.54100036621</ele>
        <time>2011-04-06T11:58:43Z</time>
      </trkpt>
      <trkpt lat="45.0787" lon="4.89773">
        <ele>182.97300720215</ele>
        <time>2011-04-06T11:58:48Z</time>
      </trkpt>
      <trkpt lat="45.07883" lon="4.89731">
        <ele>182.68099975586</ele>
        <time>2011-04-06T11:58:52Z</time>
      </trkpt>
      <trkpt lat="45.07884" lon="4.89719">
        <ele>182.75300598144</ele>
        <time>2011-04-06T11:58:53Z</time>
      </trkpt>
      <trkpt lat="45.0789" lon="4.89637">
        <ele>180.85699462891</ele>
        <time>2011-04-06T11:59:00Z</time>
      </trkpt>
      <trkpt lat="45.07895" lon="4.89591">
        <ele>180.48899841309</ele>
        <time>2011-04-06T11:59:04Z</time>
      </trkpt>
      <trkpt lat="45.07896" lon="4.89512">
        <ele>181.27099609375</ele>
        <time>2011-04-06T11:59:11Z</time>
      </trkpt>
      <trkpt lat="45.0789" lon="4.89437">
        <ele>181.02900695801</ele>
        <time>2011-04-06T11:59:18Z</time>
      </trkpt>
      <trkpt lat="45.07876" lon="4.8938">
        <ele>181.11000061035</ele>
        <time>2011-04-06T11:59:24Z</time>
      </trkpt>
      <trkpt lat="45.07855" lon="4.89316">
        <ele>181.67799377441</ele>
        <time>2011-04-06T11:59:31Z</time>
      </trkpt>
      <trkpt lat="45.07826" lon="4.89244">
        <ele>181.69999694824</ele>
        <time>2011-04-06T11:59:39Z</time>
      </trkpt>
      <trkpt lat="45.07797" lon="4.89167">
        <ele>181.38200378418</ele>
        <time>2011-04-06T11:59:47Z</time>
      </trkpt>
      <trkpt lat="45.07778" lon="4.89104">
        <ele>177.17500305176</ele>
        <time>2011-04-06T11:59:52Z</time>
      </trkpt>
      <trkpt lat="45.07763" lon="4.89061">
        <ele>174.42599487305</ele>
        <time>2011-04-06T11:59:55Z</time>
      </trkpt>
      <trkpt lat="45.07732" lon="4.89015">
        <ele>172.87399291992</ele>
        <time>2011-04-06T11:59:59Z</time>
      </trkpt>
      <trkpt lat="45.07707" lon="4.88989">
        <ele>172.49299621582</ele>
        <time>2011-04-06T12:00:02Z</time>
      </trkpt>
      <trkpt lat="45.07689" lon="4.88975">
        <ele>172.54699707031</ele>
        <time>2011-04-06T12:00:04Z</time>
      </trkpt>
      <trkpt lat="45.07642" lon="4.88954">
        <ele>171.60699462891</ele>
        <time>2011-04-06T12:00:09Z</time>
      </trkpt>
      <trkpt lat="45.07605" lon="4.88951">
        <ele>171.13200378418</ele>
        <time>2011-04-06T12:00:13Z</time>
      </trkpt>
      <trkpt lat="45.07569" lon="4.88955">
        <ele>170.94500732422</ele>
        <time>2011-04-06T12:00:17Z</time>
      </trkpt>
      <trkpt lat="45.07537" lon="4.88948">
        <ele>170.63299560547</ele>
        <time>2011-04-06T12:00:21Z</time>
      </trkpt>
      <trkpt lat="45.07495" lon="4.88941">
        <ele>169.8690032959</ele>
        <time>2011-04-06T12:00:26Z</time>
      </trkpt>
      <trkpt lat="45.07454" lon="4.88922">
        <ele>168.88600158691</ele>
        <time>2011-04-06T12:00:31Z</time>
      </trkpt>
      <trkpt lat="45.07423" lon="4.88908">
        <ele>168.42799377441</ele>
        <time>2011-04-06T12:00:35Z</time>
      </trkpt>
      <trkpt lat="45.07417" lon="4.88916">
        <ele>168.33599853516</ele>
        <time>2011-04-06T12:00:36Z</time>
      </trkpt>
      <trkpt lat="45.07372" lon="4.88943">
        <ele>167.45399475098</ele>
        <time>2011-04-06T12:00:42Z</time>
      </trkpt>
      <trkpt lat="45.07326" lon="4.88965">
        <ele>166.33099365234</ele>
        <time>2011-04-06T12:00:48Z</time>
      </trkpt>
      <trkpt lat="45.07277" lon="4.8897">
        <ele>166.35200500488</ele>
        <time>2011-04-06T12:00:54Z</time>
      </trkpt>
      <trkpt lat="45.07237" lon="4.88978">
        <ele>166.68800354004</ele>
        <time>2011-04-06T12:00:59Z</time>
      </trkpt>
      <trkpt lat="45.07214" lon="4.88986">
        <ele>166.79600524902</ele>
        <time>2011-04-06T12:01:02Z</time>
      </trkpt>
      <trkpt lat="45.07183" lon="4.89004">
        <ele>166.08599853516</ele>
        <time>2011-04-06T12:01:06Z</time>
      </trkpt>
      <trkpt lat="45.07137" lon="4.89028">
        <ele>165.45799255371</ele>
        <time>2011-04-06T12:01:12Z</time>
      </trkpt>
      <trkpt lat="45.07122" lon="4.89036">
        <ele>165.08999633789</ele>
        <time>2011-04-06T12:01:14Z</time>
      </trkpt>
      <trkpt lat="45.07094" lon="4.89061">
        <ele>164.68499755859</ele>
        <time>2011-04-06T12:01:18Z</time>
      </trkpt>
      <trkpt lat="45.07063" lon="4.89073">
        <ele>163.96200561523</ele>
        <time>2011-04-06T12:01:22Z</time>
      </trkpt>
      <trkpt lat="45.06986" lon="4.89069">
        <ele>163.45100402832</ele>
        <time>2011-04-06T12:01:31Z</time>
      </trkpt>
      <trkpt lat="45.06874" lon="4.89065">
        <ele>162.52000427246</ele>
        <time>2011-04-06T12:01:44Z</time>
      </trkpt>
      <trkpt lat="45.06783" lon="4.89057">
        <ele>162.20100402832</ele>
        <time>2011-04-06T12:01:55Z</time>
      </trkpt>
      <trkpt lat="45.06717" lon="4.89053">
        <ele>161.62100219727</ele>
        <time>2011-04-06T12:02:03Z</time>
      </trkpt>
      <trkpt lat="45.06645" lon="4.89054">
        <ele>161.3809967041</ele>
        <time>2011-04-06T12:02:12Z</time>
      </trkpt>
      <trkpt lat="45.06601" lon="4.89052">
        <ele>160.96499633789</ele>
        <time>2011-04-06T12:02:18Z</time>
      </trkpt>
      <trkpt lat="45.06587" lon="4.89052">
        <ele>161.42399597168</ele>
        <time>2011-04-06T12:02:21Z</time>
      </trkpt>
      <trkpt lat="45.06584" lon="4.89052">
        <ele>161.55400085449</ele>
        <time>2011-04-06T12:02:23Z</time>
      </trkpt>
      <trkpt lat="45.06584" lon="4.89051">
        <ele>161.4880065918</ele>
        <time>2011-04-06T12:02:25Z</time>
      </trkpt>
      <trkpt lat="45.06581" lon="4.8905">
        <ele>161.3630065918</ele>
        <time>2011-04-06T12:03:01Z</time>
      </trkpt>
      <trkpt lat="45.06579" lon="4.89049">
        <ele>161.38000488281</ele>
        <time>2011-04-06T12:03:02Z</time>
      </trkpt>
      <trkpt lat="45.06569" lon="4.8905">
        <ele>161.37600708008</ele>
        <time>2011-04-06T12:03:05Z</time>
      </trkpt>
      <trkpt lat="45.06545" lon="4.89056">
        <ele>160.02799987793</ele>
        <time>2011-04-06T12:03:10Z</time>
      </trkpt>
      <trkpt lat="45.0654" lon="4.89057">
        <ele>159.72799682617</ele>
        <time>2011-04-06T12:03:11Z</time>
      </trkpt>
      <trkpt lat="45.06498" lon="4.89073">
        <ele>158.87600708008</ele>
        <time>2011-04-06T12:03:18Z</time>
      </trkpt>
      <trkpt lat="45.06457" lon="4.8908">
        <ele>157.65800476074</ele>
        <time>2011-04-06T12:03:24Z</time>
      </trkpt>
      <trkpt lat="45.06422" lon="4.891">
        <ele>156.18800354004</ele>
        <time>2011-04-06T12:03:29Z</time>
      </trkpt>
      <trkpt lat="45.06404" lon="4.89122">
        <ele>155.65299987793</ele>
        <time>2011-04-06T12:03:32Z</time>
      </trkpt>
      <trkpt lat="45.06375" lon="4.89141">
        <ele>154.89199829102</ele>
        <time>2011-04-06T12:03:36Z</time>
      </trkpt>
      <trkpt lat="45.06325" lon="4.89148">
        <ele>153.64100646973</ele>
        <time>2011-04-06T12:03:42Z</time>
      </trkpt>
      <trkpt lat="45.0626" lon="4.89154">
        <ele>152.78399658203</ele>
        <time>2011-04-06T12:03:50Z</time>
      </trkpt>
      <trkpt lat="45.06207" lon="4.8916">
        <ele>152.66600036621</ele>
        <time>2011-04-06T12:03:57Z</time>
      </trkpt>
      <trkpt lat="45.06164" lon="4.89165">
        <ele>153</ele>
        <time>2011-04-06T12:04:03Z</time>
      </trkpt>
      <trkpt lat="45.06129" lon="4.89167">
        <ele>153.15899658203</ele>
        <time>2011-04-06T12:04:08Z</time>
      </trkpt>
      <trkpt lat="45.06072" lon="4.89172">
        <ele>152.89399719238</ele>
        <time>2011-04-06T12:04:16Z</time>
      </trkpt>
      <trkpt lat="45.06051" lon="4.89174">
        <ele>152.93699645996</ele>
        <time>2011-04-06T12:04:19Z</time>
      </trkpt>
      <trkpt lat="45.06037" lon="4.89175">
        <ele>152.86099243164</ele>
        <time>2011-04-06T12:04:21Z</time>
      </trkpt>
      <trkpt lat="45.05978" lon="4.89179">
        <ele>152.96699523926</ele>
        <time>2011-04-06T12:04:29Z</time>
      </trkpt>
      <trkpt lat="45.05941" lon="4.8918">
        <ele>152.50399780273</ele>
        <time>2011-04-06T12:04:34Z</time>
      </trkpt>
      <trkpt lat="45.05895" lon="4.89168">
        <ele>152.10000610352</ele>
        <time>2011-04-06T12:04:40Z</time>
      </trkpt>
      <trkpt lat="45.05836" lon="4.89145">
        <ele>152.00100708008</ele>
        <time>2011-04-06T12:04:48Z</time>
      </trkpt>
      <trkpt lat="45.05764" lon="4.89121">
        <ele>152.40100097656</ele>
        <time>2011-04-06T12:04:58Z</time>
      </trkpt>
      <trkpt lat="45.05698" lon="4.89091">
        <ele>152.22200012207</ele>
        <time>2011-04-06T12:05:07Z</time>
      </trkpt>
      <trkpt lat="45.05629" lon="4.8904">
        <ele>152.07600402832</ele>
        <time>2011-04-06T12:05:17Z</time>
      </trkpt>
      <trkpt lat="45.05589" lon="4.89008">
        <ele>152.33200073242</ele>
        <time>2011-04-06T12:05:23Z</time>
      </trkpt>
      <trkpt lat="45.05529" lon="4.88971">
        <ele>151.13900756836</ele>
        <time>2011-04-06T12:05:31Z</time>
      </trkpt>
      <trkpt lat="45.05462" lon="4.88934">
        <ele>151.00999450684</ele>
        <time>2011-04-06T12:05:40Z</time>
      </trkpt>
      <trkpt lat="45.05397" lon="4.88901">
        <ele>151.57200622559</ele>
        <time>2011-04-06T12:05:49Z</time>
      </trkpt>
      <trkpt lat="45.05341" lon="4.88873">
        <ele>151.48500061035</ele>
        <time>2011-04-06T12:05:57Z</time>
      </trkpt>
      <trkpt lat="45.05283" lon="4.88859">
        <ele>151.74000549316</ele>
        <time>2011-04-06T12:06:05Z</time>
      </trkpt>
      <trkpt lat="45.05217" lon="4.88849">
        <ele>151.45199584961</ele>
        <time>2011-04-06T12:06:14Z</time>
      </trkpt>
      <trkpt lat="45.05149" lon="4.88837">
        <ele>151.39999389648</ele>
        <time>2011-04-06T12:06:23Z</time>
      </trkpt>
      <trkpt lat="45.0508" lon="4.88827">
        <ele>150.82499694824</ele>
        <time>2011-04-06T12:06:32Z</time>
      </trkpt>
      <trkpt lat="45.0502" lon="4.88819">
        <ele>150.41700744629</ele>
        <time>2011-04-06T12:06:40Z</time>
      </trkpt>
      <trkpt lat="45.0496" lon="4.88804">
        <ele>150.61700439453</ele>
        <time>2011-04-06T12:06:48Z</time>
      </trkpt>
      <trkpt lat="45.04899" lon="4.88788">
        <ele>150.32899475098</ele>
        <time>2011-04-06T12:06:56Z</time>
      </trkpt>
      <trkpt lat="45.04826" lon="4.88771">
        <ele>151.56799316406</ele>
        <time>2011-04-06T12:07:06Z</time>
      </trkpt>
      <trkpt lat="45.04759" lon="4.88756">
        <ele>152.0059967041</ele>
        <time>2011-04-06T12:07:15Z</time>
      </trkpt>
      <trkpt lat="45.04674" lon="4.88732">
        <ele>151.63000488281</ele>
        <time>2011-04-06T12:07:26Z</time>
      </trkpt>
      <trkpt lat="45.04597" lon="4.88713">
        <ele>151.53900146484</ele>
        <time>2011-04-06T12:07:36Z</time>
      </trkpt>
      <trkpt lat="45.04527" lon="4.88704">
        <ele>151.73500061035</ele>
        <time>2011-04-06T12:07:45Z</time>
      </trkpt>
      <trkpt lat="45.04442" lon="4.88697">
        <ele>151.75799560547</ele>
        <time>2011-04-06T12:07:56Z</time>
      </trkpt>
      <trkpt lat="45.04369" lon="4.88693">
        <ele>150.79800415039</ele>
        <time>2011-04-06T12:08:05Z</time>
      </trkpt>
      <trkpt lat="45.04306" lon="4.88694">
        <ele>150.20899963379</ele>
        <time>2011-04-06T12:08:13Z</time>
      </trkpt>
      <trkpt lat="45.04251" lon="4.88692">
        <ele>150.2619934082</ele>
        <time>2011-04-06T12:08:20Z</time>
      </trkpt>
      <trkpt lat="45.04222" lon="4.88691">
        <ele>150.56100463867</ele>
        <time>2011-04-06T12:08:24Z</time>
      </trkpt>
      <trkpt lat="45.04153" lon="4.88688">
        <ele>151.00700378418</ele>
        <time>2011-04-06T12:08:33Z</time>
      </trkpt>
      <trkpt lat="45.04099" lon="4.88685">
        <ele>149.59599304199</ele>
        <time>2011-04-06T12:08:40Z</time>
      </trkpt>
      <trkpt lat="45.04047" lon="4.88683">
        <ele>149.56199645996</ele>
        <time>2011-04-06T12:08:47Z</time>
      </trkpt>
      <trkpt lat="45.03999" lon="4.88683">
        <ele>149.42399597168</ele>
        <time>2011-04-06T12:08:54Z</time>
      </trkpt>
      <trkpt lat="45.03967" lon="4.88692">
        <ele>149.79800415039</ele>
        <time>2011-04-06T12:08:59Z</time>
      </trkpt>
      <trkpt lat="45.0395" lon="4.88681">
        <ele>150.30400085449</ele>
        <time>2011-04-06T12:09:02Z</time>
      </trkpt>
      <trkpt lat="45.03944" lon="4.88678">
        <ele>150.58200073242</ele>
        <time>2011-04-06T12:09:03Z</time>
      </trkpt>
      <trkpt lat="45.03908" lon="4.88652">
        <ele>150.02600097656</ele>
        <time>2011-04-06T12:09:09Z</time>
      </trkpt>
      <trkpt lat="45.03853" lon="4.88598">
        <ele>149.84100341797</ele>
        <time>2011-04-06T12:09:18Z</time>
      </trkpt>
      <trkpt lat="45.03809" lon="4.88557">
        <ele>150.37199401856</ele>
        <time>2011-04-06T12:09:25Z</time>
      </trkpt>
      <trkpt lat="45.03741" lon="4.88494">
        <ele>150.87800598144</ele>
        <time>2011-04-06T12:09:36Z</time>
      </trkpt>
      <trkpt lat="45.03675" lon="4.88433">
        <ele>151.51400756836</ele>
        <time>2011-04-06T12:09:47Z</time>
      </trkpt>
      <trkpt lat="45.03633" lon="4.88392">
        <ele>151.5359954834</ele>
        <time>2011-04-06T12:09:54Z</time>
      </trkpt>
      <trkpt lat="45.03572" lon="4.88339">
        <ele>150.89599609375</ele>
        <time>2011-04-06T12:10:04Z</time>
      </trkpt>
      <trkpt lat="45.03515" lon="4.88293">
        <ele>150.33200073242</ele>
        <time>2011-04-06T12:10:13Z</time>
      </trkpt>
      <trkpt lat="45.03441" lon="4.88243">
        <ele>150.53199768066</ele>
        <time>2011-04-06T12:10:24Z</time>
      </trkpt>
      <trkpt lat="45.03375" lon="4.88201">
        <ele>150.34700012207</ele>
        <time>2011-04-06T12:10:34Z</time>
      </trkpt>
      <trkpt lat="45.03313" lon="4.88151">
        <ele>150.04699707031</ele>
        <time>2011-04-06T12:10:44Z</time>
      </trkpt>
      <trkpt lat="45.03242" lon="4.88099">
        <ele>149.71499633789</ele>
        <time>2011-04-06T12:10:55Z</time>
      </trkpt>
      <trkpt lat="45.03192" lon="4.88064">
        <ele>148.74800109863</ele>
        <time>2011-04-06T12:11:03Z</time>
      </trkpt>
      <trkpt lat="45.03143" lon="4.88022">
        <ele>148.79899597168</ele>
        <time>2011-04-06T12:11:11Z</time>
      </trkpt>
      <trkpt lat="45.031" lon="4.87984">
        <ele>148.4640045166</ele>
        <time>2011-04-06T12:11:18Z</time>
      </trkpt>
      <trkpt lat="45.0304" lon="4.87943">
        <ele>148.30299377441</ele>
        <time>2011-04-06T12:11:27Z</time>
      </trkpt>
      <trkpt lat="45.02987" lon="4.87909">
        <ele>147.77099609375</ele>
        <time>2011-04-06T12:11:35Z</time>
      </trkpt>
      <trkpt lat="45.02964" lon="4.87888">
        <ele>147.13499450684</ele>
        <time>2011-04-06T12:11:39Z</time>
      </trkpt>
      <trkpt lat="45.02934" lon="4.87836">
        <ele>147.39599609375</ele>
        <time>2011-04-06T12:11:46Z</time>
      </trkpt>
      <trkpt lat="45.0291" lon="4.87794">
        <ele>147.80200195312</ele>
        <time>2011-04-06T12:11:52Z</time>
      </trkpt>
      <trkpt lat="45.02885" lon="4.87752">
        <ele>147.85800170898</ele>
        <time>2011-04-06T12:11:58Z</time>
      </trkpt>
      <trkpt lat="45.02858" lon="4.87701">
        <ele>148.6369934082</ele>
        <time>2011-04-06T12:12:05Z</time>
      </trkpt>
      <trkpt lat="45.02827" lon="4.87629">
        <ele>148.30099487305</ele>
        <time>2011-04-06T12:12:14Z</time>
      </trkpt>
      <trkpt lat="45.02796" lon="4.87558">
        <ele>148.83700561523</ele>
        <time>2011-04-06T12:12:23Z</time>
      </trkpt>
      <trkpt lat="45.02784" lon="4.87532">
        <ele>150.42900085449</ele>
        <time>2011-04-06T12:12:28Z</time>
      </trkpt>
      <trkpt lat="45.02779" lon="4.87519">
        <ele>150.97300720215</ele>
        <time>2011-04-06T12:12:30Z</time>
      </trkpt>
      <trkpt lat="45.02758" lon="4.87477">
        <ele>151.11700439453</ele>
        <time>2011-04-06T12:12:36Z</time>
      </trkpt>
      <trkpt lat="45.02737" lon="4.8743">
        <ele>149.73399353027</ele>
        <time>2011-04-06T12:12:42Z</time>
      </trkpt>
      <trkpt lat="45.02712" lon="4.87374">
        <ele>147.08399963379</ele>
        <time>2011-04-06T12:12:48Z</time>
      </trkpt>
      <trkpt lat="45.02686" lon="4.87315">
        <ele>145.56100463867</ele>
        <time>2011-04-06T12:12:54Z</time>
      </trkpt>
      <trkpt lat="45.02664" lon="4.87259">
        <ele>145.10699462891</ele>
        <time>2011-04-06T12:13:00Z</time>
      </trkpt>
      <trkpt lat="45.0265" lon="4.87224">
        <ele>144.74200439453</ele>
        <time>2011-04-06T12:13:04Z</time>
      </trkpt>
      <trkpt lat="45.02612" lon="4.8714">
        <ele>144.90600585938</ele>
        <time>2011-04-06T12:13:14Z</time>
      </trkpt>
      <trkpt lat="45.02587" lon="4.87087">
        <ele>145.45199584961</ele>
        <time>2011-04-06T12:13:21Z</time>
      </trkpt>
      <trkpt lat="45.02563" lon="4.87023">
        <ele>146.48899841309</ele>
        <time>2011-04-06T12:13:29Z</time>
      </trkpt>
      <trkpt lat="45.02541" lon="4.86955">
        <ele>146.77900695801</ele>
        <time>2011-04-06T12:13:37Z</time>
      </trkpt>
      <trkpt lat="45.02521" lon="4.86899">
        <ele>146.8869934082</ele>
        <time>2011-04-06T12:13:44Z</time>
      </trkpt>
      <trkpt lat="45.02502" lon="4.86849">
        <ele>147.24800109863</ele>
        <time>2011-04-06T12:13:51Z</time>
      </trkpt>
      <trkpt lat="45.02497" lon="4.8683">
        <ele>147.42300415039</ele>
        <time>2011-04-06T12:13:55Z</time>
      </trkpt>
      <trkpt lat="45.02497" lon="4.86827">
        <ele>147.52799987793</ele>
        <time>2011-04-06T12:13:58Z</time>
      </trkpt>
      <trkpt lat="45.02497" lon="4.86825">
        <ele>147.35899353027</ele>
        <time>2011-04-06T12:14:08Z</time>
      </trkpt>
      <trkpt lat="45.02497" lon="4.86821">
        <ele>147.55000305176</ele>
        <time>2011-04-06T12:14:11Z</time>
      </trkpt>
      <trkpt lat="45.02487" lon="4.86806">
        <ele>147.6130065918</ele>
        <time>2011-04-06T12:14:17Z</time>
      </trkpt>
      <trkpt lat="45.02473" lon="4.86779">
        <ele>146.69500732422</ele>
        <time>2011-04-06T12:14:24Z</time>
      </trkpt>
      <trkpt lat="45.02463" lon="4.8676">
        <ele>146.42300415039</ele>
        <time>2011-04-06T12:14:29Z</time>
      </trkpt>
      <trkpt lat="45.02455" lon="4.86745">
        <ele>146.26300048828</ele>
        <time>2011-04-06T12:14:33Z</time>
      </trkpt>
      <trkpt lat="45.02453" lon="4.86741">
        <ele>146.16600036621</ele>
        <time>2011-04-06T12:14:34Z</time>
      </trkpt>
      <trkpt lat="45.02432" lon="4.86699">
        <ele>146.15600585938</ele>
        <time>2011-04-06T12:14:44Z</time>
      </trkpt>
      <trkpt lat="45.02419" lon="4.86672">
        <ele>146.06199645996</ele>
        <time>2011-04-06T12:14:50Z</time>
      </trkpt>
      <trkpt lat="45.02403" lon="4.8664">
        <ele>145.74099731445</ele>
        <time>2011-04-06T12:14:57Z</time>
      </trkpt>
      <trkpt lat="45.02386" lon="4.86607">
        <ele>145.88900756836</ele>
        <time>2011-04-06T12:15:04Z</time>
      </trkpt>
      <trkpt lat="45.02373" lon="4.86583">
        <ele>145.90800476074</ele>
        <time>2011-04-06T12:15:08Z</time>
      </trkpt>
      <trkpt lat="45.02365" lon="4.86569">
        <ele>145.8390045166</ele>
        <time>2011-04-06T12:15:10Z</time>
      </trkpt>
      <trkpt lat="45.02332" lon="4.86503">
        <ele>145.07899475098</ele>
        <time>2011-04-06T12:15:19Z</time>
      </trkpt>
      <trkpt lat="45.02293" lon="4.86425">
        <ele>144.8390045166</ele>
        <time>2011-04-06T12:15:29Z</time>
      </trkpt>
      <trkpt lat="45.02265" lon="4.8637">
        <ele>144.62399291992</ele>
        <time>2011-04-06T12:15:36Z</time>
      </trkpt>
      <trkpt lat="45.0224" lon="4.86324">
        <ele>144.69900512695</ele>
        <time>2011-04-06T12:15:42Z</time>
      </trkpt>
      <trkpt lat="45.02199" lon="4.86256">
        <ele>144.3809967041</ele>
        <time>2011-04-06T12:15:51Z</time>
      </trkpt>
      <trkpt lat="45.0217" lon="4.86192">
        <ele>142.38600158691</ele>
        <time>2011-04-06T12:15:58Z</time>
      </trkpt>
      <trkpt lat="45.02142" lon="4.86144">
        <ele>139.37899780273</ele>
        <time>2011-04-06T12:16:03Z</time>
      </trkpt>
      <trkpt lat="45.0211" lon="4.86081">
        <ele>136.78399658203</ele>
        <time>2011-04-06T12:16:09Z</time>
      </trkpt>
      <trkpt lat="45.02101" lon="4.86059">
        <ele>135.98699951172</ele>
        <time>2011-04-06T12:16:11Z</time>
      </trkpt>
      <trkpt lat="45.02083" lon="4.86015">
        <ele>134.90400695801</ele>
        <time>2011-04-06T12:16:15Z</time>
      </trkpt>
      <trkpt lat="45.02061" lon="4.85975">
        <ele>134.15800476074</ele>
        <time>2011-04-06T12:16:19Z</time>
      </trkpt>
      <trkpt lat="45.02035" lon="4.85924">
        <ele>132.94999694824</ele>
        <time>2011-04-06T12:16:24Z</time>
      </trkpt>
      <trkpt lat="45.02008" lon="4.85851">
        <ele>132.3630065918</ele>
        <time>2011-04-06T12:16:31Z</time>
      </trkpt>
      <trkpt lat="45.01998" lon="4.85821">
        <ele>132.1369934082</ele>
        <time>2011-04-06T12:16:34Z</time>
      </trkpt>
      <trkpt lat="45.01974" lon="4.85792">
        <ele>131.82699584961</ele>
        <time>2011-04-06T12:16:38Z</time>
      </trkpt>
      <trkpt lat="45.01966" lon="4.8579">
        <ele>131.83599853516</ele>
        <time>2011-04-06T12:16:39Z</time>
      </trkpt>
      <trkpt lat="45.0192" lon="4.85781">
        <ele>132.33700561523</ele>
        <time>2011-04-06T12:16:45Z</time>
      </trkpt>
      <trkpt lat="45.01881" lon="4.85773">
        <ele>132.46499633789</ele>
        <time>2011-04-06T12:16:50Z</time>
      </trkpt>
      <trkpt lat="45.01851" lon="4.85767">
        <ele>132.77499389648</ele>
        <time>2011-04-06T12:16:54Z</time>
      </trkpt>
      <trkpt lat="45.01829" lon="4.85762">
        <ele>133.23199462891</ele>
        <time>2011-04-06T12:16:57Z</time>
      </trkpt>
      <trkpt lat="45.01778" lon="4.85752">
        <ele>133.64399719238</ele>
        <time>2011-04-06T12:17:04Z</time>
      </trkpt>
      <trkpt lat="45.01727" lon="4.85744">
        <ele>134.46899414062</ele>
        <time>2011-04-06T12:17:11Z</time>
      </trkpt>
      <trkpt lat="45.01688" lon="4.85748">
        <ele>136.17799377441</ele>
        <time>2011-04-06T12:17:17Z</time>
      </trkpt>
      <trkpt lat="45.01642" lon="4.85755">
        <ele>138.75500488281</ele>
        <time>2011-04-06T12:17:25Z</time>
      </trkpt>
      <trkpt lat="45.01611" lon="4.8576">
        <ele>140.01699829102</ele>
        <time>2011-04-06T12:17:31Z</time>
      </trkpt>
      <trkpt lat="45.016" lon="4.85761">
        <ele>140.15100097656</ele>
        <time>2011-04-06T12:17:33Z</time>
      </trkpt>
      <trkpt lat="45.01571" lon="4.85749">
        <ele>139.29699707031</ele>
        <time>2011-04-06T12:17:38Z</time>
      </trkpt>
      <trkpt lat="45.01562" lon="4.85724">
        <ele>138.47300720215</ele>
        <time>2011-04-06T12:17:41Z</time>
      </trkpt>
      <trkpt lat="45.01556" lon="4.85682">
        <ele>137.63600158691</ele>
        <time>2011-04-06T12:17:45Z</time>
      </trkpt>
      <trkpt lat="45.01556" lon="4.85649">
        <ele>136.54800415039</ele>
        <time>2011-04-06T12:17:48Z</time>
      </trkpt>
      <trkpt lat="45.01546" lon="4.85606">
        <ele>135.10299682617</ele>
        <time>2011-04-06T12:17:52Z</time>
      </trkpt>
      <trkpt lat="45.01529" lon="4.85547">
        <ele>133.13000488281</ele>
        <time>2011-04-06T12:17:57Z</time>
      </trkpt>
      <trkpt lat="45.01511" lon="4.85499">
        <ele>131.39599609375</ele>
        <time>2011-04-06T12:18:01Z</time>
      </trkpt>
      <trkpt lat="45.01502" lon="4.85476">
        <ele>131.27200317383</ele>
        <time>2011-04-06T12:18:03Z</time>
      </trkpt>
      <trkpt lat="45.01498" lon="4.85465">
        <ele>131.33599853516</ele>
        <time>2011-04-06T12:18:04Z</time>
      </trkpt>
      <trkpt lat="45.01488" lon="4.85437">
        <ele>132.06700134277</ele>
        <time>2011-04-06T12:18:07Z</time>
      </trkpt>
      <trkpt lat="45.01481" lon="4.85421">
        <ele>132.70799255371</ele>
        <time>2011-04-06T12:18:09Z</time>
      </trkpt>
      <trkpt lat="45.01447" lon="4.85331">
        <ele>133.27099609375</ele>
        <time>2011-04-06T12:18:20Z</time>
      </trkpt>
      <trkpt lat="45.01414" lon="4.85248">
        <ele>131.82000732422</ele>
        <time>2011-04-06T12:18:29Z</time>
      </trkpt>
      <trkpt lat="45.01386" lon="4.85176">
        <ele>129.05299377441</ele>
        <time>2011-04-06T12:18:36Z</time>
      </trkpt>
      <trkpt lat="45.01373" lon="4.85142">
        <ele>127.63800048828</ele>
        <time>2011-04-06T12:18:39Z</time>
      </trkpt>
      <trkpt lat="45.0136" lon="4.85106">
        <ele>126.31400299072</ele>
        <time>2011-04-06T12:18:42Z</time>
      </trkpt>
      <trkpt lat="45.01351" lon="4.85081">
        <ele>125.70500183106</ele>
        <time>2011-04-06T12:18:44Z</time>
      </trkpt>
      <trkpt lat="45.0133" lon="4.85008">
        <ele>125.15899658203</ele>
        <time>2011-04-06T12:18:50Z</time>
      </trkpt>
      <trkpt lat="45.01314" lon="4.8495">
        <ele>124.89199829102</ele>
        <time>2011-04-06T12:18:55Z</time>
      </trkpt>
      <trkpt lat="45.01309" lon="4.84916">
        <ele>124.89099884033</ele>
        <time>2011-04-06T12:18:58Z</time>
      </trkpt>
      <trkpt lat="45.01297" lon="4.84877">
        <ele>124.67099761963</ele>
        <time>2011-04-06T12:19:02Z</time>
      </trkpt>
      <trkpt lat="45.01269" lon="4.84804">
        <ele>124.55400085449</ele>
        <time>2011-04-06T12:19:10Z</time>
      </trkpt>
      <trkpt lat="45.01265" lon="4.84795">
        <ele>124.49900054932</ele>
        <time>2011-04-06T12:19:11Z</time>
      </trkpt>
      <trkpt lat="45.01244" lon="4.84766">
        <ele>124.93000030518</ele>
        <time>2011-04-06T12:19:15Z</time>
      </trkpt>
      <trkpt lat="45.01197" lon="4.84711">
        <ele>124.3690032959</ele>
        <time>2011-04-06T12:19:23Z</time>
      </trkpt>
      <trkpt lat="45.0113" lon="4.84629">
        <ele>124.02600097656</ele>
        <time>2011-04-06T12:19:35Z</time>
      </trkpt>
      <trkpt lat="45.01097" lon="4.84578">
        <ele>124.23400115967</ele>
        <time>2011-04-06T12:19:42Z</time>
      </trkpt>
      <trkpt lat="45.0109" lon="4.84543">
        <ele>124.11499786377</ele>
        <time>2011-04-06T12:19:46Z</time>
      </trkpt>
      <trkpt lat="45.01086" lon="4.84527">
        <ele>124.31300354004</ele>
        <time>2011-04-06T12:19:48Z</time>
      </trkpt>
      <trkpt lat="45.01078" lon="4.84506">
        <ele>124.01899719238</ele>
        <time>2011-04-06T12:19:53Z</time>
      </trkpt>
      <trkpt lat="45.01078" lon="4.84495">
        <ele>123.63899993897</ele>
        <time>2011-04-06T12:19:58Z</time>
      </trkpt>
      <trkpt lat="45.01078" lon="4.84495">
        <ele>123.62899780273</ele>
        <time>2011-04-06T12:19:59Z</time>
      </trkpt>
      <trkpt lat="45.01078" lon="4.84491">
        <ele>123.41400146484</ele>
        <time>2011-04-06T12:20:08Z</time>
      </trkpt>
      <trkpt lat="45.01077" lon="4.8448">
        <ele>123.41500091553</ele>
        <time>2011-04-06T12:20:11Z</time>
      </trkpt>
      <trkpt lat="45.01077" lon="4.84439">
        <ele>122.79599761963</ele>
        <time>2011-04-06T12:20:17Z</time>
      </trkpt>
      <trkpt lat="45.01079" lon="4.84379">
        <ele>123.13800048828</ele>
        <time>2011-04-06T12:20:24Z</time>
      </trkpt>
      <trkpt lat="45.01081" lon="4.84321">
        <ele>122.85600280762</ele>
        <time>2011-04-06T12:20:30Z</time>
      </trkpt>
      <trkpt lat="45.01083" lon="4.84251">
        <ele>122.87699890137</ele>
        <time>2011-04-06T12:20:37Z</time>
      </trkpt>
      <trkpt lat="45.0108" lon="4.84221">
        <ele>123.08599853516</ele>
        <time>2011-04-06T12:20:40Z</time>
      </trkpt>
      <trkpt lat="45.01082" lon="4.84182">
        <ele>123.14499664307</ele>
        <time>2011-04-06T12:20:44Z</time>
      </trkpt>
      <trkpt lat="45.01075" lon="4.84166">
        <ele>123.09600067139</ele>
        <time>2011-04-06T12:20:46Z</time>
      </trkpt>
      <trkpt lat="45.01049" lon="4.84144">
        <ele>123.87100219727</ele>
        <time>2011-04-06T12:20:51Z</time>
      </trkpt>
      <trkpt lat="45.01043" lon="4.84143">
        <ele>124.11399841309</ele>
        <time>2011-04-06T12:20:52Z</time>
      </trkpt>
      <trkpt lat="45.01017" lon="4.84126">
        <ele>125.83499908447</ele>
        <time>2011-04-06T12:20:57Z</time>
      </trkpt>
      <trkpt lat="45.01014" lon="4.84104">
        <ele>127.29499816894</ele>
        <time>2011-04-06T12:21:00Z</time>
      </trkpt>
      <trkpt lat="45.01014" lon="4.84097">
        <ele>127.45899963379</ele>
        <time>2011-04-06T12:21:01Z</time>
      </trkpt>
      <trkpt lat="45.0102" lon="4.8405">
        <ele>128.13000488281</ele>
        <time>2011-04-06T12:21:07Z</time>
      </trkpt>
      <trkpt lat="45.01028" lon="4.83997">
        <ele>128.43899536133</ele>
        <time>2011-04-06T12:21:13Z</time>
      </trkpt>
      <trkpt lat="45.0104" lon="4.83931">
        <ele>128.08399963379</ele>
        <time>2011-04-06T12:21:20Z</time>
      </trkpt>
      <trkpt lat="45.01056" lon="4.83831">
        <ele>128.02000427246</ele>
        <time>2011-04-06T12:21:30Z</time>
      </trkpt>
      <trkpt lat="45.01069" lon="4.83763">
        <ele>125.80300140381</ele>
        <time>2011-04-06T12:21:36Z</time>
      </trkpt>
      <trkpt lat="45.01073" lon="4.83751">
        <ele>125.53900146484</ele>
        <time>2011-04-06T12:21:37Z</time>
      </trkpt>
      <trkpt lat="45.01091" lon="4.83708">
        <ele>125.22899627685</ele>
        <time>2011-04-06T12:21:41Z</time>
      </trkpt>
      <trkpt lat="45.01125" lon="4.83647">
        <ele>124.90100097656</ele>
        <time>2011-04-06T12:21:48Z</time>
      </trkpt>
      <trkpt lat="45.01155" lon="4.83597">
        <ele>124.23600006103</ele>
        <time>2011-04-06T12:21:54Z</time>
      </trkpt>
      <trkpt lat="45.01189" lon="4.83572">
        <ele>124.20700073242</ele>
        <time>2011-04-06T12:21:59Z</time>
      </trkpt>
      <trkpt lat="45.0122" lon="4.83572">
        <ele>122.99500274658</ele>
        <time>2011-04-06T12:22:03Z</time>
      </trkpt>
      <trkpt lat="45.01235" lon="4.83578">
        <ele>122.702003479</ele>
        <time>2011-04-06T12:22:05Z</time>
      </trkpt>
      <trkpt lat="45.01301" lon="4.83611">
        <ele>122.66000366211</ele>
        <time>2011-04-06T12:22:14Z</time>
      </trkpt>
      <trkpt lat="45.01388" lon="4.83656">
        <ele>122.37699890137</ele>
        <time>2011-04-06T12:22:26Z</time>
      </trkpt>
      <trkpt lat="45.01454" lon="4.83689">
        <ele>122.13500213623</ele>
        <time>2011-04-06T12:22:35Z</time>
      </trkpt>
      <trkpt lat="45.01485" lon="4.83697">
        <ele>123.83399963379</ele>
        <time>2011-04-06T12:22:39Z</time>
      </trkpt>
      <trkpt lat="45.01531" lon="4.83694">
        <ele>123.37999725342</ele>
        <time>2011-04-06T12:22:45Z</time>
      </trkpt>
      <trkpt lat="45.01568" lon="4.83675">
        <ele>123.27700042725</ele>
        <time>2011-04-06T12:22:50Z</time>
      </trkpt>
      <trkpt lat="45.01632" lon="4.83635">
        <ele>123.21299743652</ele>
        <time>2011-04-06T12:22:59Z</time>
      </trkpt>
      <trkpt lat="45.01691" lon="4.83606">
        <ele>122.96299743652</ele>
        <time>2011-04-06T12:23:07Z</time>
      </trkpt>
      <trkpt lat="45.01754" lon="4.83573">
        <ele>123.99500274658</ele>
        <time>2011-04-06T12:23:16Z</time>
      </trkpt>
      <trkpt lat="45.01829" lon="4.83525">
        <ele>124.41799926758</ele>
        <time>2011-04-06T12:23:27Z</time>
      </trkpt>
      <trkpt lat="45.01868" lon="4.83488">
        <ele>124.74500274658</ele>
        <time>2011-04-06T12:23:33Z</time>
      </trkpt>
      <trkpt lat="45.019" lon="4.83443">
        <ele>124.85399627685</ele>
        <time>2011-04-06T12:23:39Z</time>
      </trkpt>
      <trkpt lat="45.01918" lon="4.83409">
        <ele>126.62000274658</ele>
        <time>2011-04-06T12:23:44Z</time>
      </trkpt>
      <trkpt lat="45.01936" lon="4.83376">
        <ele>125.15299987793</ele>
        <time>2011-04-06T12:23:49Z</time>
      </trkpt>
      <trkpt lat="45.01945" lon="4.83355">
        <ele>124.53399658203</ele>
        <time>2011-04-06T12:23:53Z</time>
      </trkpt>
      <trkpt lat="45.01938" lon="4.8334">
        <ele>124.24099731445</ele>
        <time>2011-04-06T12:23:57Z</time>
      </trkpt>
      <trkpt lat="45.01933" lon="4.83338">
        <ele>124.02400207519</ele>
        <time>2011-04-06T12:23:58Z</time>
      </trkpt>
      <trkpt lat="45.01892" lon="4.83324">
        <ele>124.64399719238</ele>
        <time>2011-04-06T12:24:05Z</time>
      </trkpt>
      <trkpt lat="45.01836" lon="4.83306">
        <ele>126.13200378418</ele>
        <time>2011-04-06T12:24:14Z</time>
      </trkpt>
      <trkpt lat="45.01777" lon="4.83299">
        <ele>127.34300231934</ele>
        <time>2011-04-06T12:24:23Z</time>
      </trkpt>
      <trkpt lat="45.01714" lon="4.83303">
        <ele>127.26999664307</ele>
        <time>2011-04-06T12:24:32Z</time>
      </trkpt>
      <trkpt lat="45.01659" lon="4.83308">
        <ele>126.52200317383</ele>
        <time>2011-04-06T12:24:39Z</time>
      </trkpt>
      <trkpt lat="45.01597" lon="4.83318">
        <ele>124.99299621582</ele>
        <time>2011-04-06T12:24:46Z</time>
      </trkpt>
      <trkpt lat="45.01567" lon="4.83324">
        <ele>123.72299957275</ele>
        <time>2011-04-06T12:24:49Z</time>
      </trkpt>
      <trkpt lat="45.01505" lon="4.83329">
        <ele>122.33599853516</ele>
        <time>2011-04-06T12:24:55Z</time>
      </trkpt>
      <trkpt lat="45.01413" lon="4.83319">
        <ele>122.49099731445</ele>
        <time>2011-04-06T12:25:04Z</time>
      </trkpt>
      <trkpt lat="45.0134" lon="4.8331">
        <ele>124.2379989624</ele>
        <time>2011-04-06T12:25:12Z</time>
      </trkpt>
      <trkpt lat="45.01285" lon="4.83306">
        <ele>126.33000183106</ele>
        <time>2011-04-06T12:25:19Z</time>
      </trkpt>
      <trkpt lat="45.0124" lon="4.83312">
        <ele>127.8690032959</ele>
        <time>2011-04-06T12:25:25Z</time>
      </trkpt>
      <trkpt lat="45.01156" lon="4.83333">
        <ele>129.18499755859</ele>
        <time>2011-04-06T12:25:36Z</time>
      </trkpt>
      <trkpt lat="45.01092" lon="4.83351">
        <ele>130.47599792481</ele>
        <time>2011-04-06T12:25:44Z</time>
      </trkpt>
      <trkpt lat="45.0106" lon="4.83357">
        <ele>131.46499633789</ele>
        <time>2011-04-06T12:25:48Z</time>
      </trkpt>
      <trkpt lat="45.00996" lon="4.83359">
        <ele>132.88299560547</ele>
        <time>2011-04-06T12:25:56Z</time>
      </trkpt>
      <trkpt lat="45.00948" lon="4.83348">
        <ele>133.57600402832</ele>
        <time>2011-04-06T12:26:02Z</time>
      </trkpt>
      <trkpt lat="45.00893" lon="4.8334">
        <ele>135.14599609375</ele>
        <time>2011-04-06T12:26:09Z</time>
      </trkpt>
      <trkpt lat="45.00839" lon="4.83351">
        <ele>136.11199951172</ele>
        <time>2011-04-06T12:26:16Z</time>
      </trkpt>
      <trkpt lat="45.00782" lon="4.83369">
        <ele>135.64900207519</ele>
        <time>2011-04-06T12:26:23Z</time>
      </trkpt>
      <trkpt lat="45.00702" lon="4.83399">
        <ele>134.47399902344</ele>
        <time>2011-04-06T12:26:32Z</time>
      </trkpt>
      <trkpt lat="45.00627" lon="4.83428">
        <ele>134.41799926758</ele>
        <time>2011-04-06T12:26:40Z</time>
      </trkpt>
      <trkpt lat="45.00563" lon="4.83465">
        <ele>133.33000183106</ele>
        <time>2011-04-06T12:26:47Z</time>
      </trkpt>
      <trkpt lat="45.00522" lon="4.83504">
        <ele>132.31599426269</ele>
        <time>2011-04-06T12:26:52Z</time>
      </trkpt>
      <trkpt lat="45.0048" lon="4.83567">
        <ele>131.1549987793</ele>
        <time>2011-04-06T12:26:58Z</time>
      </trkpt>
      <trkpt lat="45.00421" lon="4.83683">
        <ele>129.67300415039</ele>
        <time>2011-04-06T12:27:08Z</time>
      </trkpt>
      <trkpt lat="45.00363" lon="4.83797">
        <ele>129.72099304199</ele>
        <time>2011-04-06T12:27:18Z</time>
      </trkpt>
      <trkpt lat="45.00314" lon="4.83878">
        <ele>129.82800292969</ele>
        <time>2011-04-06T12:27:26Z</time>
      </trkpt>
      <trkpt lat="45.00263" lon="4.83937">
        <ele>130.10800170898</ele>
        <time>2011-04-06T12:27:33Z</time>
      </trkpt>
      <trkpt lat="45.00211" lon="4.83975">
        <ele>129.55400085449</ele>
        <time>2011-04-06T12:27:39Z</time>
      </trkpt>
      <trkpt lat="45.00157" lon="4.83998">
        <ele>129.24099731445</ele>
        <time>2011-04-06T12:27:45Z</time>
      </trkpt>
      <trkpt lat="45.00077" lon="4.84026">
        <ele>129.01100158691</ele>
        <time>2011-04-06T12:27:54Z</time>
      </trkpt>
      <trkpt lat="45.00017" lon="4.84047">
        <ele>129.52000427246</ele>
        <time>2011-04-06T12:28:01Z</time>
      </trkpt>
      <trkpt lat="44.99953" lon="4.84072">
        <ele>130.38900756836</ele>
        <time>2011-04-06T12:28:09Z</time>
      </trkpt>
      <trkpt lat="44.99888" lon="4.84102">
        <ele>131.56700134277</ele>
        <time>2011-04-06T12:28:18Z</time>
      </trkpt>
      <trkpt lat="44.99842" lon="4.84133">
        <ele>132.50399780273</ele>
        <time>2011-04-06T12:28:25Z</time>
      </trkpt>
      <trkpt lat="44.99783" lon="4.84185">
        <ele>132.60800170898</ele>
        <time>2011-04-06T12:28:34Z</time>
      </trkpt>
      <trkpt lat="44.9972" lon="4.84239">
        <ele>133.39900207519</ele>
        <time>2011-04-06T12:28:43Z</time>
      </trkpt>
      <trkpt lat="44.9968" lon="4.84272">
        <ele>133.73500061035</ele>
        <time>2011-04-06T12:28:49Z</time>
      </trkpt>
      <trkpt lat="44.99633" lon="4.84314">
        <ele>133.90600585938</ele>
        <time>2011-04-06T12:28:56Z</time>
      </trkpt>
      <trkpt lat="44.99575" lon="4.84365">
        <ele>133.0119934082</ele>
        <time>2011-04-06T12:29:04Z</time>
      </trkpt>
      <trkpt lat="44.99511" lon="4.84418">
        <ele>131.27299499512</ele>
        <time>2011-04-06T12:29:12Z</time>
      </trkpt>
      <trkpt lat="44.99451" lon="4.84469">
        <ele>128.84599304199</ele>
        <time>2011-04-06T12:29:19Z</time>
      </trkpt>
      <trkpt lat="44.99398" lon="4.84514">
        <ele>127.04900360107</ele>
        <time>2011-04-06T12:29:25Z</time>
      </trkpt>
      <trkpt lat="44.99335" lon="4.84568">
        <ele>124.297996521</ele>
        <time>2011-04-06T12:29:32Z</time>
      </trkpt>
      <trkpt lat="44.99258" lon="4.84635">
        <ele>122.84100341797</ele>
        <time>2011-04-06T12:29:40Z</time>
      </trkpt>
      <trkpt lat="44.99194" lon="4.84676">
        <ele>121.66200256348</ele>
        <time>2011-04-06T12:29:46Z</time>
      </trkpt>
      <trkpt lat="44.99129" lon="4.84698">
        <ele>121.71499633789</ele>
        <time>2011-04-06T12:29:52Z</time>
      </trkpt>
      <trkpt lat="44.99023" lon="4.84726">
        <ele>121.8450012207</ele>
        <time>2011-04-06T12:30:02Z</time>
      </trkpt>
      <trkpt lat="44.98948" lon="4.84733">
        <ele>121.50399780273</ele>
        <time>2011-04-06T12:30:09Z</time>
      </trkpt>
      <trkpt lat="44.98884" lon="4.84737">
        <ele>121.16100311279</ele>
        <time>2011-04-06T12:30:15Z</time>
      </trkpt>
      <trkpt lat="44.98819" lon="4.84737">
        <ele>121.27899932861</ele>
        <time>2011-04-06T12:30:21Z</time>
      </trkpt>
      <trkpt lat="44.98714" lon="4.84741">
        <ele>121.41200256348</ele>
        <time>2011-04-06T12:30:31Z</time>
      </trkpt>
      <trkpt lat="44.98635" lon="4.84755">
        <ele>121.52400207519</ele>
        <time>2011-04-06T12:30:39Z</time>
      </trkpt>
      <trkpt lat="44.98559" lon="4.84785">
        <ele>121.07299804688</ele>
        <time>2011-04-06T12:30:47Z</time>
      </trkpt>
      <trkpt lat="44.98476" lon="4.84824">
        <ele>120.18800354004</ele>
        <time>2011-04-06T12:30:56Z</time>
      </trkpt>
      <trkpt lat="44.98397" lon="4.84875">
        <ele>119.57399749756</ele>
        <time>2011-04-06T12:31:05Z</time>
      </trkpt>
      <trkpt lat="44.98325" lon="4.84922">
        <ele>120.01899719238</ele>
        <time>2011-04-06T12:31:13Z</time>
      </trkpt>
      <trkpt lat="44.98265" lon="4.84942">
        <ele>119.77300262451</ele>
        <time>2011-04-06T12:31:19Z</time>
      </trkpt>
      <trkpt lat="44.98189" lon="4.84967">
        <ele>121.75700378418</ele>
        <time>2011-04-06T12:31:27Z</time>
      </trkpt>
      <trkpt lat="44.98107" lon="4.84994">
        <ele>124.58000183106</ele>
        <time>2011-04-06T12:31:36Z</time>
      </trkpt>
      <trkpt lat="44.98039" lon="4.85017">
        <ele>124.08799743652</ele>
        <time>2011-04-06T12:31:44Z</time>
      </trkpt>
      <trkpt lat="44.97961" lon="4.85043">
        <ele>121.38400268555</ele>
        <time>2011-04-06T12:31:52Z</time>
      </trkpt>
      <trkpt lat="44.97879" lon="4.85071">
        <ele>121.82599639893</ele>
        <time>2011-04-06T12:32:01Z</time>
      </trkpt>
      <trkpt lat="44.97799" lon="4.85097">
        <ele>122.44499969482</ele>
        <time>2011-04-06T12:32:10Z</time>
      </trkpt>
      <trkpt lat="44.97735" lon="4.85118">
        <ele>124.2080001831</ele>
        <time>2011-04-06T12:32:17Z</time>
      </trkpt>
      <trkpt lat="44.97666" lon="4.85141">
        <ele>124.6370010376</ele>
        <time>2011-04-06T12:32:25Z</time>
      </trkpt>
      <trkpt lat="44.97609" lon="4.85159">
        <ele>122.8870010376</ele>
        <time>2011-04-06T12:32:31Z</time>
      </trkpt>
      <trkpt lat="44.97546" lon="4.85177">
        <ele>120.97799682617</ele>
        <time>2011-04-06T12:32:37Z</time>
      </trkpt>
      <trkpt lat="44.97474" lon="4.85186">
        <ele>120.87899780273</ele>
        <time>2011-04-06T12:32:44Z</time>
      </trkpt>
      <trkpt lat="44.97419" lon="4.85183">
        <ele>122.77200317383</ele>
        <time>2011-04-06T12:32:50Z</time>
      </trkpt>
      <trkpt lat="44.97351" lon="4.85177">
        <ele>124.64800262451</ele>
        <time>2011-04-06T12:32:58Z</time>
      </trkpt>
      <trkpt lat="44.97283" lon="4.85179">
        <ele>125.61000061035</ele>
        <time>2011-04-06T12:33:06Z</time>
      </trkpt>
      <trkpt lat="44.97223" lon="4.85179">
        <ele>125.90000152588</ele>
        <time>2011-04-06T12:33:13Z</time>
      </trkpt>
      <trkpt lat="44.97181" lon="4.85165">
        <ele>126.922996521</ele>
        <time>2011-04-06T12:33:18Z</time>
      </trkpt>
      <trkpt lat="44.97115" lon="4.85131">
        <ele>127.83000183106</ele>
        <time>2011-04-06T12:33:26Z</time>
      </trkpt>
      <trkpt lat="44.97035" lon="4.85088">
        <ele>130.20799255371</ele>
        <time>2011-04-06T12:33:36Z</time>
      </trkpt>
      <trkpt lat="44.9698" lon="4.8506">
        <ele>130.64900207519</ele>
        <time>2011-04-06T12:33:43Z</time>
      </trkpt>
      <trkpt lat="44.96939" lon="4.8505">
        <ele>131.83599853516</ele>
        <time>2011-04-06T12:33:48Z</time>
      </trkpt>
      <trkpt lat="44.96865" lon="4.85029">
        <ele>133.04299926758</ele>
        <time>2011-04-06T12:33:57Z</time>
      </trkpt>
      <trkpt lat="44.96782" lon="4.85004">
        <ele>133.56100463867</ele>
        <time>2011-04-06T12:34:07Z</time>
      </trkpt>
      <trkpt lat="44.96723" lon="4.84986">
        <ele>133.30900573731</ele>
        <time>2011-04-06T12:34:14Z</time>
      </trkpt>
      <trkpt lat="44.96626" lon="4.84957">
        <ele>133.07099914551</ele>
        <time>2011-04-06T12:34:25Z</time>
      </trkpt>
      <trkpt lat="44.96536" lon="4.84929">
        <ele>132.52900695801</ele>
        <time>2011-04-06T12:34:35Z</time>
      </trkpt>
      <trkpt lat="44.96456" lon="4.84905">
        <ele>132.27900695801</ele>
        <time>2011-04-06T12:34:44Z</time>
      </trkpt>
      <trkpt lat="44.96395" lon="4.84887">
        <ele>132.7619934082</ele>
        <time>2011-04-06T12:34:51Z</time>
      </trkpt>
      <trkpt lat="44.96325" lon="4.84865">
        <ele>133.49699401856</ele>
        <time>2011-04-06T12:34:59Z</time>
      </trkpt>
      <trkpt lat="44.96272" lon="4.84849">
        <ele>133.81300354004</ele>
        <time>2011-04-06T12:35:05Z</time>
      </trkpt>
      <trkpt lat="44.9622" lon="4.84832">
        <ele>133.91900634766</ele>
        <time>2011-04-06T12:35:11Z</time>
      </trkpt>
      <trkpt lat="44.96143" lon="4.8481">
        <ele>134.55299377441</ele>
        <time>2011-04-06T12:35:20Z</time>
      </trkpt>
      <trkpt lat="44.96065" lon="4.84787">
        <ele>134.9049987793</ele>
        <time>2011-04-06T12:35:29Z</time>
      </trkpt>
      <trkpt lat="44.96004" lon="4.84764">
        <ele>134.80799865723</ele>
        <time>2011-04-06T12:35:36Z</time>
      </trkpt>
      <trkpt lat="44.95948" lon="4.84749">
        <ele>134.03399658203</ele>
        <time>2011-04-06T12:35:42Z</time>
      </trkpt>
      <trkpt lat="44.959" lon="4.84736">
        <ele>133.45700073242</ele>
        <time>2011-04-06T12:35:47Z</time>
      </trkpt>
      <trkpt lat="44.95813" lon="4.84709">
        <ele>133.53300476074</ele>
        <time>2011-04-06T12:35:56Z</time>
      </trkpt>
      <trkpt lat="44.9572" lon="4.84679">
        <ele>133.32499694824</ele>
        <time>2011-04-06T12:36:06Z</time>
      </trkpt>
      <trkpt lat="44.95647" lon="4.84653">
        <ele>133.69000244141</ele>
        <time>2011-04-06T12:36:14Z</time>
      </trkpt>
      <trkpt lat="44.95567" lon="4.84622">
        <ele>133.94299316406</ele>
        <time>2011-04-06T12:36:23Z</time>
      </trkpt>
      <trkpt lat="44.95502" lon="4.84597">
        <ele>134.34599304199</ele>
        <time>2011-04-06T12:36:30Z</time>
      </trkpt>
      <trkpt lat="44.95446" lon="4.84573">
        <ele>134.56500244141</ele>
        <time>2011-04-06T12:36:36Z</time>
      </trkpt>
      <trkpt lat="44.95371" lon="4.84542">
        <ele>134.35099792481</ele>
        <time>2011-04-06T12:36:44Z</time>
      </trkpt>
      <trkpt lat="44.95288" lon="4.84508">
        <ele>134.38800048828</ele>
        <time>2011-04-06T12:36:53Z</time>
      </trkpt>
      <trkpt lat="44.95225" lon="4.84483">
        <ele>134.91900634766</ele>
        <time>2011-04-06T12:37:00Z</time>
      </trkpt>
      <trkpt lat="44.95153" lon="4.84453">
        <ele>135.48399353027</ele>
        <time>2011-04-06T12:37:08Z</time>
      </trkpt>
      <trkpt lat="44.95074" lon="4.84422">
        <ele>136.30499267578</ele>
        <time>2011-04-06T12:37:17Z</time>
      </trkpt>
      <trkpt lat="44.95001" lon="4.8439">
        <ele>136.88999938965</ele>
        <time>2011-04-06T12:37:26Z</time>
      </trkpt>
      <trkpt lat="44.94948" lon="4.84368">
        <ele>138.76699829102</ele>
        <time>2011-04-06T12:37:33Z</time>
      </trkpt>
      <trkpt lat="44.94888" lon="4.84345">
        <ele>139.82000732422</ele>
        <time>2011-04-06T12:37:41Z</time>
      </trkpt>
      <trkpt lat="44.9485" lon="4.84349">
        <ele>138.80999755859</ele>
        <time>2011-04-06T12:37:46Z</time>
      </trkpt>
      <trkpt lat="44.9482" lon="4.84359">
        <ele>138.16700744629</ele>
        <time>2011-04-06T12:37:50Z</time>
      </trkpt>
      <trkpt lat="44.94812" lon="4.84359">
        <ele>138.01899719238</ele>
        <time>2011-04-06T12:37:51Z</time>
      </trkpt>
      <trkpt lat="44.94756" lon="4.84361">
        <ele>136.30299377441</ele>
        <time>2011-04-06T12:37:58Z</time>
      </trkpt>
      <trkpt lat="44.9471" lon="4.84376">
        <ele>135.72399902344</ele>
        <time>2011-04-06T12:38:04Z</time>
      </trkpt>
      <trkpt lat="44.94689" lon="4.84384">
        <ele>136.02000427246</ele>
        <time>2011-04-06T12:38:07Z</time>
      </trkpt>
      <trkpt lat="44.94656" lon="4.84397">
        <ele>135.91499328613</ele>
        <time>2011-04-06T12:38:12Z</time>
      </trkpt>
      <trkpt lat="44.94621" lon="4.84402">
        <ele>135.43499755859</ele>
        <time>2011-04-06T12:38:17Z</time>
      </trkpt>
      <trkpt lat="44.94598" lon="4.8439">
        <ele>135</ele>
        <time>2011-04-06T12:38:21Z</time>
      </trkpt>
      <trkpt lat="44.94595" lon="4.84384">
        <ele>134.87300109863</ele>
        <time>2011-04-06T12:38:22Z</time>
      </trkpt>
      <trkpt lat="44.94571" lon="4.84334">
        <ele>134.8690032959</ele>
        <time>2011-04-06T12:38:29Z</time>
      </trkpt>
      <trkpt lat="44.94552" lon="4.84301">
        <ele>134.7140045166</ele>
        <time>2011-04-06T12:38:34Z</time>
      </trkpt>
      <trkpt lat="44.94527" lon="4.84264">
        <ele>134.0299987793</ele>
        <time>2011-04-06T12:38:40Z</time>
      </trkpt>
      <trkpt lat="44.94519" lon="4.84252">
        <ele>134.01899719238</ele>
        <time>2011-04-06T12:38:42Z</time>
      </trkpt>
      <trkpt lat="44.94496" lon="4.84228">
        <ele>134.26899719238</ele>
        <time>2011-04-06T12:38:47Z</time>
      </trkpt>
      <trkpt lat="44.94474" lon="4.84208">
        <ele>134.34100341797</ele>
        <time>2011-04-06T12:38:52Z</time>
      </trkpt>
      <trkpt lat="44.94448" lon="4.84195">
        <ele>134.39999389648</ele>
        <time>2011-04-06T12:38:57Z</time>
      </trkpt>
      <trkpt lat="44.94436" lon="4.84191">
        <ele>134.54100036621</ele>
        <time>2011-04-06T12:38:59Z</time>
      </trkpt>
      <trkpt lat="44.94424" lon="4.84188">
        <ele>134.71099853516</ele>
        <time>2011-04-06T12:39:01Z</time>
      </trkpt>
      <trkpt lat="44.94405" lon="4.84176">
        <ele>134.75399780273</ele>
        <time>2011-04-06T12:39:05Z</time>
      </trkpt>
      <trkpt lat="44.94396" lon="4.84167">
        <ele>135.01499938965</ele>
        <time>2011-04-06T12:39:07Z</time>
      </trkpt>
      <trkpt lat="44.94379" lon="4.84139">
        <ele>136.28100585938</ele>
        <time>2011-04-06T12:39:12Z</time>
      </trkpt>
      <trkpt lat="44.94353" lon="4.84113">
        <ele>137.52000427246</ele>
        <time>2011-04-06T12:39:18Z</time>
      </trkpt>
      <trkpt lat="44.94321" lon="4.8408">
        <ele>138.28799438477</ele>
        <time>2011-04-06T12:39:24Z</time>
      </trkpt>
      <trkpt lat="44.9428" lon="4.84044">
        <ele>139.25700378418</ele>
        <time>2011-04-06T12:39:32Z</time>
      </trkpt>
      <trkpt lat="44.94249" lon="4.84016">
        <ele>140.67999267578</ele>
        <time>2011-04-06T12:39:38Z</time>
      </trkpt>
      <trkpt lat="44.94223" lon="4.83981">
        <ele>142.06399536133</ele>
        <time>2011-04-06T12:39:44Z</time>
      </trkpt>
      <trkpt lat="44.94198" lon="4.83942">
        <ele>143.08700561523</ele>
        <time>2011-04-06T12:39:50Z</time>
      </trkpt>
      <trkpt lat="44.9417" lon="4.83908">
        <ele>145.05900573731</ele>
        <time>2011-04-06T12:39:56Z</time>
      </trkpt>
      <trkpt lat="44.94139" lon="4.8388">
        <ele>146.65400695801</ele>
        <time>2011-04-06T12:40:02Z</time>
      </trkpt>
      <trkpt lat="44.94111" lon="4.83841">
        <ele>148.79100036621</ele>
        <time>2011-04-06T12:40:09Z</time>
      </trkpt>
      <trkpt lat="44.94094" lon="4.83813">
        <ele>150.36599731445</ele>
        <time>2011-04-06T12:40:14Z</time>
      </trkpt>
      <trkpt lat="44.94081" lon="4.83789">
        <ele>151.50799560547</ele>
        <time>2011-04-06T12:40:20Z</time>
      </trkpt>
      <trkpt lat="44.94072" lon="4.83777">
        <ele>152.02200317383</ele>
        <time>2011-04-06T12:40:26Z</time>
      </trkpt>
      <trkpt lat="44.94062" lon="4.83767">
        <ele>152.04800415039</ele>
        <time>2011-04-06T12:40:30Z</time>
      </trkpt>
      <trkpt lat="44.94057" lon="4.83763">
        <ele>151.95300292969</ele>
        <time>2011-04-06T12:40:31Z</time>
      </trkpt>
      <trkpt lat="44.94028" lon="4.83739">
        <ele>151.06599426269</ele>
        <time>2011-04-06T12:40:36Z</time>
      </trkpt>
      <trkpt lat="44.94008" lon="4.83719">
        <ele>149.53399658203</ele>
        <time>2011-04-06T12:40:39Z</time>
      </trkpt>
      <trkpt lat="44.9398" lon="4.83692">
        <ele>147.87199401856</ele>
        <time>2011-04-06T12:40:43Z</time>
      </trkpt>
      <trkpt lat="44.93947" lon="4.83666">
        <ele>145.94799804688</ele>
        <time>2011-04-06T12:40:47Z</time>
      </trkpt>
      <trkpt lat="44.93922" lon="4.83648">
        <ele>145.33500671387</ele>
        <time>2011-04-06T12:40:50Z</time>
      </trkpt>
      <trkpt lat="44.93889" lon="4.83626">
        <ele>144.96600341797</ele>
        <time>2011-04-06T12:40:54Z</time>
      </trkpt>
      <trkpt lat="44.93854" lon="4.83593">
        <ele>144.79400634766</ele>
        <time>2011-04-06T12:40:59Z</time>
      </trkpt>
      <trkpt lat="44.93827" lon="4.83568">
        <ele>144.96099853516</ele>
        <time>2011-04-06T12:41:03Z</time>
      </trkpt>
      <trkpt lat="44.93766" lon="4.83539">
        <ele>144.7559967041</ele>
        <time>2011-04-06T12:41:11Z</time>
      </trkpt>
      <trkpt lat="44.93702" lon="4.83507">
        <ele>144.82299804688</ele>
        <time>2011-04-06T12:41:19Z</time>
      </trkpt>
      <trkpt lat="44.93656" lon="4.83483">
        <ele>144.98199462891</ele>
        <time>2011-04-06T12:41:25Z</time>
      </trkpt>
      <trkpt lat="44.9361" lon="4.83463">
        <ele>145.44500732422</ele>
        <time>2011-04-06T12:41:31Z</time>
      </trkpt>
      <trkpt lat="44.9355" lon="4.8343">
        <ele>146.05999755859</ele>
        <time>2011-04-06T12:41:39Z</time>
      </trkpt>
      <trkpt lat="44.93488" lon="4.83381">
        <ele>147.51300048828</ele>
        <time>2011-04-06T12:41:48Z</time>
      </trkpt>
      <trkpt lat="44.93441" lon="4.83346">
        <ele>147.97399902344</ele>
        <time>2011-04-06T12:41:55Z</time>
      </trkpt>
      <trkpt lat="44.93388" lon="4.83317">
        <ele>147.26400756836</ele>
        <time>2011-04-06T12:42:02Z</time>
      </trkpt>
      <trkpt lat="44.93332" lon="4.833">
        <ele>147.10099792481</ele>
        <time>2011-04-06T12:42:09Z</time>
      </trkpt>
      <trkpt lat="44.93282" lon="4.83282">
        <ele>146.72799682617</ele>
        <time>2011-04-06T12:42:15Z</time>
      </trkpt>
      <trkpt lat="44.93235" lon="4.83251">
        <ele>146.91400146484</ele>
        <time>2011-04-06T12:42:21Z</time>
      </trkpt>
      <trkpt lat="44.93193" lon="4.83209">
        <ele>147.11199951172</ele>
        <time>2011-04-06T12:42:27Z</time>
      </trkpt>
      <trkpt lat="44.93137" lon="4.8315">
        <ele>147.21499633789</ele>
        <time>2011-04-06T12:42:35Z</time>
      </trkpt>
      <trkpt lat="44.93076" lon="4.83085">
        <ele>147.86399841309</ele>
        <time>2011-04-06T12:42:44Z</time>
      </trkpt>
      <trkpt lat="44.93015" lon="4.83026">
        <ele>148.46699523926</ele>
        <time>2011-04-06T12:42:53Z</time>
      </trkpt>
      <trkpt lat="44.9296" lon="4.82979">
        <ele>149.625</ele>
        <time>2011-04-06T12:43:01Z</time>
      </trkpt>
      <trkpt lat="44.92944" lon="4.82959">
        <ele>149.37899780273</ele>
        <time>2011-04-06T12:43:04Z</time>
      </trkpt>
      <trkpt lat="44.92918" lon="4.82944">
        <ele>149.58299255371</ele>
        <time>2011-04-06T12:43:08Z</time>
      </trkpt>
      <trkpt lat="44.92898" lon="4.82956">
        <ele>149.60400390625</ele>
        <time>2011-04-06T12:43:11Z</time>
      </trkpt>
      <trkpt lat="44.92888" lon="4.82972">
        <ele>149.1549987793</ele>
        <time>2011-04-06T12:43:13Z</time>
      </trkpt>
      <trkpt lat="44.92853" lon="4.83044">
        <ele>148.63900756836</ele>
        <time>2011-04-06T12:43:21Z</time>
      </trkpt>
      <trkpt lat="44.92821" lon="4.83076">
        <ele>148.82299804688</ele>
        <time>2011-04-06T12:43:26Z</time>
      </trkpt>
      <trkpt lat="44.92778" lon="4.83102">
        <ele>149.87699890137</ele>
        <time>2011-04-06T12:43:32Z</time>
      </trkpt>
      <trkpt lat="44.92718" lon="4.83138">
        <ele>150.65699768066</ele>
        <time>2011-04-06T12:43:41Z</time>
      </trkpt>
      <trkpt lat="44.92666" lon="4.83167">
        <ele>149.64199829102</ele>
        <time>2011-04-06T12:43:48Z</time>
      </trkpt>
      <trkpt lat="44.9262" lon="4.83192">
        <ele>149.69200134277</ele>
        <time>2011-04-06T12:43:54Z</time>
      </trkpt>
      <trkpt lat="44.92589" lon="4.83195">
        <ele>149.99099731445</ele>
        <time>2011-04-06T12:43:58Z</time>
      </trkpt>
      <trkpt lat="44.92561" lon="4.83184">
        <ele>151.36099243164</ele>
        <time>2011-04-06T12:44:02Z</time>
      </trkpt>
      <trkpt lat="44.92541" lon="4.83172">
        <ele>152.68200683594</ele>
        <time>2011-04-06T12:44:05Z</time>
      </trkpt>
      <trkpt lat="44.92503" lon="4.83155">
        <ele>155.18400573731</ele>
        <time>2011-04-06T12:44:11Z</time>
      </trkpt>
      <trkpt lat="44.92461" lon="4.8315">
        <ele>158.07000732422</ele>
        <time>2011-04-06T12:44:18Z</time>
      </trkpt>
      <trkpt lat="44.92406" lon="4.83147">
        <ele>159.85400390625</ele>
        <time>2011-04-06T12:44:27Z</time>
      </trkpt>
      <trkpt lat="44.92359" lon="4.83138">
        <ele>159.52099609375</ele>
        <time>2011-04-06T12:44:34Z</time>
      </trkpt>
      <trkpt lat="44.92308" lon="4.8312">
        <ele>160.7859954834</ele>
        <time>2011-04-06T12:44:42Z</time>
      </trkpt>
      <trkpt lat="44.92239" lon="4.83103">
        <ele>161.9880065918</ele>
        <time>2011-04-06T12:44:53Z</time>
      </trkpt>
      <trkpt lat="44.9217" lon="4.83088">
        <ele>163.25999450684</ele>
        <time>2011-04-06T12:45:04Z</time>
      </trkpt>
      <trkpt lat="44.92112" lon="4.83083">
        <ele>164.41299438477</ele>
        <time>2011-04-06T12:45:13Z</time>
      </trkpt>
      <trkpt lat="44.92068" lon="4.83077">
        <ele>165.63900756836</ele>
        <time>2011-04-06T12:45:20Z</time>
      </trkpt>
      <trkpt lat="44.92015" lon="4.83055">
        <ele>167.66299438477</ele>
        <time>2011-04-06T12:45:29Z</time>
      </trkpt>
      <trkpt lat="44.91953" lon="4.83029">
        <ele>170.36099243164</ele>
        <time>2011-04-06T12:45:40Z</time>
      </trkpt>
      <trkpt lat="44.91897" lon="4.83016">
        <ele>171.22300720215</ele>
        <time>2011-04-06T12:45:49Z</time>
      </trkpt>
      <trkpt lat="44.91829" lon="4.83001">
        <ele>170.57299804688</ele>
        <time>2011-04-06T12:45:59Z</time>
      </trkpt>
      <trkpt lat="44.91782" lon="4.82995">
        <ele>168.99699401856</ele>
        <time>2011-04-06T12:46:05Z</time>
      </trkpt>
      <trkpt lat="44.9173" lon="4.82996">
        <ele>168.16900634766</ele>
        <time>2011-04-06T12:46:12Z</time>
      </trkpt>
      <trkpt lat="44.91672" lon="4.82997">
        <ele>168.94099426269</ele>
        <time>2011-04-06T12:46:20Z</time>
      </trkpt>
      <trkpt lat="44.91619" lon="4.82996">
        <ele>170.78399658203</ele>
        <time>2011-04-06T12:46:28Z</time>
      </trkpt>
      <trkpt lat="44.91572" lon="4.83001">
        <ele>173.59199523926</ele>
        <time>2011-04-06T12:46:36Z</time>
      </trkpt>
      <trkpt lat="44.91528" lon="4.83012">
        <ele>175.47200012207</ele>
        <time>2011-04-06T12:46:44Z</time>
      </trkpt>
      <trkpt lat="44.91487" lon="4.83022">
        <ele>176.81799316406</ele>
        <time>2011-04-06T12:46:52Z</time>
      </trkpt>
      <trkpt lat="44.91452" lon="4.83027">
        <ele>178.36000061035</ele>
        <time>2011-04-06T12:46:59Z</time>
      </trkpt>
      <trkpt lat="44.91426" lon="4.83028">
        <ele>179.55599975586</ele>
        <time>2011-04-06T12:47:04Z</time>
      </trkpt>
      <trkpt lat="44.91416" lon="4.83025">
        <ele>180.40100097656</ele>
        <time>2011-04-06T12:47:06Z</time>
      </trkpt>
      <trkpt lat="44.91387" lon="4.83005">
        <ele>181.91200256348</ele>
        <time>2011-04-06T12:47:12Z</time>
      </trkpt>
      <trkpt lat="44.91358" lon="4.82969">
        <ele>183.25300598144</ele>
        <time>2011-04-06T12:47:19Z</time>
      </trkpt>
      <trkpt lat="44.91322" lon="4.82933">
        <ele>184.40699768066</ele>
        <time>2011-04-06T12:47:27Z</time>
      </trkpt>
      <trkpt lat="44.91283" lon="4.82914">
        <ele>185.13499450684</ele>
        <time>2011-04-06T12:47:34Z</time>
      </trkpt>
      <trkpt lat="44.91225" lon="4.82887">
        <ele>186.82600402832</ele>
        <time>2011-04-06T12:47:44Z</time>
      </trkpt>
      <trkpt lat="44.91172" lon="4.82848">
        <ele>188.46800231934</ele>
        <time>2011-04-06T12:47:54Z</time>
      </trkpt>
      <trkpt lat="44.91131" lon="4.8281">
        <ele>189.81700134277</ele>
        <time>2011-04-06T12:48:02Z</time>
      </trkpt>
      <trkpt lat="44.91094" lon="4.8277">
        <ele>191.28700256348</ele>
        <time>2011-04-06T12:48:10Z</time>
      </trkpt>
      <trkpt lat="44.91062" lon="4.82738">
        <ele>192.55000305176</ele>
        <time>2011-04-06T12:48:17Z</time>
      </trkpt>
      <trkpt lat="44.91032" lon="4.82723">
        <ele>194.63200378418</ele>
        <time>2011-04-06T12:48:23Z</time>
      </trkpt>
      <trkpt lat="44.91003" lon="4.82712">
        <ele>196.67700195312</ele>
        <time>2011-04-06T12:48:29Z</time>
      </trkpt>
      <trkpt lat="44.90971" lon="4.82698">
        <ele>198.93299865723</ele>
        <time>2011-04-06T12:48:36Z</time>
      </trkpt>
      <trkpt lat="44.90933" lon="4.82681">
        <ele>201.09700012207</ele>
        <time>2011-04-06T12:48:44Z</time>
      </trkpt>
      <trkpt lat="44.90902" lon="4.82658">
        <ele>203.18200683594</ele>
        <time>2011-04-06T12:48:51Z</time>
      </trkpt>
      <trkpt lat="44.90872" lon="4.82629">
        <ele>204.60200500488</ele>
        <time>2011-04-06T12:48:58Z</time>
      </trkpt>
      <trkpt lat="44.90836" lon="4.82592">
        <ele>205.36799621582</ele>
        <time>2011-04-06T12:49:06Z</time>
      </trkpt>
      <trkpt lat="44.90778" lon="4.82534">
        <ele>206.14900207519</ele>
        <time>2011-04-06T12:49:18Z</time>
      </trkpt>
      <trkpt lat="44.90723" lon="4.82479">
        <ele>207.30499267578</ele>
        <time>2011-04-06T12:49:29Z</time>
      </trkpt>
      <trkpt lat="44.90666" lon="4.82422">
        <ele>208.03100585938</ele>
        <time>2011-04-06T12:49:40Z</time>
      </trkpt>
      <trkpt lat="44.90614" lon="4.82368">
        <ele>208.73500061035</ele>
        <time>2011-04-06T12:49:50Z</time>
      </trkpt>
      <trkpt lat="44.90573" lon="4.82316">
        <ele>209.32699584961</ele>
        <time>2011-04-06T12:49:58Z</time>
      </trkpt>
      <trkpt lat="44.90524" lon="4.82258">
        <ele>209.1549987793</ele>
        <time>2011-04-06T12:50:07Z</time>
      </trkpt>
      <trkpt lat="44.90478" lon="4.82221">
        <ele>208.60299682617</ele>
        <time>2011-04-06T12:50:14Z</time>
      </trkpt>
      <trkpt lat="44.90418" lon="4.82176">
        <ele>209.29400634766</ele>
        <time>2011-04-06T12:50:23Z</time>
      </trkpt>
      <trkpt lat="44.90355" lon="4.82127">
        <ele>210.51600646973</ele>
        <time>2011-04-06T12:50:33Z</time>
      </trkpt>
      <trkpt lat="44.90284" lon="4.82078">
        <ele>211.20500183106</ele>
        <time>2011-04-06T12:50:44Z</time>
      </trkpt>
      <trkpt lat="44.902" lon="4.82021">
        <ele>211.73399353027</ele>
        <time>2011-04-06T12:50:57Z</time>
      </trkpt>
      <trkpt lat="44.90149" lon="4.81984">
        <ele>212.56799316406</ele>
        <time>2011-04-06T12:51:05Z</time>
      </trkpt>
      <trkpt lat="44.90084" lon="4.81938">
        <ele>213.83200073242</ele>
        <time>2011-04-06T12:51:15Z</time>
      </trkpt>
      <trkpt lat="44.90036" lon="4.81905">
        <ele>215.68400573731</ele>
        <time>2011-04-06T12:51:23Z</time>
      </trkpt>
      <trkpt lat="44.89999" lon="4.81887">
        <ele>217.03100585938</ele>
        <time>2011-04-06T12:51:29Z</time>
      </trkpt>
      <trkpt lat="44.89968" lon="4.81877">
        <ele>218.3690032959</ele>
        <time>2011-04-06T12:51:34Z</time>
      </trkpt>
      <trkpt lat="44.89931" lon="4.81872">
        <ele>220.13900756836</ele>
        <time>2011-04-06T12:51:40Z</time>
      </trkpt>
      <trkpt lat="44.89896" lon="4.81876">
        <ele>221.74099731445</ele>
        <time>2011-04-06T12:51:46Z</time>
      </trkpt>
      <trkpt lat="44.89861" lon="4.81888">
        <ele>223.19900512695</ele>
        <time>2011-04-06T12:51:52Z</time>
      </trkpt>
      <trkpt lat="44.89819" lon="4.81905">
        <ele>224.55700683594</ele>
        <time>2011-04-06T12:51:59Z</time>
      </trkpt>
      <trkpt lat="44.89792" lon="4.81915">
        <ele>226.10200500488</ele>
        <time>2011-04-06T12:52:04Z</time>
      </trkpt>
      <trkpt lat="44.89782" lon="4.81932">
        <ele>226.52099609375</ele>
        <time>2011-04-06T12:52:08Z</time>
      </trkpt>
      <trkpt lat="44.89782" lon="4.8194">
        <ele>226.52099609375</ele>
        <time>2011-04-06T12:52:09Z</time>
      </trkpt>
      <trkpt lat="44.89773" lon="4.82">
        <ele>222.82699584961</ele>
        <time>2011-04-06T12:52:15Z</time>
      </trkpt>
      <trkpt lat="44.89766" lon="4.82035">
        <ele>220.42999267578</ele>
        <time>2011-04-06T12:52:18Z</time>
      </trkpt>
      <trkpt lat="44.89755" lon="4.82116">
        <ele>218.14900207519</ele>
        <time>2011-04-06T12:52:24Z</time>
      </trkpt>
      <trkpt lat="44.89745" lon="4.82176">
        <ele>214.63900756836</ele>
        <time>2011-04-06T12:52:28Z</time>
      </trkpt>
      <trkpt lat="44.89726" lon="4.82187">
        <ele>214.24600219727</ele>
        <time>2011-04-06T12:52:30Z</time>
      </trkpt>
      <trkpt lat="44.89715" lon="4.82189">
        <ele>213.97399902344</ele>
        <time>2011-04-06T12:52:31Z</time>
      </trkpt>
      <trkpt lat="44.89655" lon="4.82196">
        <ele>213.68600463867</ele>
        <time>2011-04-06T12:52:37Z</time>
      </trkpt>
      <trkpt lat="44.89607" lon="4.82211">
        <ele>211.91000366211</ele>
        <time>2011-04-06T12:52:42Z</time>
      </trkpt>
      <trkpt lat="44.89578" lon="4.82218">
        <ele>210.82400512695</ele>
        <time>2011-04-06T12:52:45Z</time>
      </trkpt>
      <trkpt lat="44.89538" lon="4.82224">
        <ele>209.73599243164</ele>
        <time>2011-04-06T12:52:49Z</time>
      </trkpt>
      <trkpt lat="44.89497" lon="4.82223">
        <ele>208.80599975586</ele>
        <time>2011-04-06T12:52:53Z</time>
      </trkpt>
      <trkpt lat="44.89425" lon="4.82212">
        <ele>207.06599426269</ele>
        <time>2011-04-06T12:53:00Z</time>
      </trkpt>
      <trkpt lat="44.89357" lon="4.82208">
        <ele>207.49699401856</ele>
        <time>2011-04-06T12:53:07Z</time>
      </trkpt>
      <trkpt lat="44.89304" lon="4.82204">
        <ele>207.42399597168</ele>
        <time>2011-04-06T12:53:13Z</time>
      </trkpt>
      <trkpt lat="44.89237" lon="4.82187">
        <ele>205.29299926758</ele>
        <time>2011-04-06T12:53:20Z</time>
      </trkpt>
      <trkpt lat="44.89217" lon="4.82181">
        <ele>205.09199523926</ele>
        <time>2011-04-06T12:53:22Z</time>
      </trkpt>
      <trkpt lat="44.89149" lon="4.82171">
        <ele>204.56599426269</ele>
        <time>2011-04-06T12:53:29Z</time>
      </trkpt>
      <trkpt lat="44.89089" lon="4.82156">
        <ele>202.88600158691</ele>
        <time>2011-04-06T12:53:35Z</time>
      </trkpt>
      <trkpt lat="44.89013" lon="4.82137">
        <ele>198.96899414062</ele>
        <time>2011-04-06T12:53:42Z</time>
      </trkpt>
      <trkpt lat="44.88972" lon="4.82111">
        <ele>196.85400390625</ele>
        <time>2011-04-06T12:53:46Z</time>
      </trkpt>
      <trkpt lat="44.88935" lon="4.82084">
        <ele>196.83399963379</ele>
        <time>2011-04-06T12:53:50Z</time>
      </trkpt>
      <trkpt lat="44.88906" lon="4.82054">
        <ele>197.97399902344</ele>
        <time>2011-04-06T12:53:54Z</time>
      </trkpt>
      <trkpt lat="44.88884" lon="4.82037">
        <ele>198.82899475098</ele>
        <time>2011-04-06T12:53:57Z</time>
      </trkpt>
      <trkpt lat="44.88851" lon="4.82013">
        <ele>198.69900512695</ele>
        <time>2011-04-06T12:54:01Z</time>
      </trkpt>
      <trkpt lat="44.88834" lon="4.82001">
        <ele>198.65800476074</ele>
        <time>2011-04-06T12:54:03Z</time>
      </trkpt>
      <trkpt lat="44.88806" lon="4.81988">
        <ele>198.16999816894</ele>
        <time>2011-04-06T12:54:06Z</time>
      </trkpt>
      <trkpt lat="44.88741" lon="4.81961">
        <ele>197.40699768066</ele>
        <time>2011-04-06T12:54:13Z</time>
      </trkpt>
      <trkpt lat="44.88669" lon="4.81921">
        <ele>197.66299438477</ele>
        <time>2011-04-06T12:54:21Z</time>
      </trkpt>
      <trkpt lat="44.88622" lon="4.81917">
        <ele>197.63900756836</ele>
        <time>2011-04-06T12:54:26Z</time>
      </trkpt>
      <trkpt lat="44.88612" lon="4.8192">
        <ele>197.4640045166</ele>
        <time>2011-04-06T12:54:27Z</time>
      </trkpt>
      <trkpt lat="44.88554" lon="4.81946">
        <ele>196.01100158691</ele>
        <time>2011-04-06T12:54:33Z</time>
      </trkpt>
      <trkpt lat="44.88492" lon="4.81974">
        <ele>193.44700622559</ele>
        <time>2011-04-06T12:54:39Z</time>
      </trkpt>
      <trkpt lat="44.88482" lon="4.81976">
        <ele>193.15400695801</ele>
        <time>2011-04-06T12:54:40Z</time>
      </trkpt>
      <trkpt lat="44.8847" lon="4.81978">
        <ele>192.99800109863</ele>
        <time>2011-04-06T12:54:41Z</time>
      </trkpt>
      <trkpt lat="44.88382" lon="4.81977">
        <ele>190.67100524902</ele>
        <time>2011-04-06T12:54:49Z</time>
      </trkpt>
      <trkpt lat="44.88371" lon="4.81978">
        <ele>190.23100280762</ele>
        <time>2011-04-06T12:54:50Z</time>
      </trkpt>
      <trkpt lat="44.88326" lon="4.81988">
        <ele>188.39599609375</ele>
        <time>2011-04-06T12:54:54Z</time>
      </trkpt>
      <trkpt lat="44.88261" lon="4.82003">
        <ele>187.56799316406</ele>
        <time>2011-04-06T12:55:00Z</time>
      </trkpt>
      <trkpt lat="44.88201" lon="4.82022">
        <ele>186.84199523926</ele>
        <time>2011-04-06T12:55:06Z</time>
      </trkpt>
      <trkpt lat="44.88124" lon="4.8204">
        <ele>186.05200195312</ele>
        <time>2011-04-06T12:55:14Z</time>
      </trkpt>
      <trkpt lat="44.88049" lon="4.82058">
        <ele>186.31199645996</ele>
        <time>2011-04-06T12:55:22Z</time>
      </trkpt>
      <trkpt lat="44.8801" lon="4.82063">
        <ele>185.51499938965</ele>
        <time>2011-04-06T12:55:26Z</time>
      </trkpt>
      <trkpt lat="44.87971" lon="4.82085">
        <ele>183.39700317383</ele>
        <time>2011-04-06T12:55:30Z</time>
      </trkpt>
      <trkpt lat="44.87925" lon="4.82108">
        <ele>182.82699584961</ele>
        <time>2011-04-06T12:55:35Z</time>
      </trkpt>
      <trkpt lat="44.87888" lon="4.82126">
        <ele>182.14199829102</ele>
        <time>2011-04-06T12:55:39Z</time>
      </trkpt>
      <trkpt lat="44.87853" lon="4.82157">
        <ele>181.7799987793</ele>
        <time>2011-04-06T12:55:43Z</time>
      </trkpt>
      <trkpt lat="44.87814" lon="4.82175">
        <ele>180.05499267578</ele>
        <time>2011-04-06T12:55:47Z</time>
      </trkpt>
      <trkpt lat="44.87788" lon="4.82192">
        <ele>178.51600646973</ele>
        <time>2011-04-06T12:55:50Z</time>
      </trkpt>
      <trkpt lat="44.87783" lon="4.82204">
        <ele>178.25</ele>
        <time>2011-04-06T12:55:51Z</time>
      </trkpt>
      <trkpt lat="44.87751" lon="4.82231">
        <ele>177.47300720215</ele>
        <time>2011-04-06T12:55:55Z</time>
      </trkpt>
      <trkpt lat="44.87723" lon="4.82233">
        <ele>176.64900207519</ele>
        <time>2011-04-06T12:55:58Z</time>
      </trkpt>
      <trkpt lat="44.87708" lon="4.82249">
        <ele>175.93400573731</ele>
        <time>2011-04-06T12:56:00Z</time>
      </trkpt>
      <trkpt lat="44.87693" lon="4.82269">
        <ele>174.99299621582</ele>
        <time>2011-04-06T12:56:02Z</time>
      </trkpt>
      <trkpt lat="44.87666" lon="4.82288">
        <ele>173.12800598144</ele>
        <time>2011-04-06T12:56:05Z</time>
      </trkpt>
      <trkpt lat="44.87656" lon="4.8229">
        <ele>172.41400146484</ele>
        <time>2011-04-06T12:56:06Z</time>
      </trkpt>
      <trkpt lat="44.87629" lon="4.82314">
        <ele>171.33099365234</ele>
        <time>2011-04-06T12:56:09Z</time>
      </trkpt>
      <trkpt lat="44.8762" lon="4.82341">
        <ele>170.35400390625</ele>
        <time>2011-04-06T12:56:11Z</time>
      </trkpt>
      <trkpt lat="44.87595" lon="4.82392">
        <ele>167.83399963379</ele>
        <time>2011-04-06T12:56:15Z</time>
      </trkpt>
      <trkpt lat="44.87586" lon="4.82401">
        <ele>167.33999633789</ele>
        <time>2011-04-06T12:56:16Z</time>
      </trkpt>
      <trkpt lat="44.87547" lon="4.82431">
        <ele>165.77600097656</ele>
        <time>2011-04-06T12:56:20Z</time>
      </trkpt>
      <trkpt lat="44.87529" lon="4.82472">
        <ele>164.23100280762</ele>
        <time>2011-04-06T12:56:23Z</time>
      </trkpt>
      <trkpt lat="44.87522" lon="4.82503">
        <ele>162.29200744629</ele>
        <time>2011-04-06T12:56:25Z</time>
      </trkpt>
      <trkpt lat="44.8749" lon="4.82589">
        <ele>158.64399719238</ele>
        <time>2011-04-06T12:56:31Z</time>
      </trkpt>
      <trkpt lat="44.87486" lon="4.82603">
        <ele>158.81599426269</ele>
        <time>2011-04-06T12:56:32Z</time>
      </trkpt>
      <trkpt lat="44.87466" lon="4.82625">
        <ele>159.87399291992</ele>
        <time>2011-04-06T12:56:35Z</time>
      </trkpt>
      <trkpt lat="44.87457" lon="4.82626">
        <ele>160.21200561523</ele>
        <time>2011-04-06T12:56:36Z</time>
      </trkpt>
      <trkpt lat="44.87399" lon="4.82645">
        <ele>160.55700683594</ele>
        <time>2011-04-06T12:56:43Z</time>
      </trkpt>
      <trkpt lat="44.87361" lon="4.82661">
        <ele>160.02000427246</ele>
        <time>2011-04-06T12:56:47Z</time>
      </trkpt>
      <trkpt lat="44.87352" lon="4.82665">
        <ele>159.97399902344</ele>
        <time>2011-04-06T12:56:48Z</time>
      </trkpt>
      <trkpt lat="44.87298" lon="4.82687">
        <ele>158.76600646973</ele>
        <time>2011-04-06T12:56:54Z</time>
      </trkpt>
      <trkpt lat="44.87251" lon="4.82706">
        <ele>157.80000305176</ele>
        <time>2011-04-06T12:56:59Z</time>
      </trkpt>
      <trkpt lat="44.87193" lon="4.82711">
        <ele>156.49600219727</ele>
        <time>2011-04-06T12:57:05Z</time>
      </trkpt>
      <trkpt lat="44.87135" lon="4.82698">
        <ele>155.35499572754</ele>
        <time>2011-04-06T12:57:11Z</time>
      </trkpt>
      <trkpt lat="44.87061" lon="4.82669">
        <ele>155.56599426269</ele>
        <time>2011-04-06T12:57:19Z</time>
      </trkpt>
      <trkpt lat="44.87008" lon="4.82667">
        <ele>156.08700561523</ele>
        <time>2011-04-06T12:57:25Z</time>
      </trkpt>
      <trkpt lat="44.86966" lon="4.82678">
        <ele>156.10400390625</ele>
        <time>2011-04-06T12:57:30Z</time>
      </trkpt>
      <trkpt lat="44.86917" lon="4.82704">
        <ele>157.13400268555</ele>
        <time>2011-04-06T12:57:36Z</time>
      </trkpt>
      <trkpt lat="44.86885" lon="4.82719">
        <ele>157.44900512695</ele>
        <time>2011-04-06T12:57:40Z</time>
      </trkpt>
      <trkpt lat="44.86834" lon="4.82718">
        <ele>157.87199401856</ele>
        <time>2011-04-06T12:57:46Z</time>
      </trkpt>
      <trkpt lat="44.86793" lon="4.82726">
        <ele>158.4109954834</ele>
        <time>2011-04-06T12:57:51Z</time>
      </trkpt>
      <trkpt lat="44.8676" lon="4.82733">
        <ele>158.57899475098</ele>
        <time>2011-04-06T12:57:55Z</time>
      </trkpt>
      <trkpt lat="44.86715" lon="4.82721">
        <ele>159.06599426269</ele>
        <time>2011-04-06T12:58:01Z</time>
      </trkpt>
      <trkpt lat="44.86707" lon="4.82718">
        <ele>159.22999572754</ele>
        <time>2011-04-06T12:58:02Z</time>
      </trkpt>
      <trkpt lat="44.86677" lon="4.82721">
        <ele>159.6130065918</ele>
        <time>2011-04-06T12:58:06Z</time>
      </trkpt>
      <trkpt lat="44.8666" lon="4.82739">
        <ele>159.85200500488</ele>
        <time>2011-04-06T12:58:09Z</time>
      </trkpt>
      <trkpt lat="44.86641" lon="4.82751">
        <ele>159.78500366211</ele>
        <time>2011-04-06T12:58:12Z</time>
      </trkpt>
      <trkpt lat="44.86626" lon="4.82747">
        <ele>160.00100708008</ele>
        <time>2011-04-06T12:58:14Z</time>
      </trkpt>
      <trkpt lat="44.86605" lon="4.82738">
        <ele>160.2380065918</ele>
        <time>2011-04-06T12:58:17Z</time>
      </trkpt>
      <trkpt lat="44.86591" lon="4.82734">
        <ele>160.45500183106</ele>
        <time>2011-04-06T12:58:19Z</time>
      </trkpt>
      <trkpt lat="44.86565" lon="4.82718">
        <ele>161.37600708008</ele>
        <time>2011-04-06T12:58:23Z</time>
      </trkpt>
      <trkpt lat="44.86538" lon="4.82705">
        <ele>161.93499755859</ele>
        <time>2011-04-06T12:58:27Z</time>
      </trkpt>
      <trkpt lat="44.86525" lon="4.82692">
        <ele>162.14300537109</ele>
        <time>2011-04-06T12:58:29Z</time>
      </trkpt>
      <trkpt lat="44.86507" lon="4.82672">
        <ele>162.2559967041</ele>
        <time>2011-04-06T12:58:32Z</time>
      </trkpt>
      <trkpt lat="44.86478" lon="4.82661">
        <ele>162.40699768066</ele>
        <time>2011-04-06T12:58:36Z</time>
      </trkpt>
      <trkpt lat="44.86457" lon="4.82678">
        <ele>161.94599914551</ele>
        <time>2011-04-06T12:58:39Z</time>
      </trkpt>
      <trkpt lat="44.86402" lon="4.82753">
        <ele>160.26699829102</ele>
        <time>2011-04-06T12:58:48Z</time>
      </trkpt>
      <trkpt lat="44.86396" lon="4.82762">
        <ele>160.06599426269</ele>
        <time>2011-04-06T12:58:49Z</time>
      </trkpt>
      <trkpt lat="44.86376" lon="4.8279">
        <ele>159.04299926758</ele>
        <time>2011-04-06T12:58:52Z</time>
      </trkpt>
      <trkpt lat="44.86344" lon="4.82813">
        <ele>158.47200012207</ele>
        <time>2011-04-06T12:58:56Z</time>
      </trkpt>
      <trkpt lat="44.86333" lon="4.82837">
        <ele>157.87300109863</ele>
        <time>2011-04-06T12:58:59Z</time>
      </trkpt>
      <trkpt lat="44.8634" lon="4.82874">
        <ele>155.18499755859</ele>
        <time>2011-04-06T12:59:02Z</time>
      </trkpt>
      <trkpt lat="44.86345" lon="4.82914">
        <ele>152.88999938965</ele>
        <time>2011-04-06T12:59:05Z</time>
      </trkpt>
      <trkpt lat="44.86343" lon="4.82956">
        <ele>150.77699279785</ele>
        <time>2011-04-06T12:59:08Z</time>
      </trkpt>
      <trkpt lat="44.86343" lon="4.83011">
        <ele>149.63900756836</ele>
        <time>2011-04-06T12:59:12Z</time>
      </trkpt>
      <trkpt lat="44.86333" lon="4.8303">
        <ele>149.71800231934</ele>
        <time>2011-04-06T12:59:14Z</time>
      </trkpt>
      <trkpt lat="44.86324" lon="4.83037">
        <ele>149.9640045166</ele>
        <time>2011-04-06T12:59:15Z</time>
      </trkpt>
      <trkpt lat="44.86291" lon="4.83056">
        <ele>149.38000488281</ele>
        <time>2011-04-06T12:59:19Z</time>
      </trkpt>
      <trkpt lat="44.86264" lon="4.8309">
        <ele>147.35299682617</ele>
        <time>2011-04-06T12:59:23Z</time>
      </trkpt>
      <trkpt lat="44.86254" lon="4.83113">
        <ele>146.54499816894</ele>
        <time>2011-04-06T12:59:25Z</time>
      </trkpt>
      <trkpt lat="44.86251" lon="4.83149">
        <ele>145.00799560547</ele>
        <time>2011-04-06T12:59:28Z</time>
      </trkpt>
      <trkpt lat="44.86266" lon="4.83164">
        <ele>143.28999328613</ele>
        <time>2011-04-06T12:59:30Z</time>
      </trkpt>
      <trkpt lat="44.86304" lon="4.83177">
        <ele>139.95700073242</ele>
        <time>2011-04-06T12:59:34Z</time>
      </trkpt>
      <trkpt lat="44.86338" lon="4.83188">
        <ele>137.30499267578</ele>
        <time>2011-04-06T12:59:37Z</time>
      </trkpt>
      <trkpt lat="44.86394" lon="4.83218">
        <ele>132.07099914551</ele>
        <time>2011-04-06T12:59:42Z</time>
      </trkpt>
      <trkpt lat="44.86425" lon="4.8325">
        <ele>129.04200744629</ele>
        <time>2011-04-06T12:59:45Z</time>
      </trkpt>
      <trkpt lat="44.86446" lon="4.833">
        <ele>125.05400085449</ele>
        <time>2011-04-06T12:59:48Z</time>
      </trkpt>
      <trkpt lat="44.86452" lon="4.83314">
        <ele>123.96800231934</ele>
        <time>2011-04-06T12:59:49Z</time>
      </trkpt>
      <trkpt lat="44.86453" lon="4.8334">
        <ele>121.29499816894</ele>
        <time>2011-04-06T12:59:53Z</time>
      </trkpt>
      <trkpt lat="44.86435" lon="4.83341">
        <ele>119.0179977417</ele>
        <time>2011-04-06T12:59:55Z</time>
      </trkpt>
      <trkpt lat="44.86407" lon="4.83351">
        <ele>116.32099914551</ele>
        <time>2011-04-06T12:59:58Z</time>
      </trkpt>
      <trkpt lat="44.86389" lon="4.8339">
        <ele>113.0059967041</ele>
        <time>2011-04-06T13:00:01Z</time>
      </trkpt>
      <trkpt lat="44.86372" lon="4.83426">
        <ele>111.73600006103</ele>
        <time>2011-04-06T13:00:04Z</time>
      </trkpt>
      <trkpt lat="44.86354" lon="4.83441">
        <ele>111.26499938965</ele>
        <time>2011-04-06T13:00:07Z</time>
      </trkpt>
      <trkpt lat="44.86333" lon="4.83432">
        <ele>111.56199645996</ele>
        <time>2011-04-06T13:00:10Z</time>
      </trkpt>
      <trkpt lat="44.86303" lon="4.83401">
        <ele>111.28900146484</ele>
        <time>2011-04-06T13:00:16Z</time>
      </trkpt>
      <trkpt lat="44.86273" lon="4.83371">
        <ele>112.31900024414</ele>
        <time>2011-04-06T13:00:22Z</time>
      </trkpt>
      <trkpt lat="44.86264" lon="4.83362">
        <ele>112.5179977417</ele>
        <time>2011-04-06T13:00:24Z</time>
      </trkpt>
      <trkpt lat="44.8625" lon="4.83351">
        <ele>112.94300079346</ele>
        <time>2011-04-06T13:00:27Z</time>
      </trkpt>
      <trkpt lat="44.86221" lon="4.83327">
        <ele>113.27200317383</ele>
        <time>2011-04-06T13:00:33Z</time>
      </trkpt>
      <trkpt lat="44.86197" lon="4.83307">
        <ele>113.77500152588</ele>
        <time>2011-04-06T13:00:38Z</time>
      </trkpt>
      <trkpt lat="44.86177" lon="4.83286">
        <ele>114.5299987793</ele>
        <time>2011-04-06T13:00:43Z</time>
      </trkpt>
      <trkpt lat="44.86155" lon="4.83265">
        <ele>114.39800262451</ele>
        <time>2011-04-06T13:00:48Z</time>
      </trkpt>
      <trkpt lat="44.86148" lon="4.83254">
        <ele>114.21399688721</ele>
        <time>2011-04-06T13:00:50Z</time>
      </trkpt>
      <trkpt lat="44.86129" lon="4.83233">
        <ele>113.66999816894</ele>
        <time>2011-04-06T13:00:54Z</time>
      </trkpt>
      <trkpt lat="44.86105" lon="4.83215">
        <ele>115.37100219727</ele>
        <time>2011-04-06T13:00:59Z</time>
      </trkpt>
      <trkpt lat="44.86084" lon="4.83203">
        <ele>114.50499725342</ele>
        <time>2011-04-06T13:01:03Z</time>
      </trkpt>
      <trkpt lat="44.86072" lon="4.832">
        <ele>113.66600036621</ele>
        <time>2011-04-06T13:01:05Z</time>
      </trkpt>
      <trkpt lat="44.86058" lon="4.83205">
        <ele>113.43000030518</ele>
        <time>2011-04-06T13:01:08Z</time>
      </trkpt>
      <trkpt lat="44.86035" lon="4.83216">
        <ele>113.59400177002</ele>
        <time>2011-04-06T13:01:13Z</time>
      </trkpt>
      <trkpt lat="44.86031" lon="4.83222">
        <ele>113.56800079346</ele>
        <time>2011-04-06T13:01:15Z</time>
      </trkpt>
      <trkpt lat="44.86035" lon="4.83224">
        <ele>113.94799804688</ele>
        <time>2011-04-06T13:01:17Z</time>
      </trkpt>
      <trkpt lat="44.86049" lon="4.83215">
        <ele>113.15200042725</ele>
        <time>2011-04-06T13:01:21Z</time>
      </trkpt>
      <trkpt lat="44.8606" lon="4.83191">
        <ele>113.11100006103</ele>
        <time>2011-04-06T13:01:26Z</time>
      </trkpt>
      <trkpt lat="44.86062" lon="4.83131">
        <ele>114.8450012207</ele>
        <time>2011-04-06T13:01:35Z</time>
      </trkpt>
      <trkpt lat="44.86074" lon="4.831">
        <ele>116.26000213623</ele>
        <time>2011-04-06T13:01:41Z</time>
      </trkpt>
      <trkpt lat="44.86087" lon="4.8308">
        <ele>117.75900268555</ele>
        <time>2011-04-06T13:01:47Z</time>
      </trkpt>
      <trkpt lat="44.86092" lon="4.83063">
        <ele>118.41300201416</ele>
        <time>2011-04-06T13:01:52Z</time>
      </trkpt>
      <trkpt lat="44.86089" lon="4.83039">
        <ele>119.55899810791</ele>
        <time>2011-04-06T13:01:58Z</time>
      </trkpt>
      <trkpt lat="44.86086" lon="4.83027">
        <ele>119.98999786377</ele>
        <time>2011-04-06T13:02:01Z</time>
      </trkpt>
      <trkpt lat="44.86076" lon="4.83002">
        <ele>121.39099884033</ele>
        <time>2011-04-06T13:02:07Z</time>
      </trkpt>
      <trkpt lat="44.86073" lon="4.8299">
        <ele>122.38600158691</ele>
        <time>2011-04-06T13:02:10Z</time>
      </trkpt>
      <trkpt lat="44.86065" lon="4.82969">
        <ele>123.66500091553</ele>
        <time>2011-04-06T13:02:16Z</time>
      </trkpt>
      <trkpt lat="44.86057" lon="4.82957">
        <ele>124.73899841309</ele>
        <time>2011-04-06T13:02:23Z</time>
      </trkpt>
      <trkpt lat="44.86055" lon="4.82955">
        <ele>124.84799957275</ele>
        <time>2011-04-06T13:02:25Z</time>
      </trkpt>
      <trkpt lat="44.86052" lon="4.82952">
        <ele>125.11499786377</ele>
        <time>2011-04-06T13:02:29Z</time>
      </trkpt>
      <trkpt lat="44.86047" lon="4.82949">
        <ele>125.59799957275</ele>
        <time>2011-04-06T13:02:34Z</time>
      </trkpt>
      <trkpt lat="44.86039" lon="4.82945">
        <ele>125.93900299072</ele>
        <time>2011-04-06T13:02:42Z</time>
      </trkpt>
      <trkpt lat="44.86033" lon="4.82943">
        <ele>126.23000335693</ele>
        <time>2011-04-06T13:02:46Z</time>
      </trkpt>
      <trkpt lat="44.86025" lon="4.82939">
        <ele>126.69799804688</ele>
        <time>2011-04-06T13:02:52Z</time>
      </trkpt>
      <trkpt lat="44.86013" lon="4.82933">
        <ele>127.65299987793</ele>
        <time>2011-04-06T13:03:00Z</time>
      </trkpt>
      <trkpt lat="44.85998" lon="4.82923">
        <ele>128.50999450684</ele>
        <time>2011-04-06T13:03:11Z</time>
      </trkpt>
      <trkpt lat="44.85986" lon="4.82914">
        <ele>129.44900512695</ele>
        <time>2011-04-06T13:03:18Z</time>
      </trkpt>
      <trkpt lat="44.85973" lon="4.82905">
        <ele>130.25300598144</ele>
        <time>2011-04-06T13:03:27Z</time>
      </trkpt>
      <trkpt lat="44.85961" lon="4.82898">
        <ele>131.05599975586</ele>
        <time>2011-04-06T13:03:35Z</time>
      </trkpt>
      <trkpt lat="44.85949" lon="4.82894">
        <ele>131.84100341797</ele>
        <time>2011-04-06T13:03:43Z</time>
      </trkpt>
      <trkpt lat="44.85941" lon="4.82894">
        <ele>132.54899597168</ele>
        <time>2011-04-06T13:03:50Z</time>
      </trkpt>
      <trkpt lat="44.8593" lon="4.82899">
        <ele>132.98899841309</ele>
        <time>2011-04-06T13:03:55Z</time>
      </trkpt>
      <trkpt lat="44.85917" lon="4.82912">
        <ele>133.96800231934</ele>
        <time>2011-04-06T13:04:00Z</time>
      </trkpt>
      <trkpt lat="44.85909" lon="4.8292">
        <ele>134.81799316406</ele>
        <time>2011-04-06T13:04:03Z</time>
      </trkpt>
      <trkpt lat="44.859" lon="4.82924">
        <ele>135.29600524902</ele>
        <time>2011-04-06T13:04:06Z</time>
      </trkpt>
      <trkpt lat="44.85893" lon="4.82916">
        <ele>136.18800354004</ele>
        <time>2011-04-06T13:04:09Z</time>
      </trkpt>
      <trkpt lat="44.85894" lon="4.82912">
        <ele>136.18800354004</ele>
        <time>2011-04-06T13:04:10Z</time>
      </trkpt>
      <trkpt lat="44.85898" lon="4.82906">
        <ele>136.93200683594</ele>
        <time>2011-04-06T13:04:12Z</time>
      </trkpt>
      <trkpt lat="44.85922" lon="4.82887">
        <ele>139.52900695801</ele>
        <time>2011-04-06T13:04:20Z</time>
      </trkpt>
      <trkpt lat="44.85938" lon="4.82873">
        <ele>140.44700622559</ele>
        <time>2011-04-06T13:04:25Z</time>
      </trkpt>
      <trkpt lat="44.85967" lon="4.82863">
        <ele>142.19999694824</ele>
        <time>2011-04-06T13:04:33Z</time>
      </trkpt>
      <trkpt lat="44.86" lon="4.82857">
        <ele>144.46099853516</ele>
        <time>2011-04-06T13:04:42Z</time>
      </trkpt>
      <trkpt lat="44.8602" lon="4.82843">
        <ele>146.01699829102</ele>
        <time>2011-04-06T13:04:48Z</time>
      </trkpt>
      <trkpt lat="44.86026" lon="4.82825">
        <ele>146.73899841309</ele>
        <time>2011-04-06T13:04:52Z</time>
      </trkpt>
      <trkpt lat="44.86026" lon="4.82793">
        <ele>148.11599731445</ele>
        <time>2011-04-06T13:04:58Z</time>
      </trkpt>
      <trkpt lat="44.86026" lon="4.82755">
        <ele>149.86399841309</ele>
        <time>2011-04-06T13:05:05Z</time>
      </trkpt>
      <trkpt lat="44.86031" lon="4.8272">
        <ele>151.27099609375</ele>
        <time>2011-04-06T13:05:12Z</time>
      </trkpt>
      <trkpt lat="44.86039" lon="4.82678">
        <ele>153.26600646973</ele>
        <time>2011-04-06T13:05:20Z</time>
      </trkpt>
      <trkpt lat="44.86055" lon="4.82631">
        <ele>155.73199462891</ele>
        <time>2011-04-06T13:05:29Z</time>
      </trkpt>
      <trkpt lat="44.8606" lon="4.8261">
        <ele>156.44700622559</ele>
        <time>2011-04-06T13:05:33Z</time>
      </trkpt>
      <trkpt lat="44.86063" lon="4.82581">
        <ele>157.67100524902</ele>
        <time>2011-04-06T13:05:38Z</time>
      </trkpt>
      <trkpt lat="44.86063" lon="4.82522">
        <ele>159.70700073242</ele>
        <time>2011-04-06T13:05:48Z</time>
      </trkpt>
      <trkpt lat="44.86064" lon="4.82471">
        <ele>161.61000061035</ele>
        <time>2011-04-06T13:05:57Z</time>
      </trkpt>
      <trkpt lat="44.86066" lon="4.82419">
        <ele>163.46899414062</ele>
        <time>2011-04-06T13:06:06Z</time>
      </trkpt>
      <trkpt lat="44.86069" lon="4.82357">
        <ele>165.62399291992</ele>
        <time>2011-04-06T13:06:16Z</time>
      </trkpt>
      <trkpt lat="44.86073" lon="4.82301">
        <ele>167.56199645996</ele>
        <time>2011-04-06T13:06:25Z</time>
      </trkpt>
      <trkpt lat="44.86081" lon="4.82232">
        <ele>169.87100219727</ele>
        <time>2011-04-06T13:06:36Z</time>
      </trkpt>
      <trkpt lat="44.86092" lon="4.82173">
        <ele>172.0119934082</ele>
        <time>2011-04-06T13:06:46Z</time>
      </trkpt>
      <trkpt lat="44.86093" lon="4.82167">
        <ele>172.22399902344</ele>
        <time>2011-04-06T13:06:47Z</time>
      </trkpt>
      <trkpt lat="44.86102" lon="4.82117">
        <ele>174.83500671387</ele>
        <time>2011-04-06T13:06:56Z</time>
      </trkpt>
      <trkpt lat="44.86109" lon="4.82078">
        <ele>176.32000732422</ele>
        <time>2011-04-06T13:07:03Z</time>
      </trkpt>
      <trkpt lat="44.86119" lon="4.82028">
        <ele>178.22399902344</ele>
        <time>2011-04-06T13:07:12Z</time>
      </trkpt>
      <trkpt lat="44.86128" lon="4.81982">
        <ele>180.2619934082</ele>
        <time>2011-04-06T13:07:20Z</time>
      </trkpt>
      <trkpt lat="44.86139" lon="4.81926">
        <ele>182.71800231934</ele>
        <time>2011-04-06T13:07:30Z</time>
      </trkpt>
      <trkpt lat="44.86151" lon="4.81865">
        <ele>185.15800476074</ele>
        <time>2011-04-06T13:07:41Z</time>
      </trkpt>
      <trkpt lat="44.8616" lon="4.81818">
        <ele>187.19500732422</ele>
        <time>2011-04-06T13:07:49Z</time>
      </trkpt>
      <trkpt lat="44.86175" lon="4.81771">
        <ele>189.33299255371</ele>
        <time>2011-04-06T13:07:58Z</time>
      </trkpt>
      <trkpt lat="44.86193" lon="4.8173">
        <ele>191.3869934082</ele>
        <time>2011-04-06T13:08:07Z</time>
      </trkpt>
      <trkpt lat="44.86202" lon="4.81696">
        <ele>192.87399291992</ele>
        <time>2011-04-06T13:08:14Z</time>
      </trkpt>
      <trkpt lat="44.86204" lon="4.81651">
        <ele>194.29100036621</ele>
        <time>2011-04-06T13:08:22Z</time>
      </trkpt>
      <trkpt lat="44.86204" lon="4.81599">
        <ele>196.5299987793</ele>
        <time>2011-04-06T13:08:31Z</time>
      </trkpt>
      <trkpt lat="44.86213" lon="4.81555">
        <ele>198.06300354004</ele>
        <time>2011-04-06T13:08:39Z</time>
      </trkpt>
      <trkpt lat="44.86222" lon="4.81511">
        <ele>199.77600097656</ele>
        <time>2011-04-06T13:08:47Z</time>
      </trkpt>
      <trkpt lat="44.86231" lon="4.81465">
        <ele>201.54400634766</ele>
        <time>2011-04-06T13:08:55Z</time>
      </trkpt>
      <trkpt lat="44.86231" lon="4.81425">
        <ele>203.44000244141</ele>
        <time>2011-04-06T13:09:02Z</time>
      </trkpt>
      <trkpt lat="44.86223" lon="4.81373">
        <ele>205.11000061035</ele>
        <time>2011-04-06T13:09:11Z</time>
      </trkpt>
      <trkpt lat="44.86216" lon="4.81319">
        <ele>206.74699401856</ele>
        <time>2011-04-06T13:09:20Z</time>
      </trkpt>
      <trkpt lat="44.86214" lon="4.81279">
        <ele>208.33099365234</ele>
        <time>2011-04-06T13:09:27Z</time>
      </trkpt>
      <trkpt lat="44.86224" lon="4.8124">
        <ele>210.35099792481</ele>
        <time>2011-04-06T13:09:35Z</time>
      </trkpt>
      <trkpt lat="44.86235" lon="4.81195">
        <ele>212.78799438477</ele>
        <time>2011-04-06T13:09:44Z</time>
      </trkpt>
      <trkpt lat="44.86232" lon="4.81169">
        <ele>214.25399780273</ele>
        <time>2011-04-06T13:09:49Z</time>
      </trkpt>
      <trkpt lat="44.86221" lon="4.81148">
        <ele>215.37199401856</ele>
        <time>2011-04-06T13:09:54Z</time>
      </trkpt>
      <trkpt lat="44.86206" lon="4.81135">
        <ele>217.04100036621</ele>
        <time>2011-04-06T13:09:59Z</time>
      </trkpt>
      <trkpt lat="44.86182" lon="4.8112">
        <ele>218.86599731445</ele>
        <time>2011-04-06T13:10:06Z</time>
      </trkpt>
      <trkpt lat="44.86156" lon="4.81101">
        <ele>220.67700195312</ele>
        <time>2011-04-06T13:10:14Z</time>
      </trkpt>
      <trkpt lat="44.8613" lon="4.81072">
        <ele>223.35200500488</ele>
        <time>2011-04-06T13:10:23Z</time>
      </trkpt>
      <trkpt lat="44.86106" lon="4.81036">
        <ele>225.95599365234</ele>
        <time>2011-04-06T13:10:33Z</time>
      </trkpt>
      <trkpt lat="44.86097" lon="4.81005">
        <ele>227.60600280762</ele>
        <time>2011-04-06T13:10:40Z</time>
      </trkpt>
      <trkpt lat="44.86089" lon="4.80974">
        <ele>229.26800537109</ele>
        <time>2011-04-06T13:10:47Z</time>
      </trkpt>
      <trkpt lat="44.86076" lon="4.8095">
        <ele>230.37199401856</ele>
        <time>2011-04-06T13:10:53Z</time>
      </trkpt>
      <trkpt lat="44.86055" lon="4.80921">
        <ele>231.88000488281</ele>
        <time>2011-04-06T13:11:01Z</time>
      </trkpt>
      <trkpt lat="44.86028" lon="4.80894">
        <ele>232.96200561523</ele>
        <time>2011-04-06T13:11:09Z</time>
      </trkpt>
      <trkpt lat="44.86013" lon="4.80879">
        <ele>233.44299316406</ele>
        <time>2011-04-06T13:11:13Z</time>
      </trkpt>
      <trkpt lat="44.85996" lon="4.80848">
        <ele>234.01699829102</ele>
        <time>2011-04-06T13:11:19Z</time>
      </trkpt>
      <trkpt lat="44.85992" lon="4.80836">
        <ele>234.22599792481</ele>
        <time>2011-04-06T13:11:21Z</time>
      </trkpt>
      <trkpt lat="44.85988" lon="4.80808">
        <ele>234.64599609375</ele>
        <time>2011-04-06T13:11:25Z</time>
      </trkpt>
      <trkpt lat="44.8599" lon="4.80748">
        <ele>233.14799499512</ele>
        <time>2011-04-06T13:11:32Z</time>
      </trkpt>
      <trkpt lat="44.85991" lon="4.80731">
        <ele>232.94900512695</ele>
        <time>2011-04-06T13:11:34Z</time>
      </trkpt>
      <trkpt lat="44.85991" lon="4.807">
        <ele>233.14100646973</ele>
        <time>2011-04-06T13:11:38Z</time>
      </trkpt>
      <trkpt lat="44.85984" lon="4.80666">
        <ele>233.82899475098</ele>
        <time>2011-04-06T13:11:43Z</time>
      </trkpt>
      <trkpt lat="44.85978" lon="4.80647">
        <ele>234.30099487305</ele>
        <time>2011-04-06T13:11:46Z</time>
      </trkpt>
      <trkpt lat="44.85965" lon="4.80623">
        <ele>235.34599304199</ele>
        <time>2011-04-06T13:11:51Z</time>
      </trkpt>
      <trkpt lat="44.85951" lon="4.80616">
        <ele>235.98699951172</ele>
        <time>2011-04-06T13:11:55Z</time>
      </trkpt>
      <trkpt lat="44.85925" lon="4.8062">
        <ele>237.18699645996</ele>
        <time>2011-04-06T13:12:01Z</time>
      </trkpt>
      <trkpt lat="44.85902" lon="4.80613">
        <ele>238.63000488281</ele>
        <time>2011-04-06T13:12:06Z</time>
      </trkpt>
      <trkpt lat="44.8587" lon="4.80585">
        <ele>241.07899475098</ele>
        <time>2011-04-06T13:12:14Z</time>
      </trkpt>
      <trkpt lat="44.8586" lon="4.80565">
        <ele>242.29499816894</ele>
        <time>2011-04-06T13:12:18Z</time>
      </trkpt>
      <trkpt lat="44.85848" lon="4.80549">
        <ele>243.49600219727</ele>
        <time>2011-04-06T13:12:22Z</time>
      </trkpt>
      <trkpt lat="44.85811" lon="4.80527">
        <ele>245.61500549316</ele>
        <time>2011-04-06T13:12:31Z</time>
      </trkpt>
      <trkpt lat="44.85774" lon="4.80501">
        <ele>248.06100463867</ele>
        <time>2011-04-06T13:12:40Z</time>
      </trkpt>
      <trkpt lat="44.85767" lon="4.80493">
        <ele>248.78100585938</ele>
        <time>2011-04-06T13:12:42Z</time>
      </trkpt>
      <trkpt lat="44.8573" lon="4.8047">
        <ele>251.25399780273</ele>
        <time>2011-04-06T13:12:51Z</time>
      </trkpt>
      <trkpt lat="44.857" lon="4.80443">
        <ele>253.43800354004</ele>
        <time>2011-04-06T13:12:59Z</time>
      </trkpt>
      <trkpt lat="44.8569" lon="4.80435">
        <ele>254.18899536133</ele>
        <time>2011-04-06T13:13:02Z</time>
      </trkpt>
      <trkpt lat="44.85672" lon="4.80441">
        <ele>255.10600280762</ele>
        <time>2011-04-06T13:13:06Z</time>
      </trkpt>
      <trkpt lat="44.8565" lon="4.80457">
        <ele>256.47198486328</ele>
        <time>2011-04-06T13:13:11Z</time>
      </trkpt>
      <trkpt lat="44.85632" lon="4.80454">
        <ele>257.3869934082</ele>
        <time>2011-04-06T13:13:15Z</time>
      </trkpt>
      <trkpt lat="44.85625" lon="4.80444">
        <ele>257.92498779297</ele>
        <time>2011-04-06T13:13:17Z</time>
      </trkpt>
      <trkpt lat="44.856" lon="4.80403">
        <ele>259.66500854492</ele>
        <time>2011-04-06T13:13:25Z</time>
      </trkpt>
      <trkpt lat="44.85596" lon="4.80392">
        <ele>260.08099365234</ele>
        <time>2011-04-06T13:13:27Z</time>
      </trkpt>
      <trkpt lat="44.85593" lon="4.80359">
        <ele>260.89199829102</ele>
        <time>2011-04-06T13:13:32Z</time>
      </trkpt>
      <trkpt lat="44.85602" lon="4.80344">
        <ele>261.52899169922</ele>
        <time>2011-04-06T13:13:35Z</time>
      </trkpt>
      <trkpt lat="44.85625" lon="4.80333">
        <ele>262.69900512695</ele>
        <time>2011-04-06T13:13:40Z</time>
      </trkpt>
      <trkpt lat="44.85644" lon="4.80342">
        <ele>263.38500976562</ele>
        <time>2011-04-06T13:13:44Z</time>
      </trkpt>
      <trkpt lat="44.85675" lon="4.8037">
        <ele>265.06298828125</ele>
        <time>2011-04-06T13:13:51Z</time>
      </trkpt>
      <trkpt lat="44.85695" lon="4.80371">
        <ele>265.80099487305</ele>
        <time>2011-04-06T13:13:55Z</time>
      </trkpt>
      <trkpt lat="44.85705" lon="4.80363">
        <ele>265.98699951172</ele>
        <time>2011-04-06T13:13:57Z</time>
      </trkpt>
      <trkpt lat="44.8574" lon="4.80329">
        <ele>267.6789855957</ele>
        <time>2011-04-06T13:14:05Z</time>
      </trkpt>
      <trkpt lat="44.85743" lon="4.80324">
        <ele>267.97299194336</ele>
        <time>2011-04-06T13:14:06Z</time>
      </trkpt>
      <trkpt lat="44.85758" lon="4.80292">
        <ele>269.73699951172</ele>
        <time>2011-04-06T13:14:12Z</time>
      </trkpt>
      <trkpt lat="44.85768" lon="4.80272">
        <ele>270.72299194336</ele>
        <time>2011-04-06T13:14:16Z</time>
      </trkpt>
      <trkpt lat="44.85797" lon="4.80243">
        <ele>272.17700195312</ele>
        <time>2011-04-06T13:14:24Z</time>
      </trkpt>
      <trkpt lat="44.85823" lon="4.80216">
        <ele>273.61999511719</ele>
        <time>2011-04-06T13:14:31Z</time>
      </trkpt>
      <trkpt lat="44.85841" lon="4.80208">
        <ele>274.45599365234</ele>
        <time>2011-04-06T13:14:35Z</time>
      </trkpt>
      <trkpt lat="44.85873" lon="4.80203">
        <ele>275.80700683594</ele>
        <time>2011-04-06T13:14:42Z</time>
      </trkpt>
      <trkpt lat="44.85907" lon="4.80186">
        <ele>277.31399536133</ele>
        <time>2011-04-06T13:14:50Z</time>
      </trkpt>
      <trkpt lat="44.85911" lon="4.80183">
        <ele>277.32598876953</ele>
        <time>2011-04-06T13:14:51Z</time>
      </trkpt>
      <trkpt lat="44.85935" lon="4.80154">
        <ele>278.88900756836</ele>
        <time>2011-04-06T13:14:58Z</time>
      </trkpt>
      <trkpt lat="44.85955" lon="4.80113">
        <ele>280.63400268555</ele>
        <time>2011-04-06T13:15:06Z</time>
      </trkpt>
      <trkpt lat="44.85979" lon="4.80075">
        <ele>282.17599487305</ele>
        <time>2011-04-06T13:15:14Z</time>
      </trkpt>
      <trkpt lat="44.85991" lon="4.8003">
        <ele>283.60598754883</ele>
        <time>2011-04-06T13:15:21Z</time>
      </trkpt>
      <trkpt lat="44.86005" lon="4.79979">
        <ele>285.0950012207</ele>
        <time>2011-04-06T13:15:29Z</time>
      </trkpt>
      <trkpt lat="44.86012" lon="4.79961">
        <ele>286.02200317383</ele>
        <time>2011-04-06T13:15:32Z</time>
      </trkpt>
      <trkpt lat="44.86015" lon="4.79935">
        <ele>286.75201416016</ele>
        <time>2011-04-06T13:15:36Z</time>
      </trkpt>
      <trkpt lat="44.86005" lon="4.79913">
        <ele>287.52398681641</ele>
        <time>2011-04-06T13:15:40Z</time>
      </trkpt>
      <trkpt lat="44.85972" lon="4.7988">
        <ele>289.30200195312</ele>
        <time>2011-04-06T13:15:48Z</time>
      </trkpt>
      <trkpt lat="44.85947" lon="4.79847">
        <ele>290.35400390625</ele>
        <time>2011-04-06T13:15:55Z</time>
      </trkpt>
      <trkpt lat="44.85925" lon="4.79823">
        <ele>291.77099609375</ele>
        <time>2011-04-06T13:16:01Z</time>
      </trkpt>
      <trkpt lat="44.85906" lon="4.79805">
        <ele>292.83999633789</ele>
        <time>2011-04-06T13:16:06Z</time>
      </trkpt>
      <trkpt lat="44.85895" lon="4.79793">
        <ele>293.73400878906</ele>
        <time>2011-04-06T13:16:09Z</time>
      </trkpt>
      <trkpt lat="44.85885" lon="4.79759">
        <ele>295.08999633789</ele>
        <time>2011-04-06T13:16:15Z</time>
      </trkpt>
      <trkpt lat="44.85882" lon="4.79734">
        <ele>295.69900512695</ele>
        <time>2011-04-06T13:16:19Z</time>
      </trkpt>
      <trkpt lat="44.85872" lon="4.79706">
        <ele>296.41598510742</ele>
        <time>2011-04-06T13:16:24Z</time>
      </trkpt>
      <trkpt lat="44.85852" lon="4.7969">
        <ele>297.48199462891</ele>
        <time>2011-04-06T13:16:29Z</time>
      </trkpt>
      <trkpt lat="44.85831" lon="4.79681">
        <ele>298.50201416016</ele>
        <time>2011-04-06T13:16:34Z</time>
      </trkpt>
      <trkpt lat="44.85819" lon="4.79663">
        <ele>299.40899658203</ele>
        <time>2011-04-06T13:16:38Z</time>
      </trkpt>
      <trkpt lat="44.85822" lon="4.79639">
        <ele>300.18600463867</ele>
        <time>2011-04-06T13:16:42Z</time>
      </trkpt>
      <trkpt lat="44.85824" lon="4.79634">
        <ele>300.48999023438</ele>
        <time>2011-04-06T13:16:43Z</time>
      </trkpt>
      <trkpt lat="44.85836" lon="4.79605">
        <ele>301.66900634766</ele>
        <time>2011-04-06T13:16:48Z</time>
      </trkpt>
      <trkpt lat="44.85836" lon="4.79573">
        <ele>302.06799316406</ele>
        <time>2011-04-06T13:16:53Z</time>
      </trkpt>
      <trkpt lat="44.85823" lon="4.79566">
        <ele>302.38900756836</ele>
        <time>2011-04-06T13:16:56Z</time>
      </trkpt>
      <trkpt lat="44.85818" lon="4.79566">
        <ele>302.60101318359</ele>
        <time>2011-04-06T13:16:57Z</time>
      </trkpt>
      <trkpt lat="44.85779" lon="4.79562">
        <ele>303.96499633789</ele>
        <time>2011-04-06T13:17:05Z</time>
      </trkpt>
      <trkpt lat="44.85744" lon="4.79545">
        <ele>304.87100219727</ele>
        <time>2011-04-06T13:17:13Z</time>
      </trkpt>
      <trkpt lat="44.85711" lon="4.79519">
        <ele>306.61099243164</ele>
        <time>2011-04-06T13:17:21Z</time>
      </trkpt>
      <trkpt lat="44.85687" lon="4.79508">
        <ele>308.11199951172</ele>
        <time>2011-04-06T13:17:26Z</time>
      </trkpt>
      <trkpt lat="44.85672" lon="4.79505">
        <ele>309.02499389648</ele>
        <time>2011-04-06T13:17:29Z</time>
      </trkpt>
      <trkpt lat="44.85655" lon="4.7949">
        <ele>310.52099609375</ele>
        <time>2011-04-06T13:17:33Z</time>
      </trkpt>
      <trkpt lat="44.85653" lon="4.79468">
        <ele>311.15200805664</ele>
        <time>2011-04-06T13:17:36Z</time>
      </trkpt>
      <trkpt lat="44.85661" lon="4.7945">
        <ele>311.86401367188</ele>
        <time>2011-04-06T13:17:39Z</time>
      </trkpt>
      <trkpt lat="44.8567" lon="4.79443">
        <ele>312.35699462891</ele>
        <time>2011-04-06T13:17:41Z</time>
      </trkpt>
      <trkpt lat="44.85727" lon="4.79422">
        <ele>313.89001464844</ele>
        <time>2011-04-06T13:17:52Z</time>
      </trkpt>
      <trkpt lat="44.85773" lon="4.79415">
        <ele>315.86199951172</ele>
        <time>2011-04-06T13:18:01Z</time>
      </trkpt>
      <trkpt lat="44.85823" lon="4.79409">
        <ele>318.1789855957</ele>
        <time>2011-04-06T13:18:11Z</time>
      </trkpt>
      <trkpt lat="44.85863" lon="4.79405">
        <ele>319.70999145508</ele>
        <time>2011-04-06T13:18:19Z</time>
      </trkpt>
      <trkpt lat="44.85895" lon="4.79408">
        <ele>320.86700439453</ele>
        <time>2011-04-06T13:18:25Z</time>
      </trkpt>
      <trkpt lat="44.85921" lon="4.79401">
        <ele>321.82400512695</ele>
        <time>2011-04-06T13:18:30Z</time>
      </trkpt>
      <trkpt lat="44.85958" lon="4.79374">
        <ele>323.4700012207</ele>
        <time>2011-04-06T13:18:38Z</time>
      </trkpt>
      <trkpt lat="44.85982" lon="4.79358">
        <ele>324.51599121094</ele>
        <time>2011-04-06T13:18:43Z</time>
      </trkpt>
      <trkpt lat="44.85999" lon="4.79328">
        <ele>325.42999267578</ele>
        <time>2011-04-06T13:18:48Z</time>
      </trkpt>
      <trkpt lat="44.8601" lon="4.79301">
        <ele>325.74798583984</ele>
        <time>2011-04-06T13:18:52Z</time>
      </trkpt>
      <trkpt lat="44.86026" lon="4.79279">
        <ele>326.29998779297</ele>
        <time>2011-04-06T13:18:56Z</time>
      </trkpt>
      <trkpt lat="44.86063" lon="4.79251">
        <ele>327.31698608398</ele>
        <time>2011-04-06T13:19:04Z</time>
      </trkpt>
      <trkpt lat="44.86077" lon="4.79243">
        <ele>328.18600463867</ele>
        <time>2011-04-06T13:19:07Z</time>
      </trkpt>
      <trkpt lat="44.86112" lon="4.7922">
        <ele>329.48699951172</ele>
        <time>2011-04-06T13:19:15Z</time>
      </trkpt>
      <trkpt lat="44.86146" lon="4.79185">
        <ele>330.91299438477</ele>
        <time>2011-04-06T13:19:23Z</time>
      </trkpt>
      <trkpt lat="44.86187" lon="4.79138">
        <ele>332.16799926758</ele>
        <time>2011-04-06T13:19:33Z</time>
      </trkpt>
      <trkpt lat="44.86213" lon="4.79102">
        <ele>333.57998657227</ele>
        <time>2011-04-06T13:19:40Z</time>
      </trkpt>
      <trkpt lat="44.8624" lon="4.79062">
        <ele>335.44799804688</ele>
        <time>2011-04-06T13:19:48Z</time>
      </trkpt>
      <trkpt lat="44.8626" lon="4.79039">
        <ele>336.5539855957</ele>
        <time>2011-04-06T13:19:54Z</time>
      </trkpt>
      <trkpt lat="44.86268" lon="4.79034">
        <ele>336.79501342773</ele>
        <time>2011-04-06T13:19:56Z</time>
      </trkpt>
      <trkpt lat="44.86302" lon="4.79019">
        <ele>338.45901489258</ele>
        <time>2011-04-06T13:20:04Z</time>
      </trkpt>
      <trkpt lat="44.86326" lon="4.79015">
        <ele>339.10198974609</ele>
        <time>2011-04-06T13:20:09Z</time>
      </trkpt>
      <trkpt lat="44.86351" lon="4.78999">
        <ele>340.64199829102</ele>
        <time>2011-04-06T13:20:15Z</time>
      </trkpt>
      <trkpt lat="44.86354" lon="4.78974">
        <ele>341.1780090332</ele>
        <time>2011-04-06T13:20:19Z</time>
      </trkpt>
      <trkpt lat="44.86352" lon="4.78963">
        <ele>341.68499755859</ele>
        <time>2011-04-06T13:20:21Z</time>
      </trkpt>
      <trkpt lat="44.86334" lon="4.78914">
        <ele>342.69198608398</ele>
        <time>2011-04-06T13:20:29Z</time>
      </trkpt>
      <trkpt lat="44.86323" lon="4.78879">
        <ele>344.29800415039</ele>
        <time>2011-04-06T13:20:35Z</time>
      </trkpt>
      <trkpt lat="44.8632" lon="4.78868">
        <ele>344.64199829102</ele>
        <time>2011-04-06T13:20:37Z</time>
      </trkpt>
      <trkpt lat="44.86303" lon="4.78839">
        <ele>345.43301391602</ele>
        <time>2011-04-06T13:20:43Z</time>
      </trkpt>
      <trkpt lat="44.86293" lon="4.78826">
        <ele>346.2919921875</ele>
        <time>2011-04-06T13:20:46Z</time>
      </trkpt>
      <trkpt lat="44.86287" lon="4.78795">
        <ele>347.00100708008</ele>
        <time>2011-04-06T13:20:51Z</time>
      </trkpt>
      <trkpt lat="44.86292" lon="4.78744">
        <ele>348.37200927734</ele>
        <time>2011-04-06T13:20:59Z</time>
      </trkpt>
      <trkpt lat="44.86298" lon="4.787">
        <ele>349.91500854492</ele>
        <time>2011-04-06T13:21:06Z</time>
      </trkpt>
      <trkpt lat="44.86291" lon="4.78665">
        <ele>350.91500854492</ele>
        <time>2011-04-06T13:21:12Z</time>
      </trkpt>
      <trkpt lat="44.86275" lon="4.78653">
        <ele>351.68499755859</ele>
        <time>2011-04-06T13:21:16Z</time>
      </trkpt>
      <trkpt lat="44.86271" lon="4.78652">
        <ele>351.84201049805</ele>
        <time>2011-04-06T13:21:17Z</time>
      </trkpt>
      <trkpt lat="44.86245" lon="4.7863">
        <ele>353.15399169922</ele>
        <time>2011-04-06T13:21:24Z</time>
      </trkpt>
      <trkpt lat="44.86239" lon="4.7862">
        <ele>353.37701416016</ele>
        <time>2011-04-06T13:21:26Z</time>
      </trkpt>
      <trkpt lat="44.86235" lon="4.78609">
        <ele>353.96301269531</ele>
        <time>2011-04-06T13:21:28Z</time>
      </trkpt>
      <trkpt lat="44.86217" lon="4.78583">
        <ele>355.33200073242</ele>
        <time>2011-04-06T13:21:34Z</time>
      </trkpt>
      <trkpt lat="44.86214" lon="4.78578">
        <ele>355.57400512695</ele>
        <time>2011-04-06T13:21:35Z</time>
      </trkpt>
      <trkpt lat="44.86211" lon="4.78555">
        <ele>356.21600341797</ele>
        <time>2011-04-06T13:21:39Z</time>
      </trkpt>
      <trkpt lat="44.86223" lon="4.78545">
        <ele>356.87298583984</ele>
        <time>2011-04-06T13:21:42Z</time>
      </trkpt>
      <trkpt lat="44.86233" lon="4.78547">
        <ele>357.50299072266</ele>
        <time>2011-04-06T13:21:44Z</time>
      </trkpt>
      <trkpt lat="44.86271" lon="4.78556">
        <ele>359.15301513672</ele>
        <time>2011-04-06T13:21:52Z</time>
      </trkpt>
      <trkpt lat="44.86275" lon="4.78555">
        <ele>359.41500854492</ele>
        <time>2011-04-06T13:21:53Z</time>
      </trkpt>
      <trkpt lat="44.86289" lon="4.78553">
        <ele>359.89999389648</ele>
        <time>2011-04-06T13:21:56Z</time>
      </trkpt>
      <trkpt lat="44.86307" lon="4.78546">
        <ele>360.53601074219</ele>
        <time>2011-04-06T13:22:00Z</time>
      </trkpt>
      <trkpt lat="44.86328" lon="4.78521">
        <ele>361.50399780273</ele>
        <time>2011-04-06T13:22:06Z</time>
      </trkpt>
      <trkpt lat="44.86332" lon="4.78502">
        <ele>362.29000854492</ele>
        <time>2011-04-06T13:22:09Z</time>
      </trkpt>
      <trkpt lat="44.86331" lon="4.78489">
        <ele>362.69400024414</ele>
        <time>2011-04-06T13:22:11Z</time>
      </trkpt>
      <trkpt lat="44.8633" lon="4.78455">
        <ele>363.81799316406</ele>
        <time>2011-04-06T13:22:17Z</time>
      </trkpt>
      <trkpt lat="44.86343" lon="4.78438">
        <ele>364.16198730469</ele>
        <time>2011-04-06T13:22:21Z</time>
      </trkpt>
      <trkpt lat="44.86351" lon="4.78435">
        <ele>364.68499755859</ele>
        <time>2011-04-06T13:22:23Z</time>
      </trkpt>
      <trkpt lat="44.86385" lon="4.7843">
        <ele>366.06900024414</ele>
        <time>2011-04-06T13:22:30Z</time>
      </trkpt>
      <trkpt lat="44.86419" lon="4.78421">
        <ele>367.16598510742</ele>
        <time>2011-04-06T13:22:37Z</time>
      </trkpt>
      <trkpt lat="44.86451" lon="4.78416">
        <ele>368.4280090332</ele>
        <time>2011-04-06T13:22:44Z</time>
      </trkpt>
      <trkpt lat="44.8648" lon="4.78416">
        <ele>369.29598999023</ele>
        <time>2011-04-06T13:22:50Z</time>
      </trkpt>
      <trkpt lat="44.86512" lon="4.78419">
        <ele>370.97198486328</ele>
        <time>2011-04-06T13:22:57Z</time>
      </trkpt>
      <trkpt lat="44.86535" lon="4.78408">
        <ele>371.61599731445</ele>
        <time>2011-04-06T13:23:02Z</time>
      </trkpt>
      <trkpt lat="44.86538" lon="4.78405">
        <ele>371.66000366211</ele>
        <time>2011-04-06T13:23:03Z</time>
      </trkpt>
      <trkpt lat="44.86558" lon="4.78385">
        <ele>372.60000610352</ele>
        <time>2011-04-06T13:23:08Z</time>
      </trkpt>
      <trkpt lat="44.86589" lon="4.78361">
        <ele>374.05499267578</ele>
        <time>2011-04-06T13:23:15Z</time>
      </trkpt>
      <trkpt lat="44.86593" lon="4.78356">
        <ele>374.20599365234</ele>
        <time>2011-04-06T13:23:16Z</time>
      </trkpt>
      <trkpt lat="44.86622" lon="4.78307">
        <ele>375.32699584961</ele>
        <time>2011-04-06T13:23:25Z</time>
      </trkpt>
      <trkpt lat="44.86638" lon="4.78283">
        <ele>376.12899780273</ele>
        <time>2011-04-06T13:23:30Z</time>
      </trkpt>
      <trkpt lat="44.86662" lon="4.78272">
        <ele>376.71499633789</ele>
        <time>2011-04-06T13:23:35Z</time>
      </trkpt>
      <trkpt lat="44.86666" lon="4.78273">
        <ele>376.61999511719</ele>
        <time>2011-04-06T13:23:36Z</time>
      </trkpt>
      <trkpt lat="44.86677" lon="4.78275">
        <ele>377.10400390625</ele>
        <time>2011-04-06T13:23:38Z</time>
      </trkpt>
      <trkpt lat="44.86694" lon="4.78259">
        <ele>378.40899658203</ele>
        <time>2011-04-06T13:23:42Z</time>
      </trkpt>
      <trkpt lat="44.86694" lon="4.78234">
        <ele>378.86801147461</ele>
        <time>2011-04-06T13:23:45Z</time>
      </trkpt>
      <trkpt lat="44.86688" lon="4.78181">
        <ele>379.92001342773</ele>
        <time>2011-04-06T13:23:52Z</time>
      </trkpt>
      <trkpt lat="44.86696" lon="4.78146">
        <ele>380.40600585938</ele>
        <time>2011-04-06T13:23:57Z</time>
      </trkpt>
      <trkpt lat="44.8671" lon="4.78135">
        <ele>380.92300415039</ele>
        <time>2011-04-06T13:24:00Z</time>
      </trkpt>
      <trkpt lat="44.86752" lon="4.78123">
        <ele>382.92999267578</ele>
        <time>2011-04-06T13:24:08Z</time>
      </trkpt>
      <trkpt lat="44.86779" lon="4.7813">
        <ele>384.23599243164</ele>
        <time>2011-04-06T13:24:13Z</time>
      </trkpt>
      <trkpt lat="44.86804" lon="4.7812">
        <ele>385.42999267578</ele>
        <time>2011-04-06T13:24:18Z</time>
      </trkpt>
      <trkpt lat="44.86808" lon="4.78115">
        <ele>385.88900756836</ele>
        <time>2011-04-06T13:24:19Z</time>
      </trkpt>
      <trkpt lat="44.86842" lon="4.78056">
        <ele>387.75</ele>
        <time>2011-04-06T13:24:29Z</time>
      </trkpt>
      <trkpt lat="44.86872" lon="4.78013">
        <ele>388.75601196289</ele>
        <time>2011-04-06T13:24:37Z</time>
      </trkpt>
      <trkpt lat="44.86898" lon="4.77968">
        <ele>389.69799804688</ele>
        <time>2011-04-06T13:24:45Z</time>
      </trkpt>
      <trkpt lat="44.86917" lon="4.77951">
        <ele>390.55700683594</ele>
        <time>2011-04-06T13:24:49Z</time>
      </trkpt>
      <trkpt lat="44.86963" lon="4.77918">
        <ele>392.52801513672</ele>
        <time>2011-04-06T13:24:59Z</time>
      </trkpt>
      <trkpt lat="44.86995" lon="4.77897">
        <ele>394.24600219727</ele>
        <time>2011-04-06T13:25:06Z</time>
      </trkpt>
      <trkpt lat="44.87029" lon="4.77869">
        <ele>395.07000732422</ele>
        <time>2011-04-06T13:25:14Z</time>
      </trkpt>
      <trkpt lat="44.87057" lon="4.7786">
        <ele>396.16400146484</ele>
        <time>2011-04-06T13:25:20Z</time>
      </trkpt>
      <trkpt lat="44.87067" lon="4.77862">
        <ele>396.49899291992</ele>
        <time>2011-04-06T13:25:22Z</time>
      </trkpt>
      <trkpt lat="44.87087" lon="4.77869">
        <ele>397.35699462891</ele>
        <time>2011-04-06T13:25:26Z</time>
      </trkpt>
      <trkpt lat="44.87107" lon="4.77868">
        <ele>398.12200927734</ele>
        <time>2011-04-06T13:25:30Z</time>
      </trkpt>
      <trkpt lat="44.87149" lon="4.77849">
        <ele>399.56298828125</ele>
        <time>2011-04-06T13:25:39Z</time>
      </trkpt>
      <trkpt lat="44.87188" lon="4.77831">
        <ele>401.56900024414</ele>
        <time>2011-04-06T13:25:47Z</time>
      </trkpt>
      <trkpt lat="44.87236" lon="4.77808">
        <ele>402.04901123047</ele>
        <time>2011-04-06T13:25:57Z</time>
      </trkpt>
      <trkpt lat="44.87265" lon="4.77796">
        <ele>403.31298828125</ele>
        <time>2011-04-06T13:26:03Z</time>
      </trkpt>
      <trkpt lat="44.873" lon="4.778">
        <ele>405.10501098633</ele>
        <time>2011-04-06T13:26:11Z</time>
      </trkpt>
      <trkpt lat="44.87323" lon="4.7781">
        <ele>405.48498535156</ele>
        <time>2011-04-06T13:26:16Z</time>
      </trkpt>
      <trkpt lat="44.87357" lon="4.77812">
        <ele>406.77801513672</ele>
        <time>2011-04-06T13:26:23Z</time>
      </trkpt>
      <trkpt lat="44.87399" lon="4.77803">
        <ele>408.27398681641</ele>
        <time>2011-04-06T13:26:31Z</time>
      </trkpt>
      <trkpt lat="44.87438" lon="4.77778">
        <ele>409.20098876953</ele>
        <time>2011-04-06T13:26:39Z</time>
      </trkpt>
      <trkpt lat="44.87443" lon="4.77774">
        <ele>409.12298583984</ele>
        <time>2011-04-06T13:26:40Z</time>
      </trkpt>
      <trkpt lat="44.87461" lon="4.77743">
        <ele>409.69299316406</ele>
        <time>2011-04-06T13:26:45Z</time>
      </trkpt>
      <trkpt lat="44.87465" lon="4.77727">
        <ele>409.73400878906</ele>
        <time>2011-04-06T13:26:47Z</time>
      </trkpt>
      <trkpt lat="44.87474" lon="4.77673">
        <ele>410.39300537109</ele>
        <time>2011-04-06T13:26:54Z</time>
      </trkpt>
      <trkpt lat="44.87489" lon="4.77649">
        <ele>410.61700439453</ele>
        <time>2011-04-06T13:26:58Z</time>
      </trkpt>
      <trkpt lat="44.8752" lon="4.77613">
        <ele>412.14599609375</ele>
        <time>2011-04-06T13:27:06Z</time>
      </trkpt>
      <trkpt lat="44.87533" lon="4.7759">
        <ele>412.80700683594</ele>
        <time>2011-04-06T13:27:10Z</time>
      </trkpt>
      <trkpt lat="44.87549" lon="4.77577">
        <ele>413.35400390625</ele>
        <time>2011-04-06T13:27:14Z</time>
      </trkpt>
      <trkpt lat="44.87563" lon="4.77582">
        <ele>414.10800170898</ele>
        <time>2011-04-06T13:27:17Z</time>
      </trkpt>
      <trkpt lat="44.87566" lon="4.77586">
        <ele>414.49200439453</ele>
        <time>2011-04-06T13:27:18Z</time>
      </trkpt>
      <trkpt lat="44.87592" lon="4.77621">
        <ele>415.24200439453</ele>
        <time>2011-04-06T13:27:25Z</time>
      </trkpt>
      <trkpt lat="44.87602" lon="4.77634">
        <ele>415.95300292969</ele>
        <time>2011-04-06T13:27:28Z</time>
      </trkpt>
      <trkpt lat="44.87621" lon="4.77639">
        <ele>416.40200805664</ele>
        <time>2011-04-06T13:27:32Z</time>
      </trkpt>
      <trkpt lat="44.87631" lon="4.77627">
        <ele>417</ele>
        <time>2011-04-06T13:27:35Z</time>
      </trkpt>
      <trkpt lat="44.87649" lon="4.77582">
        <ele>417.56698608398</ele>
        <time>2011-04-06T13:27:42Z</time>
      </trkpt>
      <trkpt lat="44.87658" lon="4.77531">
        <ele>418.89599609375</ele>
        <time>2011-04-06T13:27:49Z</time>
      </trkpt>
      <trkpt lat="44.8766" lon="4.77517">
        <ele>419.34298706055</ele>
        <time>2011-04-06T13:27:51Z</time>
      </trkpt>
      <trkpt lat="44.87672" lon="4.77494">
        <ele>419.76501464844</ele>
        <time>2011-04-06T13:27:55Z</time>
      </trkpt>
      <trkpt lat="44.87683" lon="4.77481">
        <ele>420.24499511719</ele>
        <time>2011-04-06T13:27:58Z</time>
      </trkpt>
      <trkpt lat="44.87693" lon="4.77463">
        <ele>420.48400878906</ele>
        <time>2011-04-06T13:28:02Z</time>
      </trkpt>
      <trkpt lat="44.87698" lon="4.77438">
        <ele>421.26501464844</ele>
        <time>2011-04-06T13:28:07Z</time>
      </trkpt>
      <trkpt lat="44.87696" lon="4.77401">
        <ele>421.91500854492</ele>
        <time>2011-04-06T13:28:13Z</time>
      </trkpt>
      <trkpt lat="44.87691" lon="4.77364">
        <ele>423.29800415039</ele>
        <time>2011-04-06T13:28:19Z</time>
      </trkpt>
      <trkpt lat="44.8768" lon="4.77309">
        <ele>424.73400878906</ele>
        <time>2011-04-06T13:28:28Z</time>
      </trkpt>
      <trkpt lat="44.8767" lon="4.77276">
        <ele>425.67001342773</ele>
        <time>2011-04-06T13:28:34Z</time>
      </trkpt>
      <trkpt lat="44.87657" lon="4.77253">
        <ele>426.50900268555</ele>
        <time>2011-04-06T13:28:40Z</time>
      </trkpt>
      <trkpt lat="44.87645" lon="4.77237">
        <ele>427.32501220703</ele>
        <time>2011-04-06T13:28:45Z</time>
      </trkpt>
      <trkpt lat="44.87645" lon="4.77235">
        <ele>427.22198486328</ele>
        <time>2011-04-06T13:28:47Z</time>
      </trkpt>
      <trkpt lat="44.87642" lon="4.77231">
        <ele>427.35101318359</ele>
        <time>2011-04-06T13:29:13Z</time>
      </trkpt>
      <trkpt lat="44.8763" lon="4.77214">
        <ele>426.55499267578</ele>
        <time>2011-04-06T13:29:18Z</time>
      </trkpt>
      <trkpt lat="44.87623" lon="4.77192">
        <ele>426.25698852539</ele>
        <time>2011-04-06T13:29:22Z</time>
      </trkpt>
      <trkpt lat="44.87621" lon="4.77179">
        <ele>425.93399047852</ele>
        <time>2011-04-06T13:29:24Z</time>
      </trkpt>
      <trkpt lat="44.87619" lon="4.77147">
        <ele>424.64599609375</ele>
        <time>2011-04-06T13:29:28Z</time>
      </trkpt>
      <trkpt lat="44.87618" lon="4.77138">
        <ele>424.46301269531</ele>
        <time>2011-04-06T13:29:29Z</time>
      </trkpt>
      <trkpt lat="44.87626" lon="4.77103">
        <ele>423.17098999023</ele>
        <time>2011-04-06T13:29:33Z</time>
      </trkpt>
      <trkpt lat="44.87641" lon="4.77081">
        <ele>422.95098876953</ele>
        <time>2011-04-06T13:29:36Z</time>
      </trkpt>
      <trkpt lat="44.87674" lon="4.77036">
        <ele>420.42999267578</ele>
        <time>2011-04-06T13:29:42Z</time>
      </trkpt>
      <trkpt lat="44.87678" lon="4.77012">
        <ele>419.37899780273</ele>
        <time>2011-04-06T13:29:45Z</time>
      </trkpt>
      <trkpt lat="44.87668" lon="4.77002">
        <ele>418.97299194336</ele>
        <time>2011-04-06T13:29:47Z</time>
      </trkpt>
      <trkpt lat="44.87638" lon="4.76983">
        <ele>417.63101196289</ele>
        <time>2011-04-06T13:29:52Z</time>
      </trkpt>
      <trkpt lat="44.8763" lon="4.76959">
        <ele>416.36999511719</ele>
        <time>2011-04-06T13:29:55Z</time>
      </trkpt>
      <trkpt lat="44.87634" lon="4.76939">
        <ele>415.78298950195</ele>
        <time>2011-04-06T13:29:57Z</time>
      </trkpt>
      <trkpt lat="44.87649" lon="4.76879">
        <ele>414.20999145508</ele>
        <time>2011-04-06T13:30:03Z</time>
      </trkpt>
      <trkpt lat="44.87652" lon="4.76868">
        <ele>413.8219909668</ele>
        <time>2011-04-06T13:30:04Z</time>
      </trkpt>
      <trkpt lat="44.8767" lon="4.76829">
        <ele>412.32699584961</ele>
        <time>2011-04-06T13:30:08Z</time>
      </trkpt>
      <trkpt lat="44.87707" lon="4.76775">
        <ele>409.75299072266</ele>
        <time>2011-04-06T13:30:14Z</time>
      </trkpt>
      <trkpt lat="44.87714" lon="4.76766">
        <ele>409.45300292969</ele>
        <time>2011-04-06T13:30:15Z</time>
      </trkpt>
      <trkpt lat="44.8773" lon="4.76745">
        <ele>408.06100463867</ele>
        <time>2011-04-06T13:30:18Z</time>
      </trkpt>
      <trkpt lat="44.87734" lon="4.76724">
        <ele>407.25799560547</ele>
        <time>2011-04-06T13:30:21Z</time>
      </trkpt>
      <trkpt lat="44.87725" lon="4.76719">
        <ele>407.28500366211</ele>
        <time>2011-04-06T13:30:23Z</time>
      </trkpt>
      <trkpt lat="44.87716" lon="4.7672">
        <ele>407.23300170898</ele>
        <time>2011-04-06T13:30:25Z</time>
      </trkpt>
      <trkpt lat="44.87706" lon="4.76722">
        <ele>407.18399047852</ele>
        <time>2011-04-06T13:30:27Z</time>
      </trkpt>
      <trkpt lat="44.87687" lon="4.76728">
        <ele>407.8450012207</ele>
        <time>2011-04-06T13:30:31Z</time>
      </trkpt>
      <trkpt lat="44.87673" lon="4.76733">
        <ele>408.31201171875</ele>
        <time>2011-04-06T13:30:34Z</time>
      </trkpt>
      <trkpt lat="44.87657" lon="4.76731">
        <ele>408.57598876953</ele>
        <time>2011-04-06T13:30:37Z</time>
      </trkpt>
      <trkpt lat="44.87648" lon="4.7672">
        <ele>408.5830078125</ele>
        <time>2011-04-06T13:30:39Z</time>
      </trkpt>
      <trkpt lat="44.87642" lon="4.76699">
        <ele>409.56100463867</ele>
        <time>2011-04-06T13:30:42Z</time>
      </trkpt>
      <trkpt lat="44.87638" lon="4.76688">
        <ele>409.96600341797</ele>
        <time>2011-04-06T13:30:44Z</time>
      </trkpt>
      <trkpt lat="44.87634" lon="4.7668">
        <ele>410.37100219727</ele>
        <time>2011-04-06T13:30:46Z</time>
      </trkpt>
      <trkpt lat="44.87617" lon="4.76686">
        <ele>410.91299438477</ele>
        <time>2011-04-06T13:30:51Z</time>
      </trkpt>
      <trkpt lat="44.87616" lon="4.76717">
        <ele>411.35000610352</ele>
        <time>2011-04-06T13:30:56Z</time>
      </trkpt>
      <trkpt lat="44.87615" lon="4.76728">
        <ele>411.8039855957</ele>
        <time>2011-04-06T13:30:58Z</time>
      </trkpt>
      <trkpt lat="44.87607" lon="4.76761">
        <ele>412.24200439453</ele>
        <time>2011-04-06T13:31:04Z</time>
      </trkpt>
      <trkpt lat="44.87593" lon="4.76782">
        <ele>412.92498779297</ele>
        <time>2011-04-06T13:31:09Z</time>
      </trkpt>
      <trkpt lat="44.87581" lon="4.76789">
        <ele>412.63500976562</ele>
        <time>2011-04-06T13:31:12Z</time>
      </trkpt>
      <trkpt lat="44.87565" lon="4.76809">
        <ele>413.27398681641</ele>
        <time>2011-04-06T13:31:17Z</time>
      </trkpt>
      <trkpt lat="44.87547" lon="4.76849">
        <ele>414.25500488281</ele>
        <time>2011-04-06T13:31:25Z</time>
      </trkpt>
      <trkpt lat="44.87524" lon="4.76871">
        <ele>415.57800292969</ele>
        <time>2011-04-06T13:31:32Z</time>
      </trkpt>
      <trkpt lat="44.8752" lon="4.76874">
        <ele>415.64099121094</ele>
        <time>2011-04-06T13:31:33Z</time>
      </trkpt>
      <trkpt lat="44.87499" lon="4.76871">
        <ele>416.14199829102</ele>
        <time>2011-04-06T13:31:38Z</time>
      </trkpt>
      <trkpt lat="44.87468" lon="4.76848">
        <ele>417.0119934082</ele>
        <time>2011-04-06T13:31:47Z</time>
      </trkpt>
      <trkpt lat="44.87455" lon="4.76834">
        <ele>417.50799560547</ele>
        <time>2011-04-06T13:31:51Z</time>
      </trkpt>
      <trkpt lat="44.87431" lon="4.76807">
        <ele>418.35900878906</ele>
        <time>2011-04-06T13:31:58Z</time>
      </trkpt>
      <trkpt lat="44.87405" lon="4.7679">
        <ele>418.89700317383</ele>
        <time>2011-04-06T13:32:05Z</time>
      </trkpt>
      <trkpt lat="44.87393" lon="4.76783">
        <ele>419.03298950195</ele>
        <time>2011-04-06T13:32:08Z</time>
      </trkpt>
      <trkpt lat="44.87363" lon="4.76777">
        <ele>417.98400878906</ele>
        <time>2011-04-06T13:32:14Z</time>
      </trkpt>
      <trkpt lat="44.87328" lon="4.7677">
        <ele>417.10501098633</ele>
        <time>2011-04-06T13:32:20Z</time>
      </trkpt>
      <trkpt lat="44.87284" lon="4.76763">
        <ele>415.85101318359</ele>
        <time>2011-04-06T13:32:27Z</time>
      </trkpt>
      <trkpt lat="44.87265" lon="4.76758">
        <ele>415.3450012207</ele>
        <time>2011-04-06T13:32:30Z</time>
      </trkpt>
      <trkpt lat="44.87259" lon="4.76756">
        <ele>415.19400024414</ele>
        <time>2011-04-06T13:32:31Z</time>
      </trkpt>
      <trkpt lat="44.87231" lon="4.76729">
        <ele>414.73199462891</ele>
        <time>2011-04-06T13:32:36Z</time>
      </trkpt>
      <trkpt lat="44.87225" lon="4.76723">
        <ele>414.40100097656</ele>
        <time>2011-04-06T13:32:37Z</time>
      </trkpt>
      <trkpt lat="44.87208" lon="4.76706">
        <ele>413.63800048828</ele>
        <time>2011-04-06T13:32:40Z</time>
      </trkpt>
      <trkpt lat="44.87182" lon="4.76696">
        <ele>412.66500854492</ele>
        <time>2011-04-06T13:32:44Z</time>
      </trkpt>
      <trkpt lat="44.87162" lon="4.76697">
        <ele>412.21499633789</ele>
        <time>2011-04-06T13:32:47Z</time>
      </trkpt>
      <trkpt lat="44.87138" lon="4.76686">
        <ele>411.97100830078</ele>
        <time>2011-04-06T13:32:51Z</time>
      </trkpt>
      <trkpt lat="44.87135" lon="4.76662">
        <ele>411.71899414062</ele>
        <time>2011-04-06T13:32:54Z</time>
      </trkpt>
      <trkpt lat="44.87135" lon="4.76653">
        <ele>411.40899658203</ele>
        <time>2011-04-06T13:32:55Z</time>
      </trkpt>
      <trkpt lat="44.87134" lon="4.76609">
        <ele>411.00698852539</ele>
        <time>2011-04-06T13:33:00Z</time>
      </trkpt>
      <trkpt lat="44.87136" lon="4.76591">
        <ele>410.70498657227</ele>
        <time>2011-04-06T13:33:02Z</time>
      </trkpt>
      <trkpt lat="44.87149" lon="4.7656">
        <ele>409.96600341797</ele>
        <time>2011-04-06T13:33:06Z</time>
      </trkpt>
      <trkpt lat="44.87164" lon="4.76542">
        <ele>409.23300170898</ele>
        <time>2011-04-06T13:33:09Z</time>
      </trkpt>
      <trkpt lat="44.87174" lon="4.76522">
        <ele>409.07598876953</ele>
        <time>2011-04-06T13:33:12Z</time>
      </trkpt>
      <trkpt lat="44.87185" lon="4.76502">
        <ele>409.09298706055</ele>
        <time>2011-04-06T13:33:15Z</time>
      </trkpt>
      <trkpt lat="44.8719" lon="4.7647">
        <ele>407.99700927734</ele>
        <time>2011-04-06T13:33:19Z</time>
      </trkpt>
      <trkpt lat="44.87188" lon="4.76462">
        <ele>407.80899047852</ele>
        <time>2011-04-06T13:33:20Z</time>
      </trkpt>
      <trkpt lat="44.87177" lon="4.76428">
        <ele>406.94299316406</ele>
        <time>2011-04-06T13:33:24Z</time>
      </trkpt>
      <trkpt lat="44.87178" lon="4.76395">
        <ele>406.25698852539</ele>
        <time>2011-04-06T13:33:28Z</time>
      </trkpt>
      <trkpt lat="44.87181" lon="4.76388">
        <ele>405.95300292969</ele>
        <time>2011-04-06T13:33:29Z</time>
      </trkpt>
      <trkpt lat="44.8719" lon="4.76377">
        <ele>405.79098510742</ele>
        <time>2011-04-06T13:33:31Z</time>
      </trkpt>
      <trkpt lat="44.87195" lon="4.76352">
        <ele>405.18600463867</ele>
        <time>2011-04-06T13:33:35Z</time>
      </trkpt>
      <trkpt lat="44.87181" lon="4.76354">
        <ele>404.5950012207</ele>
        <time>2011-04-06T13:33:37Z</time>
      </trkpt>
      <trkpt lat="44.87153" lon="4.76364">
        <ele>404.13198852539</ele>
        <time>2011-04-06T13:33:41Z</time>
      </trkpt>
      <trkpt lat="44.87133" lon="4.76358">
        <ele>403.61499023438</ele>
        <time>2011-04-06T13:33:45Z</time>
      </trkpt>
      <trkpt lat="44.87127" lon="4.76346">
        <ele>403.09799194336</ele>
        <time>2011-04-06T13:33:47Z</time>
      </trkpt>
      <trkpt lat="44.87119" lon="4.76324">
        <ele>402.57000732422</ele>
        <time>2011-04-06T13:33:50Z</time>
      </trkpt>
      <trkpt lat="44.87113" lon="4.76311">
        <ele>402.20300292969</ele>
        <time>2011-04-06T13:33:52Z</time>
      </trkpt>
      <trkpt lat="44.87097" lon="4.76283">
        <ele>401.5530090332</ele>
        <time>2011-04-06T13:33:56Z</time>
      </trkpt>
      <trkpt lat="44.87075" lon="4.76236">
        <ele>400.25698852539</ele>
        <time>2011-04-06T13:34:02Z</time>
      </trkpt>
      <trkpt lat="44.8705" lon="4.76201">
        <ele>399.65600585938</ele>
        <time>2011-04-06T13:34:07Z</time>
      </trkpt>
      <trkpt lat="44.8704" lon="4.76189">
        <ele>399.17401123047</ele>
        <time>2011-04-06T13:34:09Z</time>
      </trkpt>
      <trkpt lat="44.87009" lon="4.76174">
        <ele>397.41900634766</ele>
        <time>2011-04-06T13:34:14Z</time>
      </trkpt>
      <trkpt lat="44.86989" lon="4.76181">
        <ele>396.92700195312</ele>
        <time>2011-04-06T13:34:17Z</time>
      </trkpt>
      <trkpt lat="44.86968" lon="4.7621">
        <ele>396.75399780273</ele>
        <time>2011-04-06T13:34:21Z</time>
      </trkpt>
      <trkpt lat="44.86954" lon="4.76234">
        <ele>397.20901489258</ele>
        <time>2011-04-06T13:34:24Z</time>
      </trkpt>
      <trkpt lat="44.86955" lon="4.76256">
        <ele>397.44400024414</ele>
        <time>2011-04-06T13:34:26Z</time>
      </trkpt>
      <trkpt lat="44.86969" lon="4.76277">
        <ele>397.78698730469</ele>
        <time>2011-04-06T13:34:29Z</time>
      </trkpt>
      <trkpt lat="44.86975" lon="4.76279">
        <ele>397.70999145508</ele>
        <time>2011-04-06T13:34:30Z</time>
      </trkpt>
      <trkpt lat="44.86995" lon="4.76289">
        <ele>399.60501098633</ele>
        <time>2011-04-06T13:34:35Z</time>
      </trkpt>
      <trkpt lat="44.87003" lon="4.76301">
        <ele>400.33999633789</ele>
        <time>2011-04-06T13:34:39Z</time>
      </trkpt>
      <trkpt lat="44.87009" lon="4.76315">
        <ele>401.64001464844</ele>
        <time>2011-04-06T13:34:43Z</time>
      </trkpt>
      <trkpt lat="44.87012" lon="4.76324">
        <ele>401.77398681641</ele>
        <time>2011-04-06T13:34:45Z</time>
      </trkpt>
      <trkpt lat="44.87014" lon="4.76332">
        <ele>401.85800170898</ele>
        <time>2011-04-06T13:34:47Z</time>
      </trkpt>
      <trkpt lat="44.87019" lon="4.76356">
        <ele>404.12600708008</ele>
        <time>2011-04-06T13:34:53Z</time>
      </trkpt>
      <trkpt lat="44.87019" lon="4.76359">
        <ele>404.36999511719</ele>
        <time>2011-04-06T13:34:54Z</time>
      </trkpt>
      <trkpt lat="44.87024" lon="4.76384">
        <ele>405.52600097656</ele>
        <time>2011-04-06T13:35:00Z</time>
      </trkpt>
      <trkpt lat="44.8703" lon="4.76409">
        <ele>406.39999389648</ele>
        <time>2011-04-06T13:35:06Z</time>
      </trkpt>
      <trkpt lat="44.87035" lon="4.76433">
        <ele>407.79299926758</ele>
        <time>2011-04-06T13:35:12Z</time>
      </trkpt>
      <trkpt lat="44.8704" lon="4.7646">
        <ele>409.24099731445</ele>
        <time>2011-04-06T13:35:18Z</time>
      </trkpt>
      <trkpt lat="44.87038" lon="4.76476">
        <ele>410.07901000977</ele>
        <time>2011-04-06T13:35:22Z</time>
      </trkpt>
      <trkpt lat="44.87036" lon="4.76484">
        <ele>410.31799316406</ele>
        <time>2011-04-06T13:35:24Z</time>
      </trkpt>
      <trkpt lat="44.87025" lon="4.76503">
        <ele>411.88000488281</ele>
        <time>2011-04-06T13:35:29Z</time>
      </trkpt>
      <trkpt lat="44.87011" lon="4.76533">
        <ele>414.13000488281</ele>
        <time>2011-04-06T13:35:36Z</time>
      </trkpt>
      <trkpt lat="44.87001" lon="4.7655">
        <ele>415.55499267578</ele>
        <time>2011-04-06T13:35:41Z</time>
      </trkpt>
      <trkpt lat="44.86987" lon="4.76564">
        <ele>416.80200195312</ele>
        <time>2011-04-06T13:35:46Z</time>
      </trkpt>
      <trkpt lat="44.86971" lon="4.76577">
        <ele>418.25500488281</ele>
        <time>2011-04-06T13:35:52Z</time>
      </trkpt>
      <trkpt lat="44.86958" lon="4.76597">
        <ele>419.87298583984</ele>
        <time>2011-04-06T13:35:58Z</time>
      </trkpt>
      <trkpt lat="44.86944" lon="4.7662">
        <ele>421.91400146484</ele>
        <time>2011-04-06T13:36:04Z</time>
      </trkpt>
      <trkpt lat="44.86923" lon="4.76639">
        <ele>423.81399536133</ele>
        <time>2011-04-06T13:36:11Z</time>
      </trkpt>
      <trkpt lat="44.86907" lon="4.76658">
        <ele>425.28799438477</ele>
        <time>2011-04-06T13:36:17Z</time>
      </trkpt>
      <trkpt lat="44.8689" lon="4.76684">
        <ele>427.25698852539</ele>
        <time>2011-04-06T13:36:24Z</time>
      </trkpt>
      <trkpt lat="44.86866" lon="4.76705">
        <ele>429.30700683594</ele>
        <time>2011-04-06T13:36:31Z</time>
      </trkpt>
      <trkpt lat="44.86839" lon="4.76723">
        <ele>431.67599487305</ele>
        <time>2011-04-06T13:36:39Z</time>
      </trkpt>
      <trkpt lat="44.86821" lon="4.76731">
        <ele>433.41500854492</ele>
        <time>2011-04-06T13:36:45Z</time>
      </trkpt>
      <trkpt lat="44.8681" lon="4.76729">
        <ele>432.86898803711</ele>
        <time>2011-04-06T13:36:50Z</time>
      </trkpt>
      <trkpt lat="44.86805" lon="4.76724">
        <ele>432.53900146484</ele>
        <time>2011-04-06T13:36:54Z</time>
      </trkpt>
      <trkpt lat="44.86797" lon="4.76708">
        <ele>431.99798583984</ele>
        <time>2011-04-06T13:36:59Z</time>
      </trkpt>
      <trkpt lat="44.86793" lon="4.76694">
        <ele>431.50698852539</ele>
        <time>2011-04-06T13:37:02Z</time>
      </trkpt>
      <trkpt lat="44.8679" lon="4.76683">
        <ele>430.99499511719</ele>
        <time>2011-04-06T13:37:04Z</time>
      </trkpt>
      <trkpt lat="44.8678" lon="4.76639">
        <ele>429.81600952148</ele>
        <time>2011-04-06T13:37:10Z</time>
      </trkpt>
      <trkpt lat="44.86766" lon="4.76607">
        <ele>429.05099487305</ele>
        <time>2011-04-06T13:37:14Z</time>
      </trkpt>
      <trkpt lat="44.86757" lon="4.7657">
        <ele>427.70001220703</ele>
        <time>2011-04-06T13:37:18Z</time>
      </trkpt>
      <trkpt lat="44.86744" lon="4.76559">
        <ele>427.15600585938</ele>
        <time>2011-04-06T13:37:20Z</time>
      </trkpt>
      <trkpt lat="44.86728" lon="4.76551">
        <ele>426.50500488281</ele>
        <time>2011-04-06T13:37:22Z</time>
      </trkpt>
      <trkpt lat="44.86697" lon="4.76515">
        <ele>425.14001464844</ele>
        <time>2011-04-06T13:37:27Z</time>
      </trkpt>
      <trkpt lat="44.86692" lon="4.76505">
        <ele>424.96099853516</ele>
        <time>2011-04-06T13:37:28Z</time>
      </trkpt>
      <trkpt lat="44.86669" lon="4.76497">
        <ele>423.41799926758</ele>
        <time>2011-04-06T13:37:31Z</time>
      </trkpt>
      <trkpt lat="44.8664" lon="4.76517">
        <ele>421.86099243164</ele>
        <time>2011-04-06T13:37:35Z</time>
      </trkpt>
      <trkpt lat="44.86621" lon="4.7654">
        <ele>421.08200073242</ele>
        <time>2011-04-06T13:37:38Z</time>
      </trkpt>
      <trkpt lat="44.86599" lon="4.76528">
        <ele>420.23699951172</ele>
        <time>2011-04-06T13:37:41Z</time>
      </trkpt>
      <trkpt lat="44.86556" lon="4.76496">
        <ele>419.18899536133</ele>
        <time>2011-04-06T13:37:47Z</time>
      </trkpt>
      <trkpt lat="44.86517" lon="4.76473">
        <ele>417.42401123047</ele>
        <time>2011-04-06T13:37:52Z</time>
      </trkpt>
      <trkpt lat="44.86499" lon="4.76467">
        <ele>416.71301269531</ele>
        <time>2011-04-06T13:37:54Z</time>
      </trkpt>
      <trkpt lat="44.86469" lon="4.76446">
        <ele>416.39001464844</ele>
        <time>2011-04-06T13:37:58Z</time>
      </trkpt>
      <trkpt lat="44.86437" lon="4.76403">
        <ele>414.89599609375</ele>
        <time>2011-04-06T13:38:03Z</time>
      </trkpt>
      <trkpt lat="44.86432" lon="4.76394">
        <ele>414.76300048828</ele>
        <time>2011-04-06T13:38:04Z</time>
      </trkpt>
      <trkpt lat="44.86414" lon="4.76385">
        <ele>414.68499755859</ele>
        <time>2011-04-06T13:38:07Z</time>
      </trkpt>
      <trkpt lat="44.86408" lon="4.76403">
        <ele>414.57598876953</ele>
        <time>2011-04-06T13:38:09Z</time>
      </trkpt>
      <trkpt lat="44.86409" lon="4.76411">
        <ele>414.50201416016</ele>
        <time>2011-04-06T13:38:10Z</time>
      </trkpt>
      <trkpt lat="44.86412" lon="4.76452">
        <ele>414.80700683594</ele>
        <time>2011-04-06T13:38:15Z</time>
      </trkpt>
      <trkpt lat="44.86413" lon="4.76465">
        <ele>415.6369934082</ele>
        <time>2011-04-06T13:38:17Z</time>
      </trkpt>
      <trkpt lat="44.86414" lon="4.76472">
        <ele>415.73599243164</ele>
        <time>2011-04-06T13:38:18Z</time>
      </trkpt>
      <trkpt lat="44.86415" lon="4.76479">
        <ele>415.81399536133</ele>
        <time>2011-04-06T13:38:19Z</time>
      </trkpt>
      <trkpt lat="44.86427" lon="4.76529">
        <ele>416.76000976562</ele>
        <time>2011-04-06T13:38:26Z</time>
      </trkpt>
      <trkpt lat="44.86433" lon="4.76551">
        <ele>417.24301147461</ele>
        <time>2011-04-06T13:38:29Z</time>
      </trkpt>
      <trkpt lat="44.86451" lon="4.76577">
        <ele>418.50698852539</ele>
        <time>2011-04-06T13:38:34Z</time>
      </trkpt>
      <trkpt lat="44.86489" lon="4.76604">
        <ele>419.50100708008</ele>
        <time>2011-04-06T13:38:42Z</time>
      </trkpt>
      <trkpt lat="44.86512" lon="4.76631">
        <ele>420.33200073242</ele>
        <time>2011-04-06T13:38:48Z</time>
      </trkpt>
      <trkpt lat="44.86536" lon="4.76668">
        <ele>421.69500732422</ele>
        <time>2011-04-06T13:38:55Z</time>
      </trkpt>
      <trkpt lat="44.86553" lon="4.76715">
        <ele>422.05801391602</ele>
        <time>2011-04-06T13:39:02Z</time>
      </trkpt>
      <trkpt lat="44.86552" lon="4.76753">
        <ele>422.20300292969</ele>
        <time>2011-04-06T13:39:07Z</time>
      </trkpt>
      <trkpt lat="44.86546" lon="4.76766">
        <ele>422.23098754883</ele>
        <time>2011-04-06T13:39:09Z</time>
      </trkpt>
      <trkpt lat="44.86537" lon="4.76778">
        <ele>422.05899047852</ele>
        <time>2011-04-06T13:39:11Z</time>
      </trkpt>
      <trkpt lat="44.86529" lon="4.76808">
        <ele>422.43099975586</ele>
        <time>2011-04-06T13:39:15Z</time>
      </trkpt>
      <trkpt lat="44.86536" lon="4.76831">
        <ele>422.39898681641</ele>
        <time>2011-04-06T13:39:18Z</time>
      </trkpt>
      <trkpt lat="44.86541" lon="4.76837">
        <ele>422.42498779297</ele>
        <time>2011-04-06T13:39:19Z</time>
      </trkpt>
      <trkpt lat="44.86561" lon="4.76859">
        <ele>422.3330078125</ele>
        <time>2011-04-06T13:39:23Z</time>
      </trkpt>
      <trkpt lat="44.86575" lon="4.76893">
        <ele>422.15399169922</ele>
        <time>2011-04-06T13:39:28Z</time>
      </trkpt>
      <trkpt lat="44.86573" lon="4.76924">
        <ele>422.11999511719</ele>
        <time>2011-04-06T13:39:32Z</time>
      </trkpt>
      <trkpt lat="44.86562" lon="4.76941">
        <ele>422.61898803711</ele>
        <time>2011-04-06T13:39:35Z</time>
      </trkpt>
      <trkpt lat="44.86549" lon="4.76966">
        <ele>422.60800170898</ele>
        <time>2011-04-06T13:39:39Z</time>
      </trkpt>
      <trkpt lat="44.8655" lon="4.76981">
        <ele>422.83499145508</ele>
        <time>2011-04-06T13:39:41Z</time>
      </trkpt>
      <trkpt lat="44.86543" lon="4.77019">
        <ele>422.92498779297</ele>
        <time>2011-04-06T13:39:46Z</time>
      </trkpt>
      <trkpt lat="44.86535" lon="4.7705">
        <ele>423.31698608398</ele>
        <time>2011-04-06T13:39:50Z</time>
      </trkpt>
      <trkpt lat="44.86533" lon="4.77066">
        <ele>423.53500366211</ele>
        <time>2011-04-06T13:39:52Z</time>
      </trkpt>
      <trkpt lat="44.86532" lon="4.77105">
        <ele>424.48599243164</ele>
        <time>2011-04-06T13:39:57Z</time>
      </trkpt>
      <trkpt lat="44.86518" lon="4.77145">
        <ele>424.83898925781</ele>
        <time>2011-04-06T13:40:03Z</time>
      </trkpt>
      <trkpt lat="44.86502" lon="4.77146">
        <ele>425.07598876953</ele>
        <time>2011-04-06T13:40:06Z</time>
      </trkpt>
      <trkpt lat="44.86496" lon="4.77143">
        <ele>425.14801025391</ele>
        <time>2011-04-06T13:40:07Z</time>
      </trkpt>
      <trkpt lat="44.86472" lon="4.77122">
        <ele>425.85501098633</ele>
        <time>2011-04-06T13:40:12Z</time>
      </trkpt>
      <trkpt lat="44.86456" lon="4.77108">
        <ele>426.05999755859</ele>
        <time>2011-04-06T13:40:16Z</time>
      </trkpt>
      <trkpt lat="44.86449" lon="4.771">
        <ele>426.19299316406</ele>
        <time>2011-04-06T13:40:18Z</time>
      </trkpt>
      <trkpt lat="44.86441" lon="4.7708">
        <ele>426.29901123047</ele>
        <time>2011-04-06T13:40:22Z</time>
      </trkpt>
      <trkpt lat="44.86426" lon="4.77059">
        <ele>426.26400756836</ele>
        <time>2011-04-06T13:40:27Z</time>
      </trkpt>
      <trkpt lat="44.86399" lon="4.77037">
        <ele>426.26300048828</ele>
        <time>2011-04-06T13:40:34Z</time>
      </trkpt>
      <trkpt lat="44.86395" lon="4.77033">
        <ele>426.37799072266</ele>
        <time>2011-04-06T13:40:35Z</time>
      </trkpt>
      <trkpt lat="44.8638" lon="4.77024">
        <ele>426.43099975586</ele>
        <time>2011-04-06T13:40:38Z</time>
      </trkpt>
      <trkpt lat="44.86352" lon="4.77001">
        <ele>426.96099853516</ele>
        <time>2011-04-06T13:40:44Z</time>
      </trkpt>
      <trkpt lat="44.86321" lon="4.76976">
        <ele>427.35501098633</ele>
        <time>2011-04-06T13:40:50Z</time>
      </trkpt>
      <trkpt lat="44.86308" lon="4.76959">
        <ele>427.67999267578</ele>
        <time>2011-04-06T13:40:53Z</time>
      </trkpt>
      <trkpt lat="44.86284" lon="4.76909">
        <ele>427.82800292969</ele>
        <time>2011-04-06T13:41:00Z</time>
      </trkpt>
      <trkpt lat="44.86277" lon="4.76895">
        <ele>427.88598632812</ele>
        <time>2011-04-06T13:41:02Z</time>
      </trkpt>
      <trkpt lat="44.86264" lon="4.76887">
        <ele>428.44900512695</ele>
        <time>2011-04-06T13:41:05Z</time>
      </trkpt>
      <trkpt lat="44.86256" lon="4.76904">
        <ele>429.08099365234</ele>
        <time>2011-04-06T13:41:08Z</time>
      </trkpt>
      <trkpt lat="44.86239" lon="4.7696">
        <ele>429.90600585938</ele>
        <time>2011-04-06T13:41:16Z</time>
      </trkpt>
      <trkpt lat="44.86226" lon="4.77008">
        <ele>430.64099121094</ele>
        <time>2011-04-06T13:41:23Z</time>
      </trkpt>
      <trkpt lat="44.86224" lon="4.77064">
        <ele>431.37298583984</ele>
        <time>2011-04-06T13:41:30Z</time>
      </trkpt>
      <trkpt lat="44.86232" lon="4.7711">
        <ele>432.45700073242</ele>
        <time>2011-04-06T13:41:36Z</time>
      </trkpt>
      <trkpt lat="44.86235" lon="4.77125">
        <ele>432.82699584961</ele>
        <time>2011-04-06T13:41:38Z</time>
      </trkpt>
      <trkpt lat="44.86228" lon="4.77159">
        <ele>433.10400390625</ele>
        <time>2011-04-06T13:41:43Z</time>
      </trkpt>
      <trkpt lat="44.86215" lon="4.77169">
        <ele>433.63598632812</ele>
        <time>2011-04-06T13:41:46Z</time>
      </trkpt>
      <trkpt lat="44.86206" lon="4.77162">
        <ele>434.19100952148</ele>
        <time>2011-04-06T13:41:48Z</time>
      </trkpt>
      <trkpt lat="44.86196" lon="4.77149">
        <ele>434.76599121094</ele>
        <time>2011-04-06T13:41:53Z</time>
      </trkpt>
      <trkpt lat="44.86195" lon="4.77148">
        <ele>435.15399169922</ele>
        <time>2011-04-06T13:41:55Z</time>
      </trkpt>
      <trkpt lat="44.8619" lon="4.77148">
        <ele>434.91400146484</ele>
        <time>2011-04-06T13:42:34Z</time>
      </trkpt>
      <trkpt lat="44.86188" lon="4.77146">
        <ele>434.67999267578</ele>
        <time>2011-04-06T13:42:38Z</time>
      </trkpt>
      <trkpt lat="44.86196" lon="4.77151">
        <ele>434.93099975586</ele>
        <time>2011-04-06T13:42:48Z</time>
      </trkpt>
      <trkpt lat="44.86206" lon="4.77157">
        <ele>434.74499511719</ele>
        <time>2011-04-06T13:42:53Z</time>
      </trkpt>
      <trkpt lat="44.8621" lon="4.77168">
        <ele>434.47100830078</ele>
        <time>2011-04-06T13:42:58Z</time>
      </trkpt>
      <trkpt lat="44.86211" lon="4.77169">
        <ele>434.60198974609</ele>
        <time>2011-04-06T13:42:59Z</time>
      </trkpt>
      <trkpt lat="44.86214" lon="4.7717">
        <ele>434.63101196289</ele>
        <time>2011-04-06T13:43:02Z</time>
      </trkpt>
      <trkpt lat="44.86214" lon="4.77166">
        <ele>434.25799560547</ele>
        <time>2011-04-06T13:43:07Z</time>
      </trkpt>
      <trkpt lat="44.86213" lon="4.77165">
        <ele>434.2200012207</ele>
        <time>2011-04-06T13:43:10Z</time>
      </trkpt>
      <trkpt lat="44.86213" lon="4.77168">
        <ele>434.45199584961</ele>
        <time>2011-04-06T13:44:15Z</time>
      </trkpt>
      <trkpt lat="44.86215" lon="4.77168">
        <ele>434.40798950195</ele>
        <time>2011-04-06T13:44:17Z</time>
      </trkpt>
      <trkpt lat="44.86229" lon="4.77156">
        <ele>434.21798706055</ele>
        <time>2011-04-06T13:44:25Z</time>
      </trkpt>
      <trkpt lat="44.86235" lon="4.77144">
        <ele>434.1960144043</ele>
        <time>2011-04-06T13:44:28Z</time>
      </trkpt>
      <trkpt lat="44.86235" lon="4.7712">
        <ele>434.10800170898</ele>
        <time>2011-04-06T13:44:32Z</time>
      </trkpt>
      <trkpt lat="44.86227" lon="4.77079">
        <ele>432.96301269531</ele>
        <time>2011-04-06T13:44:38Z</time>
      </trkpt>
      <trkpt lat="44.86225" lon="4.77012">
        <ele>432.14001464844</ele>
        <time>2011-04-06T13:44:46Z</time>
      </trkpt>
      <trkpt lat="44.86235" lon="4.7697">
        <ele>431.31298828125</ele>
        <time>2011-04-06T13:44:51Z</time>
      </trkpt>
      <trkpt lat="44.86247" lon="4.76937">
        <ele>430.50799560547</ele>
        <time>2011-04-06T13:44:55Z</time>
      </trkpt>
      <trkpt lat="44.8626" lon="4.76897">
        <ele>429.67999267578</ele>
        <time>2011-04-06T13:45:00Z</time>
      </trkpt>
      <trkpt lat="44.86276" lon="4.76894">
        <ele>429.23999023438</ele>
        <time>2011-04-06T13:45:03Z</time>
      </trkpt>
      <trkpt lat="44.86287" lon="4.76915">
        <ele>428.95300292969</ele>
        <time>2011-04-06T13:45:06Z</time>
      </trkpt>
      <trkpt lat="44.86299" lon="4.76945">
        <ele>428.65301513672</ele>
        <time>2011-04-06T13:45:10Z</time>
      </trkpt>
      <trkpt lat="44.86306" lon="4.7696">
        <ele>428.58700561523</ele>
        <time>2011-04-06T13:45:12Z</time>
      </trkpt>
      <trkpt lat="44.86316" lon="4.76974">
        <ele>428.59298706055</ele>
        <time>2011-04-06T13:45:14Z</time>
      </trkpt>
      <trkpt lat="44.86332" lon="4.76991">
        <ele>427.98300170898</ele>
        <time>2011-04-06T13:45:17Z</time>
      </trkpt>
      <trkpt lat="44.86375" lon="4.77025">
        <ele>427.47399902344</ele>
        <time>2011-04-06T13:45:24Z</time>
      </trkpt>
      <trkpt lat="44.86417" lon="4.77055">
        <ele>427.23001098633</ele>
        <time>2011-04-06T13:45:31Z</time>
      </trkpt>
      <trkpt lat="44.8643" lon="4.77065">
        <ele>427.20001220703</ele>
        <time>2011-04-06T13:45:33Z</time>
      </trkpt>
      <trkpt lat="44.86447" lon="4.77093">
        <ele>426.93200683594</ele>
        <time>2011-04-06T13:45:37Z</time>
      </trkpt>
      <trkpt lat="44.86466" lon="4.77117">
        <ele>426.8219909668</ele>
        <time>2011-04-06T13:45:41Z</time>
      </trkpt>
      <trkpt lat="44.86492" lon="4.77139">
        <ele>426.42498779297</ele>
        <time>2011-04-06T13:45:46Z</time>
      </trkpt>
      <trkpt lat="44.86511" lon="4.77149">
        <ele>426.16500854492</ele>
        <time>2011-04-06T13:45:52Z</time>
      </trkpt>
      <trkpt lat="44.86512" lon="4.77151">
        <ele>425.98300170898</ele>
        <time>2011-04-06T13:45:57Z</time>
      </trkpt>
      <trkpt lat="44.86514" lon="4.7715">
        <ele>425.84600830078</ele>
        <time>2011-04-06T13:46:23Z</time>
      </trkpt>
      <trkpt lat="44.86514" lon="4.7715">
        <ele>425.75100708008</ele>
        <time>2011-04-06T13:46:24Z</time>
      </trkpt>
      <trkpt lat="44.86516" lon="4.77147">
        <ele>425.64599609375</ele>
        <time>2011-04-06T13:46:56Z</time>
      </trkpt>
      <trkpt lat="44.8652" lon="4.77143">
        <ele>425.78298950195</ele>
        <time>2011-04-06T13:47:03Z</time>
      </trkpt>
      <trkpt lat="44.8652" lon="4.77143">
        <ele>425.77600097656</ele>
        <time>2011-04-06T13:47:04Z</time>
      </trkpt>
      <trkpt lat="44.86525" lon="4.77133">
        <ele>425.51000976562</ele>
        <time>2011-04-06T13:47:14Z</time>
      </trkpt>
      <trkpt lat="44.86526" lon="4.77129">
        <ele>425.38400268555</ele>
        <time>2011-04-06T13:47:15Z</time>
      </trkpt>
      <trkpt lat="44.8653" lon="4.77117">
        <ele>425.13198852539</ele>
        <time>2011-04-06T13:47:17Z</time>
      </trkpt>
      <trkpt lat="44.86533" lon="4.77078">
        <ele>424.86999511719</ele>
        <time>2011-04-06T13:47:22Z</time>
      </trkpt>
      <trkpt lat="44.86536" lon="4.77044">
        <ele>424.27801513672</ele>
        <time>2011-04-06T13:47:26Z</time>
      </trkpt>
      <trkpt lat="44.86547" lon="4.77004">
        <ele>424.23599243164</ele>
        <time>2011-04-06T13:47:31Z</time>
      </trkpt>
      <trkpt lat="44.86552" lon="4.76964">
        <ele>424.1969909668</ele>
        <time>2011-04-06T13:47:36Z</time>
      </trkpt>
      <trkpt lat="44.8656" lon="4.76941">
        <ele>423.71701049805</ele>
        <time>2011-04-06T13:47:39Z</time>
      </trkpt>
      <trkpt lat="44.86578" lon="4.76908">
        <ele>423.81500244141</ele>
        <time>2011-04-06T13:47:44Z</time>
      </trkpt>
      <trkpt lat="44.86574" lon="4.76874">
        <ele>423.30899047852</ele>
        <time>2011-04-06T13:47:48Z</time>
      </trkpt>
      <trkpt lat="44.86559" lon="4.76847">
        <ele>423.29000854492</ele>
        <time>2011-04-06T13:47:52Z</time>
      </trkpt>
      <trkpt lat="44.86539" lon="4.76827">
        <ele>423.09600830078</ele>
        <time>2011-04-06T13:47:56Z</time>
      </trkpt>
      <trkpt lat="44.86527" lon="4.76801">
        <ele>422.92999267578</ele>
        <time>2011-04-06T13:48:00Z</time>
      </trkpt>
      <trkpt lat="44.86531" lon="4.76778">
        <ele>422.79598999023</ele>
        <time>2011-04-06T13:48:03Z</time>
      </trkpt>
      <trkpt lat="44.86556" lon="4.76746">
        <ele>422.91799926758</ele>
        <time>2011-04-06T13:48:08Z</time>
      </trkpt>
      <trkpt lat="44.86558" lon="4.76719">
        <ele>423.22399902344</ele>
        <time>2011-04-06T13:48:11Z</time>
      </trkpt>
      <trkpt lat="44.86554" lon="4.76701">
        <ele>423.21899414062</ele>
        <time>2011-04-06T13:48:13Z</time>
      </trkpt>
      <trkpt lat="44.86531" lon="4.76649">
        <ele>423.09399414062</ele>
        <time>2011-04-06T13:48:19Z</time>
      </trkpt>
      <trkpt lat="44.86503" lon="4.7661">
        <ele>422.21200561523</ele>
        <time>2011-04-06T13:48:24Z</time>
      </trkpt>
      <trkpt lat="44.86461" lon="4.76574">
        <ele>420.5539855957</ele>
        <time>2011-04-06T13:48:30Z</time>
      </trkpt>
      <trkpt lat="44.86446" lon="4.76563">
        <ele>420.08801269531</ele>
        <time>2011-04-06T13:48:32Z</time>
      </trkpt>
      <trkpt lat="44.86424" lon="4.76523">
        <ele>418.74798583984</ele>
        <time>2011-04-06T13:48:36Z</time>
      </trkpt>
      <trkpt lat="44.86412" lon="4.76478">
        <ele>417.73999023438</ele>
        <time>2011-04-06T13:48:40Z</time>
      </trkpt>
      <trkpt lat="44.86408" lon="4.7644">
        <ele>417.08999633789</ele>
        <time>2011-04-06T13:48:44Z</time>
      </trkpt>
      <trkpt lat="44.86408" lon="4.76411">
        <ele>416.38198852539</ele>
        <time>2011-04-06T13:48:47Z</time>
      </trkpt>
      <trkpt lat="44.86422" lon="4.76385">
        <ele>416.3039855957</ele>
        <time>2011-04-06T13:48:51Z</time>
      </trkpt>
      <trkpt lat="44.86434" lon="4.76398">
        <ele>416.33599853516</ele>
        <time>2011-04-06T13:48:53Z</time>
      </trkpt>
      <trkpt lat="44.86455" lon="4.76431">
        <ele>417.04299926758</ele>
        <time>2011-04-06T13:48:58Z</time>
      </trkpt>
      <trkpt lat="44.86468" lon="4.7645">
        <ele>417.71798706055</ele>
        <time>2011-04-06T13:49:01Z</time>
      </trkpt>
      <trkpt lat="44.86483" lon="4.76464">
        <ele>417.91299438477</ele>
        <time>2011-04-06T13:49:04Z</time>
      </trkpt>
      <trkpt lat="44.86495" lon="4.7647">
        <ele>418.13598632812</ele>
        <time>2011-04-06T13:49:06Z</time>
      </trkpt>
      <trkpt lat="44.86531" lon="4.76484">
        <ele>419.15701293945</ele>
        <time>2011-04-06T13:49:12Z</time>
      </trkpt>
      <trkpt lat="44.86561" lon="4.76501">
        <ele>420.26901245117</ele>
        <time>2011-04-06T13:49:18Z</time>
      </trkpt>
      <trkpt lat="44.86591" lon="4.76516">
        <ele>420.86898803711</ele>
        <time>2011-04-06T13:49:24Z</time>
      </trkpt>
      <trkpt lat="44.86608" lon="4.76533">
        <ele>421.55700683594</ele>
        <time>2011-04-06T13:49:28Z</time>
      </trkpt>
      <trkpt lat="44.86628" lon="4.76544">
        <ele>422.20199584961</ele>
        <time>2011-04-06T13:49:32Z</time>
      </trkpt>
      <trkpt lat="44.86642" lon="4.76535">
        <ele>422.73199462891</ele>
        <time>2011-04-06T13:49:35Z</time>
      </trkpt>
      <trkpt lat="44.86646" lon="4.7653">
        <ele>422.80999755859</ele>
        <time>2011-04-06T13:49:36Z</time>
      </trkpt>
      <trkpt lat="44.86665" lon="4.76506">
        <ele>423.54800415039</ele>
        <time>2011-04-06T13:49:41Z</time>
      </trkpt>
      <trkpt lat="44.86673" lon="4.765">
        <ele>424.06500244141</ele>
        <time>2011-04-06T13:49:43Z</time>
      </trkpt>
      <trkpt lat="44.8669" lon="4.76501">
        <ele>425.05999755859</ele>
        <time>2011-04-06T13:49:47Z</time>
      </trkpt>
      <trkpt lat="44.86696" lon="4.76509">
        <ele>425.3869934082</ele>
        <time>2011-04-06T13:49:49Z</time>
      </trkpt>
      <trkpt lat="44.86715" lon="4.76541">
        <ele>426.28900146484</ele>
        <time>2011-04-06T13:49:56Z</time>
      </trkpt>
      <trkpt lat="44.86725" lon="4.76552">
        <ele>426.92700195312</ele>
        <time>2011-04-06T13:49:59Z</time>
      </trkpt>
      <trkpt lat="44.86754" lon="4.76568">
        <ele>428.20001220703</ele>
        <time>2011-04-06T13:50:06Z</time>
      </trkpt>
      <trkpt lat="44.86768" lon="4.76591">
        <ele>429.26501464844</ele>
        <time>2011-04-06T13:50:11Z</time>
      </trkpt>
      <trkpt lat="44.86769" lon="4.76597">
        <ele>429.55499267578</ele>
        <time>2011-04-06T13:50:12Z</time>
      </trkpt>
      <trkpt lat="44.8677" lon="4.7661">
        <ele>429.77700805664</ele>
        <time>2011-04-06T13:50:14Z</time>
      </trkpt>
      <trkpt lat="44.86778" lon="4.76633">
        <ele>430.47601318359</ele>
        <time>2011-04-06T13:50:18Z</time>
      </trkpt>
      <trkpt lat="44.86784" lon="4.7665">
        <ele>430.9580078125</ele>
        <time>2011-04-06T13:50:21Z</time>
      </trkpt>
      <trkpt lat="44.86793" lon="4.76692">
        <ele>432.18399047852</ele>
        <time>2011-04-06T13:50:28Z</time>
      </trkpt>
      <trkpt lat="44.86808" lon="4.76731">
        <ele>433.42999267578</ele>
        <time>2011-04-06T13:50:36Z</time>
      </trkpt>
      <trkpt lat="44.86815" lon="4.76735">
        <ele>434.18301391602</ele>
        <time>2011-04-06T13:50:39Z</time>
      </trkpt>
      <trkpt lat="44.86818" lon="4.76727">
        <ele>435.0719909668</ele>
        <time>2011-04-06T13:50:43Z</time>
      </trkpt>
      <trkpt lat="44.86814" lon="4.76714">
        <ele>436.31399536133</ele>
        <time>2011-04-06T13:50:48Z</time>
      </trkpt>
      <trkpt lat="44.86808" lon="4.76692">
        <ele>438.01699829102</ele>
        <time>2011-04-06T13:50:55Z</time>
      </trkpt>
      <trkpt lat="44.86805" lon="4.76667">
        <ele>439.60900878906</ele>
        <time>2011-04-06T13:51:02Z</time>
      </trkpt>
      <trkpt lat="44.86803" lon="4.76641">
        <ele>441.34100341797</ele>
        <time>2011-04-06T13:51:09Z</time>
      </trkpt>
      <trkpt lat="44.86801" lon="4.76613">
        <ele>443.21398925781</ele>
        <time>2011-04-06T13:51:16Z</time>
      </trkpt>
      <trkpt lat="44.86798" lon="4.76591">
        <ele>444.9049987793</ele>
        <time>2011-04-06T13:51:22Z</time>
      </trkpt>
      <trkpt lat="44.86795" lon="4.76559">
        <ele>447.10900878906</ele>
        <time>2011-04-06T13:51:30Z</time>
      </trkpt>
      <trkpt lat="44.86791" lon="4.76539">
        <ele>448.40600585938</ele>
        <time>2011-04-06T13:51:35Z</time>
      </trkpt>
      <trkpt lat="44.86781" lon="4.76519">
        <ele>450.04699707031</ele>
        <time>2011-04-06T13:51:41Z</time>
      </trkpt>
      <trkpt lat="44.86766" lon="4.76501">
        <ele>451.90399169922</ele>
        <time>2011-04-06T13:51:48Z</time>
      </trkpt>
      <trkpt lat="44.86758" lon="4.76483">
        <ele>453.62298583984</ele>
        <time>2011-04-06T13:51:54Z</time>
      </trkpt>
      <trkpt lat="44.86753" lon="4.76458">
        <ele>455.50698852539</ele>
        <time>2011-04-06T13:52:01Z</time>
      </trkpt>
      <trkpt lat="44.86744" lon="4.76422">
        <ele>457.97500610352</ele>
        <time>2011-04-06T13:52:11Z</time>
      </trkpt>
      <trkpt lat="44.86734" lon="4.764">
        <ele>459.44900512695</ele>
        <time>2011-04-06T13:52:18Z</time>
      </trkpt>
      <trkpt lat="44.86724" lon="4.76371">
        <ele>461.83401489258</ele>
        <time>2011-04-06T13:52:27Z</time>
      </trkpt>
      <trkpt lat="44.86724" lon="4.76359">
        <ele>462.75900268555</ele>
        <time>2011-04-06T13:52:31Z</time>
      </trkpt>
      <trkpt lat="44.86736" lon="4.7635">
        <ele>463.91400146484</ele>
        <time>2011-04-06T13:52:37Z</time>
      </trkpt>
      <trkpt lat="44.86745" lon="4.76354">
        <ele>464.43200683594</ele>
        <time>2011-04-06T13:52:40Z</time>
      </trkpt>
      <trkpt lat="44.86766" lon="4.76373">
        <ele>466.14700317383</ele>
        <time>2011-04-06T13:52:45Z</time>
      </trkpt>
      <trkpt lat="44.86774" lon="4.76361">
        <ele>467.39199829102</ele>
        <time>2011-04-06T13:52:48Z</time>
      </trkpt>
      <trkpt lat="44.86769" lon="4.76341">
        <ele>468.09100341797</ele>
        <time>2011-04-06T13:52:52Z</time>
      </trkpt>
      <trkpt lat="44.86751" lon="4.76315">
        <ele>469.65798950195</ele>
        <time>2011-04-06T13:53:00Z</time>
      </trkpt>
      <trkpt lat="44.86733" lon="4.76285">
        <ele>471.68200683594</ele>
        <time>2011-04-06T13:53:09Z</time>
      </trkpt>
      <trkpt lat="44.86715" lon="4.76254">
        <ele>474.06399536133</ele>
        <time>2011-04-06T13:53:18Z</time>
      </trkpt>
      <trkpt lat="44.86696" lon="4.76235">
        <ele>476.08200073242</ele>
        <time>2011-04-06T13:53:25Z</time>
      </trkpt>
      <trkpt lat="44.86674" lon="4.76218">
        <ele>477.3450012207</ele>
        <time>2011-04-06T13:53:32Z</time>
      </trkpt>
      <trkpt lat="44.8666" lon="4.76197">
        <ele>479.60400390625</ele>
        <time>2011-04-06T13:53:39Z</time>
      </trkpt>
      <trkpt lat="44.86646" lon="4.7617">
        <ele>481.80099487305</ele>
        <time>2011-04-06T13:53:47Z</time>
      </trkpt>
      <trkpt lat="44.86633" lon="4.76141">
        <ele>484.04598999023</ele>
        <time>2011-04-06T13:53:56Z</time>
      </trkpt>
      <trkpt lat="44.86618" lon="4.7611">
        <ele>486.22799682617</ele>
        <time>2011-04-06T13:54:05Z</time>
      </trkpt>
      <trkpt lat="44.86605" lon="4.7609">
        <ele>488.32501220703</ele>
        <time>2011-04-06T13:54:12Z</time>
      </trkpt>
      <trkpt lat="44.86591" lon="4.76085">
        <ele>490.13800048828</ele>
        <time>2011-04-06T13:54:18Z</time>
      </trkpt>
      <trkpt lat="44.86566" lon="4.76085">
        <ele>492.52700805664</ele>
        <time>2011-04-06T13:54:27Z</time>
      </trkpt>
      <trkpt lat="44.86551" lon="4.76074">
        <ele>494.35198974609</ele>
        <time>2011-04-06T13:54:33Z</time>
      </trkpt>
      <trkpt lat="44.86541" lon="4.76055">
        <ele>495.81298828125</ele>
        <time>2011-04-06T13:54:39Z</time>
      </trkpt>
      <trkpt lat="44.86529" lon="4.76022">
        <ele>497.67001342773</ele>
        <time>2011-04-06T13:54:47Z</time>
      </trkpt>
      <trkpt lat="44.86512" lon="4.75982">
        <ele>499.66299438477</ele>
        <time>2011-04-06T13:54:56Z</time>
      </trkpt>
      <trkpt lat="44.86492" lon="4.75958">
        <ele>501.09698486328</ele>
        <time>2011-04-06T13:55:03Z</time>
      </trkpt>
      <trkpt lat="44.86469" lon="4.75932">
        <ele>502.98001098633</ele>
        <time>2011-04-06T13:55:11Z</time>
      </trkpt>
      <trkpt lat="44.86463" lon="4.75903">
        <ele>504.14999389648</ele>
        <time>2011-04-06T13:55:17Z</time>
      </trkpt>
      <trkpt lat="44.86457" lon="4.75868">
        <ele>505.63198852539</ele>
        <time>2011-04-06T13:55:24Z</time>
      </trkpt>
      <trkpt lat="44.86451" lon="4.75838">
        <ele>506.65399169922</ele>
        <time>2011-04-06T13:55:30Z</time>
      </trkpt>
      <trkpt lat="44.86443" lon="4.75798">
        <ele>508.37298583984</ele>
        <time>2011-04-06T13:55:37Z</time>
      </trkpt>
      <trkpt lat="44.86431" lon="4.75755">
        <ele>510.12899780273</ele>
        <time>2011-04-06T13:55:45Z</time>
      </trkpt>
      <trkpt lat="44.86421" lon="4.75726">
        <ele>511.44299316406</ele>
        <time>2011-04-06T13:55:51Z</time>
      </trkpt>
      <trkpt lat="44.8641" lon="4.75705">
        <ele>513.09698486328</ele>
        <time>2011-04-06T13:55:56Z</time>
      </trkpt>
      <trkpt lat="44.86397" lon="4.75691">
        <ele>514.64099121094</ele>
        <time>2011-04-06T13:56:02Z</time>
      </trkpt>
      <trkpt lat="44.8638" lon="4.75683">
        <ele>516.19396972656</ele>
        <time>2011-04-06T13:56:09Z</time>
      </trkpt>
      <trkpt lat="44.86359" lon="4.75682">
        <ele>518.01501464844</ele>
        <time>2011-04-06T13:56:17Z</time>
      </trkpt>
      <trkpt lat="44.86335" lon="4.7568">
        <ele>520.52899169922</ele>
        <time>2011-04-06T13:56:26Z</time>
      </trkpt>
      <trkpt lat="44.86314" lon="4.75675">
        <ele>522.4990234375</ele>
        <time>2011-04-06T13:56:34Z</time>
      </trkpt>
      <trkpt lat="44.86292" lon="4.75663">
        <ele>524.68701171875</ele>
        <time>2011-04-06T13:56:43Z</time>
      </trkpt>
      <trkpt lat="44.86269" lon="4.75643">
        <ele>527.11700439453</ele>
        <time>2011-04-06T13:56:53Z</time>
      </trkpt>
      <trkpt lat="44.86253" lon="4.75623">
        <ele>529.44000244141</ele>
        <time>2011-04-06T13:57:01Z</time>
      </trkpt>
      <trkpt lat="44.86238" lon="4.75606">
        <ele>529.61199951172</ele>
        <time>2011-04-06T13:57:07Z</time>
      </trkpt>
      <trkpt lat="44.86224" lon="4.75589">
        <ele>530.27001953125</ele>
        <time>2011-04-06T13:57:12Z</time>
      </trkpt>
      <trkpt lat="44.86212" lon="4.75571">
        <ele>530.57897949219</ele>
        <time>2011-04-06T13:57:16Z</time>
      </trkpt>
      <trkpt lat="44.86187" lon="4.75539">
        <ele>531.02197265625</ele>
        <time>2011-04-06T13:57:23Z</time>
      </trkpt>
      <trkpt lat="44.86159" lon="4.7551">
        <ele>531.31799316406</ele>
        <time>2011-04-06T13:57:30Z</time>
      </trkpt>
      <trkpt lat="44.86121" lon="4.75478">
        <ele>531.93499755859</ele>
        <time>2011-04-06T13:57:38Z</time>
      </trkpt>
      <trkpt lat="44.86082" lon="4.75446">
        <ele>532.62200927734</ele>
        <time>2011-04-06T13:57:46Z</time>
      </trkpt>
      <trkpt lat="44.86066" lon="4.75435">
        <ele>532.35198974609</ele>
        <time>2011-04-06T13:57:49Z</time>
      </trkpt>
      <trkpt lat="44.86044" lon="4.7541">
        <ele>533.16302490234</ele>
        <time>2011-04-06T13:57:54Z</time>
      </trkpt>
      <trkpt lat="44.86015" lon="4.75354">
        <ele>533.68902587891</ele>
        <time>2011-04-06T13:58:03Z</time>
      </trkpt>
      <trkpt lat="44.85987" lon="4.75314">
        <ele>534.55798339844</ele>
        <time>2011-04-06T13:58:11Z</time>
      </trkpt>
      <trkpt lat="44.8596" lon="4.75297">
        <ele>535.05700683594</ele>
        <time>2011-04-06T13:58:17Z</time>
      </trkpt>
      <trkpt lat="44.85929" lon="4.75272">
        <ele>535.41400146484</ele>
        <time>2011-04-06T13:58:24Z</time>
      </trkpt>
      <trkpt lat="44.85901" lon="4.75262">
        <ele>536.37799072266</ele>
        <time>2011-04-06T13:58:30Z</time>
      </trkpt>
      <trkpt lat="44.85873" lon="4.75246">
        <ele>537.52600097656</ele>
        <time>2011-04-06T13:58:36Z</time>
      </trkpt>
      <trkpt lat="44.85846" lon="4.75227">
        <ele>537.72802734375</ele>
        <time>2011-04-06T13:58:42Z</time>
      </trkpt>
      <trkpt lat="44.85823" lon="4.75216">
        <ele>537.916015625</ele>
        <time>2011-04-06T13:58:47Z</time>
      </trkpt>
      <trkpt lat="44.85819" lon="4.75228">
        <ele>537.90002441406</ele>
        <time>2011-04-06T13:58:49Z</time>
      </trkpt>
      <trkpt lat="44.85817" lon="4.75274">
        <ele>537.82299804688</ele>
        <time>2011-04-06T13:58:56Z</time>
      </trkpt>
      <trkpt lat="44.85817" lon="4.75295">
        <ele>538.42901611328</ele>
        <time>2011-04-06T13:58:59Z</time>
      </trkpt>
      <trkpt lat="44.85808" lon="4.75338">
        <ele>538.97900390625</ele>
        <time>2011-04-06T13:59:05Z</time>
      </trkpt>
      <trkpt lat="44.85812" lon="4.75391">
        <ele>538.54901123047</ele>
        <time>2011-04-06T13:59:12Z</time>
      </trkpt>
      <trkpt lat="44.85812" lon="4.75431">
        <ele>539.02301025391</ele>
        <time>2011-04-06T13:59:17Z</time>
      </trkpt>
      <trkpt lat="44.85803" lon="4.75467">
        <ele>539.81597900391</ele>
        <time>2011-04-06T13:59:22Z</time>
      </trkpt>
      <trkpt lat="44.85789" lon="4.75479">
        <ele>540.35198974609</ele>
        <time>2011-04-06T13:59:25Z</time>
      </trkpt>
      <trkpt lat="44.85773" lon="4.75477">
        <ele>541.03100585938</ele>
        <time>2011-04-06T13:59:28Z</time>
      </trkpt>
      <trkpt lat="44.85746" lon="4.7548">
        <ele>540.34899902344</ele>
        <time>2011-04-06T13:59:33Z</time>
      </trkpt>
      <trkpt lat="44.85735" lon="4.75492">
        <ele>539.26098632812</ele>
        <time>2011-04-06T13:59:35Z</time>
      </trkpt>
      <trkpt lat="44.85721" lon="4.75503">
        <ele>538.42999267578</ele>
        <time>2011-04-06T13:59:37Z</time>
      </trkpt>
      <trkpt lat="44.85678" lon="4.75524">
        <ele>537.44000244141</ele>
        <time>2011-04-06T13:59:43Z</time>
      </trkpt>
      <trkpt lat="44.85631" lon="4.75548">
        <ele>536.56402587891</ele>
        <time>2011-04-06T13:59:50Z</time>
      </trkpt>
      <trkpt lat="44.85605" lon="4.75556">
        <ele>536.40502929688</ele>
        <time>2011-04-06T13:59:54Z</time>
      </trkpt>
      <trkpt lat="44.85569" lon="4.75566">
        <ele>536.69702148438</ele>
        <time>2011-04-06T14:00:00Z</time>
      </trkpt>
      <trkpt lat="44.85548" lon="4.75582">
        <ele>536.39801025391</ele>
        <time>2011-04-06T14:00:04Z</time>
      </trkpt>
      <trkpt lat="44.85538" lon="4.75594">
        <ele>536.59698486328</ele>
        <time>2011-04-06T14:00:06Z</time>
      </trkpt>
      <trkpt lat="44.85516" lon="4.75609">
        <ele>536.71301269531</ele>
        <time>2011-04-06T14:00:10Z</time>
      </trkpt>
      <trkpt lat="44.85503" lon="4.75608">
        <ele>536.52899169922</ele>
        <time>2011-04-06T14:00:12Z</time>
      </trkpt>
      <trkpt lat="44.85448" lon="4.7559">
        <ele>536.22399902344</ele>
        <time>2011-04-06T14:00:21Z</time>
      </trkpt>
      <trkpt lat="44.85418" lon="4.7557">
        <ele>536.43701171875</ele>
        <time>2011-04-06T14:00:27Z</time>
      </trkpt>
      <trkpt lat="44.85393" lon="4.75569">
        <ele>535.82098388672</ele>
        <time>2011-04-06T14:00:32Z</time>
      </trkpt>
      <trkpt lat="44.85382" lon="4.75577">
        <ele>535.13397216797</ele>
        <time>2011-04-06T14:00:34Z</time>
      </trkpt>
      <trkpt lat="44.85349" lon="4.75599">
        <ele>533.10699462891</ele>
        <time>2011-04-06T14:00:39Z</time>
      </trkpt>
      <trkpt lat="44.85335" lon="4.75604">
        <ele>532.61602783203</ele>
        <time>2011-04-06T14:00:41Z</time>
      </trkpt>
      <trkpt lat="44.85307" lon="4.75605">
        <ele>531.64001464844</ele>
        <time>2011-04-06T14:00:45Z</time>
      </trkpt>
      <trkpt lat="44.85254" lon="4.75593">
        <ele>530.13598632812</ele>
        <time>2011-04-06T14:00:52Z</time>
      </trkpt>
      <trkpt lat="44.8524" lon="4.75588">
        <ele>529.72399902344</ele>
        <time>2011-04-06T14:00:54Z</time>
      </trkpt>
      <trkpt lat="44.8521" lon="4.75583">
        <ele>529.46398925781</ele>
        <time>2011-04-06T14:00:58Z</time>
      </trkpt>
      <trkpt lat="44.85204" lon="4.75583">
        <ele>529.38702392578</ele>
        <time>2011-04-06T14:00:59Z</time>
      </trkpt>
      <trkpt lat="44.8518" lon="4.75594">
        <ele>528.19799804688</ele>
        <time>2011-04-06T14:01:03Z</time>
      </trkpt>
      <trkpt lat="44.85174" lon="4.75618">
        <ele>527.17797851562</ele>
        <time>2011-04-06T14:01:06Z</time>
      </trkpt>
      <trkpt lat="44.85183" lon="4.75633">
        <ele>526.02899169922</ele>
        <time>2011-04-06T14:01:08Z</time>
      </trkpt>
      <trkpt lat="44.85196" lon="4.75642">
        <ele>525.21398925781</ele>
        <time>2011-04-06T14:01:10Z</time>
      </trkpt>
      <trkpt lat="44.85262" lon="4.75674">
        <ele>520.19799804688</ele>
        <time>2011-04-06T14:01:18Z</time>
      </trkpt>
      <trkpt lat="44.85279" lon="4.75683">
        <ele>519.23498535156</ele>
        <time>2011-04-06T14:01:20Z</time>
      </trkpt>
      <trkpt lat="44.8531" lon="4.75714">
        <ele>516.21398925781</ele>
        <time>2011-04-06T14:01:24Z</time>
      </trkpt>
      <trkpt lat="44.85318" lon="4.75742">
        <ele>515.06799316406</ele>
        <time>2011-04-06T14:01:26Z</time>
      </trkpt>
      <trkpt lat="44.8532" lon="4.75757">
        <ele>514.27197265625</ele>
        <time>2011-04-06T14:01:27Z</time>
      </trkpt>
      <trkpt lat="44.85324" lon="4.75786">
        <ele>513.30798339844</ele>
        <time>2011-04-06T14:01:29Z</time>
      </trkpt>
      <trkpt lat="44.85349" lon="4.75843">
        <ele>512.42498779297</ele>
        <time>2011-04-06T14:01:34Z</time>
      </trkpt>
      <trkpt lat="44.85371" lon="4.75888">
        <ele>510.87200927734</ele>
        <time>2011-04-06T14:01:38Z</time>
      </trkpt>
      <trkpt lat="44.85375" lon="4.75935">
        <ele>508.96600341797</ele>
        <time>2011-04-06T14:01:42Z</time>
      </trkpt>
      <trkpt lat="44.85368" lon="4.75944">
        <ele>508.51501464844</ele>
        <time>2011-04-06T14:01:43Z</time>
      </trkpt>
      <trkpt lat="44.85321" lon="4.76006">
        <ele>503.45300292969</ele>
        <time>2011-04-06T14:01:49Z</time>
      </trkpt>
      <trkpt lat="44.85303" lon="4.76026">
        <ele>501.29299926758</ele>
        <time>2011-04-06T14:01:51Z</time>
      </trkpt>
      <trkpt lat="44.85259" lon="4.76049">
        <ele>497.72500610352</ele>
        <time>2011-04-06T14:01:55Z</time>
      </trkpt>
      <trkpt lat="44.85226" lon="4.76064">
        <ele>495.14599609375</ele>
        <time>2011-04-06T14:01:58Z</time>
      </trkpt>
      <trkpt lat="44.85205" lon="4.76078">
        <ele>494.22799682617</ele>
        <time>2011-04-06T14:02:00Z</time>
      </trkpt>
      <trkpt lat="44.85192" lon="4.76098">
        <ele>493.9460144043</ele>
        <time>2011-04-06T14:02:02Z</time>
      </trkpt>
      <trkpt lat="44.85189" lon="4.76124">
        <ele>492.95999145508</ele>
        <time>2011-04-06T14:02:04Z</time>
      </trkpt>
      <trkpt lat="44.85184" lon="4.76148">
        <ele>492.66598510742</ele>
        <time>2011-04-06T14:02:06Z</time>
      </trkpt>
      <trkpt lat="44.8517" lon="4.76162">
        <ele>492.5419921875</ele>
        <time>2011-04-06T14:02:08Z</time>
      </trkpt>
      <trkpt lat="44.85162" lon="4.76166">
        <ele>492.37799072266</ele>
        <time>2011-04-06T14:02:09Z</time>
      </trkpt>
      <trkpt lat="44.85136" lon="4.76177">
        <ele>490.86499023438</ele>
        <time>2011-04-06T14:02:12Z</time>
      </trkpt>
      <trkpt lat="44.85112" lon="4.76196">
        <ele>489.55599975586</ele>
        <time>2011-04-06T14:02:15Z</time>
      </trkpt>
      <trkpt lat="44.85102" lon="4.7622">
        <ele>487.8039855957</ele>
        <time>2011-04-06T14:02:17Z</time>
      </trkpt>
      <trkpt lat="44.8509" lon="4.76257">
        <ele>485.32800292969</ele>
        <time>2011-04-06T14:02:20Z</time>
      </trkpt>
      <trkpt lat="44.85071" lon="4.76279">
        <ele>483.64001464844</ele>
        <time>2011-04-06T14:02:23Z</time>
      </trkpt>
      <trkpt lat="44.85064" lon="4.76278">
        <ele>483.69500732422</ele>
        <time>2011-04-06T14:02:24Z</time>
      </trkpt>
      <trkpt lat="44.85024" lon="4.76281">
        <ele>483.03500366211</ele>
        <time>2011-04-06T14:02:29Z</time>
      </trkpt>
      <trkpt lat="44.84987" lon="4.76279">
        <ele>480.41500854492</ele>
        <time>2011-04-06T14:02:34Z</time>
      </trkpt>
      <trkpt lat="44.84976" lon="4.76308">
        <ele>478.64801025391</ele>
        <time>2011-04-06T14:02:37Z</time>
      </trkpt>
      <trkpt lat="44.8497" lon="4.76329">
        <ele>478.15399169922</ele>
        <time>2011-04-06T14:02:39Z</time>
      </trkpt>
      <trkpt lat="44.84946" lon="4.76349">
        <ele>477.48901367188</ele>
        <time>2011-04-06T14:02:43Z</time>
      </trkpt>
      <trkpt lat="44.84932" lon="4.76335">
        <ele>476.72198486328</ele>
        <time>2011-04-06T14:02:45Z</time>
      </trkpt>
      <trkpt lat="44.8489" lon="4.76289">
        <ele>474.57998657227</ele>
        <time>2011-04-06T14:02:51Z</time>
      </trkpt>
      <trkpt lat="44.84881" lon="4.76281">
        <ele>474.3039855957</ele>
        <time>2011-04-06T14:02:52Z</time>
      </trkpt>
      <trkpt lat="44.84845" lon="4.76253">
        <ele>471.76599121094</ele>
        <time>2011-04-06T14:02:56Z</time>
      </trkpt>
      <trkpt lat="44.84823" lon="4.76249">
        <ele>470.5539855957</ele>
        <time>2011-04-06T14:02:58Z</time>
      </trkpt>
      <trkpt lat="44.848" lon="4.76248">
        <ele>469.16799926758</ele>
        <time>2011-04-06T14:03:00Z</time>
      </trkpt>
      <trkpt lat="44.84765" lon="4.76255">
        <ele>467.60900878906</ele>
        <time>2011-04-06T14:03:03Z</time>
      </trkpt>
      <trkpt lat="44.84734" lon="4.76247">
        <ele>466.06201171875</ele>
        <time>2011-04-06T14:03:06Z</time>
      </trkpt>
      <trkpt lat="44.84712" lon="4.76214">
        <ele>464.60998535156</ele>
        <time>2011-04-06T14:03:09Z</time>
      </trkpt>
      <trkpt lat="44.847" lon="4.76191">
        <ele>463.72601318359</ele>
        <time>2011-04-06T14:03:11Z</time>
      </trkpt>
      <trkpt lat="44.84679" lon="4.76144">
        <ele>461.65899658203</ele>
        <time>2011-04-06T14:03:15Z</time>
      </trkpt>
      <trkpt lat="44.84644" lon="4.76114">
        <ele>459.73901367188</ele>
        <time>2011-04-06T14:03:19Z</time>
      </trkpt>
      <trkpt lat="44.84634" lon="4.76111">
        <ele>459.48901367188</ele>
        <time>2011-04-06T14:03:20Z</time>
      </trkpt>
      <trkpt lat="44.84602" lon="4.761">
        <ele>457.76400756836</ele>
        <time>2011-04-06T14:03:23Z</time>
      </trkpt>
      <trkpt lat="44.84583" lon="4.76087">
        <ele>456.9289855957</ele>
        <time>2011-04-06T14:03:25Z</time>
      </trkpt>
      <trkpt lat="44.84545" lon="4.76056">
        <ele>455.23901367188</ele>
        <time>2011-04-06T14:03:29Z</time>
      </trkpt>
      <trkpt lat="44.84518" lon="4.76055">
        <ele>453.72698974609</ele>
        <time>2011-04-06T14:03:32Z</time>
      </trkpt>
      <trkpt lat="44.84505" lon="4.76073">
        <ele>453.28201293945</ele>
        <time>2011-04-06T14:03:34Z</time>
      </trkpt>
      <trkpt lat="44.84502" lon="4.76099">
        <ele>452.3450012207</ele>
        <time>2011-04-06T14:03:36Z</time>
      </trkpt>
      <trkpt lat="44.84512" lon="4.76138">
        <ele>451.06900024414</ele>
        <time>2011-04-06T14:03:39Z</time>
      </trkpt>
      <trkpt lat="44.84525" lon="4.76158">
        <ele>450.29699707031</ele>
        <time>2011-04-06T14:03:41Z</time>
      </trkpt>
      <trkpt lat="44.84538" lon="4.76174">
        <ele>449.75399780273</ele>
        <time>2011-04-06T14:03:43Z</time>
      </trkpt>
      <trkpt lat="44.84568" lon="4.76241">
        <ele>448.34899902344</ele>
        <time>2011-04-06T14:03:50Z</time>
      </trkpt>
      <trkpt lat="44.84574" lon="4.76262">
        <ele>448.04501342773</ele>
        <time>2011-04-06T14:03:52Z</time>
      </trkpt>
      <trkpt lat="44.84572" lon="4.76306">
        <ele>447.12600708008</ele>
        <time>2011-04-06T14:03:56Z</time>
      </trkpt>
      <trkpt lat="44.84558" lon="4.76318">
        <ele>446.51501464844</ele>
        <time>2011-04-06T14:03:58Z</time>
      </trkpt>
      <trkpt lat="44.8455" lon="4.76321">
        <ele>445.78900146484</ele>
        <time>2011-04-06T14:03:59Z</time>
      </trkpt>
      <trkpt lat="44.84516" lon="4.76333">
        <ele>445.26501464844</ele>
        <time>2011-04-06T14:04:03Z</time>
      </trkpt>
      <trkpt lat="44.84465" lon="4.76365">
        <ele>440.94900512695</ele>
        <time>2011-04-06T14:04:09Z</time>
      </trkpt>
      <trkpt lat="44.84448" lon="4.76376">
        <ele>439.76599121094</ele>
        <time>2011-04-06T14:04:11Z</time>
      </trkpt>
      <trkpt lat="44.84429" lon="4.76403">
        <ele>438.05499267578</ele>
        <time>2011-04-06T14:04:14Z</time>
      </trkpt>
      <trkpt lat="44.84427" lon="4.76414">
        <ele>437.85598754883</ele>
        <time>2011-04-06T14:04:15Z</time>
      </trkpt>
      <trkpt lat="44.84425" lon="4.76428">
        <ele>437.52398681641</ele>
        <time>2011-04-06T14:04:16Z</time>
      </trkpt>
      <trkpt lat="44.84423" lon="4.76455">
        <ele>436.57598876953</ele>
        <time>2011-04-06T14:04:18Z</time>
      </trkpt>
      <trkpt lat="44.84402" lon="4.76482">
        <ele>434.77200317383</ele>
        <time>2011-04-06T14:04:21Z</time>
      </trkpt>
      <trkpt lat="44.84393" lon="4.76484">
        <ele>434.1369934082</ele>
        <time>2011-04-06T14:04:22Z</time>
      </trkpt>
      <trkpt lat="44.84372" lon="4.76487">
        <ele>433.19100952148</ele>
        <time>2011-04-06T14:04:24Z</time>
      </trkpt>
      <trkpt lat="44.84362" lon="4.76489">
        <ele>432.56298828125</ele>
        <time>2011-04-06T14:04:25Z</time>
      </trkpt>
      <trkpt lat="44.84321" lon="4.76479">
        <ele>430.54901123047</ele>
        <time>2011-04-06T14:04:29Z</time>
      </trkpt>
      <trkpt lat="44.84311" lon="4.76473">
        <ele>430.52200317383</ele>
        <time>2011-04-06T14:04:30Z</time>
      </trkpt>
      <trkpt lat="44.84269" lon="4.76464">
        <ele>430.53601074219</ele>
        <time>2011-04-06T14:04:34Z</time>
      </trkpt>
      <trkpt lat="44.8425" lon="4.76479">
        <ele>427.96600341797</ele>
        <time>2011-04-06T14:04:36Z</time>
      </trkpt>
      <trkpt lat="44.84233" lon="4.76498">
        <ele>425.32000732422</ele>
        <time>2011-04-06T14:04:38Z</time>
      </trkpt>
      <trkpt lat="44.84183" lon="4.76533">
        <ele>422.33200073242</ele>
        <time>2011-04-06T14:04:43Z</time>
      </trkpt>
      <trkpt lat="44.84151" lon="4.76549">
        <ele>420.06500244141</ele>
        <time>2011-04-06T14:04:46Z</time>
      </trkpt>
      <trkpt lat="44.84105" lon="4.76596">
        <ele>417.47799682617</ele>
        <time>2011-04-06T14:04:51Z</time>
      </trkpt>
      <trkpt lat="44.84095" lon="4.76606">
        <ele>417.23901367188</ele>
        <time>2011-04-06T14:04:52Z</time>
      </trkpt>
      <trkpt lat="44.84054" lon="4.7663">
        <ele>414.5419921875</ele>
        <time>2011-04-06T14:04:56Z</time>
      </trkpt>
      <trkpt lat="44.84043" lon="4.76632">
        <ele>413.73699951172</ele>
        <time>2011-04-06T14:04:57Z</time>
      </trkpt>
      <trkpt lat="44.83997" lon="4.76636">
        <ele>411.64599609375</ele>
        <time>2011-04-06T14:05:01Z</time>
      </trkpt>
      <trkpt lat="44.83962" lon="4.76638">
        <ele>409.1789855957</ele>
        <time>2011-04-06T14:05:04Z</time>
      </trkpt>
      <trkpt lat="44.83918" lon="4.76658">
        <ele>406.62600708008</ele>
        <time>2011-04-06T14:05:08Z</time>
      </trkpt>
      <trkpt lat="44.83898" lon="4.76673">
        <ele>405.2799987793</ele>
        <time>2011-04-06T14:05:10Z</time>
      </trkpt>
      <trkpt lat="44.83877" lon="4.767">
        <ele>404.52099609375</ele>
        <time>2011-04-06T14:05:13Z</time>
      </trkpt>
      <trkpt lat="44.83876" lon="4.7672">
        <ele>404.29800415039</ele>
        <time>2011-04-06T14:05:15Z</time>
      </trkpt>
      <trkpt lat="44.83884" lon="4.76738">
        <ele>403.72198486328</ele>
        <time>2011-04-06T14:05:18Z</time>
      </trkpt>
      <trkpt lat="44.83897" lon="4.76746">
        <ele>403.35000610352</ele>
        <time>2011-04-06T14:05:22Z</time>
      </trkpt>
      <trkpt lat="44.83905" lon="4.7675">
        <ele>403.23098754883</ele>
        <time>2011-04-06T14:05:24Z</time>
      </trkpt>
      <trkpt lat="44.83936" lon="4.76758">
        <ele>402.39099121094</ele>
        <time>2011-04-06T14:05:31Z</time>
      </trkpt>
      <trkpt lat="44.83968" lon="4.76769">
        <ele>401.51901245117</ele>
        <time>2011-04-06T14:05:38Z</time>
      </trkpt>
      <trkpt lat="44.83981" lon="4.76774">
        <ele>401.31799316406</ele>
        <time>2011-04-06T14:05:41Z</time>
      </trkpt>
      <trkpt lat="44.84" lon="4.76796">
        <ele>400.46301269531</ele>
        <time>2011-04-06T14:05:46Z</time>
      </trkpt>
      <trkpt lat="44.83998" lon="4.76812">
        <ele>399.70901489258</ele>
        <time>2011-04-06T14:05:48Z</time>
      </trkpt>
      <trkpt lat="44.83994" lon="4.76829">
        <ele>398.69299316406</ele>
        <time>2011-04-06T14:05:50Z</time>
      </trkpt>
      <trkpt lat="44.83997" lon="4.76865">
        <ele>397.10699462891</ele>
        <time>2011-04-06T14:05:54Z</time>
      </trkpt>
      <trkpt lat="44.84015" lon="4.76885">
        <ele>396.33401489258</ele>
        <time>2011-04-06T14:05:57Z</time>
      </trkpt>
      <trkpt lat="44.84023" lon="4.7689">
        <ele>396.04998779297</ele>
        <time>2011-04-06T14:05:58Z</time>
      </trkpt>
      <trkpt lat="44.84073" lon="4.76912">
        <ele>393.04098510742</ele>
        <time>2011-04-06T14:06:04Z</time>
      </trkpt>
      <trkpt lat="44.84129" lon="4.76935">
        <ele>389.70199584961</ele>
        <time>2011-04-06T14:06:10Z</time>
      </trkpt>
      <trkpt lat="44.84177" lon="4.7694">
        <ele>386.8210144043</ele>
        <time>2011-04-06T14:06:15Z</time>
      </trkpt>
      <trkpt lat="44.84204" lon="4.76932">
        <ele>385.46398925781</ele>
        <time>2011-04-06T14:06:18Z</time>
      </trkpt>
      <trkpt lat="44.84212" lon="4.76928">
        <ele>385.19198608398</ele>
        <time>2011-04-06T14:06:19Z</time>
      </trkpt>
      <trkpt lat="44.84229" lon="4.76917">
        <ele>383.58801269531</ele>
        <time>2011-04-06T14:06:21Z</time>
      </trkpt>
      <trkpt lat="44.84256" lon="4.76902">
        <ele>381.8210144043</ele>
        <time>2011-04-06T14:06:24Z</time>
      </trkpt>
      <trkpt lat="44.84274" lon="4.76892">
        <ele>381.00201416016</ele>
        <time>2011-04-06T14:06:26Z</time>
      </trkpt>
      <trkpt lat="44.84299" lon="4.76894">
        <ele>380.69799804688</ele>
        <time>2011-04-06T14:06:29Z</time>
      </trkpt>
      <trkpt lat="44.84299" lon="4.76914">
        <ele>380.68798828125</ele>
        <time>2011-04-06T14:06:31Z</time>
      </trkpt>
      <trkpt lat="44.84283" lon="4.76978">
        <ele>377.76998901367</ele>
        <time>2011-04-06T14:06:37Z</time>
      </trkpt>
      <trkpt lat="44.84263" lon="4.77033">
        <ele>375.32998657227</ele>
        <time>2011-04-06T14:06:42Z</time>
      </trkpt>
      <trkpt lat="44.84249" lon="4.77067">
        <ele>373.76998901367</ele>
        <time>2011-04-06T14:06:45Z</time>
      </trkpt>
      <trkpt lat="44.84209" lon="4.77123">
        <ele>370.15399169922</ele>
        <time>2011-04-06T14:06:51Z</time>
      </trkpt>
      <trkpt lat="44.84201" lon="4.77132">
        <ele>369.96398925781</ele>
        <time>2011-04-06T14:06:52Z</time>
      </trkpt>
      <trkpt lat="44.84142" lon="4.7719">
        <ele>366.3450012207</ele>
        <time>2011-04-06T14:06:59Z</time>
      </trkpt>
      <trkpt lat="44.84096" lon="4.77228">
        <ele>363.20199584961</ele>
        <time>2011-04-06T14:07:04Z</time>
      </trkpt>
      <trkpt lat="44.84077" lon="4.77244">
        <ele>362.28900146484</ele>
        <time>2011-04-06T14:07:06Z</time>
      </trkpt>
      <trkpt lat="44.84025" lon="4.77301">
        <ele>358.79598999023</ele>
        <time>2011-04-06T14:07:12Z</time>
      </trkpt>
      <trkpt lat="44.83973" lon="4.77366">
        <ele>353.89801025391</ele>
        <time>2011-04-06T14:07:18Z</time>
      </trkpt>
      <trkpt lat="44.83893" lon="4.77446">
        <ele>347.66900634766</ele>
        <time>2011-04-06T14:07:26Z</time>
      </trkpt>
      <trkpt lat="44.83873" lon="4.77465">
        <ele>346.89199829102</ele>
        <time>2011-04-06T14:07:28Z</time>
      </trkpt>
      <trkpt lat="44.83848" lon="4.77519">
        <ele>343.08401489258</ele>
        <time>2011-04-06T14:07:32Z</time>
      </trkpt>
      <trkpt lat="44.83846" lon="4.77533">
        <ele>342.70700073242</ele>
        <time>2011-04-06T14:07:33Z</time>
      </trkpt>
      <trkpt lat="44.83837" lon="4.77545">
        <ele>341.1969909668</ele>
        <time>2011-04-06T14:07:37Z</time>
      </trkpt>
      <trkpt lat="44.83836" lon="4.77529">
        <ele>340.78799438477</ele>
        <time>2011-04-06T14:07:39Z</time>
      </trkpt>
      <trkpt lat="44.83838" lon="4.77521">
        <ele>340.4700012207</ele>
        <time>2011-04-06T14:07:40Z</time>
      </trkpt>
      <trkpt lat="44.83855" lon="4.77469">
        <ele>338.00601196289</ele>
        <time>2011-04-06T14:07:46Z</time>
      </trkpt>
      <trkpt lat="44.83858" lon="4.77459">
        <ele>337.70300292969</ele>
        <time>2011-04-06T14:07:47Z</time>
      </trkpt>
      <trkpt lat="44.83882" lon="4.77416">
        <ele>334.78698730469</ele>
        <time>2011-04-06T14:07:52Z</time>
      </trkpt>
      <trkpt lat="44.83916" lon="4.77365">
        <ele>332.79098510742</ele>
        <time>2011-04-06T14:07:58Z</time>
      </trkpt>
      <trkpt lat="44.83953" lon="4.77309">
        <ele>330.10598754883</ele>
        <time>2011-04-06T14:08:04Z</time>
      </trkpt>
      <trkpt lat="44.83998" lon="4.77241">
        <ele>326.91598510742</ele>
        <time>2011-04-06T14:08:11Z</time>
      </trkpt>
      <trkpt lat="44.84037" lon="4.77179">
        <ele>324.13900756836</ele>
        <time>2011-04-06T14:08:17Z</time>
      </trkpt>
      <trkpt lat="44.84061" lon="4.77143">
        <ele>322.33599853516</ele>
        <time>2011-04-06T14:08:21Z</time>
      </trkpt>
      <trkpt lat="44.84061" lon="4.77121">
        <ele>321.9700012207</ele>
        <time>2011-04-06T14:08:24Z</time>
      </trkpt>
      <trkpt lat="44.84048" lon="4.77118">
        <ele>321.57699584961</ele>
        <time>2011-04-06T14:08:26Z</time>
      </trkpt>
      <trkpt lat="44.84007" lon="4.7713">
        <ele>318.98599243164</ele>
        <time>2011-04-06T14:08:32Z</time>
      </trkpt>
      <trkpt lat="44.83999" lon="4.77132">
        <ele>318.71099853516</ele>
        <time>2011-04-06T14:08:33Z</time>
      </trkpt>
      <trkpt lat="44.83952" lon="4.77148">
        <ele>316.47601318359</ele>
        <time>2011-04-06T14:08:39Z</time>
      </trkpt>
      <trkpt lat="44.83884" lon="4.77181">
        <ele>312.41000366211</ele>
        <time>2011-04-06T14:08:47Z</time>
      </trkpt>
      <trkpt lat="44.83875" lon="4.77184">
        <ele>311.91500854492</ele>
        <time>2011-04-06T14:08:48Z</time>
      </trkpt>
      <trkpt lat="44.83853" lon="4.7718">
        <ele>310.46200561523</ele>
        <time>2011-04-06T14:08:51Z</time>
      </trkpt>
      <trkpt lat="44.83836" lon="4.77154">
        <ele>308.25201416016</ele>
        <time>2011-04-06T14:08:54Z</time>
      </trkpt>
      <trkpt lat="44.83829" lon="4.77146">
        <ele>307.56698608398</ele>
        <time>2011-04-06T14:08:55Z</time>
      </trkpt>
      <trkpt lat="44.83808" lon="4.77124">
        <ele>306.45999145508</ele>
        <time>2011-04-06T14:08:58Z</time>
      </trkpt>
      <trkpt lat="44.83789" lon="4.77121">
        <ele>305.7380065918</ele>
        <time>2011-04-06T14:09:01Z</time>
      </trkpt>
      <trkpt lat="44.83784" lon="4.77139">
        <ele>305.00500488281</ele>
        <time>2011-04-06T14:09:03Z</time>
      </trkpt>
      <trkpt lat="44.83777" lon="4.77182">
        <ele>303.03100585938</ele>
        <time>2011-04-06T14:09:07Z</time>
      </trkpt>
      <trkpt lat="44.83765" lon="4.77214">
        <ele>301.40399169922</ele>
        <time>2011-04-06T14:09:10Z</time>
      </trkpt>
      <trkpt lat="44.8376" lon="4.77224">
        <ele>300.75299072266</ele>
        <time>2011-04-06T14:09:11Z</time>
      </trkpt>
      <trkpt lat="44.83709" lon="4.77286">
        <ele>295.85699462891</ele>
        <time>2011-04-06T14:09:18Z</time>
      </trkpt>
      <trkpt lat="44.83677" lon="4.77319">
        <ele>293.30200195312</ele>
        <time>2011-04-06T14:09:22Z</time>
      </trkpt>
      <trkpt lat="44.83628" lon="4.77348">
        <ele>289.29000854492</ele>
        <time>2011-04-06T14:09:27Z</time>
      </trkpt>
      <trkpt lat="44.83607" lon="4.77344">
        <ele>288.08898925781</ele>
        <time>2011-04-06T14:09:29Z</time>
      </trkpt>
      <trkpt lat="44.83567" lon="4.77345">
        <ele>285.85598754883</ele>
        <time>2011-04-06T14:09:33Z</time>
      </trkpt>
      <trkpt lat="44.83562" lon="4.77355">
        <ele>285.38101196289</ele>
        <time>2011-04-06T14:09:34Z</time>
      </trkpt>
      <trkpt lat="44.83531" lon="4.77412">
        <ele>282.18600463867</ele>
        <time>2011-04-06T14:09:39Z</time>
      </trkpt>
      <trkpt lat="44.83514" lon="4.77429">
        <ele>281.14099121094</ele>
        <time>2011-04-06T14:09:41Z</time>
      </trkpt>
      <trkpt lat="44.83474" lon="4.77455">
        <ele>279.01998901367</ele>
        <time>2011-04-06T14:09:45Z</time>
      </trkpt>
      <trkpt lat="44.83414" lon="4.7746">
        <ele>275.48199462891</ele>
        <time>2011-04-06T14:09:50Z</time>
      </trkpt>
      <trkpt lat="44.83402" lon="4.77459">
        <ele>274.52600097656</ele>
        <time>2011-04-06T14:09:51Z</time>
      </trkpt>
      <trkpt lat="44.83354" lon="4.77468">
        <ele>272.05899047852</ele>
        <time>2011-04-06T14:09:55Z</time>
      </trkpt>
      <trkpt lat="44.83284" lon="4.77501">
        <ele>268.26098632812</ele>
        <time>2011-04-06T14:10:01Z</time>
      </trkpt>
      <trkpt lat="44.83261" lon="4.77509">
        <ele>266.98199462891</ele>
        <time>2011-04-06T14:10:03Z</time>
      </trkpt>
      <trkpt lat="44.83223" lon="4.77494">
        <ele>265.69500732422</ele>
        <time>2011-04-06T14:10:07Z</time>
      </trkpt>
      <trkpt lat="44.83214" lon="4.77485">
        <ele>264.91299438477</ele>
        <time>2011-04-06T14:10:08Z</time>
      </trkpt>
      <trkpt lat="44.83198" lon="4.77464">
        <ele>263.66900634766</ele>
        <time>2011-04-06T14:10:10Z</time>
      </trkpt>
      <trkpt lat="44.83176" lon="4.77411">
        <ele>261.35598754883</ele>
        <time>2011-04-06T14:10:14Z</time>
      </trkpt>
      <trkpt lat="44.83175" lon="4.77353">
        <ele>259.1669921875</ele>
        <time>2011-04-06T14:10:18Z</time>
      </trkpt>
      <trkpt lat="44.83178" lon="4.77305">
        <ele>257.4880065918</ele>
        <time>2011-04-06T14:10:22Z</time>
      </trkpt>
      <trkpt lat="44.83172" lon="4.77294">
        <ele>257.27899169922</ele>
        <time>2011-04-06T14:10:23Z</time>
      </trkpt>
      <trkpt lat="44.83167" lon="4.77282">
        <ele>257.24700927734</ele>
        <time>2011-04-06T14:10:24Z</time>
      </trkpt>
      <trkpt lat="44.83137" lon="4.77245">
        <ele>257.21398925781</ele>
        <time>2011-04-06T14:10:28Z</time>
      </trkpt>
      <trkpt lat="44.83129" lon="4.77236">
        <ele>256.82501220703</ele>
        <time>2011-04-06T14:10:29Z</time>
      </trkpt>
      <trkpt lat="44.83116" lon="4.77203">
        <ele>253.53999328613</ele>
        <time>2011-04-06T14:10:32Z</time>
      </trkpt>
      <trkpt lat="44.83113" lon="4.7719">
        <ele>253.39399719238</ele>
        <time>2011-04-06T14:10:33Z</time>
      </trkpt>
      <trkpt lat="44.83115" lon="4.7715">
        <ele>252.03999328613</ele>
        <time>2011-04-06T14:10:36Z</time>
      </trkpt>
      <trkpt lat="44.8312" lon="4.77139">
        <ele>251.73899841309</ele>
        <time>2011-04-06T14:10:37Z</time>
      </trkpt>
      <trkpt lat="44.83131" lon="4.77116">
        <ele>250.79299926758</ele>
        <time>2011-04-06T14:10:39Z</time>
      </trkpt>
      <trkpt lat="44.83143" lon="4.77094">
        <ele>249.49800109863</ele>
        <time>2011-04-06T14:10:41Z</time>
      </trkpt>
      <trkpt lat="44.83143" lon="4.77057">
        <ele>247.52499389648</ele>
        <time>2011-04-06T14:10:44Z</time>
      </trkpt>
      <trkpt lat="44.83142" lon="4.7703">
        <ele>246.40899658203</ele>
        <time>2011-04-06T14:10:46Z</time>
      </trkpt>
      <trkpt lat="44.83149" lon="4.76961">
        <ele>243.61999511719</ele>
        <time>2011-04-06T14:10:51Z</time>
      </trkpt>
      <trkpt lat="44.83138" lon="4.76941">
        <ele>242.14500427246</ele>
        <time>2011-04-06T14:10:54Z</time>
      </trkpt>
      <trkpt lat="44.83123" lon="4.76948">
        <ele>241.43800354004</ele>
        <time>2011-04-06T14:10:56Z</time>
      </trkpt>
      <trkpt lat="44.83075" lon="4.76981">
        <ele>237.44299316406</ele>
        <time>2011-04-06T14:11:02Z</time>
      </trkpt>
      <trkpt lat="44.83066" lon="4.76986">
        <ele>236.70700073242</ele>
        <time>2011-04-06T14:11:03Z</time>
      </trkpt>
      <trkpt lat="44.83027" lon="4.7699">
        <ele>233.57699584961</ele>
        <time>2011-04-06T14:11:07Z</time>
      </trkpt>
      <trkpt lat="44.83006" lon="4.76978">
        <ele>232.01699829102</ele>
        <time>2011-04-06T14:11:09Z</time>
      </trkpt>
      <trkpt lat="44.82977" lon="4.76953">
        <ele>228.85200500488</ele>
        <time>2011-04-06T14:11:12Z</time>
      </trkpt>
      <trkpt lat="44.82961" lon="4.7693">
        <ele>227.98500061035</ele>
        <time>2011-04-06T14:11:14Z</time>
      </trkpt>
      <trkpt lat="44.82954" lon="4.76899">
        <ele>226.79499816894</ele>
        <time>2011-04-06T14:11:16Z</time>
      </trkpt>
      <trkpt lat="44.82956" lon="4.7685">
        <ele>225.10099792481</ele>
        <time>2011-04-06T14:11:19Z</time>
      </trkpt>
      <trkpt lat="44.8297" lon="4.76804">
        <ele>223.10499572754</ele>
        <time>2011-04-06T14:11:22Z</time>
      </trkpt>
      <trkpt lat="44.82985" lon="4.76777">
        <ele>221.78199768066</ele>
        <time>2011-04-06T14:11:24Z</time>
      </trkpt>
      <trkpt lat="44.83001" lon="4.76752">
        <ele>220.00999450684</ele>
        <time>2011-04-06T14:11:26Z</time>
      </trkpt>
      <trkpt lat="44.83014" lon="4.76704">
        <ele>217.83299255371</ele>
        <time>2011-04-06T14:11:29Z</time>
      </trkpt>
      <trkpt lat="44.83038" lon="4.76649">
        <ele>214.65100097656</ele>
        <time>2011-04-06T14:11:33Z</time>
      </trkpt>
      <trkpt lat="44.83047" lon="4.7664">
        <ele>214.00700378418</ele>
        <time>2011-04-06T14:11:34Z</time>
      </trkpt>
      <trkpt lat="44.83072" lon="4.76601">
        <ele>211.30599975586</ele>
        <time>2011-04-06T14:11:38Z</time>
      </trkpt>
      <trkpt lat="44.8306" lon="4.76582">
        <ele>210.06399536133</ele>
        <time>2011-04-06T14:11:40Z</time>
      </trkpt>
      <trkpt lat="44.83052" lon="4.76576">
        <ele>209.41499328613</ele>
        <time>2011-04-06T14:11:41Z</time>
      </trkpt>
      <trkpt lat="44.83025" lon="4.76559">
        <ele>207.6369934082</ele>
        <time>2011-04-06T14:11:44Z</time>
      </trkpt>
      <trkpt lat="44.83013" lon="4.76542">
        <ele>206.64700317383</ele>
        <time>2011-04-06T14:11:46Z</time>
      </trkpt>
      <trkpt lat="44.83015" lon="4.76514">
        <ele>205.61199951172</ele>
        <time>2011-04-06T14:11:48Z</time>
      </trkpt>
      <trkpt lat="44.83032" lon="4.76501">
        <ele>204.35800170898</ele>
        <time>2011-04-06T14:11:50Z</time>
      </trkpt>
      <trkpt lat="44.8305" lon="4.76492">
        <ele>203.24600219727</ele>
        <time>2011-04-06T14:11:52Z</time>
      </trkpt>
      <trkpt lat="44.83068" lon="4.76483">
        <ele>201.64999389648</ele>
        <time>2011-04-06T14:11:54Z</time>
      </trkpt>
      <trkpt lat="44.83079" lon="4.76473">
        <ele>200.74299621582</ele>
        <time>2011-04-06T14:11:56Z</time>
      </trkpt>
      <trkpt lat="44.83091" lon="4.76458">
        <ele>199.83700561523</ele>
        <time>2011-04-06T14:11:59Z</time>
      </trkpt>
      <trkpt lat="44.83094" lon="4.76427">
        <ele>198.35800170898</ele>
        <time>2011-04-06T14:12:03Z</time>
      </trkpt>
      <trkpt lat="44.83088" lon="4.764">
        <ele>197.38299560547</ele>
        <time>2011-04-06T14:12:06Z</time>
      </trkpt>
      <trkpt lat="44.83094" lon="4.76379">
        <ele>196.10800170898</ele>
        <time>2011-04-06T14:12:08Z</time>
      </trkpt>
      <trkpt lat="44.83116" lon="4.76359">
        <ele>194.33500671387</ele>
        <time>2011-04-06T14:12:11Z</time>
      </trkpt>
      <trkpt lat="44.83133" lon="4.7635">
        <ele>193.17999267578</ele>
        <time>2011-04-06T14:12:13Z</time>
      </trkpt>
      <trkpt lat="44.83179" lon="4.76339">
        <ele>190.69200134277</ele>
        <time>2011-04-06T14:12:18Z</time>
      </trkpt>
      <trkpt lat="44.83219" lon="4.76325">
        <ele>188.12899780273</ele>
        <time>2011-04-06T14:12:22Z</time>
      </trkpt>
      <trkpt lat="44.83239" lon="4.76319">
        <ele>187.13800048828</ele>
        <time>2011-04-06T14:12:24Z</time>
      </trkpt>
      <trkpt lat="44.83252" lon="4.76294">
        <ele>186.12100219727</ele>
        <time>2011-04-06T14:12:27Z</time>
      </trkpt>
      <trkpt lat="44.83239" lon="4.7628">
        <ele>186.2140045166</ele>
        <time>2011-04-06T14:12:29Z</time>
      </trkpt>
      <trkpt lat="44.83223" lon="4.7628">
        <ele>186.02499389648</ele>
        <time>2011-04-06T14:12:31Z</time>
      </trkpt>
      <trkpt lat="44.83175" lon="4.76273">
        <ele>184.02699279785</ele>
        <time>2011-04-06T14:12:37Z</time>
      </trkpt>
      <trkpt lat="44.83167" lon="4.76267">
        <ele>183.63900756836</ele>
        <time>2011-04-06T14:12:38Z</time>
      </trkpt>
      <trkpt lat="44.83152" lon="4.76254">
        <ele>182.44900512695</ele>
        <time>2011-04-06T14:12:40Z</time>
      </trkpt>
      <trkpt lat="44.8313" lon="4.76214">
        <ele>180.00199890137</ele>
        <time>2011-04-06T14:12:44Z</time>
      </trkpt>
      <trkpt lat="44.83126" lon="4.76202">
        <ele>179.18400573731</ele>
        <time>2011-04-06T14:12:45Z</time>
      </trkpt>
      <trkpt lat="44.83119" lon="4.76175">
        <ele>177.85899353027</ele>
        <time>2011-04-06T14:12:47Z</time>
      </trkpt>
      <trkpt lat="44.83104" lon="4.76155">
        <ele>175.68200683594</ele>
        <time>2011-04-06T14:12:50Z</time>
      </trkpt>
      <trkpt lat="44.83094" lon="4.76173">
        <ele>174.48899841309</ele>
        <time>2011-04-06T14:12:52Z</time>
      </trkpt>
      <trkpt lat="44.83096" lon="4.76198">
        <ele>172.94200134277</ele>
        <time>2011-04-06T14:12:54Z</time>
      </trkpt>
      <trkpt lat="44.83099" lon="4.76222">
        <ele>172.46099853516</ele>
        <time>2011-04-06T14:12:56Z</time>
      </trkpt>
      <trkpt lat="44.83112" lon="4.76264">
        <ele>171.00100708008</ele>
        <time>2011-04-06T14:13:00Z</time>
      </trkpt>
      <trkpt lat="44.83104" lon="4.76283">
        <ele>169.52499389648</ele>
        <time>2011-04-06T14:13:02Z</time>
      </trkpt>
      <trkpt lat="44.83088" lon="4.7629">
        <ele>168.47200012207</ele>
        <time>2011-04-06T14:13:04Z</time>
      </trkpt>
      <trkpt lat="44.8307" lon="4.76284">
        <ele>167.36199951172</ele>
        <time>2011-04-06T14:13:06Z</time>
      </trkpt>
      <trkpt lat="44.83052" lon="4.76285">
        <ele>166.11500549316</ele>
        <time>2011-04-06T14:13:08Z</time>
      </trkpt>
      <trkpt lat="44.83004" lon="4.76312">
        <ele>162.3869934082</ele>
        <time>2011-04-06T14:13:13Z</time>
      </trkpt>
      <trkpt lat="44.82993" lon="4.7632">
        <ele>161.93200683594</ele>
        <time>2011-04-06T14:13:14Z</time>
      </trkpt>
      <trkpt lat="44.82951" lon="4.76352">
        <ele>158.08799743652</ele>
        <time>2011-04-06T14:13:18Z</time>
      </trkpt>
      <trkpt lat="44.82903" lon="4.76362">
        <ele>152.89300537109</ele>
        <time>2011-04-06T14:13:22Z</time>
      </trkpt>
      <trkpt lat="44.82823" lon="4.76362">
        <ele>146.98500061035</ele>
        <time>2011-04-06T14:13:28Z</time>
      </trkpt>
      <trkpt lat="44.82775" lon="4.76371">
        <ele>143.22599792481</ele>
        <time>2011-04-06T14:13:32Z</time>
      </trkpt>
      <trkpt lat="44.8273" lon="4.76397">
        <ele>138.73300170898</ele>
        <time>2011-04-06T14:13:36Z</time>
      </trkpt>
      <trkpt lat="44.82701" lon="4.76415">
        <ele>136.67100524902</ele>
        <time>2011-04-06T14:13:39Z</time>
      </trkpt>
      <trkpt lat="44.8265" lon="4.76423">
        <ele>133.06199645996</ele>
        <time>2011-04-06T14:13:44Z</time>
      </trkpt>
      <trkpt lat="44.82609" lon="4.76434">
        <ele>131.2859954834</ele>
        <time>2011-04-06T14:13:48Z</time>
      </trkpt>
      <trkpt lat="44.82561" lon="4.76458">
        <ele>129.64599609375</ele>
        <time>2011-04-06T14:13:53Z</time>
      </trkpt>
      <trkpt lat="44.82542" lon="4.76468">
        <ele>128.88000488281</ele>
        <time>2011-04-06T14:13:55Z</time>
      </trkpt>
      <trkpt lat="44.82496" lon="4.76492">
        <ele>126.19000244141</ele>
        <time>2011-04-06T14:14:00Z</time>
      </trkpt>
      <trkpt lat="44.82447" lon="4.76517">
        <ele>124.18099975586</ele>
        <time>2011-04-06T14:14:06Z</time>
      </trkpt>
      <trkpt lat="44.82422" lon="4.7653">
        <ele>122.46800231934</ele>
        <time>2011-04-06T14:14:09Z</time>
      </trkpt>
      <trkpt lat="44.8237" lon="4.76557">
        <ele>118.69300079346</ele>
        <time>2011-04-06T14:14:15Z</time>
      </trkpt>
      <trkpt lat="44.82322" lon="4.76583">
        <ele>115.8870010376</ele>
        <time>2011-04-06T14:14:21Z</time>
      </trkpt>
      <trkpt lat="44.82306" lon="4.76592">
        <ele>115.16300201416</ele>
        <time>2011-04-06T14:14:23Z</time>
      </trkpt>
      <trkpt lat="44.82298" lon="4.76597">
        <ele>114.79699707031</ele>
        <time>2011-04-06T14:14:24Z</time>
      </trkpt>
      <trkpt lat="44.82256" lon="4.76617">
        <ele>113.43900299072</ele>
        <time>2011-04-06T14:14:30Z</time>
      </trkpt>
      <trkpt lat="44.82244" lon="4.7662">
        <ele>113.55500030518</ele>
        <time>2011-04-06T14:14:34Z</time>
      </trkpt>
      <trkpt lat="44.82243" lon="4.7662">
        <ele>113.44899749756</ele>
        <time>2011-04-06T14:14:35Z</time>
      </trkpt>
      <trkpt lat="44.82241" lon="4.7661">
        <ele>113.44899749756</ele>
        <time>2011-04-06T14:14:41Z</time>
      </trkpt>
      <trkpt lat="44.82244" lon="4.76595">
        <ele>113.89499664307</ele>
        <time>2011-04-06T14:14:44Z</time>
      </trkpt>
      <trkpt lat="44.82246" lon="4.76568">
        <ele>114.16999816894</ele>
        <time>2011-04-06T14:14:48Z</time>
      </trkpt>
      <trkpt lat="44.82248" lon="4.76554">
        <ele>114.44599914551</ele>
        <time>2011-04-06T14:14:50Z</time>
      </trkpt>
      <trkpt lat="44.82253" lon="4.76526">
        <ele>114.92800140381</ele>
        <time>2011-04-06T14:14:54Z</time>
      </trkpt>
      <trkpt lat="44.82263" lon="4.76457">
        <ele>116.1129989624</ele>
        <time>2011-04-06T14:15:03Z</time>
      </trkpt>
      <trkpt lat="44.82273" lon="4.76389">
        <ele>116.22599792481</ele>
        <time>2011-04-06T14:15:12Z</time>
      </trkpt>
      <trkpt lat="44.82284" lon="4.76322">
        <ele>118.55300140381</ele>
        <time>2011-04-06T14:15:21Z</time>
      </trkpt>
      <trkpt lat="44.82296" lon="4.76241">
        <ele>118.6669998169</ele>
        <time>2011-04-06T14:15:31Z</time>
      </trkpt>
      <trkpt lat="44.82306" lon="4.76172">
        <ele>118.54900360107</ele>
        <time>2011-04-06T14:15:39Z</time>
      </trkpt>
      <trkpt lat="44.82317" lon="4.76103">
        <ele>118.53600311279</ele>
        <time>2011-04-06T14:15:47Z</time>
      </trkpt>
      <trkpt lat="44.82328" lon="4.76027">
        <ele>118.18399810791</ele>
        <time>2011-04-06T14:15:55Z</time>
      </trkpt>
      <trkpt lat="44.82336" lon="4.75968">
        <ele>118.48999786377</ele>
        <time>2011-04-06T14:16:01Z</time>
      </trkpt>
      <trkpt lat="44.82352" lon="4.75889">
        <ele>117.58499908447</ele>
        <time>2011-04-06T14:16:09Z</time>
      </trkpt>
      <trkpt lat="44.82367" lon="4.75833">
        <ele>117.00700378418</ele>
        <time>2011-04-06T14:16:15Z</time>
      </trkpt>
      <trkpt lat="44.82376" lon="4.75795">
        <ele>117.37200164795</ele>
        <time>2011-04-06T14:16:19Z</time>
      </trkpt>
      <trkpt lat="44.82396" lon="4.75718">
        <ele>117.2799987793</ele>
        <time>2011-04-06T14:16:27Z</time>
      </trkpt>
      <trkpt lat="44.82414" lon="4.7565">
        <ele>117.33200073242</ele>
        <time>2011-04-06T14:16:34Z</time>
      </trkpt>
      <trkpt lat="44.82428" lon="4.7558">
        <ele>116.77300262451</ele>
        <time>2011-04-06T14:16:41Z</time>
      </trkpt>
      <trkpt lat="44.82434" lon="4.75516">
        <ele>117.08499908447</ele>
        <time>2011-04-06T14:16:48Z</time>
      </trkpt>
      <trkpt lat="44.82441" lon="4.75438">
        <ele>117.15599822998</ele>
        <time>2011-04-06T14:16:56Z</time>
      </trkpt>
      <trkpt lat="44.8244" lon="4.75366">
        <ele>117.37100219727</ele>
        <time>2011-04-06T14:17:03Z</time>
      </trkpt>
      <trkpt lat="44.82431" lon="4.75264">
        <ele>117.09700012207</ele>
        <time>2011-04-06T14:17:13Z</time>
      </trkpt>
      <trkpt lat="44.82423" lon="4.75179">
        <ele>116.78299713135</ele>
        <time>2011-04-06T14:17:21Z</time>
      </trkpt>
      <trkpt lat="44.82415" lon="4.75083">
        <ele>116.81700134277</ele>
        <time>2011-04-06T14:17:30Z</time>
      </trkpt>
      <trkpt lat="44.82414" lon="4.74999">
        <ele>116.47200012207</ele>
        <time>2011-04-06T14:17:38Z</time>
      </trkpt>
      <trkpt lat="44.8242" lon="4.74895">
        <ele>116.57399749756</ele>
        <time>2011-04-06T14:17:48Z</time>
      </trkpt>
      <trkpt lat="44.82424" lon="4.74809">
        <ele>117.7440032959</ele>
        <time>2011-04-06T14:17:57Z</time>
      </trkpt>
      <trkpt lat="44.82422" lon="4.74756">
        <ele>118.38200378418</ele>
        <time>2011-04-06T14:18:03Z</time>
      </trkpt>
      <trkpt lat="44.8242" lon="4.7473">
        <ele>118.58100128174</ele>
        <time>2011-04-06T14:18:06Z</time>
      </trkpt>
      <trkpt lat="44.8243" lon="4.74702">
        <ele>118.37000274658</ele>
        <time>2011-04-06T14:18:10Z</time>
      </trkpt>
      <trkpt lat="44.82441" lon="4.74693">
        <ele>118.74700164795</ele>
        <time>2011-04-06T14:18:12Z</time>
      </trkpt>
      <trkpt lat="44.82463" lon="4.7468">
        <ele>120.68699645996</ele>
        <time>2011-04-06T14:18:18Z</time>
      </trkpt>
      <trkpt lat="44.82474" lon="4.74673">
        <ele>122.06199645996</ele>
        <time>2011-04-06T14:18:23Z</time>
      </trkpt>
      <trkpt lat="44.82496" lon="4.74658">
        <ele>124.55000305176</ele>
        <time>2011-04-06T14:18:31Z</time>
      </trkpt>
      <trkpt lat="44.82513" lon="4.74645">
        <ele>127.03099822998</ele>
        <time>2011-04-06T14:18:38Z</time>
      </trkpt>
      <trkpt lat="44.82528" lon="4.74626">
        <ele>127.85299682617</ele>
        <time>2011-04-06T14:18:45Z</time>
      </trkpt>
      <trkpt lat="44.82542" lon="4.74608">
        <ele>130.9700012207</ele>
        <time>2011-04-06T14:18:52Z</time>
      </trkpt>
      <trkpt lat="44.82564" lon="4.74586">
        <ele>133.6309967041</ele>
        <time>2011-04-06T14:19:02Z</time>
      </trkpt>
      <trkpt lat="44.82581" lon="4.74581">
        <ele>135.55000305176</ele>
        <time>2011-04-06T14:19:09Z</time>
      </trkpt>
      <trkpt lat="44.82601" lon="4.74579">
        <ele>137.83200073242</ele>
        <time>2011-04-06T14:19:17Z</time>
      </trkpt>
      <trkpt lat="44.82621" lon="4.74574">
        <ele>139.97900390625</ele>
        <time>2011-04-06T14:19:25Z</time>
      </trkpt>
      <trkpt lat="44.82637" lon="4.74571">
        <ele>141.57400512695</ele>
        <time>2011-04-06T14:19:31Z</time>
      </trkpt>
      <trkpt lat="44.82653" lon="4.74568">
        <ele>143.55499267578</ele>
        <time>2011-04-06T14:19:38Z</time>
      </trkpt>
      <trkpt lat="44.82674" lon="4.74564">
        <ele>145.14599609375</ele>
        <time>2011-04-06T14:19:46Z</time>
      </trkpt>
      <trkpt lat="44.8269" lon="4.7456">
        <ele>146.28799438477</ele>
        <time>2011-04-06T14:19:52Z</time>
      </trkpt>
      <trkpt lat="44.8271" lon="4.74551">
        <ele>147.69999694824</ele>
        <time>2011-04-06T14:19:59Z</time>
      </trkpt>
      <trkpt lat="44.82729" lon="4.74538">
        <ele>149.15199279785</ele>
        <time>2011-04-06T14:20:06Z</time>
      </trkpt>
      <trkpt lat="44.82748" lon="4.74525">
        <ele>150.4700012207</ele>
        <time>2011-04-06T14:20:13Z</time>
      </trkpt>
      <trkpt lat="44.82765" lon="4.7451">
        <ele>152.65600585938</ele>
        <time>2011-04-06T14:20:20Z</time>
      </trkpt>
      <trkpt lat="44.82782" lon="4.74491">
        <ele>154.9700012207</ele>
        <time>2011-04-06T14:20:29Z</time>
      </trkpt>
      <trkpt lat="44.82793" lon="4.74478">
        <ele>156.65699768066</ele>
        <time>2011-04-06T14:20:35Z</time>
      </trkpt>
      <trkpt lat="44.82808" lon="4.74462">
        <ele>158.03199768066</ele>
        <time>2011-04-06T14:20:42Z</time>
      </trkpt>
      <trkpt lat="44.8283" lon="4.74437">
        <ele>160.26600646973</ele>
        <time>2011-04-06T14:20:51Z</time>
      </trkpt>
      <trkpt lat="44.82833" lon="4.74431">
        <ele>160.82000732422</ele>
        <time>2011-04-06T14:20:53Z</time>
      </trkpt>
      <trkpt lat="44.8285" lon="4.74406">
        <ele>163.43699645996</ele>
        <time>2011-04-06T14:21:01Z</time>
      </trkpt>
      <trkpt lat="44.82858" lon="4.74389">
        <ele>165.13800048828</ele>
        <time>2011-04-06T14:21:06Z</time>
      </trkpt>
      <trkpt lat="44.82874" lon="4.74356">
        <ele>168.61099243164</ele>
        <time>2011-04-06T14:21:16Z</time>
      </trkpt>
      <trkpt lat="44.8289" lon="4.74322">
        <ele>170.91799926758</ele>
        <time>2011-04-06T14:21:26Z</time>
      </trkpt>
      <trkpt lat="44.82906" lon="4.74296">
        <ele>172.58799743652</ele>
        <time>2011-04-06T14:21:34Z</time>
      </trkpt>
      <trkpt lat="44.8292" lon="4.74268">
        <ele>174.38900756836</ele>
        <time>2011-04-06T14:21:42Z</time>
      </trkpt>
      <trkpt lat="44.82933" lon="4.7424">
        <ele>176.13200378418</ele>
        <time>2011-04-06T14:21:50Z</time>
      </trkpt>
      <trkpt lat="44.82948" lon="4.74217">
        <ele>179.17700195312</ele>
        <time>2011-04-06T14:21:58Z</time>
      </trkpt>
      <trkpt lat="44.82961" lon="4.7419">
        <ele>181.31700134277</ele>
        <time>2011-04-06T14:22:06Z</time>
      </trkpt>
      <trkpt lat="44.82965" lon="4.74161">
        <ele>182.64100646973</ele>
        <time>2011-04-06T14:22:13Z</time>
      </trkpt>
      <trkpt lat="44.82976" lon="4.74143">
        <ele>183.55400085449</ele>
        <time>2011-04-06T14:22:18Z</time>
      </trkpt>
      <trkpt lat="44.82989" lon="4.74142">
        <ele>183.94900512695</ele>
        <time>2011-04-06T14:22:22Z</time>
      </trkpt>
      <trkpt lat="44.83015" lon="4.7415">
        <ele>185.22700500488</ele>
        <time>2011-04-06T14:22:30Z</time>
      </trkpt>
      <trkpt lat="44.83033" lon="4.74139">
        <ele>186.09399414062</ele>
        <time>2011-04-06T14:22:36Z</time>
      </trkpt>
      <trkpt lat="44.83061" lon="4.74111">
        <ele>188.71099853516</ele>
        <time>2011-04-06T14:22:46Z</time>
      </trkpt>
      <trkpt lat="44.83076" lon="4.74087">
        <ele>190.66400146484</ele>
        <time>2011-04-06T14:22:54Z</time>
      </trkpt>
      <trkpt lat="44.83092" lon="4.74069">
        <ele>191.93400573731</ele>
        <time>2011-04-06T14:23:01Z</time>
      </trkpt>
      <trkpt lat="44.83104" lon="4.74058">
        <ele>193.37300109863</ele>
        <time>2011-04-06T14:23:06Z</time>
      </trkpt>
      <trkpt lat="44.83122" lon="4.7404">
        <ele>195.85600280762</ele>
        <time>2011-04-06T14:23:13Z</time>
      </trkpt>
      <trkpt lat="44.83139" lon="4.74033">
        <ele>197.45899963379</ele>
        <time>2011-04-06T14:23:19Z</time>
      </trkpt>
      <trkpt lat="44.83162" lon="4.74026">
        <ele>199.81300354004</ele>
        <time>2011-04-06T14:23:27Z</time>
      </trkpt>
      <trkpt lat="44.83179" lon="4.74011">
        <ele>202.29899597168</ele>
        <time>2011-04-06T14:23:34Z</time>
      </trkpt>
      <trkpt lat="44.83195" lon="4.73987">
        <ele>205.01699829102</ele>
        <time>2011-04-06T14:23:42Z</time>
      </trkpt>
      <trkpt lat="44.83205" lon="4.73959">
        <ele>207.18600463867</ele>
        <time>2011-04-06T14:23:49Z</time>
      </trkpt>
      <trkpt lat="44.83211" lon="4.73925">
        <ele>210.09700012207</ele>
        <time>2011-04-06T14:23:57Z</time>
      </trkpt>
      <trkpt lat="44.8322" lon="4.73888">
        <ele>213.25</ele>
        <time>2011-04-06T14:24:06Z</time>
      </trkpt>
      <trkpt lat="44.83226" lon="4.73863">
        <ele>215.50399780273</ele>
        <time>2011-04-06T14:24:12Z</time>
      </trkpt>
      <trkpt lat="44.83229" lon="4.73832">
        <ele>217.68699645996</ele>
        <time>2011-04-06T14:24:19Z</time>
      </trkpt>
      <trkpt lat="44.83234" lon="4.73798">
        <ele>219.86799621582</ele>
        <time>2011-04-06T14:24:27Z</time>
      </trkpt>
      <trkpt lat="44.83237" lon="4.73777">
        <ele>221.44599914551</ele>
        <time>2011-04-06T14:24:32Z</time>
      </trkpt>
      <trkpt lat="44.83235" lon="4.73752">
        <ele>224.10600280762</ele>
        <time>2011-04-06T14:24:39Z</time>
      </trkpt>
      <trkpt lat="44.83228" lon="4.73732">
        <ele>226.33799743652</ele>
        <time>2011-04-06T14:24:46Z</time>
      </trkpt>
      <trkpt lat="44.83223" lon="4.73707">
        <ele>228.32299804688</ele>
        <time>2011-04-06T14:24:54Z</time>
      </trkpt>
      <trkpt lat="44.8322" lon="4.73684">
        <ele>229.95599365234</ele>
        <time>2011-04-06T14:25:01Z</time>
      </trkpt>
      <trkpt lat="44.83217" lon="4.73652">
        <ele>231.54499816894</ele>
        <time>2011-04-06T14:25:10Z</time>
      </trkpt>
      <trkpt lat="44.83209" lon="4.73627">
        <ele>233.05700683594</ele>
        <time>2011-04-06T14:25:17Z</time>
      </trkpt>
      <trkpt lat="44.83199" lon="4.73594">
        <ele>235.21099853516</ele>
        <time>2011-04-06T14:25:27Z</time>
      </trkpt>
      <trkpt lat="44.832" lon="4.73574">
        <ele>236.58500671387</ele>
        <time>2011-04-06T14:25:33Z</time>
      </trkpt>
      <trkpt lat="44.83208" lon="4.73559">
        <ele>237.92599487305</ele>
        <time>2011-04-06T14:25:39Z</time>
      </trkpt>
      <trkpt lat="44.83214" lon="4.73546">
        <ele>239.19000244141</ele>
        <time>2011-04-06T14:25:44Z</time>
      </trkpt>
      <trkpt lat="44.83215" lon="4.73527">
        <ele>241.37100219727</ele>
        <time>2011-04-06T14:25:51Z</time>
      </trkpt>
      <trkpt lat="44.83209" lon="4.7351">
        <ele>243.27699279785</ele>
        <time>2011-04-06T14:25:58Z</time>
      </trkpt>
      <trkpt lat="44.83203" lon="4.73487">
        <ele>245.20500183106</ele>
        <time>2011-04-06T14:26:05Z</time>
      </trkpt>
      <trkpt lat="44.83205" lon="4.7347">
        <ele>246.50700378418</ele>
        <time>2011-04-06T14:26:10Z</time>
      </trkpt>
      <trkpt lat="44.83221" lon="4.73451">
        <ele>248.62699890137</ele>
        <time>2011-04-06T14:26:18Z</time>
      </trkpt>
      <trkpt lat="44.83239" lon="4.73436">
        <ele>250.70599365234</ele>
        <time>2011-04-06T14:26:26Z</time>
      </trkpt>
      <trkpt lat="44.8325" lon="4.73423">
        <ele>252.15100097656</ele>
        <time>2011-04-06T14:26:32Z</time>
      </trkpt>
      <trkpt lat="44.83257" lon="4.73404">
        <ele>253.54499816894</ele>
        <time>2011-04-06T14:26:38Z</time>
      </trkpt>
      <trkpt lat="44.83254" lon="4.73377">
        <ele>255.38999938965</ele>
        <time>2011-04-06T14:26:45Z</time>
      </trkpt>
      <trkpt lat="44.83244" lon="4.73353">
        <ele>256.22900390625</ele>
        <time>2011-04-06T14:26:51Z</time>
      </trkpt>
      <trkpt lat="44.83234" lon="4.73326">
        <ele>257.94100952148</ele>
        <time>2011-04-06T14:26:58Z</time>
      </trkpt>
      <trkpt lat="44.83229" lon="4.733">
        <ele>259.58700561523</ele>
        <time>2011-04-06T14:27:05Z</time>
      </trkpt>
      <trkpt lat="44.83234" lon="4.73281">
        <ele>260.9169921875</ele>
        <time>2011-04-06T14:27:10Z</time>
      </trkpt>
      <trkpt lat="44.83244" lon="4.7325">
        <ele>263.9169921875</ele>
        <time>2011-04-06T14:27:18Z</time>
      </trkpt>
      <trkpt lat="44.8325" lon="4.73213">
        <ele>266.70498657227</ele>
        <time>2011-04-06T14:27:27Z</time>
      </trkpt>
      <trkpt lat="44.83256" lon="4.73183">
        <ele>268.62200927734</ele>
        <time>2011-04-06T14:27:35Z</time>
      </trkpt>
      <trkpt lat="44.83267" lon="4.73171">
        <ele>269.74798583984</ele>
        <time>2011-04-06T14:27:40Z</time>
      </trkpt>
      <trkpt lat="44.8329" lon="4.7316">
        <ele>271.93200683594</ele>
        <time>2011-04-06T14:27:48Z</time>
      </trkpt>
      <trkpt lat="44.83316" lon="4.73154">
        <ele>273.5950012207</ele>
        <time>2011-04-06T14:27:57Z</time>
      </trkpt>
      <trkpt lat="44.83338" lon="4.73165">
        <ele>276.30899047852</ele>
        <time>2011-04-06T14:28:05Z</time>
      </trkpt>
      <trkpt lat="44.83351" lon="4.7316">
        <ele>278.02301025391</ele>
        <time>2011-04-06T14:28:10Z</time>
      </trkpt>
      <trkpt lat="44.83358" lon="4.73146">
        <ele>279.76501464844</ele>
        <time>2011-04-06T14:28:14Z</time>
      </trkpt>
      <trkpt lat="44.83364" lon="4.73125">
        <ele>282.19000244141</ele>
        <time>2011-04-06T14:28:20Z</time>
      </trkpt>
      <trkpt lat="44.83374" lon="4.73098">
        <ele>285.47900390625</ele>
        <time>2011-04-06T14:28:28Z</time>
      </trkpt>
      <trkpt lat="44.83384" lon="4.73096">
        <ele>286.97100830078</ele>
        <time>2011-04-06T14:28:32Z</time>
      </trkpt>
      <trkpt lat="44.83397" lon="4.73097">
        <ele>288.04299926758</ele>
        <time>2011-04-06T14:28:38Z</time>
      </trkpt>
      <trkpt lat="44.83418" lon="4.73102">
        <ele>290.20098876953</ele>
        <time>2011-04-06T14:28:47Z</time>
      </trkpt>
      <trkpt lat="44.83432" lon="4.73098">
        <ele>292.12701416016</ele>
        <time>2011-04-06T14:28:54Z</time>
      </trkpt>
      <trkpt lat="44.83443" lon="4.73094">
        <ele>293.9580078125</ele>
        <time>2011-04-06T14:29:00Z</time>
      </trkpt>
      <trkpt lat="44.83458" lon="4.73081">
        <ele>296.00698852539</ele>
        <time>2011-04-06T14:29:08Z</time>
      </trkpt>
      <trkpt lat="44.8347" lon="4.73074">
        <ele>297.31399536133</ele>
        <time>2011-04-06T14:29:14Z</time>
      </trkpt>
      <trkpt lat="44.8348" lon="4.73068">
        <ele>298.32901000977</ele>
        <time>2011-04-06T14:29:19Z</time>
      </trkpt>
      <trkpt lat="44.83494" lon="4.73064">
        <ele>300.14801025391</ele>
        <time>2011-04-06T14:29:26Z</time>
      </trkpt>
      <trkpt lat="44.83509" lon="4.73062">
        <ele>302.06500244141</ele>
        <time>2011-04-06T14:29:33Z</time>
      </trkpt>
      <trkpt lat="44.83524" lon="4.73065">
        <ele>303.62600708008</ele>
        <time>2011-04-06T14:29:41Z</time>
      </trkpt>
      <trkpt lat="44.83535" lon="4.73071">
        <ele>304.83599853516</ele>
        <time>2011-04-06T14:29:47Z</time>
      </trkpt>
      <trkpt lat="44.83549" lon="4.73076">
        <ele>307.39001464844</ele>
        <time>2011-04-06T14:29:55Z</time>
      </trkpt>
      <trkpt lat="44.83561" lon="4.73072">
        <ele>309.38000488281</ele>
        <time>2011-04-06T14:30:02Z</time>
      </trkpt>
      <trkpt lat="44.83562" lon="4.7307">
        <ele>309.67700195312</ele>
        <time>2011-04-06T14:30:03Z</time>
      </trkpt>
      <trkpt lat="44.8357" lon="4.73056">
        <ele>310.69799804688</ele>
        <time>2011-04-06T14:30:09Z</time>
      </trkpt>
      <trkpt lat="44.83581" lon="4.73036">
        <ele>311.41101074219</ele>
        <time>2011-04-06T14:30:16Z</time>
      </trkpt>
      <trkpt lat="44.83592" lon="4.7302">
        <ele>312.8030090332</ele>
        <time>2011-04-06T14:30:23Z</time>
      </trkpt>
      <trkpt lat="44.83602" lon="4.73011">
        <ele>314.23199462891</ele>
        <time>2011-04-06T14:30:29Z</time>
      </trkpt>
      <trkpt lat="44.83617" lon="4.73007">
        <ele>316.08801269531</ele>
        <time>2011-04-06T14:30:36Z</time>
      </trkpt>
      <trkpt lat="44.83633" lon="4.73006">
        <ele>317.74200439453</ele>
        <time>2011-04-06T14:30:43Z</time>
      </trkpt>
      <trkpt lat="44.83649" lon="4.73004">
        <ele>319.60299682617</ele>
        <time>2011-04-06T14:30:50Z</time>
      </trkpt>
      <trkpt lat="44.83663" lon="4.73003">
        <ele>320.96301269531</ele>
        <time>2011-04-06T14:30:56Z</time>
      </trkpt>
      <trkpt lat="44.83679" lon="4.72996">
        <ele>322.77099609375</ele>
        <time>2011-04-06T14:31:04Z</time>
      </trkpt>
      <trkpt lat="44.83691" lon="4.72988">
        <ele>323.89898681641</ele>
        <time>2011-04-06T14:31:10Z</time>
      </trkpt>
      <trkpt lat="44.83699" lon="4.72982">
        <ele>325.01998901367</ele>
        <time>2011-04-06T14:31:14Z</time>
      </trkpt>
      <trkpt lat="44.83709" lon="4.72971">
        <ele>326.28799438477</ele>
        <time>2011-04-06T14:31:19Z</time>
      </trkpt>
      <trkpt lat="44.83722" lon="4.72947">
        <ele>328.45901489258</ele>
        <time>2011-04-06T14:31:28Z</time>
      </trkpt>
      <trkpt lat="44.83729" lon="4.7292">
        <ele>329.93301391602</ele>
        <time>2011-04-06T14:31:36Z</time>
      </trkpt>
      <trkpt lat="44.83739" lon="4.72895">
        <ele>331.74899291992</ele>
        <time>2011-04-06T14:31:44Z</time>
      </trkpt>
      <trkpt lat="44.83746" lon="4.72881">
        <ele>333.38800048828</ele>
        <time>2011-04-06T14:31:50Z</time>
      </trkpt>
      <trkpt lat="44.83757" lon="4.72866">
        <ele>334.86199951172</ele>
        <time>2011-04-06T14:31:57Z</time>
      </trkpt>
      <trkpt lat="44.83762" lon="4.72861">
        <ele>335.51098632812</ele>
        <time>2011-04-06T14:32:00Z</time>
      </trkpt>
      <trkpt lat="44.83774" lon="4.72851">
        <ele>337.53500366211</ele>
        <time>2011-04-06T14:32:07Z</time>
      </trkpt>
      <trkpt lat="44.83787" lon="4.72842">
        <ele>339.76098632812</ele>
        <time>2011-04-06T14:32:14Z</time>
      </trkpt>
      <trkpt lat="44.83799" lon="4.72829">
        <ele>341.80099487305</ele>
        <time>2011-04-06T14:32:21Z</time>
      </trkpt>
      <trkpt lat="44.83811" lon="4.72814">
        <ele>343.21099853516</ele>
        <time>2011-04-06T14:32:28Z</time>
      </trkpt>
      <trkpt lat="44.83821" lon="4.72801">
        <ele>344.5299987793</ele>
        <time>2011-04-06T14:32:34Z</time>
      </trkpt>
      <trkpt lat="44.83835" lon="4.7279">
        <ele>346.30200195312</ele>
        <time>2011-04-06T14:32:41Z</time>
      </trkpt>
      <trkpt lat="44.83847" lon="4.72785">
        <ele>346.91598510742</ele>
        <time>2011-04-06T14:32:46Z</time>
      </trkpt>
      <trkpt lat="44.83859" lon="4.72782">
        <ele>347.14199829102</ele>
        <time>2011-04-06T14:32:51Z</time>
      </trkpt>
      <trkpt lat="44.83884" lon="4.7278">
        <ele>348.52398681641</ele>
        <time>2011-04-06T14:32:59Z</time>
      </trkpt>
      <trkpt lat="44.83904" lon="4.72782">
        <ele>349.72601318359</ele>
        <time>2011-04-06T14:33:06Z</time>
      </trkpt>
      <trkpt lat="44.83927" lon="4.72787">
        <ele>351.1130065918</ele>
        <time>2011-04-06T14:33:14Z</time>
      </trkpt>
      <trkpt lat="44.83953" lon="4.72789">
        <ele>352.40701293945</ele>
        <time>2011-04-06T14:33:23Z</time>
      </trkpt>
      <trkpt lat="44.8397" lon="4.72786">
        <ele>352.61099243164</ele>
        <time>2011-04-06T14:33:29Z</time>
      </trkpt>
      <trkpt lat="44.8399" lon="4.72775">
        <ele>352.35198974609</ele>
        <time>2011-04-06T14:33:35Z</time>
      </trkpt>
      <trkpt lat="44.84007" lon="4.72762">
        <ele>352.71798706055</ele>
        <time>2011-04-06T14:33:40Z</time>
      </trkpt>
      <trkpt lat="44.84028" lon="4.72745">
        <ele>353.28799438477</ele>
        <time>2011-04-06T14:33:46Z</time>
      </trkpt>
      <trkpt lat="44.84053" lon="4.72732">
        <ele>353.9280090332</ele>
        <time>2011-04-06T14:33:53Z</time>
      </trkpt>
      <trkpt lat="44.84084" lon="4.72724">
        <ele>355.68600463867</ele>
        <time>2011-04-06T14:34:02Z</time>
      </trkpt>
      <trkpt lat="44.84113" lon="4.72718">
        <ele>357.55801391602</ele>
        <time>2011-04-06T14:34:10Z</time>
      </trkpt>
      <trkpt lat="44.84142" lon="4.72719">
        <ele>359.29901123047</ele>
        <time>2011-04-06T14:34:19Z</time>
      </trkpt>
      <trkpt lat="44.84155" lon="4.7272">
        <ele>359.91299438477</ele>
        <time>2011-04-06T14:34:23Z</time>
      </trkpt>
      <trkpt lat="44.84182" lon="4.72718">
        <ele>361.73901367188</ele>
        <time>2011-04-06T14:34:32Z</time>
      </trkpt>
      <trkpt lat="44.84199" lon="4.72714">
        <ele>362.84698486328</ele>
        <time>2011-04-06T14:34:38Z</time>
      </trkpt>
      <trkpt lat="44.84219" lon="4.72704">
        <ele>364.24200439453</ele>
        <time>2011-04-06T14:34:45Z</time>
      </trkpt>
      <trkpt lat="44.84235" lon="4.72687">
        <ele>366.09201049805</ele>
        <time>2011-04-06T14:34:52Z</time>
      </trkpt>
      <trkpt lat="44.84243" lon="4.7267">
        <ele>368.48599243164</ele>
        <time>2011-04-06T14:34:58Z</time>
      </trkpt>
      <trkpt lat="44.84252" lon="4.72655">
        <ele>370.34600830078</ele>
        <time>2011-04-06T14:35:04Z</time>
      </trkpt>
      <trkpt lat="44.8426" lon="4.7264">
        <ele>372.125</ele>
        <time>2011-04-06T14:35:10Z</time>
      </trkpt>
      <trkpt lat="44.84272" lon="4.72627">
        <ele>374.13800048828</ele>
        <time>2011-04-06T14:35:17Z</time>
      </trkpt>
      <trkpt lat="44.84285" lon="4.72614">
        <ele>376.09600830078</ele>
        <time>2011-04-06T14:35:25Z</time>
      </trkpt>
      <trkpt lat="44.84296" lon="4.72607">
        <ele>377.49301147461</ele>
        <time>2011-04-06T14:35:32Z</time>
      </trkpt>
      <trkpt lat="44.84312" lon="4.72595">
        <ele>379.72399902344</ele>
        <time>2011-04-06T14:35:41Z</time>
      </trkpt>
      <trkpt lat="44.84327" lon="4.72584">
        <ele>381.91299438477</ele>
        <time>2011-04-06T14:35:48Z</time>
      </trkpt>
      <trkpt lat="44.84347" lon="4.72565">
        <ele>385.11401367188</ele>
        <time>2011-04-06T14:35:56Z</time>
      </trkpt>
      <trkpt lat="44.84373" lon="4.72546">
        <ele>388.5419921875</ele>
        <time>2011-04-06T14:36:06Z</time>
      </trkpt>
      <trkpt lat="44.84396" lon="4.72529">
        <ele>392.14401245117</ele>
        <time>2011-04-06T14:36:16Z</time>
      </trkpt>
      <trkpt lat="44.84409" lon="4.72523">
        <ele>394.17001342773</ele>
        <time>2011-04-06T14:36:23Z</time>
      </trkpt>
      <trkpt lat="44.84426" lon="4.72513">
        <ele>395.56500244141</ele>
        <time>2011-04-06T14:36:31Z</time>
      </trkpt>
      <trkpt lat="44.84438" lon="4.72501">
        <ele>396.66101074219</ele>
        <time>2011-04-06T14:36:38Z</time>
      </trkpt>
      <trkpt lat="44.84454" lon="4.72478">
        <ele>398.96099853516</ele>
        <time>2011-04-06T14:36:48Z</time>
      </trkpt>
      <trkpt lat="44.84467" lon="4.72461">
        <ele>401.47299194336</ele>
        <time>2011-04-06T14:36:56Z</time>
      </trkpt>
      <trkpt lat="44.84488" lon="4.72446">
        <ele>404.22198486328</ele>
        <time>2011-04-06T14:37:06Z</time>
      </trkpt>
      <trkpt lat="44.84502" lon="4.72437">
        <ele>406.31500244141</ele>
        <time>2011-04-06T14:37:13Z</time>
      </trkpt>
      <trkpt lat="44.84519" lon="4.72427">
        <ele>408.17498779297</ele>
        <time>2011-04-06T14:37:20Z</time>
      </trkpt>
      <trkpt lat="44.8454" lon="4.7242">
        <ele>410.29299926758</ele>
        <time>2011-04-06T14:37:28Z</time>
      </trkpt>
      <trkpt lat="44.84559" lon="4.7242">
        <ele>412.02899169922</ele>
        <time>2011-04-06T14:37:35Z</time>
      </trkpt>
      <trkpt lat="44.84583" lon="4.7242">
        <ele>413.30999755859</ele>
        <time>2011-04-06T14:37:43Z</time>
      </trkpt>
      <trkpt lat="44.84611" lon="4.72426">
        <ele>415.70001220703</ele>
        <time>2011-04-06T14:37:53Z</time>
      </trkpt>
      <trkpt lat="44.84637" lon="4.72431">
        <ele>417.26800537109</ele>
        <time>2011-04-06T14:38:02Z</time>
      </trkpt>
      <trkpt lat="44.8466" lon="4.72426">
        <ele>418.38299560547</ele>
        <time>2011-04-06T14:38:10Z</time>
      </trkpt>
      <trkpt lat="44.84679" lon="4.7242">
        <ele>419.35299682617</ele>
        <time>2011-04-06T14:38:17Z</time>
      </trkpt>
      <trkpt lat="44.84702" lon="4.72412">
        <ele>419.95999145508</ele>
        <time>2011-04-06T14:38:25Z</time>
      </trkpt>
      <trkpt lat="44.84718" lon="4.72406">
        <ele>420.52499389648</ele>
        <time>2011-04-06T14:38:31Z</time>
      </trkpt>
      <trkpt lat="44.84735" lon="4.724">
        <ele>421.6130065918</ele>
        <time>2011-04-06T14:38:38Z</time>
      </trkpt>
      <trkpt lat="44.84748" lon="4.72396">
        <ele>422.74099731445</ele>
        <time>2011-04-06T14:38:44Z</time>
      </trkpt>
      <trkpt lat="44.84763" lon="4.72391">
        <ele>424.29400634766</ele>
        <time>2011-04-06T14:38:51Z</time>
      </trkpt>
      <trkpt lat="44.84781" lon="4.72382">
        <ele>426.24899291992</ele>
        <time>2011-04-06T14:38:59Z</time>
      </trkpt>
      <trkpt lat="44.84803" lon="4.72367">
        <ele>429.75201416016</ele>
        <time>2011-04-06T14:39:09Z</time>
      </trkpt>
      <trkpt lat="44.84818" lon="4.72355">
        <ele>432.01901245117</ele>
        <time>2011-04-06T14:39:16Z</time>
      </trkpt>
      <trkpt lat="44.84837" lon="4.72336">
        <ele>434.29098510742</ele>
        <time>2011-04-06T14:39:25Z</time>
      </trkpt>
      <trkpt lat="44.84851" lon="4.72327">
        <ele>435.83700561523</ele>
        <time>2011-04-06T14:39:32Z</time>
      </trkpt>
      <trkpt lat="44.84867" lon="4.72321">
        <ele>438.28201293945</ele>
        <time>2011-04-06T14:39:41Z</time>
      </trkpt>
      <trkpt lat="44.84881" lon="4.72317">
        <ele>440.23699951172</ele>
        <time>2011-04-06T14:39:49Z</time>
      </trkpt>
      <trkpt lat="44.84891" lon="4.72316">
        <ele>441.60501098633</ele>
        <time>2011-04-06T14:39:55Z</time>
      </trkpt>
      <trkpt lat="44.84903" lon="4.72313">
        <ele>443.10998535156</ele>
        <time>2011-04-06T14:40:02Z</time>
      </trkpt>
      <trkpt lat="44.84915" lon="4.7231">
        <ele>444.66400146484</ele>
        <time>2011-04-06T14:40:09Z</time>
      </trkpt>
      <trkpt lat="44.84929" lon="4.72306">
        <ele>446.48199462891</ele>
        <time>2011-04-06T14:40:17Z</time>
      </trkpt>
      <trkpt lat="44.84939" lon="4.72302">
        <ele>447.53500366211</ele>
        <time>2011-04-06T14:40:23Z</time>
      </trkpt>
      <trkpt lat="44.84953" lon="4.72292">
        <ele>448.8450012207</ele>
        <time>2011-04-06T14:40:30Z</time>
      </trkpt>
      <trkpt lat="44.84968" lon="4.72272">
        <ele>450.39401245117</ele>
        <time>2011-04-06T14:40:39Z</time>
      </trkpt>
      <trkpt lat="44.84969" lon="4.7225">
        <ele>451.94100952148</ele>
        <time>2011-04-06T14:40:46Z</time>
      </trkpt>
      <trkpt lat="44.84965" lon="4.72226">
        <ele>453.91598510742</ele>
        <time>2011-04-06T14:40:54Z</time>
      </trkpt>
      <trkpt lat="44.84959" lon="4.72205">
        <ele>455.1780090332</ele>
        <time>2011-04-06T14:41:01Z</time>
      </trkpt>
      <trkpt lat="44.84955" lon="4.72189">
        <ele>456.72500610352</ele>
        <time>2011-04-06T14:41:07Z</time>
      </trkpt>
      <trkpt lat="44.84946" lon="4.72166">
        <ele>458.78399658203</ele>
        <time>2011-04-06T14:41:15Z</time>
      </trkpt>
      <trkpt lat="44.8493" lon="4.72144">
        <ele>460.43200683594</ele>
        <time>2011-04-06T14:41:24Z</time>
      </trkpt>
      <trkpt lat="44.84915" lon="4.72124">
        <ele>462.69400024414</ele>
        <time>2011-04-06T14:41:32Z</time>
      </trkpt>
      <trkpt lat="44.84902" lon="4.72103">
        <ele>464.66299438477</ele>
        <time>2011-04-06T14:41:39Z</time>
      </trkpt>
      <trkpt lat="44.84887" lon="4.72083">
        <ele>466.28100585938</ele>
        <time>2011-04-06T14:41:46Z</time>
      </trkpt>
      <trkpt lat="44.84875" lon="4.72066">
        <ele>468.10900878906</ele>
        <time>2011-04-06T14:41:52Z</time>
      </trkpt>
      <trkpt lat="44.84865" lon="4.72045">
        <ele>469.71798706055</ele>
        <time>2011-04-06T14:41:58Z</time>
      </trkpt>
      <trkpt lat="44.84852" lon="4.72022">
        <ele>471.18798828125</ele>
        <time>2011-04-06T14:42:05Z</time>
      </trkpt>
      <trkpt lat="44.84846" lon="4.72004">
        <ele>472.75100708008</ele>
        <time>2011-04-06T14:42:11Z</time>
      </trkpt>
      <trkpt lat="44.84848" lon="4.71991">
        <ele>474.22299194336</ele>
        <time>2011-04-06T14:42:16Z</time>
      </trkpt>
      <trkpt lat="44.8486" lon="4.7198">
        <ele>475.73300170898</ele>
        <time>2011-04-06T14:42:23Z</time>
      </trkpt>
      <trkpt lat="44.84869" lon="4.71981">
        <ele>476.85000610352</ele>
        <time>2011-04-06T14:42:28Z</time>
      </trkpt>
      <trkpt lat="44.84885" lon="4.71984">
        <ele>478.38900756836</ele>
        <time>2011-04-06T14:42:34Z</time>
      </trkpt>
      <trkpt lat="44.84909" lon="4.71984">
        <ele>479.85000610352</ele>
        <time>2011-04-06T14:42:43Z</time>
      </trkpt>
      <trkpt lat="44.84924" lon="4.71978">
        <ele>481.11599731445</ele>
        <time>2011-04-06T14:42:49Z</time>
      </trkpt>
      <trkpt lat="44.84941" lon="4.71969">
        <ele>482.55499267578</ele>
        <time>2011-04-06T14:42:56Z</time>
      </trkpt>
      <trkpt lat="44.84956" lon="4.7196">
        <ele>484.4460144043</ele>
        <time>2011-04-06T14:43:03Z</time>
      </trkpt>
      <trkpt lat="44.84971" lon="4.71949">
        <ele>486.46301269531</ele>
        <time>2011-04-06T14:43:11Z</time>
      </trkpt>
      <trkpt lat="44.84986" lon="4.7194">
        <ele>487.51501464844</ele>
        <time>2011-04-06T14:43:18Z</time>
      </trkpt>
      <trkpt lat="44.85003" lon="4.7193">
        <ele>489.12200927734</ele>
        <time>2011-04-06T14:43:26Z</time>
      </trkpt>
      <trkpt lat="44.85019" lon="4.71918">
        <ele>490.86700439453</ele>
        <time>2011-04-06T14:43:34Z</time>
      </trkpt>
      <trkpt lat="44.85036" lon="4.71906">
        <ele>492.86700439453</ele>
        <time>2011-04-06T14:43:42Z</time>
      </trkpt>
      <trkpt lat="44.85052" lon="4.71887">
        <ele>494.97900390625</ele>
        <time>2011-04-06T14:43:51Z</time>
      </trkpt>
      <trkpt lat="44.85064" lon="4.7187">
        <ele>496.8039855957</ele>
        <time>2011-04-06T14:43:58Z</time>
      </trkpt>
      <trkpt lat="44.85078" lon="4.71847">
        <ele>499.09799194336</ele>
        <time>2011-04-06T14:44:06Z</time>
      </trkpt>
      <trkpt lat="44.85105" lon="4.71806">
        <ele>502.0719909668</ele>
        <time>2011-04-06T14:44:17Z</time>
      </trkpt>
      <trkpt lat="44.85122" lon="4.71783">
        <ele>503.34698486328</ele>
        <time>2011-04-06T14:44:24Z</time>
      </trkpt>
      <trkpt lat="44.85138" lon="4.71753">
        <ele>505.72100830078</ele>
        <time>2011-04-06T14:44:32Z</time>
      </trkpt>
      <trkpt lat="44.85149" lon="4.71726">
        <ele>507.78900146484</ele>
        <time>2011-04-06T14:44:40Z</time>
      </trkpt>
      <trkpt lat="44.85159" lon="4.71704">
        <ele>509.66000366211</ele>
        <time>2011-04-06T14:44:47Z</time>
      </trkpt>
      <trkpt lat="44.8517" lon="4.71677">
        <ele>510.95700073242</ele>
        <time>2011-04-06T14:44:55Z</time>
      </trkpt>
      <trkpt lat="44.85181" lon="4.71647">
        <ele>511.78399658203</ele>
        <time>2011-04-06T14:45:03Z</time>
      </trkpt>
      <trkpt lat="44.85192" lon="4.71608">
        <ele>512.81701660156</ele>
        <time>2011-04-06T14:45:12Z</time>
      </trkpt>
      <trkpt lat="44.85202" lon="4.71574">
        <ele>515.05700683594</ele>
        <time>2011-04-06T14:45:21Z</time>
      </trkpt>
      <trkpt lat="44.85213" lon="4.71544">
        <ele>517.52600097656</ele>
        <time>2011-04-06T14:45:31Z</time>
      </trkpt>
      <trkpt lat="44.85225" lon="4.71518">
        <ele>519.81402587891</ele>
        <time>2011-04-06T14:45:40Z</time>
      </trkpt>
      <trkpt lat="44.85235" lon="4.71496">
        <ele>521.33099365234</ele>
        <time>2011-04-06T14:45:47Z</time>
      </trkpt>
      <trkpt lat="44.85246" lon="4.71477">
        <ele>522.76098632812</ele>
        <time>2011-04-06T14:45:53Z</time>
      </trkpt>
      <trkpt lat="44.85261" lon="4.71445">
        <ele>524.44097900391</ele>
        <time>2011-04-06T14:46:02Z</time>
      </trkpt>
      <trkpt lat="44.85266" lon="4.71411">
        <ele>525.88000488281</ele>
        <time>2011-04-06T14:46:10Z</time>
      </trkpt>
      <trkpt lat="44.85263" lon="4.71378">
        <ele>527.90301513672</ele>
        <time>2011-04-06T14:46:18Z</time>
      </trkpt>
      <trkpt lat="44.85259" lon="4.71351">
        <ele>529.60498046875</ele>
        <time>2011-04-06T14:46:25Z</time>
      </trkpt>
      <trkpt lat="44.85257" lon="4.71329">
        <ele>530.40997314453</ele>
        <time>2011-04-06T14:46:32Z</time>
      </trkpt>
      <trkpt lat="44.85257" lon="4.71313">
        <ele>530.79901123047</ele>
        <time>2011-04-06T14:46:37Z</time>
      </trkpt>
      <trkpt lat="44.85257" lon="4.71286">
        <ele>531.17102050781</ele>
        <time>2011-04-06T14:46:43Z</time>
      </trkpt>
      <trkpt lat="44.85255" lon="4.71248">
        <ele>532.70697021484</ele>
        <time>2011-04-06T14:46:51Z</time>
      </trkpt>
      <trkpt lat="44.85252" lon="4.71213">
        <ele>533.94201660156</ele>
        <time>2011-04-06T14:46:59Z</time>
      </trkpt>
      <trkpt lat="44.8526" lon="4.71195">
        <ele>535.21600341797</ele>
        <time>2011-04-06T14:47:04Z</time>
      </trkpt>
      <trkpt lat="44.85278" lon="4.71189">
        <ele>536.06701660156</ele>
        <time>2011-04-06T14:47:09Z</time>
      </trkpt>
      <trkpt lat="44.85304" lon="4.71196">
        <ele>536.75402832031</ele>
        <time>2011-04-06T14:47:16Z</time>
      </trkpt>
      <trkpt lat="44.85337" lon="4.71212">
        <ele>537.25799560547</ele>
        <time>2011-04-06T14:47:24Z</time>
      </trkpt>
      <trkpt lat="44.85349" lon="4.71221">
        <ele>537.44500732422</ele>
        <time>2011-04-06T14:47:27Z</time>
      </trkpt>
      <trkpt lat="44.85374" lon="4.7125">
        <ele>539.04797363281</ele>
        <time>2011-04-06T14:47:35Z</time>
      </trkpt>
      <trkpt lat="44.85391" lon="4.7127">
        <ele>540.75701904297</ele>
        <time>2011-04-06T14:47:42Z</time>
      </trkpt>
      <trkpt lat="44.85408" lon="4.71291">
        <ele>543.08801269531</ele>
        <time>2011-04-06T14:47:50Z</time>
      </trkpt>
      <trkpt lat="44.85423" lon="4.7131">
        <ele>545.72900390625</ele>
        <time>2011-04-06T14:47:57Z</time>
      </trkpt>
      <trkpt lat="44.85443" lon="4.7133">
        <ele>548.78802490234</ele>
        <time>2011-04-06T14:48:06Z</time>
      </trkpt>
      <trkpt lat="44.85462" lon="4.71337">
        <ele>550.41802978516</ele>
        <time>2011-04-06T14:48:13Z</time>
      </trkpt>
      <trkpt lat="44.8548" lon="4.71333">
        <ele>551.92498779297</ele>
        <time>2011-04-06T14:48:20Z</time>
      </trkpt>
      <trkpt lat="44.85497" lon="4.71326">
        <ele>553.87097167969</ele>
        <time>2011-04-06T14:48:27Z</time>
      </trkpt>
      <trkpt lat="44.85513" lon="4.71317">
        <ele>555.82000732422</ele>
        <time>2011-04-06T14:48:34Z</time>
      </trkpt>
      <trkpt lat="44.85529" lon="4.71307">
        <ele>557.06896972656</ele>
        <time>2011-04-06T14:48:41Z</time>
      </trkpt>
      <trkpt lat="44.85551" lon="4.71287">
        <ele>559.28997802734</ele>
        <time>2011-04-06T14:48:51Z</time>
      </trkpt>
      <trkpt lat="44.85574" lon="4.71271">
        <ele>560.97302246094</ele>
        <time>2011-04-06T14:49:00Z</time>
      </trkpt>
      <trkpt lat="44.85596" lon="4.71258">
        <ele>562.84399414062</ele>
        <time>2011-04-06T14:49:09Z</time>
      </trkpt>
      <trkpt lat="44.85616" lon="4.71248">
        <ele>564.67498779297</ele>
        <time>2011-04-06T14:49:17Z</time>
      </trkpt>
      <trkpt lat="44.85635" lon="4.71241">
        <ele>566.64501953125</ele>
        <time>2011-04-06T14:49:25Z</time>
      </trkpt>
      <trkpt lat="44.85655" lon="4.71233">
        <ele>569.1259765625</ele>
        <time>2011-04-06T14:49:33Z</time>
      </trkpt>
      <trkpt lat="44.85666" lon="4.7123">
        <ele>570.24102783203</ele>
        <time>2011-04-06T14:49:38Z</time>
      </trkpt>
      <trkpt lat="44.85678" lon="4.71225">
        <ele>571.63000488281</ele>
        <time>2011-04-06T14:49:44Z</time>
      </trkpt>
      <trkpt lat="44.85691" lon="4.7122">
        <ele>573.16998291016</ele>
        <time>2011-04-06T14:49:50Z</time>
      </trkpt>
      <trkpt lat="44.85706" lon="4.71215">
        <ele>574.98999023438</ele>
        <time>2011-04-06T14:49:57Z</time>
      </trkpt>
      <trkpt lat="44.85722" lon="4.7121">
        <ele>576.42199707031</ele>
        <time>2011-04-06T14:50:04Z</time>
      </trkpt>
      <trkpt lat="44.85743" lon="4.71208">
        <ele>578.37298583984</ele>
        <time>2011-04-06T14:50:12Z</time>
      </trkpt>
      <trkpt lat="44.85768" lon="4.71214">
        <ele>581.02398681641</ele>
        <time>2011-04-06T14:50:22Z</time>
      </trkpt>
      <trkpt lat="44.85785" lon="4.71219">
        <ele>582.73602294922</ele>
        <time>2011-04-06T14:50:29Z</time>
      </trkpt>
      <trkpt lat="44.85802" lon="4.71224">
        <ele>584.51800537109</ele>
        <time>2011-04-06T14:50:36Z</time>
      </trkpt>
      <trkpt lat="44.85826" lon="4.71227">
        <ele>587.38098144531</ele>
        <time>2011-04-06T14:50:46Z</time>
      </trkpt>
      <trkpt lat="44.85846" lon="4.71222">
        <ele>589.76202392578</ele>
        <time>2011-04-06T14:50:54Z</time>
      </trkpt>
      <trkpt lat="44.85868" lon="4.71212">
        <ele>591.93597412109</ele>
        <time>2011-04-06T14:51:03Z</time>
      </trkpt>
      <trkpt lat="44.85884" lon="4.71207">
        <ele>594.02502441406</ele>
        <time>2011-04-06T14:51:10Z</time>
      </trkpt>
      <trkpt lat="44.859" lon="4.71199">
        <ele>595.94201660156</ele>
        <time>2011-04-06T14:51:17Z</time>
      </trkpt>
      <trkpt lat="44.85919" lon="4.71191">
        <ele>597.87097167969</ele>
        <time>2011-04-06T14:51:25Z</time>
      </trkpt>
      <trkpt lat="44.8594" lon="4.71187">
        <ele>599.41900634766</ele>
        <time>2011-04-06T14:51:33Z</time>
      </trkpt>
      <trkpt lat="44.85959" lon="4.71187">
        <ele>601.30297851562</ele>
        <time>2011-04-06T14:51:40Z</time>
      </trkpt>
      <trkpt lat="44.85973" lon="4.71185">
        <ele>602.49200439453</ele>
        <time>2011-04-06T14:51:46Z</time>
      </trkpt>
      <trkpt lat="44.85987" lon="4.71184">
        <ele>603.62097167969</ele>
        <time>2011-04-06T14:51:52Z</time>
      </trkpt>
      <trkpt lat="44.86003" lon="4.7118">
        <ele>605.06402587891</ele>
        <time>2011-04-06T14:51:59Z</time>
      </trkpt>
      <trkpt lat="44.86024" lon="4.71176">
        <ele>606.50799560547</ele>
        <time>2011-04-06T14:52:07Z</time>
      </trkpt>
      <trkpt lat="44.86048" lon="4.71176">
        <ele>608.57702636719</ele>
        <time>2011-04-06T14:52:16Z</time>
      </trkpt>
      <trkpt lat="44.86067" lon="4.71179">
        <ele>610.06896972656</ele>
        <time>2011-04-06T14:52:23Z</time>
      </trkpt>
      <trkpt lat="44.86089" lon="4.71184">
        <ele>611.65399169922</ele>
        <time>2011-04-06T14:52:32Z</time>
      </trkpt>
      <trkpt lat="44.86103" lon="4.71187">
        <ele>613.2509765625</ele>
        <time>2011-04-06T14:52:39Z</time>
      </trkpt>
      <trkpt lat="44.86122" lon="4.71184">
        <ele>614.84197998047</ele>
        <time>2011-04-06T14:52:47Z</time>
      </trkpt>
      <trkpt lat="44.86136" lon="4.71182">
        <ele>616.07000732422</ele>
        <time>2011-04-06T14:52:53Z</time>
      </trkpt>
      <trkpt lat="44.86154" lon="4.71176">
        <ele>616.97601318359</ele>
        <time>2011-04-06T14:53:01Z</time>
      </trkpt>
      <trkpt lat="44.86174" lon="4.71171">
        <ele>618.04797363281</ele>
        <time>2011-04-06T14:53:09Z</time>
      </trkpt>
      <trkpt lat="44.86188" lon="4.71166">
        <ele>619.04797363281</ele>
        <time>2011-04-06T14:53:15Z</time>
      </trkpt>
      <trkpt lat="44.86203" lon="4.7116">
        <ele>620.53601074219</ele>
        <time>2011-04-06T14:53:21Z</time>
      </trkpt>
      <trkpt lat="44.86223" lon="4.71152">
        <ele>622.43298339844</ele>
        <time>2011-04-06T14:53:30Z</time>
      </trkpt>
      <trkpt lat="44.86242" lon="4.71144">
        <ele>624.22900390625</ele>
        <time>2011-04-06T14:53:38Z</time>
      </trkpt>
      <trkpt lat="44.86264" lon="4.71133">
        <ele>625.43902587891</ele>
        <time>2011-04-06T14:53:47Z</time>
      </trkpt>
      <trkpt lat="44.86277" lon="4.71124">
        <ele>626.08898925781</ele>
        <time>2011-04-06T14:53:53Z</time>
      </trkpt>
      <trkpt lat="44.86283" lon="4.71119">
        <ele>626.51000976562</ele>
        <time>2011-04-06T14:53:58Z</time>
      </trkpt>
      <trkpt lat="44.86291" lon="4.71112">
        <ele>627.23999023438</ele>
        <time>2011-04-06T14:54:03Z</time>
      </trkpt>
      <trkpt lat="44.86301" lon="4.71103">
        <ele>627.64001464844</ele>
        <time>2011-04-06T14:54:09Z</time>
      </trkpt>
      <trkpt lat="44.8631" lon="4.71093">
        <ele>628.39801025391</ele>
        <time>2011-04-06T14:54:15Z</time>
      </trkpt>
      <trkpt lat="44.86316" lon="4.71088">
        <ele>629.21502685547</ele>
        <time>2011-04-06T14:54:20Z</time>
      </trkpt>
      <trkpt lat="44.86328" lon="4.71078">
        <ele>630.32800292969</ele>
        <time>2011-04-06T14:54:27Z</time>
      </trkpt>
      <trkpt lat="44.86345" lon="4.71062">
        <ele>631.96697998047</ele>
        <time>2011-04-06T14:54:36Z</time>
      </trkpt>
      <trkpt lat="44.86356" lon="4.71048">
        <ele>633.81097412109</ele>
        <time>2011-04-06T14:54:43Z</time>
      </trkpt>
      <trkpt lat="44.86369" lon="4.71036">
        <ele>635.97998046875</ele>
        <time>2011-04-06T14:54:51Z</time>
      </trkpt>
      <trkpt lat="44.86377" lon="4.71025">
        <ele>636.65100097656</ele>
        <time>2011-04-06T14:54:56Z</time>
      </trkpt>
      <trkpt lat="44.86388" lon="4.71014">
        <ele>638.40002441406</ele>
        <time>2011-04-06T14:55:02Z</time>
      </trkpt>
      <trkpt lat="44.864" lon="4.71002">
        <ele>640.01098632812</ele>
        <time>2011-04-06T14:55:09Z</time>
      </trkpt>
      <trkpt lat="44.86418" lon="4.70988">
        <ele>642.35400390625</ele>
        <time>2011-04-06T14:55:19Z</time>
      </trkpt>
      <trkpt lat="44.86437" lon="4.7098">
        <ele>644.68798828125</ele>
        <time>2011-04-06T14:55:28Z</time>
      </trkpt>
      <trkpt lat="44.86448" lon="4.70977">
        <ele>645.58599853516</ele>
        <time>2011-04-06T14:55:33Z</time>
      </trkpt>
      <trkpt lat="44.86458" lon="4.70975">
        <ele>646.44702148438</ele>
        <time>2011-04-06T14:55:39Z</time>
      </trkpt>
      <trkpt lat="44.86475" lon="4.70971">
        <ele>647.78997802734</ele>
        <time>2011-04-06T14:55:47Z</time>
      </trkpt>
      <trkpt lat="44.86492" lon="4.70965">
        <ele>649.58197021484</ele>
        <time>2011-04-06T14:55:55Z</time>
      </trkpt>
      <trkpt lat="44.8651" lon="4.7096">
        <ele>650.86901855469</ele>
        <time>2011-04-06T14:56:03Z</time>
      </trkpt>
      <trkpt lat="44.86525" lon="4.70951">
        <ele>652.88702392578</ele>
        <time>2011-04-06T14:56:11Z</time>
      </trkpt>
      <trkpt lat="44.86539" lon="4.70943">
        <ele>654.58502197266</ele>
        <time>2011-04-06T14:56:18Z</time>
      </trkpt>
      <trkpt lat="44.8656" lon="4.70926">
        <ele>656.63598632812</ele>
        <time>2011-04-06T14:56:28Z</time>
      </trkpt>
      <trkpt lat="44.86575" lon="4.70913">
        <ele>658.04797363281</ele>
        <time>2011-04-06T14:56:35Z</time>
      </trkpt>
      <trkpt lat="44.86591" lon="4.70898">
        <ele>659.84698486328</ele>
        <time>2011-04-06T14:56:43Z</time>
      </trkpt>
      <trkpt lat="44.86605" lon="4.70879">
        <ele>661.83197021484</ele>
        <time>2011-04-06T14:56:51Z</time>
      </trkpt>
      <trkpt lat="44.86616" lon="4.70866">
        <ele>663.05603027344</ele>
        <time>2011-04-06T14:56:57Z</time>
      </trkpt>
      <trkpt lat="44.86628" lon="4.70847">
        <ele>665.02099609375</ele>
        <time>2011-04-06T14:57:05Z</time>
      </trkpt>
      <trkpt lat="44.86639" lon="4.70831">
        <ele>666.63598632812</ele>
        <time>2011-04-06T14:57:12Z</time>
      </trkpt>
      <trkpt lat="44.86649" lon="4.70815">
        <ele>668.14501953125</ele>
        <time>2011-04-06T14:57:19Z</time>
      </trkpt>
      <trkpt lat="44.86662" lon="4.70795">
        <ele>670.37799072266</ele>
        <time>2011-04-06T14:57:28Z</time>
      </trkpt>
      <trkpt lat="44.86676" lon="4.70784">
        <ele>671.77001953125</ele>
        <time>2011-04-06T14:57:35Z</time>
      </trkpt>
      <trkpt lat="44.86695" lon="4.70771">
        <ele>673.43701171875</ele>
        <time>2011-04-06T14:57:44Z</time>
      </trkpt>
      <trkpt lat="44.86707" lon="4.70761">
        <ele>674.92102050781</ele>
        <time>2011-04-06T14:57:50Z</time>
      </trkpt>
      <trkpt lat="44.86721" lon="4.70751">
        <ele>676.80999755859</ele>
        <time>2011-04-06T14:57:58Z</time>
      </trkpt>
      <trkpt lat="44.86732" lon="4.70743">
        <ele>677.75897216797</ele>
        <time>2011-04-06T14:58:04Z</time>
      </trkpt>
      <trkpt lat="44.86742" lon="4.70737">
        <ele>679.39099121094</ele>
        <time>2011-04-06T14:58:10Z</time>
      </trkpt>
      <trkpt lat="44.8675" lon="4.7073">
        <ele>680.97601318359</ele>
        <time>2011-04-06T14:58:16Z</time>
      </trkpt>
      <trkpt lat="44.86765" lon="4.70721">
        <ele>682.7509765625</ele>
        <time>2011-04-06T14:58:24Z</time>
      </trkpt>
      <trkpt lat="44.86776" lon="4.70717">
        <ele>684.16400146484</ele>
        <time>2011-04-06T14:58:30Z</time>
      </trkpt>
      <trkpt lat="44.86789" lon="4.70711">
        <ele>685.85198974609</ele>
        <time>2011-04-06T14:58:38Z</time>
      </trkpt>
      <trkpt lat="44.868" lon="4.70706">
        <ele>687.86199951172</ele>
        <time>2011-04-06T14:58:45Z</time>
      </trkpt>
      <trkpt lat="44.86814" lon="4.707">
        <ele>689.58697509766</ele>
        <time>2011-04-06T14:58:54Z</time>
      </trkpt>
      <trkpt lat="44.86824" lon="4.70692">
        <ele>690.708984375</ele>
        <time>2011-04-06T14:59:00Z</time>
      </trkpt>
      <trkpt lat="44.86835" lon="4.70681">
        <ele>692.13702392578</ele>
        <time>2011-04-06T14:59:07Z</time>
      </trkpt>
      <trkpt lat="44.86848" lon="4.70666">
        <ele>694.25299072266</ele>
        <time>2011-04-06T14:59:15Z</time>
      </trkpt>
      <trkpt lat="44.86859" lon="4.70651">
        <ele>696.11999511719</ele>
        <time>2011-04-06T14:59:22Z</time>
      </trkpt>
      <trkpt lat="44.86872" lon="4.70631">
        <ele>698.54797363281</ele>
        <time>2011-04-06T14:59:31Z</time>
      </trkpt>
      <trkpt lat="44.86889" lon="4.70613">
        <ele>700.89697265625</ele>
        <time>2011-04-06T14:59:40Z</time>
      </trkpt>
      <trkpt lat="44.86904" lon="4.706">
        <ele>703.1259765625</ele>
        <time>2011-04-06T14:59:48Z</time>
      </trkpt>
      <trkpt lat="44.86922" lon="4.70581">
        <ele>705.74597167969</ele>
        <time>2011-04-06T14:59:58Z</time>
      </trkpt>
      <trkpt lat="44.86941" lon="4.70561">
        <ele>708.06500244141</ele>
        <time>2011-04-06T15:00:08Z</time>
      </trkpt>
      <trkpt lat="44.86961" lon="4.70537">
        <ele>710.55902099609</ele>
        <time>2011-04-06T15:00:19Z</time>
      </trkpt>
      <trkpt lat="44.86975" lon="4.7052">
        <ele>712.4169921875</ele>
        <time>2011-04-06T15:00:27Z</time>
      </trkpt>
      <trkpt lat="44.86992" lon="4.70497">
        <ele>715.31701660156</ele>
        <time>2011-04-06T15:00:36Z</time>
      </trkpt>
      <trkpt lat="44.87011" lon="4.70472">
        <ele>718.73199462891</ele>
        <time>2011-04-06T15:00:46Z</time>
      </trkpt>
      <trkpt lat="44.87021" lon="4.70446">
        <ele>720.99499511719</ele>
        <time>2011-04-06T15:00:54Z</time>
      </trkpt>
      <trkpt lat="44.87028" lon="4.70413">
        <ele>722.47698974609</ele>
        <time>2011-04-06T15:01:03Z</time>
      </trkpt>
      <trkpt lat="44.8703" lon="4.70385">
        <ele>724.125</ele>
        <time>2011-04-06T15:01:11Z</time>
      </trkpt>
      <trkpt lat="44.87029" lon="4.70352">
        <ele>725.60699462891</ele>
        <time>2011-04-06T15:01:20Z</time>
      </trkpt>
      <trkpt lat="44.87025" lon="4.70326">
        <ele>726.791015625</ele>
        <time>2011-04-06T15:01:27Z</time>
      </trkpt>
      <trkpt lat="44.87019" lon="4.70293">
        <ele>728.62097167969</ele>
        <time>2011-04-06T15:01:36Z</time>
      </trkpt>
      <trkpt lat="44.87013" lon="4.70277">
        <ele>729.63000488281</ele>
        <time>2011-04-06T15:01:41Z</time>
      </trkpt>
      <trkpt lat="44.87004" lon="4.70259">
        <ele>731.33099365234</ele>
        <time>2011-04-06T15:01:48Z</time>
      </trkpt>
      <trkpt lat="44.87" lon="4.7025">
        <ele>732.15100097656</ele>
        <time>2011-04-06T15:01:52Z</time>
      </trkpt>
      <trkpt lat="44.87005" lon="4.70243">
        <ele>733.89501953125</ele>
        <time>2011-04-06T15:01:57Z</time>
      </trkpt>
      <trkpt lat="44.87013" lon="4.70253">
        <ele>734.30603027344</ele>
        <time>2011-04-06T15:02:01Z</time>
      </trkpt>
      <trkpt lat="44.87017" lon="4.70262">
        <ele>734.55102539062</ele>
        <time>2011-04-06T15:02:04Z</time>
      </trkpt>
      <trkpt lat="44.8703" lon="4.70287">
        <ele>736.38500976562</ele>
        <time>2011-04-06T15:02:13Z</time>
      </trkpt>
      <trkpt lat="44.87041" lon="4.70308">
        <ele>737.72900390625</ele>
        <time>2011-04-06T15:02:21Z</time>
      </trkpt>
      <trkpt lat="44.87049" lon="4.70324">
        <ele>738.30200195312</ele>
        <time>2011-04-06T15:02:27Z</time>
      </trkpt>
      <trkpt lat="44.87061" lon="4.70349">
        <ele>740.25500488281</ele>
        <time>2011-04-06T15:02:36Z</time>
      </trkpt>
      <trkpt lat="44.87072" lon="4.70368">
        <ele>742.17999267578</ele>
        <time>2011-04-06T15:02:44Z</time>
      </trkpt>
      <trkpt lat="44.87083" lon="4.70382">
        <ele>743.28497314453</ele>
        <time>2011-04-06T15:02:50Z</time>
      </trkpt>
      <trkpt lat="44.87095" lon="4.7039">
        <ele>744.19396972656</ele>
        <time>2011-04-06T15:02:54Z</time>
      </trkpt>
      <trkpt lat="44.8711" lon="4.70382">
        <ele>745.02502441406</ele>
        <time>2011-04-06T15:03:00Z</time>
      </trkpt>
      <trkpt lat="44.8712" lon="4.70355">
        <ele>744.29901123047</ele>
        <time>2011-04-06T15:03:06Z</time>
      </trkpt>
      <trkpt lat="44.87133" lon="4.7033">
        <ele>744.30297851562</ele>
        <time>2011-04-06T15:03:12Z</time>
      </trkpt>
      <trkpt lat="44.87143" lon="4.7031">
        <ele>744.34899902344</ele>
        <time>2011-04-06T15:03:17Z</time>
      </trkpt>
      <trkpt lat="44.87153" lon="4.70281">
        <ele>743.93597412109</ele>
        <time>2011-04-06T15:03:24Z</time>
      </trkpt>
      <trkpt lat="44.8715" lon="4.70252">
        <ele>743.04302978516</ele>
        <time>2011-04-06T15:03:28Z</time>
      </trkpt>
      <trkpt lat="44.87145" lon="4.70234">
        <ele>741.99499511719</ele>
        <time>2011-04-06T15:03:30Z</time>
      </trkpt>
      <trkpt lat="44.87111" lon="4.70153">
        <ele>740.62097167969</ele>
        <time>2011-04-06T15:03:39Z</time>
      </trkpt>
      <trkpt lat="44.87101" lon="4.70115">
        <ele>739.5419921875</ele>
        <time>2011-04-06T15:03:43Z</time>
      </trkpt>
      <trkpt lat="44.87091" lon="4.70049">
        <ele>738.66198730469</ele>
        <time>2011-04-06T15:03:50Z</time>
      </trkpt>
      <trkpt lat="44.87089" lon="4.70028">
        <ele>738.21899414062</ele>
        <time>2011-04-06T15:03:52Z</time>
      </trkpt>
      <trkpt lat="44.87096" lon="4.69979">
        <ele>737.63299560547</ele>
        <time>2011-04-06T15:03:57Z</time>
      </trkpt>
      <trkpt lat="44.87115" lon="4.69951">
        <ele>737.76000976562</ele>
        <time>2011-04-06T15:04:01Z</time>
      </trkpt>
      <trkpt lat="44.8712" lon="4.69946">
        <ele>737.78302001953</ele>
        <time>2011-04-06T15:04:02Z</time>
      </trkpt>
      <trkpt lat="44.87159" lon="4.6992">
        <ele>737.02001953125</ele>
        <time>2011-04-06T15:04:09Z</time>
      </trkpt>
      <trkpt lat="44.87178" lon="4.69913">
        <ele>736.48699951172</ele>
        <time>2011-04-06T15:04:12Z</time>
      </trkpt>
      <trkpt lat="44.87213" lon="4.69914">
        <ele>735.01501464844</ele>
        <time>2011-04-06T15:04:17Z</time>
      </trkpt>
      <trkpt lat="44.8727" lon="4.69925">
        <ele>733.75500488281</ele>
        <time>2011-04-06T15:04:25Z</time>
      </trkpt>
      <trkpt lat="44.8729" lon="4.69929">
        <ele>733.67297363281</ele>
        <time>2011-04-06T15:04:28Z</time>
      </trkpt>
      <trkpt lat="44.87312" lon="4.69915">
        <ele>734.09100341797</ele>
        <time>2011-04-06T15:04:32Z</time>
      </trkpt>
      <trkpt lat="44.87313" lon="4.69897">
        <ele>732.90802001953</ele>
        <time>2011-04-06T15:04:34Z</time>
      </trkpt>
      <trkpt lat="44.87311" lon="4.69886">
        <ele>732.10998535156</ele>
        <time>2011-04-06T15:04:35Z</time>
      </trkpt>
      <trkpt lat="44.87285" lon="4.69792">
        <ele>727.25201416016</ele>
        <time>2011-04-06T15:04:43Z</time>
      </trkpt>
      <trkpt lat="44.87283" lon="4.69779">
        <ele>726.86999511719</ele>
        <time>2011-04-06T15:04:44Z</time>
      </trkpt>
      <trkpt lat="44.87286" lon="4.69721">
        <ele>723.58502197266</ele>
        <time>2011-04-06T15:04:48Z</time>
      </trkpt>
      <trkpt lat="44.87308" lon="4.69685">
        <ele>720.49597167969</ele>
        <time>2011-04-06T15:04:51Z</time>
      </trkpt>
      <trkpt lat="44.87345" lon="4.6966">
        <ele>716.708984375</ele>
        <time>2011-04-06T15:04:54Z</time>
      </trkpt>
      <trkpt lat="44.87365" lon="4.69632">
        <ele>713.82000732422</ele>
        <time>2011-04-06T15:04:56Z</time>
      </trkpt>
      <trkpt lat="44.87394" lon="4.69586">
        <ele>709.30603027344</ele>
        <time>2011-04-06T15:04:59Z</time>
      </trkpt>
      <trkpt lat="44.87442" lon="4.69544">
        <ele>704.14501953125</ele>
        <time>2011-04-06T15:05:03Z</time>
      </trkpt>
      <trkpt lat="44.87511" lon="4.69502">
        <ele>697.81201171875</ele>
        <time>2011-04-06T15:05:08Z</time>
      </trkpt>
      <trkpt lat="44.87563" lon="4.69464">
        <ele>693.63500976562</ele>
        <time>2011-04-06T15:05:12Z</time>
      </trkpt>
      <trkpt lat="44.87602" lon="4.69434">
        <ele>687.85498046875</ele>
        <time>2011-04-06T15:05:15Z</time>
      </trkpt>
      <trkpt lat="44.87652" lon="4.6937">
        <ele>681.97399902344</ele>
        <time>2011-04-06T15:05:19Z</time>
      </trkpt>
      <trkpt lat="44.87665" lon="4.69328">
        <ele>678.8759765625</ele>
        <time>2011-04-06T15:05:21Z</time>
      </trkpt>
      <trkpt lat="44.87685" lon="4.69271">
        <ele>674.82702636719</ele>
        <time>2011-04-06T15:05:24Z</time>
      </trkpt>
      <trkpt lat="44.87695" lon="4.69257">
        <ele>673.39898681641</ele>
        <time>2011-04-06T15:05:25Z</time>
      </trkpt>
      <trkpt lat="44.8773" lon="4.69217">
        <ele>669.81097412109</ele>
        <time>2011-04-06T15:05:28Z</time>
      </trkpt>
      <trkpt lat="44.87782" lon="4.69176">
        <ele>664.93499755859</ele>
        <time>2011-04-06T15:05:32Z</time>
      </trkpt>
      <trkpt lat="44.87821" lon="4.69143">
        <ele>661.28997802734</ele>
        <time>2011-04-06T15:05:35Z</time>
      </trkpt>
      <trkpt lat="44.87853" lon="4.691">
        <ele>658.22601318359</ele>
        <time>2011-04-06T15:05:38Z</time>
      </trkpt>
      <trkpt lat="44.87869" lon="4.69042">
        <ele>655.16302490234</ele>
        <time>2011-04-06T15:05:41Z</time>
      </trkpt>
      <trkpt lat="44.8789" lon="4.68963">
        <ele>649.68701171875</ele>
        <time>2011-04-06T15:05:45Z</time>
      </trkpt>
      <trkpt lat="44.87909" lon="4.68928">
        <ele>645.77099609375</ele>
        <time>2011-04-06T15:05:47Z</time>
      </trkpt>
      <trkpt lat="44.87933" lon="4.68846">
        <ele>639.48797607422</ele>
        <time>2011-04-06T15:05:51Z</time>
      </trkpt>
      <trkpt lat="44.87946" lon="4.6878">
        <ele>634.86401367188</ele>
        <time>2011-04-06T15:05:54Z</time>
      </trkpt>
      <trkpt lat="44.87943" lon="4.68709">
        <ele>629.76898193359</ele>
        <time>2011-04-06T15:05:57Z</time>
      </trkpt>
      <trkpt lat="44.87927" lon="4.68669">
        <ele>627.80401611328</ele>
        <time>2011-04-06T15:05:59Z</time>
      </trkpt>
      <trkpt lat="44.87905" lon="4.68633">
        <ele>624.37298583984</ele>
        <time>2011-04-06T15:06:01Z</time>
      </trkpt>
      <trkpt lat="44.87872" lon="4.68558">
        <ele>619.42498779297</ele>
        <time>2011-04-06T15:06:05Z</time>
      </trkpt>
      <trkpt lat="44.87881" lon="4.68514">
        <ele>616.60400390625</ele>
        <time>2011-04-06T15:06:07Z</time>
      </trkpt>
      <trkpt lat="44.87893" lon="4.685">
        <ele>615.68499755859</ele>
        <time>2011-04-06T15:06:08Z</time>
      </trkpt>
      <trkpt lat="44.8792" lon="4.68427">
        <ele>607.60699462891</ele>
        <time>2011-04-06T15:06:12Z</time>
      </trkpt>
      <trkpt lat="44.8792" lon="4.68405">
        <ele>606.70001220703</ele>
        <time>2011-04-06T15:06:13Z</time>
      </trkpt>
      <trkpt lat="44.87906" lon="4.68274">
        <ele>599.58099365234</ele>
        <time>2011-04-06T15:06:19Z</time>
      </trkpt>
      <trkpt lat="44.879" lon="4.68229">
        <ele>596.46002197266</ele>
        <time>2011-04-06T15:06:21Z</time>
      </trkpt>
      <trkpt lat="44.87877" lon="4.68145">
        <ele>589.75799560547</ele>
        <time>2011-04-06T15:06:25Z</time>
      </trkpt>
      <trkpt lat="44.8788" lon="4.68098">
        <ele>586.50701904297</ele>
        <time>2011-04-06T15:06:27Z</time>
      </trkpt>
      <trkpt lat="44.87896" lon="4.68042">
        <ele>581.84698486328</ele>
        <time>2011-04-06T15:06:30Z</time>
      </trkpt>
      <trkpt lat="44.87916" lon="4.68025">
        <ele>579.80700683594</ele>
        <time>2011-04-06T15:06:32Z</time>
      </trkpt>
      <trkpt lat="44.87953" lon="4.68014">
        <ele>577.05401611328</ele>
        <time>2011-04-06T15:06:35Z</time>
      </trkpt>
      <trkpt lat="44.88016" lon="4.68008">
        <ele>573.08599853516</ele>
        <time>2011-04-06T15:06:40Z</time>
      </trkpt>
      <trkpt lat="44.88065" lon="4.68002">
        <ele>570.40002441406</ele>
        <time>2011-04-06T15:06:44Z</time>
      </trkpt>
      <trkpt lat="44.88094" lon="4.68005">
        <ele>567.91497802734</ele>
        <time>2011-04-06T15:06:47Z</time>
      </trkpt>
      <trkpt lat="44.88108" lon="4.67993">
        <ele>566.32598876953</ele>
        <time>2011-04-06T15:06:50Z</time>
      </trkpt>
      <trkpt lat="44.88102" lon="4.67974">
        <ele>564.86401367188</ele>
        <time>2011-04-06T15:06:52Z</time>
      </trkpt>
      <trkpt lat="44.88095" lon="4.67966">
        <ele>563.49499511719</ele>
        <time>2011-04-06T15:06:53Z</time>
      </trkpt>
      <trkpt lat="44.88044" lon="4.67937">
        <ele>558.09197998047</ele>
        <time>2011-04-06T15:06:58Z</time>
      </trkpt>
      <trkpt lat="44.88011" lon="4.67922">
        <ele>554.59802246094</ele>
        <time>2011-04-06T15:07:01Z</time>
      </trkpt>
      <trkpt lat="44.87996" lon="4.67895">
        <ele>551.20697021484</ele>
        <time>2011-04-06T15:07:03Z</time>
      </trkpt>
      <trkpt lat="44.87963" lon="4.67829">
        <ele>545.46502685547</ele>
        <time>2011-04-06T15:07:07Z</time>
      </trkpt>
      <trkpt lat="44.8792" lon="4.67776">
        <ele>542.08099365234</ele>
        <time>2011-04-06T15:07:11Z</time>
      </trkpt>
      <trkpt lat="44.87852" lon="4.67718">
        <ele>541.90100097656</ele>
        <time>2011-04-06T15:07:17Z</time>
      </trkpt>
      <trkpt lat="44.87833" lon="4.67697">
        <ele>541.30798339844</ele>
        <time>2011-04-06T15:07:19Z</time>
      </trkpt>
      <trkpt lat="44.87765" lon="4.67649">
        <ele>538.55401611328</ele>
        <time>2011-04-06T15:07:25Z</time>
      </trkpt>
      <trkpt lat="44.87744" lon="4.67628">
        <ele>537.10498046875</ele>
        <time>2011-04-06T15:07:27Z</time>
      </trkpt>
      <trkpt lat="44.8773" lon="4.6758">
        <ele>533.10900878906</ele>
        <time>2011-04-06T15:07:30Z</time>
      </trkpt>
      <trkpt lat="44.87737" lon="4.67543">
        <ele>530.18798828125</ele>
        <time>2011-04-06T15:07:32Z</time>
      </trkpt>
      <trkpt lat="44.87752" lon="4.6751">
        <ele>526.82702636719</ele>
        <time>2011-04-06T15:07:34Z</time>
      </trkpt>
      <trkpt lat="44.87793" lon="4.67477">
        <ele>522.22601318359</ele>
        <time>2011-04-06T15:07:37Z</time>
      </trkpt>
      <trkpt lat="44.87821" lon="4.67473">
        <ele>518.74401855469</ele>
        <time>2011-04-06T15:07:39Z</time>
      </trkpt>
      <trkpt lat="44.87859" lon="4.67505">
        <ele>515.23602294922</ele>
        <time>2011-04-06T15:07:42Z</time>
      </trkpt>
      <trkpt lat="44.87901" lon="4.67506">
        <ele>511.46200561523</ele>
        <time>2011-04-06T15:07:45Z</time>
      </trkpt>
      <trkpt lat="44.87935" lon="4.6751">
        <ele>507.70498657227</ele>
        <time>2011-04-06T15:07:48Z</time>
      </trkpt>
      <trkpt lat="44.87968" lon="4.67526">
        <ele>504.2619934082</ele>
        <time>2011-04-06T15:07:53Z</time>
      </trkpt>
      <trkpt lat="44.87975" lon="4.67529">
        <ele>503.96600341797</ele>
        <time>2011-04-06T15:07:54Z</time>
      </trkpt>
      <trkpt lat="44.88009" lon="4.67547">
        <ele>500.52398681641</ele>
        <time>2011-04-06T15:07:58Z</time>
      </trkpt>
      <trkpt lat="44.88036" lon="4.67571">
        <ele>497.28601074219</ele>
        <time>2011-04-06T15:08:01Z</time>
      </trkpt>
      <trkpt lat="44.88054" lon="4.67591">
        <ele>495.08099365234</ele>
        <time>2011-04-06T15:08:03Z</time>
      </trkpt>
      <trkpt lat="44.8808" lon="4.67649">
        <ele>489.3219909668</ele>
        <time>2011-04-06T15:08:07Z</time>
      </trkpt>
      <trkpt lat="44.88102" lon="4.67662">
        <ele>487.48999023438</ele>
        <time>2011-04-06T15:08:09Z</time>
      </trkpt>
      <trkpt lat="44.88141" lon="4.67672">
        <ele>482.93899536133</ele>
        <time>2011-04-06T15:08:12Z</time>
      </trkpt>
      <trkpt lat="44.88182" lon="4.67683">
        <ele>479.22601318359</ele>
        <time>2011-04-06T15:08:15Z</time>
      </trkpt>
      <trkpt lat="44.88208" lon="4.67697">
        <ele>476.76800537109</ele>
        <time>2011-04-06T15:08:17Z</time>
      </trkpt>
      <trkpt lat="44.88255" lon="4.67738">
        <ele>471.6669921875</ele>
        <time>2011-04-06T15:08:21Z</time>
      </trkpt>
      <trkpt lat="44.88272" lon="4.67764">
        <ele>469.56600952148</ele>
        <time>2011-04-06T15:08:23Z</time>
      </trkpt>
      <trkpt lat="44.88284" lon="4.67785">
        <ele>467.92498779297</ele>
        <time>2011-04-06T15:08:25Z</time>
      </trkpt>
      <trkpt lat="44.88293" lon="4.67792">
        <ele>467.22100830078</ele>
        <time>2011-04-06T15:08:27Z</time>
      </trkpt>
      <trkpt lat="44.88296" lon="4.67774">
        <ele>466.25100708008</ele>
        <time>2011-04-06T15:08:29Z</time>
      </trkpt>
      <trkpt lat="44.88292" lon="4.67759">
        <ele>464.70001220703</ele>
        <time>2011-04-06T15:08:31Z</time>
      </trkpt>
      <trkpt lat="44.88289" lon="4.67736">
        <ele>461.72399902344</ele>
        <time>2011-04-06T15:08:33Z</time>
      </trkpt>
      <trkpt lat="44.88298" lon="4.67698">
        <ele>458.51501464844</ele>
        <time>2011-04-06T15:08:36Z</time>
      </trkpt>
      <trkpt lat="44.88311" lon="4.67665">
        <ele>458.01901245117</ele>
        <time>2011-04-06T15:08:39Z</time>
      </trkpt>
      <trkpt lat="44.88334" lon="4.67641">
        <ele>458.85198974609</ele>
        <time>2011-04-06T15:08:43Z</time>
      </trkpt>
      <trkpt lat="44.88359" lon="4.67632">
        <ele>460.21398925781</ele>
        <time>2011-04-06T15:08:48Z</time>
      </trkpt>
      <trkpt lat="44.88387" lon="4.67623">
        <ele>461.11599731445</ele>
        <time>2011-04-06T15:08:54Z</time>
      </trkpt>
      <trkpt lat="44.88412" lon="4.67614">
        <ele>461.92401123047</ele>
        <time>2011-04-06T15:09:00Z</time>
      </trkpt>
      <trkpt lat="44.88421" lon="4.67613">
        <ele>462.23498535156</ele>
        <time>2011-04-06T15:09:02Z</time>
      </trkpt>
      <trkpt lat="44.88434" lon="4.67611">
        <ele>462.82699584961</ele>
        <time>2011-04-06T15:09:05Z</time>
      </trkpt>
      <trkpt lat="44.88464" lon="4.67608">
        <ele>463.25399780273</ele>
        <time>2011-04-06T15:09:11Z</time>
      </trkpt>
      <trkpt lat="44.8849" lon="4.67601">
        <ele>464.32501220703</ele>
        <time>2011-04-06T15:09:17Z</time>
      </trkpt>
      <trkpt lat="44.88515" lon="4.67587">
        <ele>465.08700561523</ele>
        <time>2011-04-06T15:09:23Z</time>
      </trkpt>
      <trkpt lat="44.88543" lon="4.67565">
        <ele>466.14001464844</ele>
        <time>2011-04-06T15:09:30Z</time>
      </trkpt>
      <trkpt lat="44.88557" lon="4.67553">
        <ele>466.68701171875</ele>
        <time>2011-04-06T15:09:34Z</time>
      </trkpt>
      <trkpt lat="44.88577" lon="4.67548">
        <ele>467.63299560547</ele>
        <time>2011-04-06T15:09:39Z</time>
      </trkpt>
      <trkpt lat="44.88597" lon="4.67549">
        <ele>468.60000610352</ele>
        <time>2011-04-06T15:09:44Z</time>
      </trkpt>
      <trkpt lat="44.88616" lon="4.67551">
        <ele>469.34399414062</ele>
        <time>2011-04-06T15:09:49Z</time>
      </trkpt>
      <trkpt lat="44.88633" lon="4.67549">
        <ele>470.14001464844</ele>
        <time>2011-04-06T15:09:53Z</time>
      </trkpt>
      <trkpt lat="44.88657" lon="4.67535">
        <ele>470.85198974609</ele>
        <time>2011-04-06T15:09:59Z</time>
      </trkpt>
      <trkpt lat="44.88693" lon="4.67506">
        <ele>471.98199462891</ele>
        <time>2011-04-06T15:10:08Z</time>
      </trkpt>
      <trkpt lat="44.88717" lon="4.67478">
        <ele>472.41101074219</ele>
        <time>2011-04-06T15:10:15Z</time>
      </trkpt>
      <trkpt lat="44.88725" lon="4.67461">
        <ele>472.53201293945</ele>
        <time>2011-04-06T15:10:18Z</time>
      </trkpt>
      <trkpt lat="44.88731" lon="4.67436">
        <ele>472.77398681641</ele>
        <time>2011-04-06T15:10:22Z</time>
      </trkpt>
      <trkpt lat="44.88733" lon="4.67385">
        <ele>473.72799682617</ele>
        <time>2011-04-06T15:10:30Z</time>
      </trkpt>
      <trkpt lat="44.88735" lon="4.67335">
        <ele>474.17098999023</ele>
        <time>2011-04-06T15:10:38Z</time>
      </trkpt>
      <trkpt lat="44.88742" lon="4.67285">
        <ele>475.43899536133</ele>
        <time>2011-04-06T15:10:46Z</time>
      </trkpt>
      <trkpt lat="44.88749" lon="4.67235">
        <ele>476.73699951172</ele>
        <time>2011-04-06T15:10:54Z</time>
      </trkpt>
      <trkpt lat="44.88755" lon="4.67185">
        <ele>477.98999023438</ele>
        <time>2011-04-06T15:11:02Z</time>
      </trkpt>
      <trkpt lat="44.88765" lon="4.67142">
        <ele>479.00500488281</ele>
        <time>2011-04-06T15:11:09Z</time>
      </trkpt>
      <trkpt lat="44.88779" lon="4.67117">
        <ele>480.03100585938</ele>
        <time>2011-04-06T15:11:14Z</time>
      </trkpt>
      <trkpt lat="44.88796" lon="4.67118">
        <ele>480.52200317383</ele>
        <time>2011-04-06T15:11:18Z</time>
      </trkpt>
      <trkpt lat="44.888" lon="4.67121">
        <ele>480.74499511719</ele>
        <time>2011-04-06T15:11:19Z</time>
      </trkpt>
      <trkpt lat="44.88821" lon="4.67135">
        <ele>481.22198486328</ele>
        <time>2011-04-06T15:11:24Z</time>
      </trkpt>
      <trkpt lat="44.8884" lon="4.67143">
        <ele>481.84698486328</ele>
        <time>2011-04-06T15:11:28Z</time>
      </trkpt>
      <trkpt lat="44.88862" lon="4.6714">
        <ele>482.6780090332</ele>
        <time>2011-04-06T15:11:33Z</time>
      </trkpt>
      <trkpt lat="44.88884" lon="4.67125">
        <ele>483.47198486328</ele>
        <time>2011-04-06T15:11:39Z</time>
      </trkpt>
      <trkpt lat="44.88908" lon="4.67099">
        <ele>484.05200195312</ele>
        <time>2011-04-06T15:11:46Z</time>
      </trkpt>
      <trkpt lat="44.88931" lon="4.67057">
        <ele>484.6669921875</ele>
        <time>2011-04-06T15:11:54Z</time>
      </trkpt>
      <trkpt lat="44.88945" lon="4.67037">
        <ele>485.12399291992</ele>
        <time>2011-04-06T15:11:58Z</time>
      </trkpt>
      <trkpt lat="44.88967" lon="4.67021">
        <ele>485.47601318359</ele>
        <time>2011-04-06T15:12:03Z</time>
      </trkpt>
      <trkpt lat="44.89007" lon="4.67016">
        <ele>486.65798950195</ele>
        <time>2011-04-06T15:12:11Z</time>
      </trkpt>
      <trkpt lat="44.8904" lon="4.67022">
        <ele>487.56698608398</ele>
        <time>2011-04-06T15:12:18Z</time>
      </trkpt>
      <trkpt lat="44.89062" lon="4.67014">
        <ele>488.08200073242</ele>
        <time>2011-04-06T15:12:23Z</time>
      </trkpt>
      <trkpt lat="44.89068" lon="4.66995">
        <ele>488.26000976562</ele>
        <time>2011-04-06T15:12:26Z</time>
      </trkpt>
      <trkpt lat="44.89069" lon="4.66981">
        <ele>488.43200683594</ele>
        <time>2011-04-06T15:12:28Z</time>
      </trkpt>
      <trkpt lat="44.89068" lon="4.66934">
        <ele>489.47100830078</ele>
        <time>2011-04-06T15:12:35Z</time>
      </trkpt>
      <trkpt lat="44.89059" lon="4.66888">
        <ele>490.75100708008</ele>
        <time>2011-04-06T15:12:42Z</time>
      </trkpt>
      <trkpt lat="44.89057" lon="4.66876">
        <ele>491.13400268555</ele>
        <time>2011-04-06T15:12:44Z</time>
      </trkpt>
      <trkpt lat="44.89059" lon="4.66844">
        <ele>492.01901245117</ele>
        <time>2011-04-06T15:12:49Z</time>
      </trkpt>
      <trkpt lat="44.89076" lon="4.66793">
        <ele>493.79098510742</ele>
        <time>2011-04-06T15:12:58Z</time>
      </trkpt>
      <trkpt lat="44.89091" lon="4.66764">
        <ele>494.93701171875</ele>
        <time>2011-04-06T15:13:04Z</time>
      </trkpt>
      <trkpt lat="44.89108" lon="4.66726">
        <ele>496.8330078125</ele>
        <time>2011-04-06T15:13:12Z</time>
      </trkpt>
      <trkpt lat="44.89117" lon="4.66693">
        <ele>497.79598999023</ele>
        <time>2011-04-06T15:13:18Z</time>
      </trkpt>
      <trkpt lat="44.89118" lon="4.66655">
        <ele>499.14099121094</ele>
        <time>2011-04-06T15:13:25Z</time>
      </trkpt>
      <trkpt lat="44.89112" lon="4.66624">
        <ele>500.13598632812</ele>
        <time>2011-04-06T15:13:31Z</time>
      </trkpt>
      <trkpt lat="44.89108" lon="4.66602">
        <ele>500.98699951172</ele>
        <time>2011-04-06T15:13:35Z</time>
      </trkpt>
      <trkpt lat="44.89107" lon="4.66562">
        <ele>502.625</ele>
        <time>2011-04-06T15:13:42Z</time>
      </trkpt>
      <trkpt lat="44.8911" lon="4.66513">
        <ele>504.09600830078</ele>
        <time>2011-04-06T15:13:51Z</time>
      </trkpt>
      <trkpt lat="44.89108" lon="4.66479">
        <ele>505.49200439453</ele>
        <time>2011-04-06T15:13:57Z</time>
      </trkpt>
      <trkpt lat="44.89097" lon="4.66431">
        <ele>507.25601196289</ele>
        <time>2011-04-06T15:14:06Z</time>
      </trkpt>
      <trkpt lat="44.89079" lon="4.66382">
        <ele>509.08599853516</ele>
        <time>2011-04-06T15:14:16Z</time>
      </trkpt>
      <trkpt lat="44.89072" lon="4.66352">
        <ele>510.22100830078</ele>
        <time>2011-04-06T15:14:22Z</time>
      </trkpt>
      <trkpt lat="44.89072" lon="4.66314">
        <ele>511.60198974609</ele>
        <time>2011-04-06T15:14:29Z</time>
      </trkpt>
      <trkpt lat="44.8907" lon="4.66271">
        <ele>513.34698486328</ele>
        <time>2011-04-06T15:14:37Z</time>
      </trkpt>
      <trkpt lat="44.89061" lon="4.66237">
        <ele>514.48199462891</ele>
        <time>2011-04-06T15:14:44Z</time>
      </trkpt>
      <trkpt lat="44.89045" lon="4.66197">
        <ele>516.27301025391</ele>
        <time>2011-04-06T15:14:53Z</time>
      </trkpt>
      <trkpt lat="44.89029" lon="4.6616">
        <ele>517.55297851562</ele>
        <time>2011-04-06T15:15:01Z</time>
      </trkpt>
      <trkpt lat="44.89017" lon="4.66134">
        <ele>518.55798339844</ele>
        <time>2011-04-06T15:15:07Z</time>
      </trkpt>
      <trkpt lat="44.89016" lon="4.66108">
        <ele>519.36999511719</ele>
        <time>2011-04-06T15:15:12Z</time>
      </trkpt>
      <trkpt lat="44.8903" lon="4.66095">
        <ele>520.5009765625</ele>
        <time>2011-04-06T15:15:16Z</time>
      </trkpt>
      <trkpt lat="44.89046" lon="4.66104">
        <ele>522.041015625</ele>
        <time>2011-04-06T15:15:20Z</time>
      </trkpt>
      <trkpt lat="44.89075" lon="4.66136">
        <ele>523.77600097656</ele>
        <time>2011-04-06T15:15:29Z</time>
      </trkpt>
      <trkpt lat="44.89109" lon="4.66169">
        <ele>525.5009765625</ele>
        <time>2011-04-06T15:15:39Z</time>
      </trkpt>
      <trkpt lat="44.89131" lon="4.66192">
        <ele>526.56896972656</ele>
        <time>2011-04-06T15:15:46Z</time>
      </trkpt>
      <trkpt lat="44.89149" lon="4.66198">
        <ele>527.73297119141</ele>
        <time>2011-04-06T15:15:51Z</time>
      </trkpt>
      <trkpt lat="44.89167" lon="4.66187">
        <ele>528.76098632812</ele>
        <time>2011-04-06T15:15:56Z</time>
      </trkpt>
      <trkpt lat="44.89183" lon="4.66164">
        <ele>529.67999267578</ele>
        <time>2011-04-06T15:16:02Z</time>
      </trkpt>
      <trkpt lat="44.89199" lon="4.66132">
        <ele>530.90002441406</ele>
        <time>2011-04-06T15:16:09Z</time>
      </trkpt>
      <trkpt lat="44.89214" lon="4.66105">
        <ele>532.27502441406</ele>
        <time>2011-04-06T15:16:15Z</time>
      </trkpt>
      <trkpt lat="44.89233" lon="4.66062">
        <ele>534.02398681641</ele>
        <time>2011-04-06T15:16:25Z</time>
      </trkpt>
      <trkpt lat="44.89248" lon="4.6602">
        <ele>535.73901367188</ele>
        <time>2011-04-06T15:16:34Z</time>
      </trkpt>
      <trkpt lat="44.89266" lon="4.65978">
        <ele>537.41400146484</ele>
        <time>2011-04-06T15:16:43Z</time>
      </trkpt>
      <trkpt lat="44.89292" lon="4.65925">
        <ele>539.64202880859</ele>
        <time>2011-04-06T15:16:55Z</time>
      </trkpt>
      <trkpt lat="44.89311" lon="4.65884">
        <ele>541.11297607422</ele>
        <time>2011-04-06T15:17:04Z</time>
      </trkpt>
      <trkpt lat="44.89329" lon="4.65843">
        <ele>542.35900878906</ele>
        <time>2011-04-06T15:17:13Z</time>
      </trkpt>
      <trkpt lat="44.89351" lon="4.65809">
        <ele>544.35101318359</ele>
        <time>2011-04-06T15:17:21Z</time>
      </trkpt>
      <trkpt lat="44.8938" lon="4.65777">
        <ele>545.76300048828</ele>
        <time>2011-04-06T15:17:30Z</time>
      </trkpt>
      <trkpt lat="44.89403" lon="4.65748">
        <ele>547.96697998047</ele>
        <time>2011-04-06T15:17:38Z</time>
      </trkpt>
      <trkpt lat="44.89423" lon="4.65705">
        <ele>549.14697265625</ele>
        <time>2011-04-06T15:17:47Z</time>
      </trkpt>
      <trkpt lat="44.89438" lon="4.65649">
        <ele>551.00402832031</ele>
        <time>2011-04-06T15:17:57Z</time>
      </trkpt>
      <trkpt lat="44.89447" lon="4.6559">
        <ele>552.97998046875</ele>
        <time>2011-04-06T15:18:07Z</time>
      </trkpt>
      <trkpt lat="44.89447" lon="4.65585">
        <ele>553.10498046875</ele>
        <time>2011-04-06T15:18:08Z</time>
      </trkpt>
      <trkpt lat="44.89449" lon="4.65533">
        <ele>555.06799316406</ele>
        <time>2011-04-06T15:18:17Z</time>
      </trkpt>
      <trkpt lat="44.8945" lon="4.65487">
        <ele>557.15502929688</ele>
        <time>2011-04-06T15:18:25Z</time>
      </trkpt>
      <trkpt lat="44.89457" lon="4.65447">
        <ele>558.19000244141</ele>
        <time>2011-04-06T15:18:32Z</time>
      </trkpt>
      <trkpt lat="44.89471" lon="4.65414">
        <ele>559.55102539062</ele>
        <time>2011-04-06T15:18:39Z</time>
      </trkpt>
      <trkpt lat="44.89483" lon="4.65391">
        <ele>560.45697021484</ele>
        <time>2011-04-06T15:18:44Z</time>
      </trkpt>
      <trkpt lat="44.89494" lon="4.65343">
        <ele>562.60601806641</ele>
        <time>2011-04-06T15:18:53Z</time>
      </trkpt>
      <trkpt lat="44.89497" lon="4.65303">
        <ele>564.32299804688</ele>
        <time>2011-04-06T15:19:00Z</time>
      </trkpt>
      <trkpt lat="44.89497" lon="4.65269">
        <ele>565.67498779297</ele>
        <time>2011-04-06T15:19:07Z</time>
      </trkpt>
      <trkpt lat="44.89494" lon="4.65223">
        <ele>567.03198242188</ele>
        <time>2011-04-06T15:19:16Z</time>
      </trkpt>
      <trkpt lat="44.89492" lon="4.65181">
        <ele>568.49102783203</ele>
        <time>2011-04-06T15:19:24Z</time>
      </trkpt>
      <trkpt lat="44.89489" lon="4.65137">
        <ele>569.89501953125</ele>
        <time>2011-04-06T15:19:32Z</time>
      </trkpt>
      <trkpt lat="44.89486" lon="4.65093">
        <ele>571.5009765625</ele>
        <time>2011-04-06T15:19:40Z</time>
      </trkpt>
      <trkpt lat="44.89486" lon="4.65034">
        <ele>573.35498046875</ele>
        <time>2011-04-06T15:19:50Z</time>
      </trkpt>
      <trkpt lat="44.89487" lon="4.64994">
        <ele>574.88598632812</ele>
        <time>2011-04-06T15:19:57Z</time>
      </trkpt>
      <trkpt lat="44.89486" lon="4.64954">
        <ele>576.01000976562</ele>
        <time>2011-04-06T15:20:04Z</time>
      </trkpt>
      <trkpt lat="44.89484" lon="4.64935">
        <ele>576.59301757812</ele>
        <time>2011-04-06T15:20:07Z</time>
      </trkpt>
      <trkpt lat="44.89481" lon="4.64924">
        <ele>576.92602539062</ele>
        <time>2011-04-06T15:20:09Z</time>
      </trkpt>
      <trkpt lat="44.8947" lon="4.64878">
        <ele>578.2919921875</ele>
        <time>2011-04-06T15:20:17Z</time>
      </trkpt>
      <trkpt lat="44.89465" lon="4.64836">
        <ele>579.81500244141</ele>
        <time>2011-04-06T15:20:24Z</time>
      </trkpt>
      <trkpt lat="44.89463" lon="4.64811">
        <ele>580.69396972656</ele>
        <time>2011-04-06T15:20:28Z</time>
      </trkpt>
      <trkpt lat="44.89453" lon="4.64763">
        <ele>582.05798339844</ele>
        <time>2011-04-06T15:20:36Z</time>
      </trkpt>
      <trkpt lat="44.89443" lon="4.64728">
        <ele>583.20397949219</ele>
        <time>2011-04-06T15:20:42Z</time>
      </trkpt>
      <trkpt lat="44.89441" lon="4.64679">
        <ele>584.33502197266</ele>
        <time>2011-04-06T15:20:49Z</time>
      </trkpt>
      <trkpt lat="44.89451" lon="4.64623">
        <ele>585.98199462891</ele>
        <time>2011-04-06T15:20:58Z</time>
      </trkpt>
      <trkpt lat="44.89455" lon="4.64604">
        <ele>586.33801269531</ele>
        <time>2011-04-06T15:21:01Z</time>
      </trkpt>
      <trkpt lat="44.89465" lon="4.64582">
        <ele>587.03302001953</ele>
        <time>2011-04-06T15:21:05Z</time>
      </trkpt>
      <trkpt lat="44.89488" lon="4.64565">
        <ele>587.66900634766</ele>
        <time>2011-04-06T15:21:11Z</time>
      </trkpt>
      <trkpt lat="44.89497" lon="4.64564">
        <ele>587.95300292969</ele>
        <time>2011-04-06T15:21:13Z</time>
      </trkpt>
      <trkpt lat="44.89527" lon="4.64569">
        <ele>588.82800292969</ele>
        <time>2011-04-06T15:21:20Z</time>
      </trkpt>
      <trkpt lat="44.89554" lon="4.64575">
        <ele>589.86798095703</ele>
        <time>2011-04-06T15:21:26Z</time>
      </trkpt>
      <trkpt lat="44.89567" lon="4.6458">
        <ele>590.43402099609</ele>
        <time>2011-04-06T15:21:30Z</time>
      </trkpt>
      <trkpt lat="44.89571" lon="4.64579">
        <ele>590.92999267578</ele>
        <time>2011-04-06T15:21:32Z</time>
      </trkpt>
      <trkpt lat="44.89573" lon="4.64579">
        <ele>591.33197021484</ele>
        <time>2011-04-06T15:21:37Z</time>
      </trkpt>
      <trkpt lat="44.89568" lon="4.64586">
        <ele>592.25799560547</ele>
        <time>2011-04-06T15:23:19Z</time>
      </trkpt>
      <trkpt lat="44.89576" lon="4.64585">
        <ele>592.375</ele>
        <time>2011-04-06T15:23:23Z</time>
      </trkpt>
      <trkpt lat="44.89578" lon="4.64585">
        <ele>592.34899902344</ele>
        <time>2011-04-06T15:23:24Z</time>
      </trkpt>
      <trkpt lat="44.89593" lon="4.64588">
        <ele>592.50201416016</ele>
        <time>2011-04-06T15:23:28Z</time>
      </trkpt>
      <trkpt lat="44.89605" lon="4.64605">
        <ele>592.66198730469</ele>
        <time>2011-04-06T15:23:32Z</time>
      </trkpt>
      <trkpt lat="44.89616" lon="4.64627">
        <ele>592.28997802734</ele>
        <time>2011-04-06T15:23:36Z</time>
      </trkpt>
      <trkpt lat="44.8964" lon="4.64674">
        <ele>591.12097167969</ele>
        <time>2011-04-06T15:23:43Z</time>
      </trkpt>
      <trkpt lat="44.89644" lon="4.64682">
        <ele>590.95599365234</ele>
        <time>2011-04-06T15:23:44Z</time>
      </trkpt>
      <trkpt lat="44.89652" lon="4.64695">
        <ele>591.05902099609</ele>
        <time>2011-04-06T15:23:46Z</time>
      </trkpt>
      <trkpt lat="44.8967" lon="4.64703">
        <ele>590.90502929688</ele>
        <time>2011-04-06T15:23:49Z</time>
      </trkpt>
      <trkpt lat="44.89682" lon="4.64687">
        <ele>591.57598876953</ele>
        <time>2011-04-06T15:23:52Z</time>
      </trkpt>
      <trkpt lat="44.89692" lon="4.64656">
        <ele>592.69000244141</ele>
        <time>2011-04-06T15:23:57Z</time>
      </trkpt>
      <trkpt lat="44.89693" lon="4.64655">
        <ele>592.84301757812</ele>
        <time>2011-04-06T15:23:58Z</time>
      </trkpt>
      <trkpt lat="44.89703" lon="4.64656">
        <ele>592.79998779297</ele>
        <time>2011-04-06T15:24:02Z</time>
      </trkpt>
      <trkpt lat="44.89714" lon="4.64671">
        <ele>592.75500488281</ele>
        <time>2011-04-06T15:24:05Z</time>
      </trkpt>
      <trkpt lat="44.89717" lon="4.64677">
        <ele>592.72802734375</ele>
        <time>2011-04-06T15:24:06Z</time>
      </trkpt>
      <trkpt lat="44.89729" lon="4.64694">
        <ele>593.07000732422</ele>
        <time>2011-04-06T15:24:09Z</time>
      </trkpt>
      <trkpt lat="44.89743" lon="4.64719">
        <ele>592.77301025391</ele>
        <time>2011-04-06T15:24:13Z</time>
      </trkpt>
      <trkpt lat="44.8977" lon="4.64745">
        <ele>592.83099365234</ele>
        <time>2011-04-06T15:24:18Z</time>
      </trkpt>
      <trkpt lat="44.89811" lon="4.64769">
        <ele>592.33197021484</ele>
        <time>2011-04-06T15:24:25Z</time>
      </trkpt>
      <trkpt lat="44.89843" lon="4.64779">
        <ele>592.20098876953</ele>
        <time>2011-04-06T15:24:30Z</time>
      </trkpt>
      <trkpt lat="44.89889" lon="4.64798">
        <ele>592.02600097656</ele>
        <time>2011-04-06T15:24:37Z</time>
      </trkpt>
      <trkpt lat="44.89943" lon="4.64819">
        <ele>592.24200439453</ele>
        <time>2011-04-06T15:24:45Z</time>
      </trkpt>
      <trkpt lat="44.89983" lon="4.64835">
        <ele>591.69201660156</ele>
        <time>2011-04-06T15:24:52Z</time>
      </trkpt>
      <trkpt lat="44.90025" lon="4.64852">
        <ele>591.63299560547</ele>
        <time>2011-04-06T15:25:00Z</time>
      </trkpt>
      <trkpt lat="44.9007" lon="4.64871">
        <ele>590.93402099609</ele>
        <time>2011-04-06T15:25:08Z</time>
      </trkpt>
      <trkpt lat="44.90128" lon="4.64895">
        <ele>590.82702636719</ele>
        <time>2011-04-06T15:25:18Z</time>
      </trkpt>
      <trkpt lat="44.90186" lon="4.64918">
        <ele>590.72399902344</ele>
        <time>2011-04-06T15:25:28Z</time>
      </trkpt>
      <trkpt lat="44.90231" lon="4.64937">
        <ele>590.17199707031</ele>
        <time>2011-04-06T15:25:36Z</time>
      </trkpt>
      <trkpt lat="44.90269" lon="4.64952">
        <ele>590.24798583984</ele>
        <time>2011-04-06T15:25:43Z</time>
      </trkpt>
      <trkpt lat="44.90308" lon="4.64968">
        <ele>590.43402099609</ele>
        <time>2011-04-06T15:25:51Z</time>
      </trkpt>
      <trkpt lat="44.9034" lon="4.64982">
        <ele>590.40197753906</ele>
        <time>2011-04-06T15:25:57Z</time>
      </trkpt>
      <trkpt lat="44.90395" lon="4.65004">
        <ele>590.31597900391</ele>
        <time>2011-04-06T15:26:07Z</time>
      </trkpt>
      <trkpt lat="44.90419" lon="4.65014">
        <ele>590.07800292969</ele>
        <time>2011-04-06T15:26:11Z</time>
      </trkpt>
      <trkpt lat="44.90456" lon="4.65028">
        <ele>590.64099121094</ele>
        <time>2011-04-06T15:26:18Z</time>
      </trkpt>
      <trkpt lat="44.90491" lon="4.65043">
        <ele>590.89099121094</ele>
        <time>2011-04-06T15:26:25Z</time>
      </trkpt>
      <trkpt lat="44.90537" lon="4.65061">
        <ele>591.02301025391</ele>
        <time>2011-04-06T15:26:33Z</time>
      </trkpt>
      <trkpt lat="44.90583" lon="4.6508">
        <ele>591.33599853516</ele>
        <time>2011-04-06T15:26:41Z</time>
      </trkpt>
      <trkpt lat="44.90625" lon="4.65097">
        <ele>591.583984375</ele>
        <time>2011-04-06T15:26:48Z</time>
      </trkpt>
      <trkpt lat="44.90678" lon="4.65119">
        <ele>591.96600341797</ele>
        <time>2011-04-06T15:26:57Z</time>
      </trkpt>
      <trkpt lat="44.90733" lon="4.65141">
        <ele>592.61499023438</ele>
        <time>2011-04-06T15:27:06Z</time>
      </trkpt>
      <trkpt lat="44.90768" lon="4.65155">
        <ele>592.541015625</ele>
        <time>2011-04-06T15:27:12Z</time>
      </trkpt>
      <trkpt lat="44.9082" lon="4.65176">
        <ele>592.74102783203</ele>
        <time>2011-04-06T15:27:21Z</time>
      </trkpt>
      <trkpt lat="44.90858" lon="4.65191">
        <ele>593.68402099609</ele>
        <time>2011-04-06T15:27:28Z</time>
      </trkpt>
      <trkpt lat="44.90902" lon="4.65209">
        <ele>593.583984375</ele>
        <time>2011-04-06T15:27:36Z</time>
      </trkpt>
      <trkpt lat="44.90947" lon="4.65227">
        <ele>594.78698730469</ele>
        <time>2011-04-06T15:27:44Z</time>
      </trkpt>
      <trkpt lat="44.90963" lon="4.65235">
        <ele>595.00897216797</ele>
        <time>2011-04-06T15:27:47Z</time>
      </trkpt>
      <trkpt lat="44.90983" lon="4.6525">
        <ele>595.28997802734</ele>
        <time>2011-04-06T15:27:51Z</time>
      </trkpt>
      <trkpt lat="44.90995" lon="4.65266">
        <ele>595.36499023438</ele>
        <time>2011-04-06T15:27:54Z</time>
      </trkpt>
      <trkpt lat="44.91005" lon="4.65289">
        <ele>596.41497802734</ele>
        <time>2011-04-06T15:27:58Z</time>
      </trkpt>
      <trkpt lat="44.9101" lon="4.65314">
        <ele>597.27801513672</ele>
        <time>2011-04-06T15:28:02Z</time>
      </trkpt>
      <trkpt lat="44.9101" lon="4.65341">
        <ele>597.71600341797</ele>
        <time>2011-04-06T15:28:06Z</time>
      </trkpt>
      <trkpt lat="44.91003" lon="4.65373">
        <ele>598.74401855469</ele>
        <time>2011-04-06T15:28:11Z</time>
      </trkpt>
      <trkpt lat="44.90981" lon="4.65412">
        <ele>600.08099365234</ele>
        <time>2011-04-06T15:28:18Z</time>
      </trkpt>
      <trkpt lat="44.90953" lon="4.65458">
        <ele>601.81402587891</ele>
        <time>2011-04-06T15:28:26Z</time>
      </trkpt>
      <trkpt lat="44.90948" lon="4.65472">
        <ele>602.20300292969</ele>
        <time>2011-04-06T15:28:28Z</time>
      </trkpt>
      <trkpt lat="44.9094" lon="4.6552">
        <ele>603.2919921875</ele>
        <time>2011-04-06T15:28:35Z</time>
      </trkpt>
      <trkpt lat="44.90942" lon="4.6557">
        <ele>604.25402832031</ele>
        <time>2011-04-06T15:28:42Z</time>
      </trkpt>
      <trkpt lat="44.90949" lon="4.65632">
        <ele>605.66900634766</ele>
        <time>2011-04-06T15:28:51Z</time>
      </trkpt>
      <trkpt lat="44.90953" lon="4.65695">
        <ele>607.37097167969</ele>
        <time>2011-04-06T15:29:00Z</time>
      </trkpt>
      <trkpt lat="44.9095" lon="4.6574">
        <ele>608.19201660156</ele>
        <time>2011-04-06T15:29:06Z</time>
      </trkpt>
      <trkpt lat="44.90938" lon="4.65794">
        <ele>609.64801025391</ele>
        <time>2011-04-06T15:29:14Z</time>
      </trkpt>
      <trkpt lat="44.90922" lon="4.65845">
        <ele>610.22100830078</ele>
        <time>2011-04-06T15:29:22Z</time>
      </trkpt>
      <trkpt lat="44.90905" lon="4.65902">
        <ele>611.58502197266</ele>
        <time>2011-04-06T15:29:31Z</time>
      </trkpt>
      <trkpt lat="44.90897" lon="4.65935">
        <ele>612.77301025391</ele>
        <time>2011-04-06T15:29:36Z</time>
      </trkpt>
      <trkpt lat="44.90899" lon="4.65967">
        <ele>612.69598388672</ele>
        <time>2011-04-06T15:29:41Z</time>
      </trkpt>
      <trkpt lat="44.90911" lon="4.65988">
        <ele>614.43701171875</ele>
        <time>2011-04-06T15:29:45Z</time>
      </trkpt>
      <trkpt lat="44.90934" lon="4.66014">
        <ele>615.17498779297</ele>
        <time>2011-04-06T15:29:51Z</time>
      </trkpt>
      <trkpt lat="44.90945" lon="4.66045">
        <ele>616.55401611328</ele>
        <time>2011-04-06T15:29:56Z</time>
      </trkpt>
      <trkpt lat="44.90944" lon="4.66072">
        <ele>617.36102294922</ele>
        <time>2011-04-06T15:30:00Z</time>
      </trkpt>
      <trkpt lat="44.90929" lon="4.6614">
        <ele>619.09899902344</ele>
        <time>2011-04-06T15:30:10Z</time>
      </trkpt>
      <trkpt lat="44.90918" lon="4.66195">
        <ele>620.86999511719</ele>
        <time>2011-04-06T15:30:18Z</time>
      </trkpt>
      <trkpt lat="44.90924" lon="4.66235">
        <ele>621.87097167969</ele>
        <time>2011-04-06T15:30:24Z</time>
      </trkpt>
      <trkpt lat="44.90939" lon="4.66254">
        <ele>622.42199707031</ele>
        <time>2011-04-06T15:30:28Z</time>
      </trkpt>
      <trkpt lat="44.90948" lon="4.6626">
        <ele>622.87701416016</ele>
        <time>2011-04-06T15:30:30Z</time>
      </trkpt>
      <trkpt lat="44.90979" lon="4.66278">
        <ele>624.15002441406</ele>
        <time>2011-04-06T15:30:37Z</time>
      </trkpt>
      <trkpt lat="44.91011" lon="4.66307">
        <ele>625.73602294922</ele>
        <time>2011-04-06T15:30:45Z</time>
      </trkpt>
      <trkpt lat="44.91044" lon="4.66346">
        <ele>627.19500732422</ele>
        <time>2011-04-06T15:30:54Z</time>
      </trkpt>
      <trkpt lat="44.91067" lon="4.66378">
        <ele>628.23199462891</ele>
        <time>2011-04-06T15:31:01Z</time>
      </trkpt>
      <trkpt lat="44.91073" lon="4.66414">
        <ele>629.00701904297</ele>
        <time>2011-04-06T15:31:07Z</time>
      </trkpt>
      <trkpt lat="44.91064" lon="4.66436">
        <ele>629.84899902344</ele>
        <time>2011-04-06T15:31:11Z</time>
      </trkpt>
      <trkpt lat="44.9105" lon="4.66448">
        <ele>630.83001708984</ele>
        <time>2011-04-06T15:31:15Z</time>
      </trkpt>
      <trkpt lat="44.91012" lon="4.66475">
        <ele>632.48602294922</ele>
        <time>2011-04-06T15:31:24Z</time>
      </trkpt>
      <trkpt lat="44.9098" lon="4.66513">
        <ele>633.77801513672</ele>
        <time>2011-04-06T15:31:32Z</time>
      </trkpt>
      <trkpt lat="44.9094" lon="4.66562">
        <ele>635.82800292969</ele>
        <time>2011-04-06T15:31:42Z</time>
      </trkpt>
      <trkpt lat="44.90915" lon="4.66581">
        <ele>636.92901611328</ele>
        <time>2011-04-06T15:31:48Z</time>
      </trkpt>
      <trkpt lat="44.90896" lon="4.66584">
        <ele>637.64099121094</ele>
        <time>2011-04-06T15:31:52Z</time>
      </trkpt>
      <trkpt lat="44.90858" lon="4.66574">
        <ele>638.97802734375</ele>
        <time>2011-04-06T15:32:00Z</time>
      </trkpt>
      <trkpt lat="44.90828" lon="4.66575">
        <ele>640.03601074219</ele>
        <time>2011-04-06T15:32:06Z</time>
      </trkpt>
      <trkpt lat="44.90799" lon="4.6659">
        <ele>640.99700927734</ele>
        <time>2011-04-06T15:32:12Z</time>
      </trkpt>
      <trkpt lat="44.9077" lon="4.66619">
        <ele>641.96099853516</ele>
        <time>2011-04-06T15:32:19Z</time>
      </trkpt>
      <trkpt lat="44.90741" lon="4.66651">
        <ele>643.54400634766</ele>
        <time>2011-04-06T15:32:26Z</time>
      </trkpt>
      <trkpt lat="44.90702" lon="4.66692">
        <ele>645.27697753906</ele>
        <time>2011-04-06T15:32:35Z</time>
      </trkpt>
      <trkpt lat="44.90664" lon="4.6672">
        <ele>646.72100830078</ele>
        <time>2011-04-06T15:32:43Z</time>
      </trkpt>
      <trkpt lat="44.90626" lon="4.66748">
        <ele>648.08099365234</ele>
        <time>2011-04-06T15:32:51Z</time>
      </trkpt>
      <trkpt lat="44.9059" lon="4.66792">
        <ele>649.97900390625</ele>
        <time>2011-04-06T15:33:00Z</time>
      </trkpt>
      <trkpt lat="44.90569" lon="4.66835">
        <ele>651.96600341797</ele>
        <time>2011-04-06T15:33:07Z</time>
      </trkpt>
      <trkpt lat="44.90567" lon="4.66842">
        <ele>652.00299072266</ele>
        <time>2011-04-06T15:33:08Z</time>
      </trkpt>
      <trkpt lat="44.90564" lon="4.66886">
        <ele>653.11499023438</ele>
        <time>2011-04-06T15:33:14Z</time>
      </trkpt>
      <trkpt lat="44.9057" lon="4.66913">
        <ele>653.56298828125</ele>
        <time>2011-04-06T15:33:18Z</time>
      </trkpt>
      <trkpt lat="44.90588" lon="4.66958">
        <ele>654.46502685547</ele>
        <time>2011-04-06T15:33:25Z</time>
      </trkpt>
      <trkpt lat="44.90605" lon="4.6701">
        <ele>655.98999023438</ele>
        <time>2011-04-06T15:33:33Z</time>
      </trkpt>
      <trkpt lat="44.90615" lon="4.67059">
        <ele>657.21099853516</ele>
        <time>2011-04-06T15:33:40Z</time>
      </trkpt>
      <trkpt lat="44.90632" lon="4.67112">
        <ele>658.87902832031</ele>
        <time>2011-04-06T15:33:48Z</time>
      </trkpt>
      <trkpt lat="44.90645" lon="4.67144">
        <ele>659.64898681641</ele>
        <time>2011-04-06T15:33:53Z</time>
      </trkpt>
      <trkpt lat="44.90648" lon="4.67182">
        <ele>660.35400390625</ele>
        <time>2011-04-06T15:33:58Z</time>
      </trkpt>
      <trkpt lat="44.90644" lon="4.67203">
        <ele>661.40002441406</ele>
        <time>2011-04-06T15:34:01Z</time>
      </trkpt>
      <trkpt lat="44.90625" lon="4.6725">
        <ele>662.39001464844</ele>
        <time>2011-04-06T15:34:08Z</time>
      </trkpt>
      <trkpt lat="44.90614" lon="4.67267">
        <ele>663.09002685547</ele>
        <time>2011-04-06T15:34:11Z</time>
      </trkpt>
      <trkpt lat="44.9058" lon="4.67289">
        <ele>664.41497802734</ele>
        <time>2011-04-06T15:34:18Z</time>
      </trkpt>
      <trkpt lat="44.90556" lon="4.67301">
        <ele>665.36199951172</ele>
        <time>2011-04-06T15:34:23Z</time>
      </trkpt>
      <trkpt lat="44.90538" lon="4.67317">
        <ele>665.96697998047</ele>
        <time>2011-04-06T15:34:27Z</time>
      </trkpt>
      <trkpt lat="44.90526" lon="4.67332">
        <ele>666.72601318359</ele>
        <time>2011-04-06T15:34:30Z</time>
      </trkpt>
      <trkpt lat="44.90502" lon="4.67372">
        <ele>668.00201416016</ele>
        <time>2011-04-06T15:34:37Z</time>
      </trkpt>
      <trkpt lat="44.90495" lon="4.67384">
        <ele>668.35302734375</ele>
        <time>2011-04-06T15:34:39Z</time>
      </trkpt>
      <trkpt lat="44.90477" lon="4.67421">
        <ele>669.58197021484</ele>
        <time>2011-04-06T15:34:45Z</time>
      </trkpt>
      <trkpt lat="44.90471" lon="4.67441">
        <ele>670.19201660156</ele>
        <time>2011-04-06T15:34:48Z</time>
      </trkpt>
      <trkpt lat="44.90471" lon="4.67483">
        <ele>671.36901855469</ele>
        <time>2011-04-06T15:34:54Z</time>
      </trkpt>
      <trkpt lat="44.90472" lon="4.67489">
        <ele>671.45001220703</ele>
        <time>2011-04-06T15:34:55Z</time>
      </trkpt>
      <trkpt lat="44.90493" lon="4.67534">
        <ele>672.60302734375</ele>
        <time>2011-04-06T15:35:02Z</time>
      </trkpt>
      <trkpt lat="44.90522" lon="4.67579">
        <ele>674.05499267578</ele>
        <time>2011-04-06T15:35:10Z</time>
      </trkpt>
      <trkpt lat="44.90545" lon="4.67619">
        <ele>675.36297607422</ele>
        <time>2011-04-06T15:35:17Z</time>
      </trkpt>
      <trkpt lat="44.90565" lon="4.67652">
        <ele>676.23101806641</ele>
        <time>2011-04-06T15:35:23Z</time>
      </trkpt>
      <trkpt lat="44.90588" lon="4.6768">
        <ele>677.39202880859</ele>
        <time>2011-04-06T15:35:29Z</time>
      </trkpt>
      <trkpt lat="44.90616" lon="4.67719">
        <ele>678.62097167969</ele>
        <time>2011-04-06T15:35:37Z</time>
      </trkpt>
      <trkpt lat="44.90641" lon="4.67755">
        <ele>680.12701416016</ele>
        <time>2011-04-06T15:35:44Z</time>
      </trkpt>
      <trkpt lat="44.90677" lon="4.67808">
        <ele>681.2080078125</ele>
        <time>2011-04-06T15:35:54Z</time>
      </trkpt>
      <trkpt lat="44.90702" lon="4.67854">
        <ele>682.95697021484</ele>
        <time>2011-04-06T15:36:02Z</time>
      </trkpt>
      <trkpt lat="44.90721" lon="4.67891">
        <ele>684.19897460938</ele>
        <time>2011-04-06T15:36:09Z</time>
      </trkpt>
      <trkpt lat="44.90741" lon="4.67917">
        <ele>684.97601318359</ele>
        <time>2011-04-06T15:36:16Z</time>
      </trkpt>
      <trkpt lat="44.90751" lon="4.67927">
        <ele>685.19598388672</ele>
        <time>2011-04-06T15:36:21Z</time>
      </trkpt>
      <trkpt lat="44.90752" lon="4.6793">
        <ele>685.31799316406</ele>
        <time>2011-04-06T15:36:25Z</time>
      </trkpt>
      <trkpt lat="44.90755" lon="4.67929">
        <ele>686.70599365234</ele>
        <time>2011-04-06T15:38:53Z</time>
      </trkpt>
      <trkpt lat="44.90756" lon="4.67929">
        <ele>686.68402099609</ele>
        <time>2011-04-06T15:38:54Z</time>
      </trkpt>
      <trkpt lat="44.90764" lon="4.67938">
        <ele>686.81201171875</ele>
        <time>2011-04-06T15:39:00Z</time>
      </trkpt>
      <trkpt lat="44.90777" lon="4.67948">
        <ele>687.30499267578</ele>
        <time>2011-04-06T15:39:05Z</time>
      </trkpt>
      <trkpt lat="44.90792" lon="4.67956">
        <ele>688.13397216797</ele>
        <time>2011-04-06T15:39:10Z</time>
      </trkpt>
      <trkpt lat="44.90818" lon="4.6797">
        <ele>688.96801757812</ele>
        <time>2011-04-06T15:39:18Z</time>
      </trkpt>
      <trkpt lat="44.90851" lon="4.67976">
        <ele>688.80902099609</ele>
        <time>2011-04-06T15:39:26Z</time>
      </trkpt>
      <trkpt lat="44.90886" lon="4.67965">
        <ele>689.23199462891</ele>
        <time>2011-04-06T15:39:34Z</time>
      </trkpt>
      <trkpt lat="44.90918" lon="4.67954">
        <ele>689.57501220703</ele>
        <time>2011-04-06T15:39:41Z</time>
      </trkpt>
      <trkpt lat="44.90949" lon="4.6796">
        <ele>689.19598388672</ele>
        <time>2011-04-06T15:39:47Z</time>
      </trkpt>
      <trkpt lat="44.90965" lon="4.67981">
        <ele>689.45098876953</ele>
        <time>2011-04-06T15:39:51Z</time>
      </trkpt>
      <trkpt lat="44.90968" lon="4.67987">
        <ele>689.73297119141</ele>
        <time>2011-04-06T15:39:52Z</time>
      </trkpt>
      <trkpt lat="44.90979" lon="4.68013">
        <ele>689.89599609375</ele>
        <time>2011-04-06T15:39:56Z</time>
      </trkpt>
      <trkpt lat="44.90999" lon="4.68036">
        <ele>690.27099609375</ele>
        <time>2011-04-06T15:40:01Z</time>
      </trkpt>
      <trkpt lat="44.91016" lon="4.68042">
        <ele>690.28100585938</ele>
        <time>2011-04-06T15:40:04Z</time>
      </trkpt>
      <trkpt lat="44.91058" lon="4.68041">
        <ele>690.33001708984</ele>
        <time>2011-04-06T15:40:11Z</time>
      </trkpt>
      <trkpt lat="44.91101" lon="4.68034">
        <ele>689.71899414062</ele>
        <time>2011-04-06T15:40:18Z</time>
      </trkpt>
      <trkpt lat="44.91122" lon="4.6803">
        <ele>689.89398193359</ele>
        <time>2011-04-06T15:40:21Z</time>
      </trkpt>
      <trkpt lat="44.91148" lon="4.68037">
        <ele>689.67102050781</ele>
        <time>2011-04-06T15:40:25Z</time>
      </trkpt>
      <trkpt lat="44.91197" lon="4.68067">
        <ele>689.71801757812</ele>
        <time>2011-04-06T15:40:33Z</time>
      </trkpt>
      <trkpt lat="44.91246" lon="4.68098">
        <ele>689.54998779297</ele>
        <time>2011-04-06T15:40:41Z</time>
      </trkpt>
      <trkpt lat="44.91298" lon="4.6813">
        <ele>688.77301025391</ele>
        <time>2011-04-06T15:40:49Z</time>
      </trkpt>
      <trkpt lat="44.91339" lon="4.68146">
        <ele>689.05999755859</ele>
        <time>2011-04-06T15:40:55Z</time>
      </trkpt>
      <trkpt lat="44.91403" lon="4.68155">
        <ele>689.08697509766</ele>
        <time>2011-04-06T15:41:04Z</time>
      </trkpt>
      <trkpt lat="44.91425" lon="4.68155">
        <ele>689.02899169922</ele>
        <time>2011-04-06T15:41:07Z</time>
      </trkpt>
      <trkpt lat="44.91465" lon="4.68132">
        <ele>688.67901611328</ele>
        <time>2011-04-06T15:41:13Z</time>
      </trkpt>
      <trkpt lat="44.91504" lon="4.68095">
        <ele>688.4990234375</ele>
        <time>2011-04-06T15:41:19Z</time>
      </trkpt>
      <trkpt lat="44.91535" lon="4.68084">
        <ele>688.01898193359</ele>
        <time>2011-04-06T15:41:23Z</time>
      </trkpt>
      <trkpt lat="44.91567" lon="4.68095">
        <ele>688.18103027344</ele>
        <time>2011-04-06T15:41:27Z</time>
      </trkpt>
      <trkpt lat="44.9159" lon="4.6812">
        <ele>688.51898193359</ele>
        <time>2011-04-06T15:41:31Z</time>
      </trkpt>
      <trkpt lat="44.91599" lon="4.68137">
        <ele>688.50201416016</ele>
        <time>2011-04-06T15:41:33Z</time>
      </trkpt>
      <trkpt lat="44.91616" lon="4.68192">
        <ele>688.91101074219</ele>
        <time>2011-04-06T15:41:39Z</time>
      </trkpt>
      <trkpt lat="44.91619" lon="4.68241">
        <ele>688.416015625</ele>
        <time>2011-04-06T15:41:44Z</time>
      </trkpt>
      <trkpt lat="44.91618" lon="4.68251">
        <ele>688.26098632812</ele>
        <time>2011-04-06T15:41:45Z</time>
      </trkpt>
      <trkpt lat="44.91606" lon="4.68299">
        <ele>688.29602050781</ele>
        <time>2011-04-06T15:41:50Z</time>
      </trkpt>
      <trkpt lat="44.91591" lon="4.68355">
        <ele>688.23602294922</ele>
        <time>2011-04-06T15:41:56Z</time>
      </trkpt>
      <trkpt lat="44.91589" lon="4.68365">
        <ele>688.07000732422</ele>
        <time>2011-04-06T15:41:57Z</time>
      </trkpt>
      <trkpt lat="44.91572" lon="4.68399">
        <ele>687.59301757812</ele>
        <time>2011-04-06T15:42:01Z</time>
      </trkpt>
      <trkpt lat="44.91552" lon="4.68408">
        <ele>688.08197021484</ele>
        <time>2011-04-06T15:42:04Z</time>
      </trkpt>
      <trkpt lat="44.91545" lon="4.68408">
        <ele>688.24700927734</ele>
        <time>2011-04-06T15:42:05Z</time>
      </trkpt>
      <trkpt lat="44.91481" lon="4.684">
        <ele>689.37200927734</ele>
        <time>2011-04-06T15:42:14Z</time>
      </trkpt>
      <trkpt lat="44.91445" lon="4.68407">
        <ele>689.37097167969</ele>
        <time>2011-04-06T15:42:19Z</time>
      </trkpt>
      <trkpt lat="44.91393" lon="4.6842">
        <ele>689.39202880859</ele>
        <time>2011-04-06T15:42:26Z</time>
      </trkpt>
      <trkpt lat="44.91351" lon="4.68443">
        <ele>689.53900146484</ele>
        <time>2011-04-06T15:42:32Z</time>
      </trkpt>
      <trkpt lat="44.91268" lon="4.68499">
        <ele>689.71697998047</ele>
        <time>2011-04-06T15:42:44Z</time>
      </trkpt>
      <trkpt lat="44.91261" lon="4.68505">
        <ele>689.76702880859</ele>
        <time>2011-04-06T15:42:45Z</time>
      </trkpt>
      <trkpt lat="44.91237" lon="4.68546">
        <ele>689.79400634766</ele>
        <time>2011-04-06T15:42:50Z</time>
      </trkpt>
      <trkpt lat="44.91234" lon="4.68556">
        <ele>689.64801025391</ele>
        <time>2011-04-06T15:42:51Z</time>
      </trkpt>
      <trkpt lat="44.91227" lon="4.68586">
        <ele>689.62701416016</ele>
        <time>2011-04-06T15:42:54Z</time>
      </trkpt>
      <trkpt lat="44.91219" lon="4.68639">
        <ele>689.93701171875</ele>
        <time>2011-04-06T15:42:59Z</time>
      </trkpt>
      <trkpt lat="44.91205" lon="4.68663">
        <ele>689.69299316406</ele>
        <time>2011-04-06T15:43:02Z</time>
      </trkpt>
      <trkpt lat="44.91169" lon="4.68713">
        <ele>689.94396972656</ele>
        <time>2011-04-06T15:43:09Z</time>
      </trkpt>
      <trkpt lat="44.91149" lon="4.68758">
        <ele>690.03399658203</ele>
        <time>2011-04-06T15:43:14Z</time>
      </trkpt>
      <trkpt lat="44.91134" lon="4.68818">
        <ele>689.98901367188</ele>
        <time>2011-04-06T15:43:20Z</time>
      </trkpt>
      <trkpt lat="44.91132" lon="4.68828">
        <ele>689.93902587891</ele>
        <time>2011-04-06T15:43:21Z</time>
      </trkpt>
      <trkpt lat="44.91135" lon="4.6887">
        <ele>689.42199707031</ele>
        <time>2011-04-06T15:43:25Z</time>
      </trkpt>
      <trkpt lat="44.9115" lon="4.68895">
        <ele>689.44396972656</ele>
        <time>2011-04-06T15:43:28Z</time>
      </trkpt>
      <trkpt lat="44.91157" lon="4.68901">
        <ele>689.62902832031</ele>
        <time>2011-04-06T15:43:29Z</time>
      </trkpt>
      <trkpt lat="44.91188" lon="4.68931">
        <ele>689.85998535156</ele>
        <time>2011-04-06T15:43:34Z</time>
      </trkpt>
      <trkpt lat="44.9122" lon="4.68957">
        <ele>689.27502441406</ele>
        <time>2011-04-06T15:43:39Z</time>
      </trkpt>
      <trkpt lat="44.91243" lon="4.68976">
        <ele>689.11499023438</ele>
        <time>2011-04-06T15:43:42Z</time>
      </trkpt>
      <trkpt lat="44.91264" lon="4.69011">
        <ele>689.44500732422</ele>
        <time>2011-04-06T15:43:46Z</time>
      </trkpt>
      <trkpt lat="44.91278" lon="4.69069">
        <ele>689.84002685547</ele>
        <time>2011-04-06T15:43:52Z</time>
      </trkpt>
      <trkpt lat="44.9128" lon="4.6909">
        <ele>689.8759765625</ele>
        <time>2011-04-06T15:43:54Z</time>
      </trkpt>
      <trkpt lat="44.91298" lon="4.69136">
        <ele>690.20397949219</ele>
        <time>2011-04-06T15:43:59Z</time>
      </trkpt>
      <trkpt lat="44.91303" lon="4.69144">
        <ele>690.166015625</ele>
        <time>2011-04-06T15:44:00Z</time>
      </trkpt>
      <trkpt lat="44.91334" lon="4.69174">
        <ele>690.14898681641</ele>
        <time>2011-04-06T15:44:05Z</time>
      </trkpt>
      <trkpt lat="44.91371" lon="4.69184">
        <ele>690.35498046875</ele>
        <time>2011-04-06T15:44:10Z</time>
      </trkpt>
      <trkpt lat="44.91401" lon="4.69176">
        <ele>691.17401123047</ele>
        <time>2011-04-06T15:44:14Z</time>
      </trkpt>
      <trkpt lat="44.91444" lon="4.69157">
        <ele>690.70697021484</ele>
        <time>2011-04-06T15:44:20Z</time>
      </trkpt>
      <trkpt lat="44.91467" lon="4.69147">
        <ele>690.77502441406</ele>
        <time>2011-04-06T15:44:23Z</time>
      </trkpt>
      <trkpt lat="44.91498" lon="4.69148">
        <ele>690.63397216797</ele>
        <time>2011-04-06T15:44:27Z</time>
      </trkpt>
      <trkpt lat="44.91526" lon="4.6917">
        <ele>690.28399658203</ele>
        <time>2011-04-06T15:44:31Z</time>
      </trkpt>
      <trkpt lat="44.91547" lon="4.69206">
        <ele>689.99298095703</ele>
        <time>2011-04-06T15:44:35Z</time>
      </trkpt>
      <trkpt lat="44.91557" lon="4.69248">
        <ele>690.25201416016</ele>
        <time>2011-04-06T15:44:39Z</time>
      </trkpt>
      <trkpt lat="44.91562" lon="4.69315">
        <ele>690.36401367188</ele>
        <time>2011-04-06T15:44:45Z</time>
      </trkpt>
      <trkpt lat="44.91558" lon="4.69371">
        <ele>690.35797119141</ele>
        <time>2011-04-06T15:44:50Z</time>
      </trkpt>
      <trkpt lat="44.91566" lon="4.69448">
        <ele>690.41998291016</ele>
        <time>2011-04-06T15:44:57Z</time>
      </trkpt>
      <trkpt lat="44.91573" lon="4.6949">
        <ele>690.89202880859</ele>
        <time>2011-04-06T15:45:01Z</time>
      </trkpt>
      <trkpt lat="44.91596" lon="4.69546">
        <ele>690.18200683594</ele>
        <time>2011-04-06T15:45:07Z</time>
      </trkpt>
      <trkpt lat="44.91615" lon="4.69581">
        <ele>690.07098388672</ele>
        <time>2011-04-06T15:45:11Z</time>
      </trkpt>
      <trkpt lat="44.91625" lon="4.69623">
        <ele>689.97100830078</ele>
        <time>2011-04-06T15:45:15Z</time>
      </trkpt>
      <trkpt lat="44.91623" lon="4.69646">
        <ele>689.93798828125</ele>
        <time>2011-04-06T15:45:17Z</time>
      </trkpt>
      <trkpt lat="44.91615" lon="4.69687">
        <ele>690.75500488281</ele>
        <time>2011-04-06T15:45:21Z</time>
      </trkpt>
      <trkpt lat="44.91615" lon="4.6973">
        <ele>690.44702148438</ele>
        <time>2011-04-06T15:45:25Z</time>
      </trkpt>
      <trkpt lat="44.91632" lon="4.6978">
        <ele>690.00299072266</ele>
        <time>2011-04-06T15:45:30Z</time>
      </trkpt>
      <trkpt lat="44.91648" lon="4.69806">
        <ele>689.40899658203</ele>
        <time>2011-04-06T15:45:33Z</time>
      </trkpt>
      <trkpt lat="44.91682" lon="4.69836">
        <ele>688.82000732422</ele>
        <time>2011-04-06T15:45:38Z</time>
      </trkpt>
      <trkpt lat="44.9169" lon="4.69838">
        <ele>688.89300537109</ele>
        <time>2011-04-06T15:45:39Z</time>
      </trkpt>
      <trkpt lat="44.91758" lon="4.6986">
        <ele>687.83197021484</ele>
        <time>2011-04-06T15:45:47Z</time>
      </trkpt>
      <trkpt lat="44.91766" lon="4.69863">
        <ele>687.7919921875</ele>
        <time>2011-04-06T15:45:48Z</time>
      </trkpt>
      <trkpt lat="44.91811" lon="4.69865">
        <ele>687.14801025391</ele>
        <time>2011-04-06T15:45:53Z</time>
      </trkpt>
      <trkpt lat="44.91845" lon="4.69884">
        <ele>685.15899658203</ele>
        <time>2011-04-06T15:45:57Z</time>
      </trkpt>
      <trkpt lat="44.91851" lon="4.69894">
        <ele>684.86999511719</ele>
        <time>2011-04-06T15:45:58Z</time>
      </trkpt>
      <trkpt lat="44.9187" lon="4.69941">
        <ele>684.44702148438</ele>
        <time>2011-04-06T15:46:03Z</time>
      </trkpt>
      <trkpt lat="44.91877" lon="4.69948">
        <ele>684.39398193359</ele>
        <time>2011-04-06T15:46:04Z</time>
      </trkpt>
      <trkpt lat="44.91896" lon="4.69967">
        <ele>683.91302490234</ele>
        <time>2011-04-06T15:46:07Z</time>
      </trkpt>
      <trkpt lat="44.91916" lon="4.69997">
        <ele>683.86999511719</ele>
        <time>2011-04-06T15:46:11Z</time>
      </trkpt>
      <trkpt lat="44.91939" lon="4.70046">
        <ele>683.30102539062</ele>
        <time>2011-04-06T15:46:17Z</time>
      </trkpt>
      <trkpt lat="44.91971" lon="4.70114">
        <ele>682.27697753906</ele>
        <time>2011-04-06T15:46:25Z</time>
      </trkpt>
      <trkpt lat="44.91993" lon="4.70165">
        <ele>681.76397705078</ele>
        <time>2011-04-06T15:46:31Z</time>
      </trkpt>
      <trkpt lat="44.92006" lon="4.7021">
        <ele>681.49200439453</ele>
        <time>2011-04-06T15:46:36Z</time>
      </trkpt>
      <trkpt lat="44.9201" lon="4.70227">
        <ele>681.39398193359</ele>
        <time>2011-04-06T15:46:38Z</time>
      </trkpt>
      <trkpt lat="44.92018" lon="4.70268">
        <ele>680.61401367188</ele>
        <time>2011-04-06T15:46:42Z</time>
      </trkpt>
      <trkpt lat="44.92022" lon="4.70325">
        <ele>679.96099853516</ele>
        <time>2011-04-06T15:46:48Z</time>
      </trkpt>
      <trkpt lat="44.92025" lon="4.70343">
        <ele>679.67498779297</ele>
        <time>2011-04-06T15:46:50Z</time>
      </trkpt>
      <trkpt lat="44.92044" lon="4.70403">
        <ele>678.75799560547</ele>
        <time>2011-04-06T15:46:57Z</time>
      </trkpt>
      <trkpt lat="44.92048" lon="4.7041">
        <ele>678.82598876953</ele>
        <time>2011-04-06T15:46:58Z</time>
      </trkpt>
      <trkpt lat="44.92071" lon="4.70434">
        <ele>679.34399414062</ele>
        <time>2011-04-06T15:47:03Z</time>
      </trkpt>
      <trkpt lat="44.92096" lon="4.7043">
        <ele>678.97497558594</ele>
        <time>2011-04-06T15:47:07Z</time>
      </trkpt>
      <trkpt lat="44.92109" lon="4.70425">
        <ele>679.04602050781</ele>
        <time>2011-04-06T15:47:09Z</time>
      </trkpt>
      <trkpt lat="44.92136" lon="4.70401">
        <ele>678.45202636719</ele>
        <time>2011-04-06T15:47:14Z</time>
      </trkpt>
      <trkpt lat="44.92171" lon="4.70349">
        <ele>678.15002441406</ele>
        <time>2011-04-06T15:47:21Z</time>
      </trkpt>
      <trkpt lat="44.92203" lon="4.7031">
        <ele>676.03802490234</ele>
        <time>2011-04-06T15:47:26Z</time>
      </trkpt>
      <trkpt lat="44.92216" lon="4.70292">
        <ele>674.38800048828</ele>
        <time>2011-04-06T15:47:28Z</time>
      </trkpt>
      <trkpt lat="44.9225" lon="4.70271">
        <ele>672.40399169922</ele>
        <time>2011-04-06T15:47:32Z</time>
      </trkpt>
      <trkpt lat="44.92271" lon="4.7028">
        <ele>670.93597412109</ele>
        <time>2011-04-06T15:47:34Z</time>
      </trkpt>
      <trkpt lat="44.92288" lon="4.70304">
        <ele>669.23297119141</ele>
        <time>2011-04-06T15:47:36Z</time>
      </trkpt>
      <trkpt lat="44.92297" lon="4.70331">
        <ele>668.24499511719</ele>
        <time>2011-04-06T15:47:38Z</time>
      </trkpt>
      <trkpt lat="44.92316" lon="4.70436">
        <ele>664.12298583984</ele>
        <time>2011-04-06T15:47:45Z</time>
      </trkpt>
      <trkpt lat="44.92318" lon="4.7045">
        <ele>663.22802734375</ele>
        <time>2011-04-06T15:47:46Z</time>
      </trkpt>
      <trkpt lat="44.9234" lon="4.70504">
        <ele>660.10998535156</ele>
        <time>2011-04-06T15:47:50Z</time>
      </trkpt>
      <trkpt lat="44.9237" lon="4.70528">
        <ele>658.05499267578</ele>
        <time>2011-04-06T15:47:53Z</time>
      </trkpt>
      <trkpt lat="44.92404" lon="4.70537">
        <ele>655.666015625</ele>
        <time>2011-04-06T15:47:56Z</time>
      </trkpt>
      <trkpt lat="44.92417" lon="4.70535">
        <ele>655.24700927734</ele>
        <time>2011-04-06T15:47:57Z</time>
      </trkpt>
      <trkpt lat="44.92502" lon="4.70525">
        <ele>649.89001464844</ele>
        <time>2011-04-06T15:48:04Z</time>
      </trkpt>
      <trkpt lat="44.9254" lon="4.70519">
        <ele>647.59100341797</ele>
        <time>2011-04-06T15:48:07Z</time>
      </trkpt>
      <trkpt lat="44.92588" lon="4.70498">
        <ele>645.08599853516</ele>
        <time>2011-04-06T15:48:11Z</time>
      </trkpt>
      <trkpt lat="44.92635" lon="4.70475">
        <ele>641.89001464844</ele>
        <time>2011-04-06T15:48:15Z</time>
      </trkpt>
      <trkpt lat="44.92682" lon="4.70448">
        <ele>639.00799560547</ele>
        <time>2011-04-06T15:48:19Z</time>
      </trkpt>
      <trkpt lat="44.92693" lon="4.7044">
        <ele>638.73797607422</ele>
        <time>2011-04-06T15:48:20Z</time>
      </trkpt>
      <trkpt lat="44.9274" lon="4.70406">
        <ele>635.70599365234</ele>
        <time>2011-04-06T15:48:24Z</time>
      </trkpt>
      <trkpt lat="44.92789" lon="4.70388">
        <ele>631.88800048828</ele>
        <time>2011-04-06T15:48:28Z</time>
      </trkpt>
      <trkpt lat="44.92881" lon="4.70371">
        <ele>626.46099853516</ele>
        <time>2011-04-06T15:48:35Z</time>
      </trkpt>
      <trkpt lat="44.92934" lon="4.70371">
        <ele>623.3330078125</ele>
        <time>2011-04-06T15:48:39Z</time>
      </trkpt>
      <trkpt lat="44.92985" lon="4.70393">
        <ele>620.20098876953</ele>
        <time>2011-04-06T15:48:43Z</time>
      </trkpt>
      <trkpt lat="44.93018" lon="4.70425">
        <ele>617.59497070312</ele>
        <time>2011-04-06T15:48:46Z</time>
      </trkpt>
      <trkpt lat="44.93024" lon="4.7046">
        <ele>616.23199462891</ele>
        <time>2011-04-06T15:48:48Z</time>
      </trkpt>
      <trkpt lat="44.93023" lon="4.70498">
        <ele>614.34997558594</ele>
        <time>2011-04-06T15:48:50Z</time>
      </trkpt>
      <trkpt lat="44.93042" lon="4.70599">
        <ele>609.74798583984</ele>
        <time>2011-04-06T15:48:56Z</time>
      </trkpt>
      <trkpt lat="44.93083" lon="4.70666">
        <ele>606.49798583984</ele>
        <time>2011-04-06T15:49:01Z</time>
      </trkpt>
      <trkpt lat="44.93118" lon="4.70692">
        <ele>604.73999023438</ele>
        <time>2011-04-06T15:49:04Z</time>
      </trkpt>
      <trkpt lat="44.93155" lon="4.70713">
        <ele>602.25701904297</ele>
        <time>2011-04-06T15:49:07Z</time>
      </trkpt>
      <trkpt lat="44.93192" lon="4.70761">
        <ele>598.77801513672</ele>
        <time>2011-04-06T15:49:11Z</time>
      </trkpt>
      <trkpt lat="44.93209" lon="4.70787">
        <ele>597.1259765625</ele>
        <time>2011-04-06T15:49:13Z</time>
      </trkpt>
      <trkpt lat="44.93229" lon="4.70832">
        <ele>594.33197021484</ele>
        <time>2011-04-06T15:49:16Z</time>
      </trkpt>
      <trkpt lat="44.9323" lon="4.7085">
        <ele>593.16400146484</ele>
        <time>2011-04-06T15:49:17Z</time>
      </trkpt>
      <trkpt lat="44.93232" lon="4.70923">
        <ele>590.21301269531</ele>
        <time>2011-04-06T15:49:21Z</time>
      </trkpt>
      <trkpt lat="44.93229" lon="4.70959">
        <ele>588.77697753906</ele>
        <time>2011-04-06T15:49:23Z</time>
      </trkpt>
      <trkpt lat="44.93236" lon="4.71011">
        <ele>586.79901123047</ele>
        <time>2011-04-06T15:49:26Z</time>
      </trkpt>
      <trkpt lat="44.93253" lon="4.71037">
        <ele>585.46502685547</ele>
        <time>2011-04-06T15:49:28Z</time>
      </trkpt>
      <trkpt lat="44.93264" lon="4.71048">
        <ele>584.541015625</ele>
        <time>2011-04-06T15:49:29Z</time>
      </trkpt>
      <trkpt lat="44.93297" lon="4.71102">
        <ele>581.36199951172</ele>
        <time>2011-04-06T15:49:33Z</time>
      </trkpt>
      <trkpt lat="44.93321" lon="4.71165">
        <ele>578.64300537109</ele>
        <time>2011-04-06T15:49:37Z</time>
      </trkpt>
      <trkpt lat="44.93328" lon="4.7118">
        <ele>577.65002441406</ele>
        <time>2011-04-06T15:49:38Z</time>
      </trkpt>
      <trkpt lat="44.93365" lon="4.71224">
        <ele>574.7509765625</ele>
        <time>2011-04-06T15:49:42Z</time>
      </trkpt>
      <trkpt lat="44.93413" lon="4.71264">
        <ele>572.90502929688</ele>
        <time>2011-04-06T15:49:46Z</time>
      </trkpt>
      <trkpt lat="44.93433" lon="4.71303">
        <ele>570.85302734375</ele>
        <time>2011-04-06T15:49:49Z</time>
      </trkpt>
      <trkpt lat="44.93425" lon="4.71338">
        <ele>569.10900878906</ele>
        <time>2011-04-06T15:49:51Z</time>
      </trkpt>
      <trkpt lat="44.93424" lon="4.71387">
        <ele>566.94201660156</ele>
        <time>2011-04-06T15:49:54Z</time>
      </trkpt>
      <trkpt lat="44.93429" lon="4.71402">
        <ele>566.40502929688</ele>
        <time>2011-04-06T15:49:55Z</time>
      </trkpt>
      <trkpt lat="44.93442" lon="4.71431">
        <ele>565.81701660156</ele>
        <time>2011-04-06T15:49:57Z</time>
      </trkpt>
      <trkpt lat="44.93451" lon="4.71491">
        <ele>564.45001220703</ele>
        <time>2011-04-06T15:50:01Z</time>
      </trkpt>
      <trkpt lat="44.93449" lon="4.71505">
        <ele>564.21398925781</ele>
        <time>2011-04-06T15:50:02Z</time>
      </trkpt>
      <trkpt lat="44.93442" lon="4.71546">
        <ele>563.35198974609</ele>
        <time>2011-04-06T15:50:05Z</time>
      </trkpt>
      <trkpt lat="44.93422" lon="4.71593">
        <ele>562.78100585938</ele>
        <time>2011-04-06T15:50:09Z</time>
      </trkpt>
      <trkpt lat="44.93403" lon="4.71626">
        <ele>561.83197021484</ele>
        <time>2011-04-06T15:50:12Z</time>
      </trkpt>
      <trkpt lat="44.93392" lon="4.71676">
        <ele>561.06799316406</ele>
        <time>2011-04-06T15:50:16Z</time>
      </trkpt>
      <trkpt lat="44.93396" lon="4.71728">
        <ele>559.74700927734</ele>
        <time>2011-04-06T15:50:20Z</time>
      </trkpt>
      <trkpt lat="44.93392" lon="4.71794">
        <ele>558.83001708984</ele>
        <time>2011-04-06T15:50:25Z</time>
      </trkpt>
      <trkpt lat="44.93401" lon="4.71844">
        <ele>558.40197753906</ele>
        <time>2011-04-06T15:50:29Z</time>
      </trkpt>
      <trkpt lat="44.9342" lon="4.71872">
        <ele>557.75299072266</ele>
        <time>2011-04-06T15:50:32Z</time>
      </trkpt>
      <trkpt lat="44.93484" lon="4.71932">
        <ele>555.77301025391</ele>
        <time>2011-04-06T15:50:40Z</time>
      </trkpt>
      <trkpt lat="44.93508" lon="4.71957">
        <ele>555.23699951172</ele>
        <time>2011-04-06T15:50:43Z</time>
      </trkpt>
      <trkpt lat="44.93528" lon="4.72001">
        <ele>555.15802001953</ele>
        <time>2011-04-06T15:50:47Z</time>
      </trkpt>
      <trkpt lat="44.93532" lon="4.72026">
        <ele>555.77697753906</ele>
        <time>2011-04-06T15:50:49Z</time>
      </trkpt>
      <trkpt lat="44.9355" lon="4.72077">
        <ele>556.40698242188</ele>
        <time>2011-04-06T15:50:54Z</time>
      </trkpt>
      <trkpt lat="44.93572" lon="4.72091">
        <ele>557.60998535156</ele>
        <time>2011-04-06T15:50:57Z</time>
      </trkpt>
      <trkpt lat="44.93579" lon="4.72093">
        <ele>557.87799072266</ele>
        <time>2011-04-06T15:50:58Z</time>
      </trkpt>
      <trkpt lat="44.93633" lon="4.72108">
        <ele>558.78601074219</ele>
        <time>2011-04-06T15:51:05Z</time>
      </trkpt>
      <trkpt lat="44.93676" lon="4.72131">
        <ele>559.84197998047</ele>
        <time>2011-04-06T15:51:11Z</time>
      </trkpt>
      <trkpt lat="44.93699" lon="4.72158">
        <ele>560.04302978516</ele>
        <time>2011-04-06T15:51:15Z</time>
      </trkpt>
      <trkpt lat="44.93713" lon="4.72182">
        <ele>560.42602539062</ele>
        <time>2011-04-06T15:51:18Z</time>
      </trkpt>
      <trkpt lat="44.93731" lon="4.722">
        <ele>560.98101806641</ele>
        <time>2011-04-06T15:51:21Z</time>
      </trkpt>
      <trkpt lat="44.93757" lon="4.7221">
        <ele>561.48901367188</ele>
        <time>2011-04-06T15:51:25Z</time>
      </trkpt>
      <trkpt lat="44.93808" lon="4.72216">
        <ele>562.60400390625</ele>
        <time>2011-04-06T15:51:32Z</time>
      </trkpt>
      <trkpt lat="44.93842" lon="4.72226">
        <ele>563.3740234375</ele>
        <time>2011-04-06T15:51:37Z</time>
      </trkpt>
      <trkpt lat="44.93854" lon="4.72233">
        <ele>563.44799804688</ele>
        <time>2011-04-06T15:51:39Z</time>
      </trkpt>
      <trkpt lat="44.93879" lon="4.72263">
        <ele>564.18298339844</ele>
        <time>2011-04-06T15:51:44Z</time>
      </trkpt>
      <trkpt lat="44.93888" lon="4.72297">
        <ele>564.66900634766</ele>
        <time>2011-04-06T15:51:48Z</time>
      </trkpt>
      <trkpt lat="44.93892" lon="4.72377">
        <ele>566</ele>
        <time>2011-04-06T15:51:57Z</time>
      </trkpt>
      <trkpt lat="44.93894" lon="4.72455">
        <ele>567.06500244141</ele>
        <time>2011-04-06T15:52:06Z</time>
      </trkpt>
      <trkpt lat="44.93901" lon="4.72504">
        <ele>568.04901123047</ele>
        <time>2011-04-06T15:52:12Z</time>
      </trkpt>
      <trkpt lat="44.93922" lon="4.72562">
        <ele>568.10601806641</ele>
        <time>2011-04-06T15:52:19Z</time>
      </trkpt>
      <trkpt lat="44.93951" lon="4.72634">
        <ele>567.10797119141</ele>
        <time>2011-04-06T15:52:27Z</time>
      </trkpt>
      <trkpt lat="44.93977" lon="4.72675">
        <ele>566.41198730469</ele>
        <time>2011-04-06T15:52:32Z</time>
      </trkpt>
      <trkpt lat="44.93998" lon="4.72693">
        <ele>565.80902099609</ele>
        <time>2011-04-06T15:52:35Z</time>
      </trkpt>
      <trkpt lat="44.94031" lon="4.72707">
        <ele>565.13702392578</ele>
        <time>2011-04-06T15:52:39Z</time>
      </trkpt>
      <trkpt lat="44.94092" lon="4.72712">
        <ele>563.70501708984</ele>
        <time>2011-04-06T15:52:46Z</time>
      </trkpt>
      <trkpt lat="44.94125" lon="4.72698">
        <ele>562.86199951172</ele>
        <time>2011-04-06T15:52:50Z</time>
      </trkpt>
      <trkpt lat="44.94177" lon="4.72657">
        <ele>562.30798339844</ele>
        <time>2011-04-06T15:52:57Z</time>
      </trkpt>
      <trkpt lat="44.9422" lon="4.72616">
        <ele>562.17498779297</ele>
        <time>2011-04-06T15:53:03Z</time>
      </trkpt>
      <trkpt lat="44.94278" lon="4.72549">
        <ele>561.46600341797</ele>
        <time>2011-04-06T15:53:12Z</time>
      </trkpt>
      <trkpt lat="44.94299" lon="4.72515">
        <ele>560.80603027344</ele>
        <time>2011-04-06T15:53:16Z</time>
      </trkpt>
      <trkpt lat="44.94328" lon="4.72496">
        <ele>560.44097900391</ele>
        <time>2011-04-06T15:53:20Z</time>
      </trkpt>
      <trkpt lat="44.94351" lon="4.72507">
        <ele>560.37097167969</ele>
        <time>2011-04-06T15:53:23Z</time>
      </trkpt>
      <trkpt lat="44.94365" lon="4.72534">
        <ele>560.78601074219</ele>
        <time>2011-04-06T15:53:26Z</time>
      </trkpt>
      <trkpt lat="44.94368" lon="4.72564">
        <ele>561.43798828125</ele>
        <time>2011-04-06T15:53:29Z</time>
      </trkpt>
      <trkpt lat="44.94362" lon="4.72586">
        <ele>561.47399902344</ele>
        <time>2011-04-06T15:53:31Z</time>
      </trkpt>
      <trkpt lat="44.9435" lon="4.72656">
        <ele>563.54797363281</ele>
        <time>2011-04-06T15:53:39Z</time>
      </trkpt>
      <trkpt lat="44.94344" lon="4.72731">
        <ele>565.38897705078</ele>
        <time>2011-04-06T15:53:48Z</time>
      </trkpt>
      <trkpt lat="44.94346" lon="4.72746">
        <ele>565.86102294922</ele>
        <time>2011-04-06T15:53:50Z</time>
      </trkpt>
      <trkpt lat="44.9435" lon="4.72766">
        <ele>566.51098632812</ele>
        <time>2011-04-06T15:53:53Z</time>
      </trkpt>
      <trkpt lat="44.94366" lon="4.72799">
        <ele>566.80700683594</ele>
        <time>2011-04-06T15:53:58Z</time>
      </trkpt>
      <trkpt lat="44.94385" lon="4.7283">
        <ele>567.84802246094</ele>
        <time>2011-04-06T15:54:03Z</time>
      </trkpt>
      <trkpt lat="44.94393" lon="4.7285">
        <ele>568.17199707031</ele>
        <time>2011-04-06T15:54:06Z</time>
      </trkpt>
      <trkpt lat="44.94402" lon="4.72864">
        <ele>568.86199951172</ele>
        <time>2011-04-06T15:54:09Z</time>
      </trkpt>
      <trkpt lat="44.94415" lon="4.72882">
        <ele>569.00701904297</ele>
        <time>2011-04-06T15:54:13Z</time>
      </trkpt>
      <trkpt lat="44.9443" lon="4.72894">
        <ele>568.76501464844</ele>
        <time>2011-04-06T15:54:17Z</time>
      </trkpt>
      <trkpt lat="44.94446" lon="4.72926">
        <ele>567.13500976562</ele>
        <time>2011-04-06T15:54:22Z</time>
      </trkpt>
      <trkpt lat="44.94458" lon="4.72947">
        <ele>565.93402099609</ele>
        <time>2011-04-06T15:54:25Z</time>
      </trkpt>
      <trkpt lat="44.94473" lon="4.72972">
        <ele>565.25897216797</ele>
        <time>2011-04-06T15:54:28Z</time>
      </trkpt>
      <trkpt lat="44.94473" lon="4.73003">
        <ele>564.416015625</ele>
        <time>2011-04-06T15:54:31Z</time>
      </trkpt>
      <trkpt lat="44.94484" lon="4.73018">
        <ele>563.69299316406</ele>
        <time>2011-04-06T15:54:33Z</time>
      </trkpt>
      <trkpt lat="44.94495" lon="4.73034">
        <ele>563.67999267578</ele>
        <time>2011-04-06T15:54:35Z</time>
      </trkpt>
      <trkpt lat="44.94516" lon="4.73101">
        <ele>561.88299560547</ele>
        <time>2011-04-06T15:54:42Z</time>
      </trkpt>
      <trkpt lat="44.94519" lon="4.73112">
        <ele>561.55200195312</ele>
        <time>2011-04-06T15:54:43Z</time>
      </trkpt>
      <trkpt lat="44.94535" lon="4.73153">
        <ele>559.92797851562</ele>
        <time>2011-04-06T15:54:47Z</time>
      </trkpt>
      <trkpt lat="44.94558" lon="4.73218">
        <ele>558.02502441406</ele>
        <time>2011-04-06T15:54:53Z</time>
      </trkpt>
      <trkpt lat="44.94572" lon="4.73258">
        <ele>557.47497558594</ele>
        <time>2011-04-06T15:54:57Z</time>
      </trkpt>
      <trkpt lat="44.94598" lon="4.73338">
        <ele>556.92602539062</ele>
        <time>2011-04-06T15:55:05Z</time>
      </trkpt>
      <trkpt lat="44.94602" lon="4.7339">
        <ele>556.15002441406</ele>
        <time>2011-04-06T15:55:10Z</time>
      </trkpt>
      <trkpt lat="44.94603" lon="4.7341">
        <ele>556.22497558594</ele>
        <time>2011-04-06T15:55:12Z</time>
      </trkpt>
      <trkpt lat="44.94604" lon="4.73439">
        <ele>556.19799804688</ele>
        <time>2011-04-06T15:55:15Z</time>
      </trkpt>
      <trkpt lat="44.94607" lon="4.73478">
        <ele>555.92602539062</ele>
        <time>2011-04-06T15:55:19Z</time>
      </trkpt>
      <trkpt lat="44.94608" lon="4.73488">
        <ele>555.8759765625</ele>
        <time>2011-04-06T15:55:20Z</time>
      </trkpt>
      <trkpt lat="44.94615" lon="4.73526">
        <ele>555.45300292969</ele>
        <time>2011-04-06T15:55:24Z</time>
      </trkpt>
      <trkpt lat="44.94619" lon="4.73534">
        <ele>555.75598144531</ele>
        <time>2011-04-06T15:55:25Z</time>
      </trkpt>
      <trkpt lat="44.94627" lon="4.73551">
        <ele>555.78497314453</ele>
        <time>2011-04-06T15:55:27Z</time>
      </trkpt>
      <trkpt lat="44.94653" lon="4.73594">
        <ele>554.67401123047</ele>
        <time>2011-04-06T15:55:32Z</time>
      </trkpt>
      <trkpt lat="44.94701" lon="4.73669">
        <ele>552.7509765625</ele>
        <time>2011-04-06T15:55:40Z</time>
      </trkpt>
      <trkpt lat="44.94731" lon="4.73693">
        <ele>551.67602539062</ele>
        <time>2011-04-06T15:55:44Z</time>
      </trkpt>
      <trkpt lat="44.94757" lon="4.73695">
        <ele>551.44702148438</ele>
        <time>2011-04-06T15:55:47Z</time>
      </trkpt>
      <trkpt lat="44.9482" lon="4.7369">
        <ele>549.875</ele>
        <time>2011-04-06T15:55:54Z</time>
      </trkpt>
      <trkpt lat="44.94854" lon="4.73708">
        <ele>548.65002441406</ele>
        <time>2011-04-06T15:55:58Z</time>
      </trkpt>
      <trkpt lat="44.9486" lon="4.73716">
        <ele>548.56201171875</ele>
        <time>2011-04-06T15:55:59Z</time>
      </trkpt>
      <trkpt lat="44.9489" lon="4.73761">
        <ele>548.42401123047</ele>
        <time>2011-04-06T15:56:04Z</time>
      </trkpt>
      <trkpt lat="44.94905" lon="4.73804">
        <ele>548.06402587891</ele>
        <time>2011-04-06T15:56:08Z</time>
      </trkpt>
      <trkpt lat="44.94906" lon="4.73816">
        <ele>548.3330078125</ele>
        <time>2011-04-06T15:56:09Z</time>
      </trkpt>
      <trkpt lat="44.94912" lon="4.73873">
        <ele>548.69500732422</ele>
        <time>2011-04-06T15:56:14Z</time>
      </trkpt>
      <trkpt lat="44.94929" lon="4.73914">
        <ele>548.34802246094</ele>
        <time>2011-04-06T15:56:18Z</time>
      </trkpt>
      <trkpt lat="44.94942" lon="4.73931">
        <ele>547.65600585938</ele>
        <time>2011-04-06T15:56:20Z</time>
      </trkpt>
      <trkpt lat="44.94996" lon="4.73979">
        <ele>545.99700927734</ele>
        <time>2011-04-06T15:56:27Z</time>
      </trkpt>
      <trkpt lat="44.95013" lon="4.73992">
        <ele>545.21997070312</ele>
        <time>2011-04-06T15:56:29Z</time>
      </trkpt>
      <trkpt lat="44.95041" lon="4.74005">
        <ele>544.49499511719</ele>
        <time>2011-04-06T15:56:32Z</time>
      </trkpt>
      <trkpt lat="44.95075" lon="4.74031">
        <ele>543.06500244141</ele>
        <time>2011-04-06T15:56:36Z</time>
      </trkpt>
      <trkpt lat="44.95081" lon="4.74042">
        <ele>542.8759765625</ele>
        <time>2011-04-06T15:56:37Z</time>
      </trkpt>
      <trkpt lat="44.95107" lon="4.74085">
        <ele>541.83898925781</ele>
        <time>2011-04-06T15:56:41Z</time>
      </trkpt>
      <trkpt lat="44.95144" lon="4.74157">
        <ele>540.09997558594</ele>
        <time>2011-04-06T15:56:47Z</time>
      </trkpt>
      <trkpt lat="44.95179" lon="4.74214">
        <ele>538.11401367188</ele>
        <time>2011-04-06T15:56:52Z</time>
      </trkpt>
      <trkpt lat="44.95195" lon="4.74231">
        <ele>537.1240234375</ele>
        <time>2011-04-06T15:56:54Z</time>
      </trkpt>
      <trkpt lat="44.95211" lon="4.74265">
        <ele>536.08801269531</ele>
        <time>2011-04-06T15:56:57Z</time>
      </trkpt>
      <trkpt lat="44.95207" lon="4.74292">
        <ele>536.00402832031</ele>
        <time>2011-04-06T15:56:59Z</time>
      </trkpt>
      <trkpt lat="44.95201" lon="4.74303">
        <ele>535.96099853516</ele>
        <time>2011-04-06T15:57:00Z</time>
      </trkpt>
      <trkpt lat="44.95189" lon="4.74325">
        <ele>535.86999511719</ele>
        <time>2011-04-06T15:57:02Z</time>
      </trkpt>
      <trkpt lat="44.95171" lon="4.7439">
        <ele>534.62200927734</ele>
        <time>2011-04-06T15:57:07Z</time>
      </trkpt>
      <trkpt lat="44.95161" lon="4.74429">
        <ele>533.59497070312</ele>
        <time>2011-04-06T15:57:10Z</time>
      </trkpt>
      <trkpt lat="44.9516" lon="4.74482">
        <ele>532.69702148438</ele>
        <time>2011-04-06T15:57:14Z</time>
      </trkpt>
      <trkpt lat="44.9518" lon="4.74516">
        <ele>532.16900634766</ele>
        <time>2011-04-06T15:57:17Z</time>
      </trkpt>
      <trkpt lat="44.95192" lon="4.74539">
        <ele>531.89801025391</ele>
        <time>2011-04-06T15:57:19Z</time>
      </trkpt>
      <trkpt lat="44.95218" lon="4.7458">
        <ele>530.26599121094</ele>
        <time>2011-04-06T15:57:23Z</time>
      </trkpt>
      <trkpt lat="44.95237" lon="4.74585">
        <ele>529.23602294922</ele>
        <time>2011-04-06T15:57:25Z</time>
      </trkpt>
      <trkpt lat="44.95247" lon="4.74584">
        <ele>528.85400390625</ele>
        <time>2011-04-06T15:57:26Z</time>
      </trkpt>
      <trkpt lat="44.95329" lon="4.74571">
        <ele>527.98699951172</ele>
        <time>2011-04-06T15:57:35Z</time>
      </trkpt>
      <trkpt lat="44.95392" lon="4.74566">
        <ele>527.09698486328</ele>
        <time>2011-04-06T15:57:42Z</time>
      </trkpt>
      <trkpt lat="44.95438" lon="4.74573">
        <ele>525.60797119141</ele>
        <time>2011-04-06T15:57:47Z</time>
      </trkpt>
      <trkpt lat="44.95494" lon="4.74583">
        <ele>523.40002441406</ele>
        <time>2011-04-06T15:57:53Z</time>
      </trkpt>
      <trkpt lat="44.95529" lon="4.74575">
        <ele>522.79602050781</ele>
        <time>2011-04-06T15:57:57Z</time>
      </trkpt>
      <trkpt lat="44.95562" lon="4.74558">
        <ele>522.19897460938</ele>
        <time>2011-04-06T15:58:01Z</time>
      </trkpt>
      <trkpt lat="44.95606" lon="4.74554">
        <ele>520.93902587891</ele>
        <time>2011-04-06T15:58:06Z</time>
      </trkpt>
      <trkpt lat="44.95641" lon="4.7457">
        <ele>520.32000732422</ele>
        <time>2011-04-06T15:58:10Z</time>
      </trkpt>
      <trkpt lat="44.95676" lon="4.74573">
        <ele>519.21398925781</ele>
        <time>2011-04-06T15:58:14Z</time>
      </trkpt>
      <trkpt lat="44.95741" lon="4.7455">
        <ele>517.19396972656</ele>
        <time>2011-04-06T15:58:21Z</time>
      </trkpt>
      <trkpt lat="44.95786" lon="4.74559">
        <ele>516.6240234375</ele>
        <time>2011-04-06T15:58:26Z</time>
      </trkpt>
      <trkpt lat="44.95848" lon="4.74576">
        <ele>516.32299804688</ele>
        <time>2011-04-06T15:58:33Z</time>
      </trkpt>
      <trkpt lat="44.95868" lon="4.74579">
        <ele>516.10302734375</ele>
        <time>2011-04-06T15:58:35Z</time>
      </trkpt>
      <trkpt lat="44.95897" lon="4.74603">
        <ele>515.27697753906</ele>
        <time>2011-04-06T15:58:39Z</time>
      </trkpt>
      <trkpt lat="44.95905" lon="4.74635">
        <ele>515.46398925781</ele>
        <time>2011-04-06T15:58:42Z</time>
      </trkpt>
      <trkpt lat="44.95911" lon="4.74669">
        <ele>514.89001464844</ele>
        <time>2011-04-06T15:58:45Z</time>
      </trkpt>
      <trkpt lat="44.95934" lon="4.74708">
        <ele>514.00299072266</ele>
        <time>2011-04-06T15:58:49Z</time>
      </trkpt>
      <trkpt lat="44.95957" lon="4.74732">
        <ele>512.42102050781</ele>
        <time>2011-04-06T15:58:52Z</time>
      </trkpt>
      <trkpt lat="44.95985" lon="4.74747">
        <ele>511.10900878906</ele>
        <time>2011-04-06T15:58:55Z</time>
      </trkpt>
      <trkpt lat="44.96047" lon="4.74761">
        <ele>509.4169921875</ele>
        <time>2011-04-06T15:59:01Z</time>
      </trkpt>
      <trkpt lat="44.96077" lon="4.74771">
        <ele>507.93200683594</ele>
        <time>2011-04-06T15:59:04Z</time>
      </trkpt>
      <trkpt lat="44.96087" lon="4.74775">
        <ele>507.10299682617</ele>
        <time>2011-04-06T15:59:05Z</time>
      </trkpt>
      <trkpt lat="44.96123" lon="4.74805">
        <ele>504.85998535156</ele>
        <time>2011-04-06T15:59:09Z</time>
      </trkpt>
      <trkpt lat="44.96147" lon="4.74834">
        <ele>503.40200805664</ele>
        <time>2011-04-06T15:59:12Z</time>
      </trkpt>
      <trkpt lat="44.96166" lon="4.74846">
        <ele>502.56799316406</ele>
        <time>2011-04-06T15:59:14Z</time>
      </trkpt>
      <trkpt lat="44.96187" lon="4.74852">
        <ele>502.63198852539</ele>
        <time>2011-04-06T15:59:16Z</time>
      </trkpt>
      <trkpt lat="44.96228" lon="4.7486">
        <ele>501.06399536133</ele>
        <time>2011-04-06T15:59:20Z</time>
      </trkpt>
      <trkpt lat="44.96258" lon="4.7486">
        <ele>499.61499023438</ele>
        <time>2011-04-06T15:59:23Z</time>
      </trkpt>
      <trkpt lat="44.96268" lon="4.74857">
        <ele>498.91799926758</ele>
        <time>2011-04-06T15:59:24Z</time>
      </trkpt>
      <trkpt lat="44.96304" lon="4.74833">
        <ele>497.4289855957</ele>
        <time>2011-04-06T15:59:28Z</time>
      </trkpt>
      <trkpt lat="44.96314" lon="4.74827">
        <ele>496.76800537109</ele>
        <time>2011-04-06T15:59:29Z</time>
      </trkpt>
      <trkpt lat="44.96343" lon="4.74812">
        <ele>495.23901367188</ele>
        <time>2011-04-06T15:59:32Z</time>
      </trkpt>
      <trkpt lat="44.96384" lon="4.74798">
        <ele>492.32598876953</ele>
        <time>2011-04-06T15:59:36Z</time>
      </trkpt>
      <trkpt lat="44.9641" lon="4.74775">
        <ele>491.12298583984</ele>
        <time>2011-04-06T15:59:39Z</time>
      </trkpt>
      <trkpt lat="44.96412" lon="4.74744">
        <ele>490.34600830078</ele>
        <time>2011-04-06T15:59:41Z</time>
      </trkpt>
      <trkpt lat="44.96412" lon="4.74698">
        <ele>489.10598754883</ele>
        <time>2011-04-06T15:59:44Z</time>
      </trkpt>
      <trkpt lat="44.96417" lon="4.74686">
        <ele>488.47601318359</ele>
        <time>2011-04-06T15:59:45Z</time>
      </trkpt>
      <trkpt lat="44.96434" lon="4.74618">
        <ele>485.69900512695</ele>
        <time>2011-04-06T15:59:50Z</time>
      </trkpt>
      <trkpt lat="44.96435" lon="4.74603">
        <ele>485.40798950195</ele>
        <time>2011-04-06T15:59:51Z</time>
      </trkpt>
      <trkpt lat="44.96443" lon="4.74575">
        <ele>484.14801025391</ele>
        <time>2011-04-06T15:59:53Z</time>
      </trkpt>
      <trkpt lat="44.96466" lon="4.74565">
        <ele>483.08099365234</ele>
        <time>2011-04-06T15:59:55Z</time>
      </trkpt>
      <trkpt lat="44.96482" lon="4.74581">
        <ele>482.04501342773</ele>
        <time>2011-04-06T15:59:57Z</time>
      </trkpt>
      <trkpt lat="44.9649" lon="4.74592">
        <ele>481.5119934082</ele>
        <time>2011-04-06T15:59:58Z</time>
      </trkpt>
      <trkpt lat="44.96534" lon="4.74631">
        <ele>477.93600463867</ele>
        <time>2011-04-06T16:00:03Z</time>
      </trkpt>
      <trkpt lat="44.96565" lon="4.7464">
        <ele>476.62799072266</ele>
        <time>2011-04-06T16:00:06Z</time>
      </trkpt>
      <trkpt lat="44.96581" lon="4.74661">
        <ele>475.64300537109</ele>
        <time>2011-04-06T16:00:08Z</time>
      </trkpt>
      <trkpt lat="44.96598" lon="4.74704">
        <ele>474.53298950195</ele>
        <time>2011-04-06T16:00:11Z</time>
      </trkpt>
      <trkpt lat="44.96618" lon="4.74719">
        <ele>473.10299682617</ele>
        <time>2011-04-06T16:00:13Z</time>
      </trkpt>
      <trkpt lat="44.9665" lon="4.74738">
        <ele>471.85998535156</ele>
        <time>2011-04-06T16:00:16Z</time>
      </trkpt>
      <trkpt lat="44.96667" lon="4.74757">
        <ele>471.56500244141</ele>
        <time>2011-04-06T16:00:18Z</time>
      </trkpt>
      <trkpt lat="44.9671" lon="4.7477">
        <ele>469.68200683594</ele>
        <time>2011-04-06T16:00:22Z</time>
      </trkpt>
      <trkpt lat="44.96788" lon="4.74774">
        <ele>466.80899047852</ele>
        <time>2011-04-06T16:00:29Z</time>
      </trkpt>
      <trkpt lat="44.96843" lon="4.74777">
        <ele>464.2080078125</ele>
        <time>2011-04-06T16:00:34Z</time>
      </trkpt>
      <trkpt lat="44.96876" lon="4.74774">
        <ele>463.43301391602</ele>
        <time>2011-04-06T16:00:37Z</time>
      </trkpt>
      <trkpt lat="44.96917" lon="4.74789">
        <ele>462.10998535156</ele>
        <time>2011-04-06T16:00:41Z</time>
      </trkpt>
      <trkpt lat="44.96947" lon="4.74805">
        <ele>460.26800537109</ele>
        <time>2011-04-06T16:00:44Z</time>
      </trkpt>
      <trkpt lat="44.96969" lon="4.74809">
        <ele>459.44500732422</ele>
        <time>2011-04-06T16:00:46Z</time>
      </trkpt>
      <trkpt lat="44.97001" lon="4.74801">
        <ele>457.80999755859</ele>
        <time>2011-04-06T16:00:49Z</time>
      </trkpt>
      <trkpt lat="44.97017" lon="4.74779">
        <ele>456.78201293945</ele>
        <time>2011-04-06T16:00:51Z</time>
      </trkpt>
      <trkpt lat="44.97026" lon="4.74736">
        <ele>455.71600341797</ele>
        <time>2011-04-06T16:00:54Z</time>
      </trkpt>
      <trkpt lat="44.97027" lon="4.74692">
        <ele>455.18899536133</ele>
        <time>2011-04-06T16:00:57Z</time>
      </trkpt>
      <trkpt lat="44.97042" lon="4.74677">
        <ele>454.73300170898</ele>
        <time>2011-04-06T16:00:59Z</time>
      </trkpt>
      <trkpt lat="44.97058" lon="4.7469">
        <ele>454.46200561523</ele>
        <time>2011-04-06T16:01:01Z</time>
      </trkpt>
      <trkpt lat="44.97067" lon="4.74714">
        <ele>454.23300170898</ele>
        <time>2011-04-06T16:01:03Z</time>
      </trkpt>
      <trkpt lat="44.97083" lon="4.7478">
        <ele>453.08801269531</ele>
        <time>2011-04-06T16:01:08Z</time>
      </trkpt>
      <trkpt lat="44.97091" lon="4.74851">
        <ele>451.47698974609</ele>
        <time>2011-04-06T16:01:13Z</time>
      </trkpt>
      <trkpt lat="44.9711" lon="4.74885">
        <ele>451.02499389648</ele>
        <time>2011-04-06T16:01:16Z</time>
      </trkpt>
      <trkpt lat="44.9713" lon="4.74887">
        <ele>449.875</ele>
        <time>2011-04-06T16:01:18Z</time>
      </trkpt>
      <trkpt lat="44.97141" lon="4.74887">
        <ele>449.51599121094</ele>
        <time>2011-04-06T16:01:19Z</time>
      </trkpt>
      <trkpt lat="44.9719" lon="4.74881">
        <ele>447.98699951172</ele>
        <time>2011-04-06T16:01:24Z</time>
      </trkpt>
      <trkpt lat="44.97233" lon="4.74878">
        <ele>445.79400634766</ele>
        <time>2011-04-06T16:01:28Z</time>
      </trkpt>
      <trkpt lat="44.97287" lon="4.74873">
        <ele>443.73001098633</ele>
        <time>2011-04-06T16:01:33Z</time>
      </trkpt>
      <trkpt lat="44.97319" lon="4.74864">
        <ele>442.35900878906</ele>
        <time>2011-04-06T16:01:36Z</time>
      </trkpt>
      <trkpt lat="44.97361" lon="4.74875">
        <ele>440.78201293945</ele>
        <time>2011-04-06T16:01:40Z</time>
      </trkpt>
      <trkpt lat="44.97421" lon="4.74916">
        <ele>437.90100097656</ele>
        <time>2011-04-06T16:01:46Z</time>
      </trkpt>
      <trkpt lat="44.9744" lon="4.74929">
        <ele>436.80801391602</ele>
        <time>2011-04-06T16:01:48Z</time>
      </trkpt>
      <trkpt lat="44.97472" lon="4.74938">
        <ele>435.25100708008</ele>
        <time>2011-04-06T16:01:51Z</time>
      </trkpt>
      <trkpt lat="44.97492" lon="4.74934">
        <ele>434.31399536133</ele>
        <time>2011-04-06T16:01:53Z</time>
      </trkpt>
      <trkpt lat="44.97563" lon="4.74915">
        <ele>432.02801513672</ele>
        <time>2011-04-06T16:02:00Z</time>
      </trkpt>
      <trkpt lat="44.97599" lon="4.74893">
        <ele>430.93600463867</ele>
        <time>2011-04-06T16:02:04Z</time>
      </trkpt>
      <trkpt lat="44.97613" lon="4.74873">
        <ele>430.61199951172</ele>
        <time>2011-04-06T16:02:06Z</time>
      </trkpt>
      <trkpt lat="44.97636" lon="4.74844">
        <ele>428.79901123047</ele>
        <time>2011-04-06T16:02:09Z</time>
      </trkpt>
      <trkpt lat="44.97643" lon="4.74832">
        <ele>428.47900390625</ele>
        <time>2011-04-06T16:02:10Z</time>
      </trkpt>
      <trkpt lat="44.97673" lon="4.74789">
        <ele>427.4460144043</ele>
        <time>2011-04-06T16:02:14Z</time>
      </trkpt>
      <trkpt lat="44.97684" lon="4.74789">
        <ele>426.95599365234</ele>
        <time>2011-04-06T16:02:15Z</time>
      </trkpt>
      <trkpt lat="44.97729" lon="4.74789">
        <ele>425.11401367188</ele>
        <time>2011-04-06T16:02:19Z</time>
      </trkpt>
      <trkpt lat="44.97772" lon="4.74776">
        <ele>423.01699829102</ele>
        <time>2011-04-06T16:02:23Z</time>
      </trkpt>
      <trkpt lat="44.97803" lon="4.74778">
        <ele>421.77499389648</ele>
        <time>2011-04-06T16:02:26Z</time>
      </trkpt>
      <trkpt lat="44.97845" lon="4.74776">
        <ele>420.78399658203</ele>
        <time>2011-04-06T16:02:30Z</time>
      </trkpt>
      <trkpt lat="44.97895" lon="4.74753">
        <ele>419.28500366211</ele>
        <time>2011-04-06T16:02:35Z</time>
      </trkpt>
      <trkpt lat="44.97925" lon="4.74738">
        <ele>418.43399047852</ele>
        <time>2011-04-06T16:02:38Z</time>
      </trkpt>
      <trkpt lat="44.97949" lon="4.74713">
        <ele>416.99398803711</ele>
        <time>2011-04-06T16:02:41Z</time>
      </trkpt>
      <trkpt lat="44.97971" lon="4.74682">
        <ele>416.12298583984</ele>
        <time>2011-04-06T16:02:44Z</time>
      </trkpt>
      <trkpt lat="44.9798" lon="4.74676">
        <ele>415.74499511719</ele>
        <time>2011-04-06T16:02:45Z</time>
      </trkpt>
      <trkpt lat="44.98035" lon="4.74624">
        <ele>412.63101196289</ele>
        <time>2011-04-06T16:02:51Z</time>
      </trkpt>
      <trkpt lat="44.98078" lon="4.74582">
        <ele>410.88800048828</ele>
        <time>2011-04-06T16:02:56Z</time>
      </trkpt>
      <trkpt lat="44.98126" lon="4.74558">
        <ele>409.0419921875</ele>
        <time>2011-04-06T16:03:01Z</time>
      </trkpt>
      <trkpt lat="44.98152" lon="4.74532">
        <ele>407.58999633789</ele>
        <time>2011-04-06T16:03:04Z</time>
      </trkpt>
      <trkpt lat="44.98172" lon="4.745">
        <ele>406.88198852539</ele>
        <time>2011-04-06T16:03:07Z</time>
      </trkpt>
      <trkpt lat="44.98193" lon="4.74504">
        <ele>406.45401000977</ele>
        <time>2011-04-06T16:03:09Z</time>
      </trkpt>
      <trkpt lat="44.98204" lon="4.74512">
        <ele>406.09899902344</ele>
        <time>2011-04-06T16:03:10Z</time>
      </trkpt>
      <trkpt lat="44.98238" lon="4.74526">
        <ele>405.23599243164</ele>
        <time>2011-04-06T16:03:14Z</time>
      </trkpt>
      <trkpt lat="44.98263" lon="4.7453">
        <ele>404.70498657227</ele>
        <time>2011-04-06T16:03:17Z</time>
      </trkpt>
      <trkpt lat="44.98271" lon="4.74534">
        <ele>404.57800292969</ele>
        <time>2011-04-06T16:03:18Z</time>
      </trkpt>
      <trkpt lat="44.9832" lon="4.74563">
        <ele>403.40301513672</ele>
        <time>2011-04-06T16:03:25Z</time>
      </trkpt>
      <trkpt lat="44.98335" lon="4.74566">
        <ele>403.34100341797</ele>
        <time>2011-04-06T16:03:27Z</time>
      </trkpt>
      <trkpt lat="44.98355" lon="4.74554">
        <ele>403.38900756836</ele>
        <time>2011-04-06T16:03:30Z</time>
      </trkpt>
      <trkpt lat="44.98368" lon="4.74542">
        <ele>403.04998779297</ele>
        <time>2011-04-06T16:03:32Z</time>
      </trkpt>
      <trkpt lat="44.9839" lon="4.7454">
        <ele>402.3039855957</ele>
        <time>2011-04-06T16:03:35Z</time>
      </trkpt>
      <trkpt lat="44.98405" lon="4.74566">
        <ele>401.89999389648</ele>
        <time>2011-04-06T16:03:38Z</time>
      </trkpt>
      <trkpt lat="44.98408" lon="4.74598">
        <ele>401.07998657227</ele>
        <time>2011-04-06T16:03:41Z</time>
      </trkpt>
      <trkpt lat="44.9842" lon="4.74624">
        <ele>400.27099609375</ele>
        <time>2011-04-06T16:03:44Z</time>
      </trkpt>
      <trkpt lat="44.98432" lon="4.74634">
        <ele>400.05700683594</ele>
        <time>2011-04-06T16:03:46Z</time>
      </trkpt>
      <trkpt lat="44.98444" lon="4.74646">
        <ele>400.06900024414</ele>
        <time>2011-04-06T16:03:48Z</time>
      </trkpt>
      <trkpt lat="44.9848" lon="4.7469">
        <ele>398.88000488281</ele>
        <time>2011-04-06T16:03:55Z</time>
      </trkpt>
      <trkpt lat="44.98523" lon="4.74737">
        <ele>397.37200927734</ele>
        <time>2011-04-06T16:04:02Z</time>
      </trkpt>
      <trkpt lat="44.98534" lon="4.74752">
        <ele>397.13800048828</ele>
        <time>2011-04-06T16:04:04Z</time>
      </trkpt>
      <trkpt lat="44.98548" lon="4.74799">
        <ele>396.37298583984</ele>
        <time>2011-04-06T16:04:09Z</time>
      </trkpt>
      <trkpt lat="44.98547" lon="4.74809">
        <ele>396.33898925781</ele>
        <time>2011-04-06T16:04:10Z</time>
      </trkpt>
      <trkpt lat="44.98546" lon="4.74828">
        <ele>396.10501098633</ele>
        <time>2011-04-06T16:04:12Z</time>
      </trkpt>
      <trkpt lat="44.9853" lon="4.74859">
        <ele>395.21499633789</ele>
        <time>2011-04-06T16:04:16Z</time>
      </trkpt>
      <trkpt lat="44.9851" lon="4.74875">
        <ele>395.06201171875</ele>
        <time>2011-04-06T16:04:19Z</time>
      </trkpt>
      <trkpt lat="44.98498" lon="4.74904">
        <ele>395.66799926758</ele>
        <time>2011-04-06T16:04:23Z</time>
      </trkpt>
      <trkpt lat="44.98503" lon="4.74919">
        <ele>395.68399047852</ele>
        <time>2011-04-06T16:04:25Z</time>
      </trkpt>
      <trkpt lat="44.98526" lon="4.74974">
        <ele>396.16000366211</ele>
        <time>2011-04-06T16:04:32Z</time>
      </trkpt>
      <trkpt lat="44.98532" lon="4.74999">
        <ele>396.33898925781</ele>
        <time>2011-04-06T16:04:35Z</time>
      </trkpt>
      <trkpt lat="44.98545" lon="4.75033">
        <ele>396.21899414062</ele>
        <time>2011-04-06T16:04:39Z</time>
      </trkpt>
      <trkpt lat="44.9855" lon="4.7506">
        <ele>396.79598999023</ele>
        <time>2011-04-06T16:04:42Z</time>
      </trkpt>
      <trkpt lat="44.9856" lon="4.75115">
        <ele>397.37701416016</ele>
        <time>2011-04-06T16:04:48Z</time>
      </trkpt>
      <trkpt lat="44.98555" lon="4.75161">
        <ele>397.60000610352</ele>
        <time>2011-04-06T16:04:53Z</time>
      </trkpt>
      <trkpt lat="44.98554" lon="4.75188">
        <ele>397.40301513672</ele>
        <time>2011-04-06T16:04:56Z</time>
      </trkpt>
      <trkpt lat="44.98561" lon="4.7522">
        <ele>397.73901367188</ele>
        <time>2011-04-06T16:05:00Z</time>
      </trkpt>
      <trkpt lat="44.98557" lon="4.7526">
        <ele>397.89199829102</ele>
        <time>2011-04-06T16:05:05Z</time>
      </trkpt>
      <trkpt lat="44.98531" lon="4.75282">
        <ele>398.66101074219</ele>
        <time>2011-04-06T16:05:09Z</time>
      </trkpt>
      <trkpt lat="44.98498" lon="4.75318">
        <ele>399.21798706055</ele>
        <time>2011-04-06T16:05:16Z</time>
      </trkpt>
      <trkpt lat="44.98483" lon="4.75333">
        <ele>399.34698486328</ele>
        <time>2011-04-06T16:05:19Z</time>
      </trkpt>
      <trkpt lat="44.98463" lon="4.75342">
        <ele>399.07501220703</ele>
        <time>2011-04-06T16:05:23Z</time>
      </trkpt>
      <trkpt lat="44.98446" lon="4.75335">
        <ele>399.36401367188</ele>
        <time>2011-04-06T16:05:26Z</time>
      </trkpt>
      <trkpt lat="44.9843" lon="4.75322">
        <ele>399.9169921875</ele>
        <time>2011-04-06T16:05:29Z</time>
      </trkpt>
      <trkpt lat="44.9842" lon="4.75312">
        <ele>399.93899536133</ele>
        <time>2011-04-06T16:05:31Z</time>
      </trkpt>
      <trkpt lat="44.98396" lon="4.75271">
        <ele>400.3030090332</ele>
        <time>2011-04-06T16:05:37Z</time>
      </trkpt>
      <trkpt lat="44.98392" lon="4.75264">
        <ele>400.29299926758</ele>
        <time>2011-04-06T16:05:38Z</time>
      </trkpt>
      <trkpt lat="44.98371" lon="4.75248">
        <ele>400.8450012207</ele>
        <time>2011-04-06T16:05:42Z</time>
      </trkpt>
      <trkpt lat="44.98356" lon="4.75259">
        <ele>400.87899780273</ele>
        <time>2011-04-06T16:05:45Z</time>
      </trkpt>
      <trkpt lat="44.98351" lon="4.75284">
        <ele>401.0830078125</ele>
        <time>2011-04-06T16:05:48Z</time>
      </trkpt>
      <trkpt lat="44.98358" lon="4.75307">
        <ele>401.75601196289</ele>
        <time>2011-04-06T16:05:51Z</time>
      </trkpt>
      <trkpt lat="44.9837" lon="4.75327">
        <ele>401.45300292969</ele>
        <time>2011-04-06T16:05:54Z</time>
      </trkpt>
      <trkpt lat="44.98384" lon="4.75358">
        <ele>401.58401489258</ele>
        <time>2011-04-06T16:05:58Z</time>
      </trkpt>
      <trkpt lat="44.98388" lon="4.75375">
        <ele>401.94198608398</ele>
        <time>2011-04-06T16:06:00Z</time>
      </trkpt>
      <trkpt lat="44.98388" lon="4.7542">
        <ele>401.37799072266</ele>
        <time>2011-04-06T16:06:05Z</time>
      </trkpt>
      <trkpt lat="44.9838" lon="4.75449">
        <ele>401.50900268555</ele>
        <time>2011-04-06T16:06:08Z</time>
      </trkpt>
      <trkpt lat="44.98378" lon="4.75473">
        <ele>401.66101074219</ele>
        <time>2011-04-06T16:06:11Z</time>
      </trkpt>
      <trkpt lat="44.98363" lon="4.75504">
        <ele>401.93899536133</ele>
        <time>2011-04-06T16:06:15Z</time>
      </trkpt>
      <trkpt lat="44.98356" lon="4.75539">
        <ele>402.34799194336</ele>
        <time>2011-04-06T16:06:19Z</time>
      </trkpt>
      <trkpt lat="44.98347" lon="4.75598">
        <ele>402.82000732422</ele>
        <time>2011-04-06T16:06:26Z</time>
      </trkpt>
      <trkpt lat="44.98345" lon="4.75606">
        <ele>402.9049987793</ele>
        <time>2011-04-06T16:06:27Z</time>
      </trkpt>
      <trkpt lat="44.98331" lon="4.75633">
        <ele>403.27099609375</ele>
        <time>2011-04-06T16:06:31Z</time>
      </trkpt>
      <trkpt lat="44.98334" lon="4.75668">
        <ele>403.60000610352</ele>
        <time>2011-04-06T16:06:35Z</time>
      </trkpt>
      <trkpt lat="44.98344" lon="4.75682">
        <ele>403.48199462891</ele>
        <time>2011-04-06T16:06:37Z</time>
      </trkpt>
      <trkpt lat="44.98353" lon="4.75696">
        <ele>403.69000244141</ele>
        <time>2011-04-06T16:06:39Z</time>
      </trkpt>
      <trkpt lat="44.9838" lon="4.7575">
        <ele>404.06698608398</ele>
        <time>2011-04-06T16:06:46Z</time>
      </trkpt>
      <trkpt lat="44.98385" lon="4.75757">
        <ele>404.11700439453</ele>
        <time>2011-04-06T16:06:47Z</time>
      </trkpt>
      <trkpt lat="44.98416" lon="4.75781">
        <ele>404.66598510742</ele>
        <time>2011-04-06T16:06:52Z</time>
      </trkpt>
      <trkpt lat="44.98453" lon="4.75809">
        <ele>404.81900024414</ele>
        <time>2011-04-06T16:06:58Z</time>
      </trkpt>
      <trkpt lat="44.98487" lon="4.75838">
        <ele>404.94799804688</ele>
        <time>2011-04-06T16:07:04Z</time>
      </trkpt>
      <trkpt lat="44.98525" lon="4.75873">
        <ele>405.68200683594</ele>
        <time>2011-04-06T16:07:11Z</time>
      </trkpt>
      <trkpt lat="44.98565" lon="4.75897">
        <ele>406.02099609375</ele>
        <time>2011-04-06T16:07:17Z</time>
      </trkpt>
      <trkpt lat="44.98585" lon="4.75926">
        <ele>406.08898925781</ele>
        <time>2011-04-06T16:07:21Z</time>
      </trkpt>
      <trkpt lat="44.98591" lon="4.7596">
        <ele>406.9580078125</ele>
        <time>2011-04-06T16:07:24Z</time>
      </trkpt>
      <trkpt lat="44.98592" lon="4.75968">
        <ele>406.97799682617</ele>
        <time>2011-04-06T16:07:25Z</time>
      </trkpt>
      <trkpt lat="44.98588" lon="4.75986">
        <ele>406.95901489258</ele>
        <time>2011-04-06T16:07:27Z</time>
      </trkpt>
      <trkpt lat="44.98596" lon="4.76018">
        <ele>406.96899414062</ele>
        <time>2011-04-06T16:07:31Z</time>
      </trkpt>
      <trkpt lat="44.98605" lon="4.7602">
        <ele>407.36599731445</ele>
        <time>2011-04-06T16:07:33Z</time>
      </trkpt>
      <trkpt lat="44.98618" lon="4.76002">
        <ele>407.74398803711</ele>
        <time>2011-04-06T16:07:36Z</time>
      </trkpt>
      <trkpt lat="44.98633" lon="4.75982">
        <ele>408.00698852539</ele>
        <time>2011-04-06T16:07:39Z</time>
      </trkpt>
      <trkpt lat="44.98659" lon="4.75963">
        <ele>408.31799316406</ele>
        <time>2011-04-06T16:07:43Z</time>
      </trkpt>
      <trkpt lat="44.9868" lon="4.75936">
        <ele>409.04400634766</ele>
        <time>2011-04-06T16:07:47Z</time>
      </trkpt>
      <trkpt lat="44.98689" lon="4.7592">
        <ele>409.32501220703</ele>
        <time>2011-04-06T16:07:49Z</time>
      </trkpt>
      <trkpt lat="44.98714" lon="4.759">
        <ele>409.24301147461</ele>
        <time>2011-04-06T16:07:53Z</time>
      </trkpt>
      <trkpt lat="44.98721" lon="4.75899">
        <ele>409.35000610352</ele>
        <time>2011-04-06T16:07:54Z</time>
      </trkpt>
      <trkpt lat="44.98795" lon="4.75906">
        <ele>410.17599487305</ele>
        <time>2011-04-06T16:08:04Z</time>
      </trkpt>
      <trkpt lat="44.9882" lon="4.75926">
        <ele>410.34899902344</ele>
        <time>2011-04-06T16:08:08Z</time>
      </trkpt>
      <trkpt lat="44.98829" lon="4.75943">
        <ele>410.47698974609</ele>
        <time>2011-04-06T16:08:10Z</time>
      </trkpt>
      <trkpt lat="44.9884" lon="4.75968">
        <ele>410.89700317383</ele>
        <time>2011-04-06T16:08:13Z</time>
      </trkpt>
      <trkpt lat="44.98862" lon="4.75987">
        <ele>411.29800415039</ele>
        <time>2011-04-06T16:08:17Z</time>
      </trkpt>
      <trkpt lat="44.98881" lon="4.7598">
        <ele>412.23699951172</ele>
        <time>2011-04-06T16:08:20Z</time>
      </trkpt>
      <trkpt lat="44.98905" lon="4.7596">
        <ele>412.35000610352</ele>
        <time>2011-04-06T16:08:24Z</time>
      </trkpt>
      <trkpt lat="44.98927" lon="4.75961">
        <ele>412.49899291992</ele>
        <time>2011-04-06T16:08:27Z</time>
      </trkpt>
      <trkpt lat="44.98953" lon="4.75978">
        <ele>412.58499145508</ele>
        <time>2011-04-06T16:08:31Z</time>
      </trkpt>
      <trkpt lat="44.98976" lon="4.76004">
        <ele>412.58999633789</ele>
        <time>2011-04-06T16:08:35Z</time>
      </trkpt>
      <trkpt lat="44.99002" lon="4.76021">
        <ele>412.22698974609</ele>
        <time>2011-04-06T16:08:39Z</time>
      </trkpt>
      <trkpt lat="44.99025" lon="4.76017">
        <ele>412.85598754883</ele>
        <time>2011-04-06T16:08:42Z</time>
      </trkpt>
      <trkpt lat="44.99038" lon="4.76009">
        <ele>413.35198974609</ele>
        <time>2011-04-06T16:08:44Z</time>
      </trkpt>
      <trkpt lat="44.9905" lon="4.76">
        <ele>413.91799926758</ele>
        <time>2011-04-06T16:08:46Z</time>
      </trkpt>
      <trkpt lat="44.99084" lon="4.75991">
        <ele>414.32998657227</ele>
        <time>2011-04-06T16:08:51Z</time>
      </trkpt>
      <trkpt lat="44.99146" lon="4.75992">
        <ele>415.11801147461</ele>
        <time>2011-04-06T16:09:00Z</time>
      </trkpt>
      <trkpt lat="44.99212" lon="4.75983">
        <ele>416.50100708008</ele>
        <time>2011-04-06T16:09:10Z</time>
      </trkpt>
      <trkpt lat="44.99244" lon="4.75986">
        <ele>417.04000854492</ele>
        <time>2011-04-06T16:09:15Z</time>
      </trkpt>
      <trkpt lat="44.99309" lon="4.75999">
        <ele>417.53799438477</ele>
        <time>2011-04-06T16:09:25Z</time>
      </trkpt>
      <trkpt lat="44.99342" lon="4.76004">
        <ele>418.13299560547</ele>
        <time>2011-04-06T16:09:30Z</time>
      </trkpt>
      <trkpt lat="44.99373" lon="4.75995">
        <ele>418.61801147461</ele>
        <time>2011-04-06T16:09:35Z</time>
      </trkpt>
      <trkpt lat="44.99378" lon="4.75992">
        <ele>418.79400634766</ele>
        <time>2011-04-06T16:09:36Z</time>
      </trkpt>
      <trkpt lat="44.9939" lon="4.75986">
        <ele>418.88101196289</ele>
        <time>2011-04-06T16:09:38Z</time>
      </trkpt>
      <trkpt lat="44.99427" lon="4.75978">
        <ele>419.67700195312</ele>
        <time>2011-04-06T16:09:44Z</time>
      </trkpt>
      <trkpt lat="44.99482" lon="4.75977">
        <ele>420.11898803711</ele>
        <time>2011-04-06T16:09:52Z</time>
      </trkpt>
      <trkpt lat="44.9956" lon="4.75977">
        <ele>421.83801269531</ele>
        <time>2011-04-06T16:10:04Z</time>
      </trkpt>
      <trkpt lat="44.99633" lon="4.75981">
        <ele>422.97198486328</ele>
        <time>2011-04-06T16:10:15Z</time>
      </trkpt>
      <trkpt lat="44.99679" lon="4.76">
        <ele>424.00201416016</ele>
        <time>2011-04-06T16:10:22Z</time>
      </trkpt>
      <trkpt lat="44.99691" lon="4.76008">
        <ele>424.16799926758</ele>
        <time>2011-04-06T16:10:24Z</time>
      </trkpt>
      <trkpt lat="44.99708" lon="4.76038">
        <ele>423.46301269531</ele>
        <time>2011-04-06T16:10:28Z</time>
      </trkpt>
      <trkpt lat="44.99709" lon="4.7608">
        <ele>422.50399780273</ele>
        <time>2011-04-06T16:10:32Z</time>
      </trkpt>
      <trkpt lat="44.99706" lon="4.7609">
        <ele>422.17401123047</ele>
        <time>2011-04-06T16:10:33Z</time>
      </trkpt>
      <trkpt lat="44.99701" lon="4.76145">
        <ele>420.70599365234</ele>
        <time>2011-04-06T16:10:38Z</time>
      </trkpt>
      <trkpt lat="44.99719" lon="4.76151">
        <ele>420.03201293945</ele>
        <time>2011-04-06T16:10:40Z</time>
      </trkpt>
      <trkpt lat="44.99753" lon="4.76166">
        <ele>418.45498657227</ele>
        <time>2011-04-06T16:10:44Z</time>
      </trkpt>
      <trkpt lat="44.9977" lon="4.76195">
        <ele>416.72698974609</ele>
        <time>2011-04-06T16:10:47Z</time>
      </trkpt>
      <trkpt lat="44.99777" lon="4.76202">
        <ele>416.45498657227</ele>
        <time>2011-04-06T16:10:48Z</time>
      </trkpt>
      <trkpt lat="44.99795" lon="4.76209">
        <ele>415.87701416016</ele>
        <time>2011-04-06T16:10:50Z</time>
      </trkpt>
      <trkpt lat="44.99823" lon="4.76203">
        <ele>415.18200683594</ele>
        <time>2011-04-06T16:10:53Z</time>
      </trkpt>
      <trkpt lat="44.99847" lon="4.76182">
        <ele>414.53900146484</ele>
        <time>2011-04-06T16:10:56Z</time>
      </trkpt>
      <trkpt lat="44.99874" lon="4.76172">
        <ele>413.35699462891</ele>
        <time>2011-04-06T16:10:59Z</time>
      </trkpt>
      <trkpt lat="44.99902" lon="4.76173">
        <ele>411.99899291992</ele>
        <time>2011-04-06T16:11:02Z</time>
      </trkpt>
      <trkpt lat="44.99916" lon="4.76191">
        <ele>411.04501342773</ele>
        <time>2011-04-06T16:11:04Z</time>
      </trkpt>
      <trkpt lat="44.99914" lon="4.76215">
        <ele>410.04501342773</ele>
        <time>2011-04-06T16:11:06Z</time>
      </trkpt>
      <trkpt lat="44.99913" lon="4.76228">
        <ele>409.80801391602</ele>
        <time>2011-04-06T16:11:07Z</time>
      </trkpt>
      <trkpt lat="44.99923" lon="4.76253">
        <ele>409.32901000977</ele>
        <time>2011-04-06T16:11:09Z</time>
      </trkpt>
      <trkpt lat="44.99937" lon="4.76264">
        <ele>408.61700439453</ele>
        <time>2011-04-06T16:11:11Z</time>
      </trkpt>
      <trkpt lat="44.99979" lon="4.76302">
        <ele>406.08499145508</ele>
        <time>2011-04-06T16:11:16Z</time>
      </trkpt>
      <trkpt lat="44.99998" lon="4.7635">
        <ele>404.44100952148</ele>
        <time>2011-04-06T16:11:20Z</time>
      </trkpt>
      <trkpt lat="45.00001" lon="4.76364">
        <ele>404.16400146484</ele>
        <time>2011-04-06T16:11:21Z</time>
      </trkpt>
      <trkpt lat="45.0001" lon="4.7642">
        <ele>402.70999145508</ele>
        <time>2011-04-06T16:11:25Z</time>
      </trkpt>
      <trkpt lat="45.00005" lon="4.76492">
        <ele>400.49798583984</ele>
        <time>2011-04-06T16:11:30Z</time>
      </trkpt>
      <trkpt lat="44.99988" lon="4.76546">
        <ele>398.83801269531</ele>
        <time>2011-04-06T16:11:34Z</time>
      </trkpt>
      <trkpt lat="44.99979" lon="4.76571">
        <ele>398.10198974609</ele>
        <time>2011-04-06T16:11:36Z</time>
      </trkpt>
      <trkpt lat="44.99973" lon="4.766">
        <ele>397.375</ele>
        <time>2011-04-06T16:11:38Z</time>
      </trkpt>
      <trkpt lat="44.99969" lon="4.76627">
        <ele>397.03399658203</ele>
        <time>2011-04-06T16:11:40Z</time>
      </trkpt>
      <trkpt lat="44.99952" lon="4.76673">
        <ele>395.78799438477</ele>
        <time>2011-04-06T16:11:44Z</time>
      </trkpt>
      <trkpt lat="44.9994" lon="4.76721">
        <ele>394.80700683594</ele>
        <time>2011-04-06T16:11:48Z</time>
      </trkpt>
      <trkpt lat="44.99954" lon="4.76735">
        <ele>394.08801269531</ele>
        <time>2011-04-06T16:11:50Z</time>
      </trkpt>
      <trkpt lat="44.99975" lon="4.76764">
        <ele>392.51800537109</ele>
        <time>2011-04-06T16:11:53Z</time>
      </trkpt>
      <trkpt lat="44.99977" lon="4.76777">
        <ele>392.30200195312</ele>
        <time>2011-04-06T16:11:54Z</time>
      </trkpt>
      <trkpt lat="44.99979" lon="4.7679">
        <ele>392.11499023438</ele>
        <time>2011-04-06T16:11:55Z</time>
      </trkpt>
      <trkpt lat="44.99997" lon="4.76849">
        <ele>390.42098999023</ele>
        <time>2011-04-06T16:12:00Z</time>
      </trkpt>
      <trkpt lat="45.00005" lon="4.76858">
        <ele>390.27600097656</ele>
        <time>2011-04-06T16:12:01Z</time>
      </trkpt>
      <trkpt lat="45.00019" lon="4.76872">
        <ele>390.80099487305</ele>
        <time>2011-04-06T16:12:03Z</time>
      </trkpt>
      <trkpt lat="45.0004" lon="4.76884">
        <ele>391.19500732422</ele>
        <time>2011-04-06T16:12:06Z</time>
      </trkpt>
      <trkpt lat="45.00048" lon="4.76864">
        <ele>391.85998535156</ele>
        <time>2011-04-06T16:12:08Z</time>
      </trkpt>
      <trkpt lat="45.00055" lon="4.76847">
        <ele>393.0719909668</ele>
        <time>2011-04-06T16:12:11Z</time>
      </trkpt>
      <trkpt lat="45.00064" lon="4.76828">
        <ele>393.95401000977</ele>
        <time>2011-04-06T16:12:15Z</time>
      </trkpt>
      <trkpt lat="45.00084" lon="4.76793">
        <ele>395.58801269531</ele>
        <time>2011-04-06T16:12:23Z</time>
      </trkpt>
      <trkpt lat="45.00098" lon="4.76757">
        <ele>396.99600219727</ele>
        <time>2011-04-06T16:12:30Z</time>
      </trkpt>
      <trkpt lat="45.001" lon="4.76728">
        <ele>398.04901123047</ele>
        <time>2011-04-06T16:12:35Z</time>
      </trkpt>
      <trkpt lat="45.00095" lon="4.76705">
        <ele>398.8030090332</ele>
        <time>2011-04-06T16:12:39Z</time>
      </trkpt>
      <trkpt lat="45.0009" lon="4.76674">
        <ele>399.65100097656</ele>
        <time>2011-04-06T16:12:44Z</time>
      </trkpt>
      <trkpt lat="45.0009" lon="4.76644">
        <ele>400.47500610352</ele>
        <time>2011-04-06T16:12:49Z</time>
      </trkpt>
      <trkpt lat="45.00097" lon="4.76616">
        <ele>401.375</ele>
        <time>2011-04-06T16:12:54Z</time>
      </trkpt>
      <trkpt lat="45.00111" lon="4.76608">
        <ele>402.41598510742</ele>
        <time>2011-04-06T16:12:58Z</time>
      </trkpt>
      <trkpt lat="45.00126" lon="4.76613">
        <ele>403.26000976562</ele>
        <time>2011-04-06T16:13:02Z</time>
      </trkpt>
      <trkpt lat="45.00145" lon="4.76634">
        <ele>404.88198852539</ele>
        <time>2011-04-06T16:13:08Z</time>
      </trkpt>
      <trkpt lat="45.00159" lon="4.76649">
        <ele>405.73498535156</ele>
        <time>2011-04-06T16:13:13Z</time>
      </trkpt>
      <trkpt lat="45.0018" lon="4.76657">
        <ele>407.15798950195</ele>
        <time>2011-04-06T16:13:19Z</time>
      </trkpt>
      <trkpt lat="45.00188" lon="4.76649">
        <ele>407.60998535156</ele>
        <time>2011-04-06T16:13:22Z</time>
      </trkpt>
      <trkpt lat="45.00189" lon="4.7662">
        <ele>408.7799987793</ele>
        <time>2011-04-06T16:13:28Z</time>
      </trkpt>
      <trkpt lat="45.00181" lon="4.76592">
        <ele>409.9580078125</ele>
        <time>2011-04-06T16:13:34Z</time>
      </trkpt>
      <trkpt lat="45.00171" lon="4.76566">
        <ele>411.06100463867</ele>
        <time>2011-04-06T16:13:40Z</time>
      </trkpt>
      <trkpt lat="45.00168" lon="4.76542">
        <ele>412.23098754883</ele>
        <time>2011-04-06T16:13:45Z</time>
      </trkpt>
      <trkpt lat="45.00176" lon="4.7653">
        <ele>413.16598510742</ele>
        <time>2011-04-06T16:13:49Z</time>
      </trkpt>
      <trkpt lat="45.00193" lon="4.7652">
        <ele>414.11499023438</ele>
        <time>2011-04-06T16:13:55Z</time>
      </trkpt>
      <trkpt lat="45.00197" lon="4.76514">
        <ele>414.55499267578</ele>
        <time>2011-04-06T16:13:57Z</time>
      </trkpt>
      <trkpt lat="45.00197" lon="4.7649">
        <ele>415.82901000977</ele>
        <time>2011-04-06T16:14:03Z</time>
      </trkpt>
      <trkpt lat="45.00192" lon="4.76479">
        <ele>416.49899291992</ele>
        <time>2011-04-06T16:14:06Z</time>
      </trkpt>
      <trkpt lat="45.00177" lon="4.76454">
        <ele>417.59201049805</ele>
        <time>2011-04-06T16:14:13Z</time>
      </trkpt>
      <trkpt lat="45.0017" lon="4.76427">
        <ele>418.43399047852</ele>
        <time>2011-04-06T16:14:19Z</time>
      </trkpt>
      <trkpt lat="45.00171" lon="4.76403">
        <ele>419.63400268555</ele>
        <time>2011-04-06T16:14:24Z</time>
      </trkpt>
      <trkpt lat="45.00174" lon="4.76362">
        <ele>421.4700012207</ele>
        <time>2011-04-06T16:14:33Z</time>
      </trkpt>
      <trkpt lat="45.00182" lon="4.76336">
        <ele>422.25299072266</ele>
        <time>2011-04-06T16:14:39Z</time>
      </trkpt>
      <trkpt lat="45.00195" lon="4.7632">
        <ele>423.33898925781</ele>
        <time>2011-04-06T16:14:44Z</time>
      </trkpt>
      <trkpt lat="45.00222" lon="4.7631">
        <ele>424.88800048828</ele>
        <time>2011-04-06T16:14:51Z</time>
      </trkpt>
      <trkpt lat="45.00249" lon="4.76295">
        <ele>426.29000854492</ele>
        <time>2011-04-06T16:14:58Z</time>
      </trkpt>
      <trkpt lat="45.00276" lon="4.76285">
        <ele>427.85299682617</ele>
        <time>2011-04-06T16:15:05Z</time>
      </trkpt>
      <trkpt lat="45.00311" lon="4.7628">
        <ele>429.66900634766</ele>
        <time>2011-04-06T16:15:14Z</time>
      </trkpt>
      <trkpt lat="45.00349" lon="4.76279">
        <ele>431.56100463867</ele>
        <time>2011-04-06T16:15:24Z</time>
      </trkpt>
      <trkpt lat="45.0038" lon="4.76284">
        <ele>432.95300292969</ele>
        <time>2011-04-06T16:15:32Z</time>
      </trkpt>
      <trkpt lat="45.00412" lon="4.76299">
        <ele>434.39599609375</ele>
        <time>2011-04-06T16:15:40Z</time>
      </trkpt>
      <trkpt lat="45.00428" lon="4.76314">
        <ele>435.28799438477</ele>
        <time>2011-04-06T16:15:44Z</time>
      </trkpt>
      <trkpt lat="45.00445" lon="4.76351">
        <ele>436.00799560547</ele>
        <time>2011-04-06T16:15:51Z</time>
      </trkpt>
      <trkpt lat="45.00467" lon="4.76416">
        <ele>438.59698486328</ele>
        <time>2011-04-06T16:16:02Z</time>
      </trkpt>
      <trkpt lat="45.0048" lon="4.76449">
        <ele>439.47100830078</ele>
        <time>2011-04-06T16:16:08Z</time>
      </trkpt>
      <trkpt lat="45.00505" lon="4.76485">
        <ele>440.70199584961</ele>
        <time>2011-04-06T16:16:16Z</time>
      </trkpt>
      <trkpt lat="45.00534" lon="4.7652">
        <ele>442.31500244141</ele>
        <time>2011-04-06T16:16:24Z</time>
      </trkpt>
      <trkpt lat="45.00574" lon="4.7657">
        <ele>444.3330078125</ele>
        <time>2011-04-06T16:16:35Z</time>
      </trkpt>
      <trkpt lat="45.00603" lon="4.76602">
        <ele>445.98699951172</ele>
        <time>2011-04-06T16:16:43Z</time>
      </trkpt>
      <trkpt lat="45.00625" lon="4.76632">
        <ele>446.86499023438</ele>
        <time>2011-04-06T16:16:50Z</time>
      </trkpt>
      <trkpt lat="45.00655" lon="4.76675">
        <ele>448.36099243164</ele>
        <time>2011-04-06T16:17:00Z</time>
      </trkpt>
      <trkpt lat="45.00675" lon="4.76712">
        <ele>449.62799072266</ele>
        <time>2011-04-06T16:17:08Z</time>
      </trkpt>
      <trkpt lat="45.00689" lon="4.76749">
        <ele>450.53100585938</ele>
        <time>2011-04-06T16:17:15Z</time>
      </trkpt>
      <trkpt lat="45.00705" lon="4.76788">
        <ele>451.73098754883</ele>
        <time>2011-04-06T16:17:22Z</time>
      </trkpt>
      <trkpt lat="45.00734" lon="4.76828">
        <ele>453.46200561523</ele>
        <time>2011-04-06T16:17:30Z</time>
      </trkpt>
      <trkpt lat="45.00755" lon="4.7686">
        <ele>454.50698852539</ele>
        <time>2011-04-06T16:17:36Z</time>
      </trkpt>
      <trkpt lat="45.00766" lon="4.76899">
        <ele>455.61599731445</ele>
        <time>2011-04-06T16:17:42Z</time>
      </trkpt>
      <trkpt lat="45.00768" lon="4.76943">
        <ele>456.82501220703</ele>
        <time>2011-04-06T16:17:48Z</time>
      </trkpt>
      <trkpt lat="45.00756" lon="4.76992">
        <ele>457.93200683594</ele>
        <time>2011-04-06T16:17:55Z</time>
      </trkpt>
      <trkpt lat="45.00737" lon="4.77065">
        <ele>460.44299316406</ele>
        <time>2011-04-06T16:18:06Z</time>
      </trkpt>
      <trkpt lat="45.00718" lon="4.77133">
        <ele>462.14801025391</ele>
        <time>2011-04-06T16:18:16Z</time>
      </trkpt>
      <trkpt lat="45.007" lon="4.77205">
        <ele>464.48098754883</ele>
        <time>2011-04-06T16:18:27Z</time>
      </trkpt>
      <trkpt lat="45.00698" lon="4.77244">
        <ele>465.93899536133</ele>
        <time>2011-04-06T16:18:33Z</time>
      </trkpt>
      <trkpt lat="45.00703" lon="4.77279">
        <ele>466.26699829102</ele>
        <time>2011-04-06T16:18:38Z</time>
      </trkpt>
      <trkpt lat="45.00714" lon="4.77334">
        <ele>466.83200073242</ele>
        <time>2011-04-06T16:18:46Z</time>
      </trkpt>
      <trkpt lat="45.00727" lon="4.77383">
        <ele>467.40798950195</ele>
        <time>2011-04-06T16:18:53Z</time>
      </trkpt>
      <trkpt lat="45.00747" lon="4.77431">
        <ele>467.78799438477</ele>
        <time>2011-04-06T16:19:00Z</time>
      </trkpt>
      <trkpt lat="45.00766" lon="4.77468">
        <ele>468.4580078125</ele>
        <time>2011-04-06T16:19:06Z</time>
      </trkpt>
      <trkpt lat="45.00795" lon="4.7751">
        <ele>469.83599853516</ele>
        <time>2011-04-06T16:19:15Z</time>
      </trkpt>
      <trkpt lat="45.0082" lon="4.77543">
        <ele>471.40399169922</ele>
        <time>2011-04-06T16:19:23Z</time>
      </trkpt>
      <trkpt lat="45.00845" lon="4.77574">
        <ele>472.38000488281</ele>
        <time>2011-04-06T16:19:31Z</time>
      </trkpt>
      <trkpt lat="45.00867" lon="4.77601">
        <ele>473.78799438477</ele>
        <time>2011-04-06T16:19:38Z</time>
      </trkpt>
      <trkpt lat="45.00894" lon="4.77635">
        <ele>475.07000732422</ele>
        <time>2011-04-06T16:19:46Z</time>
      </trkpt>
      <trkpt lat="45.00923" lon="4.77673">
        <ele>476.93499755859</ele>
        <time>2011-04-06T16:19:54Z</time>
      </trkpt>
      <trkpt lat="45.00929" lon="4.77686">
        <ele>477.30700683594</ele>
        <time>2011-04-06T16:19:56Z</time>
      </trkpt>
      <trkpt lat="45.00937" lon="4.77723">
        <ele>478.82998657227</ele>
        <time>2011-04-06T16:20:02Z</time>
      </trkpt>
      <trkpt lat="45.00937" lon="4.77783">
        <ele>480.3869934082</ele>
        <time>2011-04-06T16:20:12Z</time>
      </trkpt>
      <trkpt lat="45.00938" lon="4.77832">
        <ele>481.94400024414</ele>
        <time>2011-04-06T16:20:20Z</time>
      </trkpt>
      <trkpt lat="45.00939" lon="4.77871">
        <ele>482.97500610352</ele>
        <time>2011-04-06T16:20:27Z</time>
      </trkpt>
      <trkpt lat="45.00939" lon="4.77888">
        <ele>482.90100097656</ele>
        <time>2011-04-06T16:20:30Z</time>
      </trkpt>
      <trkpt lat="45.00942" lon="4.77937">
        <ele>483.99301147461</ele>
        <time>2011-04-06T16:20:36Z</time>
      </trkpt>
      <trkpt lat="45.00943" lon="4.77963">
        <ele>484.95999145508</ele>
        <time>2011-04-06T16:20:40Z</time>
      </trkpt>
      <trkpt lat="45.00943" lon="4.77975">
        <ele>485.27899169922</ele>
        <time>2011-04-06T16:20:42Z</time>
      </trkpt>
      <trkpt lat="45.00943" lon="4.77993">
        <ele>485.95498657227</ele>
        <time>2011-04-06T16:20:45Z</time>
      </trkpt>
      <trkpt lat="45.00946" lon="4.78041">
        <ele>487.51800537109</ele>
        <time>2011-04-06T16:20:53Z</time>
      </trkpt>
      <trkpt lat="45.00945" lon="4.78085">
        <ele>488.51098632812</ele>
        <time>2011-04-06T16:21:00Z</time>
      </trkpt>
      <trkpt lat="45.00944" lon="4.78107">
        <ele>489.04299926758</ele>
        <time>2011-04-06T16:21:05Z</time>
      </trkpt>
      <trkpt lat="45.00943" lon="4.78114">
        <ele>489.4280090332</ele>
        <time>2011-04-06T16:21:08Z</time>
      </trkpt>
      <trkpt lat="45.00944" lon="4.7812">
        <ele>489.51300048828</ele>
        <time>2011-04-06T16:21:11Z</time>
      </trkpt>
      <trkpt lat="45.00944" lon="4.78126">
        <ele>489.58801269531</ele>
        <time>2011-04-06T16:21:14Z</time>
      </trkpt>
      <trkpt lat="45.00951" lon="4.78141">
        <ele>489.57800292969</ele>
        <time>2011-04-06T16:21:21Z</time>
      </trkpt>
      <trkpt lat="45.00959" lon="4.78148">
        <ele>489.79501342773</ele>
        <time>2011-04-06T16:21:27Z</time>
      </trkpt>
      <trkpt lat="45.00971" lon="4.78151">
        <ele>489.87600708008</ele>
        <time>2011-04-06T16:21:33Z</time>
      </trkpt>
      <trkpt lat="45.0099" lon="4.7815">
        <ele>489.85800170898</ele>
        <time>2011-04-06T16:21:39Z</time>
      </trkpt>
      <trkpt lat="45.01007" lon="4.78153">
        <ele>489.60501098633</ele>
        <time>2011-04-06T16:21:44Z</time>
      </trkpt>
      <trkpt lat="45.01028" lon="4.78165">
        <ele>489.61401367188</ele>
        <time>2011-04-06T16:21:50Z</time>
      </trkpt>
      <trkpt lat="45.0103" lon="4.78167">
        <ele>489.68200683594</ele>
        <time>2011-04-06T16:21:51Z</time>
      </trkpt>
      <trkpt lat="45.01038" lon="4.78166">
        <ele>489.98199462891</ele>
        <time>2011-04-06T16:21:54Z</time>
      </trkpt>
      <trkpt lat="45.01044" lon="4.78167">
        <ele>490.09201049805</ele>
        <time>2011-04-06T16:22:00Z</time>
      </trkpt>
      <trkpt lat="45.01054" lon="4.78181">
        <ele>489.72299194336</ele>
        <time>2011-04-06T16:22:12Z</time>
      </trkpt>
      <trkpt lat="45.01069" lon="4.78196">
        <ele>489.66101074219</ele>
        <time>2011-04-06T16:22:19Z</time>
      </trkpt>
      <trkpt lat="45.01082" lon="4.78209">
        <ele>489.09799194336</ele>
        <time>2011-04-06T16:22:23Z</time>
      </trkpt>
      <trkpt lat="45.01109" lon="4.78238">
        <ele>488.44198608398</ele>
        <time>2011-04-06T16:22:30Z</time>
      </trkpt>
      <trkpt lat="45.01128" lon="4.78254">
        <ele>487.82598876953</ele>
        <time>2011-04-06T16:22:34Z</time>
      </trkpt>
      <trkpt lat="45.01158" lon="4.78281">
        <ele>487.30499267578</ele>
        <time>2011-04-06T16:22:41Z</time>
      </trkpt>
      <trkpt lat="45.01194" lon="4.78317">
        <ele>486.08099365234</ele>
        <time>2011-04-06T16:22:48Z</time>
      </trkpt>
      <trkpt lat="45.01236" lon="4.78355">
        <ele>485.21499633789</ele>
        <time>2011-04-06T16:22:55Z</time>
      </trkpt>
      <trkpt lat="45.01283" lon="4.78398">
        <ele>483.35998535156</ele>
        <time>2011-04-06T16:23:03Z</time>
      </trkpt>
      <trkpt lat="45.01308" lon="4.78408">
        <ele>482.80499267578</ele>
        <time>2011-04-06T16:23:07Z</time>
      </trkpt>
      <trkpt lat="45.01342" lon="4.78403">
        <ele>482.42700195312</ele>
        <time>2011-04-06T16:23:12Z</time>
      </trkpt>
      <trkpt lat="45.0135" lon="4.784">
        <ele>482.33700561523</ele>
        <time>2011-04-06T16:23:13Z</time>
      </trkpt>
      <trkpt lat="45.01401" lon="4.78367">
        <ele>480.77200317383</ele>
        <time>2011-04-06T16:23:20Z</time>
      </trkpt>
      <trkpt lat="45.01444" lon="4.78336">
        <ele>479.52801513672</ele>
        <time>2011-04-06T16:23:26Z</time>
      </trkpt>
      <trkpt lat="45.01499" lon="4.78292">
        <ele>478.53698730469</ele>
        <time>2011-04-06T16:23:34Z</time>
      </trkpt>
      <trkpt lat="45.01538" lon="4.78269">
        <ele>477.0119934082</ele>
        <time>2011-04-06T16:23:39Z</time>
      </trkpt>
      <trkpt lat="45.01594" lon="4.78238">
        <ele>476.13198852539</ele>
        <time>2011-04-06T16:23:46Z</time>
      </trkpt>
      <trkpt lat="45.01637" lon="4.78211">
        <ele>475.41198730469</ele>
        <time>2011-04-06T16:23:52Z</time>
      </trkpt>
      <trkpt lat="45.01664" lon="4.78175">
        <ele>474.55700683594</ele>
        <time>2011-04-06T16:23:57Z</time>
      </trkpt>
      <trkpt lat="45.01672" lon="4.78133">
        <ele>474.26599121094</ele>
        <time>2011-04-06T16:24:01Z</time>
      </trkpt>
      <trkpt lat="45.01675" lon="4.78021">
        <ele>472.35501098633</ele>
        <time>2011-04-06T16:24:11Z</time>
      </trkpt>
      <trkpt lat="45.01678" lon="4.78">
        <ele>471.87799072266</ele>
        <time>2011-04-06T16:24:13Z</time>
      </trkpt>
      <trkpt lat="45.01693" lon="4.77962">
        <ele>469.70001220703</ele>
        <time>2011-04-06T16:24:17Z</time>
      </trkpt>
      <trkpt lat="45.01712" lon="4.77917">
        <ele>468.47500610352</ele>
        <time>2011-04-06T16:24:22Z</time>
      </trkpt>
      <trkpt lat="45.01725" lon="4.77873">
        <ele>466.76300048828</ele>
        <time>2011-04-06T16:24:26Z</time>
      </trkpt>
      <trkpt lat="45.01744" lon="4.77854">
        <ele>465.04501342773</ele>
        <time>2011-04-06T16:24:29Z</time>
      </trkpt>
      <trkpt lat="45.01752" lon="4.77854">
        <ele>464.45300292969</ele>
        <time>2011-04-06T16:24:30Z</time>
      </trkpt>
      <trkpt lat="45.01812" lon="4.77856">
        <ele>464.81500244141</ele>
        <time>2011-04-06T16:24:38Z</time>
      </trkpt>
      <trkpt lat="45.01855" lon="4.77856">
        <ele>464.8330078125</ele>
        <time>2011-04-06T16:24:44Z</time>
      </trkpt>
      <trkpt lat="45.01889" lon="4.77864">
        <ele>464.73498535156</ele>
        <time>2011-04-06T16:24:49Z</time>
      </trkpt>
      <trkpt lat="45.01931" lon="4.77885">
        <ele>463.53601074219</ele>
        <time>2011-04-06T16:24:55Z</time>
      </trkpt>
      <trkpt lat="45.01974" lon="4.77897">
        <ele>461.11700439453</ele>
        <time>2011-04-06T16:25:00Z</time>
      </trkpt>
      <trkpt lat="45.02041" lon="4.77909">
        <ele>456.64401245117</ele>
        <time>2011-04-06T16:25:07Z</time>
      </trkpt>
      <trkpt lat="45.02051" lon="4.77912">
        <ele>455.94400024414</ele>
        <time>2011-04-06T16:25:08Z</time>
      </trkpt>
      <trkpt lat="45.02078" lon="4.77898">
        <ele>453.93701171875</ele>
        <time>2011-04-06T16:25:11Z</time>
      </trkpt>
      <trkpt lat="45.02077" lon="4.77869">
        <ele>452.98599243164</ele>
        <time>2011-04-06T16:25:13Z</time>
      </trkpt>
      <trkpt lat="45.02085" lon="4.77827">
        <ele>449.93600463867</ele>
        <time>2011-04-06T16:25:16Z</time>
      </trkpt>
      <trkpt lat="45.02086" lon="4.77796">
        <ele>448.94500732422</ele>
        <time>2011-04-06T16:25:18Z</time>
      </trkpt>
      <trkpt lat="45.02097" lon="4.7775">
        <ele>445.4289855957</ele>
        <time>2011-04-06T16:25:21Z</time>
      </trkpt>
      <trkpt lat="45.02119" lon="4.77736">
        <ele>444.13400268555</ele>
        <time>2011-04-06T16:25:23Z</time>
      </trkpt>
      <trkpt lat="45.0216" lon="4.77714">
        <ele>444.54598999023</ele>
        <time>2011-04-06T16:25:27Z</time>
      </trkpt>
      <trkpt lat="45.02194" lon="4.7771">
        <ele>446.39401245117</ele>
        <time>2011-04-06T16:25:31Z</time>
      </trkpt>
      <trkpt lat="45.022" lon="4.77711">
        <ele>446.59298706055</ele>
        <time>2011-04-06T16:25:32Z</time>
      </trkpt>
      <trkpt lat="45.02224" lon="4.77721">
        <ele>448.80599975586</ele>
        <time>2011-04-06T16:25:37Z</time>
      </trkpt>
      <trkpt lat="45.02236" lon="4.77729">
        <ele>449.96398925781</ele>
        <time>2011-04-06T16:25:40Z</time>
      </trkpt>
      <trkpt lat="45.0224" lon="4.77732">
        <ele>450.07800292969</ele>
        <time>2011-04-06T16:25:41Z</time>
      </trkpt>
      <trkpt lat="45.02257" lon="4.77748">
        <ele>451.87799072266</ele>
        <time>2011-04-06T16:25:46Z</time>
      </trkpt>
      <trkpt lat="45.0227" lon="4.77763">
        <ele>453.01098632812</ele>
        <time>2011-04-06T16:25:50Z</time>
      </trkpt>
      <trkpt lat="45.02276" lon="4.77771">
        <ele>453.32699584961</ele>
        <time>2011-04-06T16:25:52Z</time>
      </trkpt>
      <trkpt lat="45.02297" lon="4.77799">
        <ele>454.86599731445</ele>
        <time>2011-04-06T16:25:59Z</time>
      </trkpt>
      <trkpt lat="45.02311" lon="4.77816">
        <ele>456.06799316406</ele>
        <time>2011-04-06T16:26:04Z</time>
      </trkpt>
      <trkpt lat="45.02326" lon="4.77828">
        <ele>457.34298706055</ele>
        <time>2011-04-06T16:26:10Z</time>
      </trkpt>
      <trkpt lat="45.02346" lon="4.77841">
        <ele>458.21499633789</ele>
        <time>2011-04-06T16:26:16Z</time>
      </trkpt>
      <trkpt lat="45.0237" lon="4.77856">
        <ele>459.35101318359</ele>
        <time>2011-04-06T16:26:22Z</time>
      </trkpt>
      <trkpt lat="45.02396" lon="4.77874">
        <ele>460.51000976562</ele>
        <time>2011-04-06T16:26:29Z</time>
      </trkpt>
      <trkpt lat="45.02423" lon="4.77892">
        <ele>461.37899780273</ele>
        <time>2011-04-06T16:26:36Z</time>
      </trkpt>
      <trkpt lat="45.02452" lon="4.7791">
        <ele>462.34201049805</ele>
        <time>2011-04-06T16:26:43Z</time>
      </trkpt>
      <trkpt lat="45.02481" lon="4.77926">
        <ele>463.85101318359</ele>
        <time>2011-04-06T16:26:50Z</time>
      </trkpt>
      <trkpt lat="45.02524" lon="4.77937">
        <ele>465.42098999023</ele>
        <time>2011-04-06T16:27:00Z</time>
      </trkpt>
      <trkpt lat="45.02531" lon="4.77937">
        <ele>465.79998779297</ele>
        <time>2011-04-06T16:27:02Z</time>
      </trkpt>
      <trkpt lat="45.02562" lon="4.77941">
        <ele>467.01501464844</ele>
        <time>2011-04-06T16:27:09Z</time>
      </trkpt>
      <trkpt lat="45.02599" lon="4.7794">
        <ele>468.26400756836</ele>
        <time>2011-04-06T16:27:17Z</time>
      </trkpt>
      <trkpt lat="45.02631" lon="4.77935">
        <ele>467.99301147461</ele>
        <time>2011-04-06T16:27:23Z</time>
      </trkpt>
      <trkpt lat="45.02649" lon="4.77931">
        <ele>467.43301391602</ele>
        <time>2011-04-06T16:27:26Z</time>
      </trkpt>
      <trkpt lat="45.02678" lon="4.77939">
        <ele>467.24899291992</ele>
        <time>2011-04-06T16:27:31Z</time>
      </trkpt>
      <trkpt lat="45.02722" lon="4.77975">
        <ele>466.69000244141</ele>
        <time>2011-04-06T16:27:39Z</time>
      </trkpt>
      <trkpt lat="45.02732" lon="4.77987">
        <ele>466.61499023438</ele>
        <time>2011-04-06T16:27:41Z</time>
      </trkpt>
      <trkpt lat="45.02749" lon="4.78014">
        <ele>465.90399169922</ele>
        <time>2011-04-06T16:27:45Z</time>
      </trkpt>
      <trkpt lat="45.02771" lon="4.78033">
        <ele>465.68899536133</ele>
        <time>2011-04-06T16:27:49Z</time>
      </trkpt>
      <trkpt lat="45.02784" lon="4.78034">
        <ele>465.59201049805</ele>
        <time>2011-04-06T16:27:51Z</time>
      </trkpt>
      <trkpt lat="45.02823" lon="4.78036">
        <ele>466.36801147461</ele>
        <time>2011-04-06T16:27:57Z</time>
      </trkpt>
      <trkpt lat="45.02853" lon="4.78054">
        <ele>466.35800170898</ele>
        <time>2011-04-06T16:28:02Z</time>
      </trkpt>
      <trkpt lat="45.02877" lon="4.78073">
        <ele>466.15100097656</ele>
        <time>2011-04-06T16:28:06Z</time>
      </trkpt>
      <trkpt lat="45.02898" lon="4.78099">
        <ele>466.17401123047</ele>
        <time>2011-04-06T16:28:10Z</time>
      </trkpt>
      <trkpt lat="45.02924" lon="4.78149">
        <ele>465.94500732422</ele>
        <time>2011-04-06T16:28:16Z</time>
      </trkpt>
      <trkpt lat="45.02924" lon="4.78188">
        <ele>465.47100830078</ele>
        <time>2011-04-06T16:28:20Z</time>
      </trkpt>
      <trkpt lat="45.02919" lon="4.78196">
        <ele>465.28201293945</ele>
        <time>2011-04-06T16:28:21Z</time>
      </trkpt>
      <trkpt lat="45.029" lon="4.78237">
        <ele>465.17999267578</ele>
        <time>2011-04-06T16:28:26Z</time>
      </trkpt>
      <trkpt lat="45.02898" lon="4.78246">
        <ele>465.45599365234</ele>
        <time>2011-04-06T16:28:27Z</time>
      </trkpt>
      <trkpt lat="45.02893" lon="4.78279">
        <ele>466.69198608398</ele>
        <time>2011-04-06T16:28:31Z</time>
      </trkpt>
      <trkpt lat="45.02882" lon="4.78305">
        <ele>467.39801025391</ele>
        <time>2011-04-06T16:28:35Z</time>
      </trkpt>
      <trkpt lat="45.02878" lon="4.78307">
        <ele>467.90899658203</ele>
        <time>2011-04-06T16:28:36Z</time>
      </trkpt>
      <trkpt lat="45.02869" lon="4.78312">
        <ele>468.83401489258</ele>
        <time>2011-04-06T16:28:38Z</time>
      </trkpt>
      <trkpt lat="45.02856" lon="4.7833">
        <ele>469.64099121094</ele>
        <time>2011-04-06T16:28:42Z</time>
      </trkpt>
      <trkpt lat="45.02855" lon="4.78358">
        <ele>470.71899414062</ele>
        <time>2011-04-06T16:28:46Z</time>
      </trkpt>
      <trkpt lat="45.02867" lon="4.78382">
        <ele>471.63000488281</ele>
        <time>2011-04-06T16:28:50Z</time>
      </trkpt>
      <trkpt lat="45.02874" lon="4.7839">
        <ele>471.96899414062</ele>
        <time>2011-04-06T16:28:52Z</time>
      </trkpt>
      <trkpt lat="45.02895" lon="4.78405">
        <ele>473.43399047852</ele>
        <time>2011-04-06T16:28:57Z</time>
      </trkpt>
      <trkpt lat="45.02937" lon="4.78428">
        <ele>475.67001342773</ele>
        <time>2011-04-06T16:29:07Z</time>
      </trkpt>
      <trkpt lat="45.02963" lon="4.78442">
        <ele>477.13800048828</ele>
        <time>2011-04-06T16:29:13Z</time>
      </trkpt>
      <trkpt lat="45.03003" lon="4.78471">
        <ele>479.22601318359</ele>
        <time>2011-04-06T16:29:23Z</time>
      </trkpt>
      <trkpt lat="45.03036" lon="4.78496">
        <ele>480.61499023438</ele>
        <time>2011-04-06T16:29:31Z</time>
      </trkpt>
      <trkpt lat="45.03065" lon="4.7852">
        <ele>481.83099365234</ele>
        <time>2011-04-06T16:29:38Z</time>
      </trkpt>
      <trkpt lat="45.03079" lon="4.78551">
        <ele>481.74700927734</ele>
        <time>2011-04-06T16:29:43Z</time>
      </trkpt>
      <trkpt lat="45.0308" lon="4.78559">
        <ele>481.92999267578</ele>
        <time>2011-04-06T16:29:44Z</time>
      </trkpt>
      <trkpt lat="45.03083" lon="4.78625">
        <ele>481.89599609375</ele>
        <time>2011-04-06T16:29:52Z</time>
      </trkpt>
      <trkpt lat="45.03087" lon="4.78688">
        <ele>480.12298583984</ele>
        <time>2011-04-06T16:29:59Z</time>
      </trkpt>
      <trkpt lat="45.03087" lon="4.78715">
        <ele>480.02200317383</ele>
        <time>2011-04-06T16:30:02Z</time>
      </trkpt>
      <trkpt lat="45.0308" lon="4.78763">
        <ele>480.90600585938</ele>
        <time>2011-04-06T16:30:08Z</time>
      </trkpt>
      <trkpt lat="45.0308" lon="4.78821">
        <ele>481.57000732422</ele>
        <time>2011-04-06T16:30:15Z</time>
      </trkpt>
      <trkpt lat="45.03082" lon="4.78859">
        <ele>482.98199462891</ele>
        <time>2011-04-06T16:30:20Z</time>
      </trkpt>
      <trkpt lat="45.03085" lon="4.7888">
        <ele>483.83801269531</ele>
        <time>2011-04-06T16:30:23Z</time>
      </trkpt>
      <trkpt lat="45.031" lon="4.78905">
        <ele>485.34799194336</ele>
        <time>2011-04-06T16:30:28Z</time>
      </trkpt>
      <trkpt lat="45.03109" lon="4.7891">
        <ele>485.83599853516</ele>
        <time>2011-04-06T16:30:30Z</time>
      </trkpt>
      <trkpt lat="45.03141" lon="4.78922">
        <ele>486.73699951172</ele>
        <time>2011-04-06T16:30:37Z</time>
      </trkpt>
      <trkpt lat="45.03174" lon="4.78934">
        <ele>488.22900390625</ele>
        <time>2011-04-06T16:30:44Z</time>
      </trkpt>
      <trkpt lat="45.03215" lon="4.78948">
        <ele>488.18099975586</ele>
        <time>2011-04-06T16:30:52Z</time>
      </trkpt>
      <trkpt lat="45.03251" lon="4.78955">
        <ele>486.75601196289</ele>
        <time>2011-04-06T16:30:58Z</time>
      </trkpt>
      <trkpt lat="45.03308" lon="4.78958">
        <ele>483.87600708008</ele>
        <time>2011-04-06T16:31:06Z</time>
      </trkpt>
      <trkpt lat="45.03366" lon="4.78958">
        <ele>480.04901123047</ele>
        <time>2011-04-06T16:31:13Z</time>
      </trkpt>
      <trkpt lat="45.03426" lon="4.7896">
        <ele>476.18200683594</ele>
        <time>2011-04-06T16:31:19Z</time>
      </trkpt>
      <trkpt lat="45.03469" lon="4.78967">
        <ele>474.07699584961</ele>
        <time>2011-04-06T16:31:23Z</time>
      </trkpt>
      <trkpt lat="45.03513" lon="4.7897">
        <ele>471.47698974609</ele>
        <time>2011-04-06T16:31:27Z</time>
      </trkpt>
      <trkpt lat="45.03553" lon="4.78951">
        <ele>469.81399536133</ele>
        <time>2011-04-06T16:31:31Z</time>
      </trkpt>
      <trkpt lat="45.03572" lon="4.78938">
        <ele>469.06100463867</ele>
        <time>2011-04-06T16:31:33Z</time>
      </trkpt>
      <trkpt lat="45.03619" lon="4.78908">
        <ele>468.94900512695</ele>
        <time>2011-04-06T16:31:38Z</time>
      </trkpt>
      <trkpt lat="45.03636" lon="4.78898">
        <ele>469.78799438477</ele>
        <time>2011-04-06T16:31:40Z</time>
      </trkpt>
      <trkpt lat="45.03692" lon="4.78863">
        <ele>470.00799560547</ele>
        <time>2011-04-06T16:31:47Z</time>
      </trkpt>
      <trkpt lat="45.0373" lon="4.78841">
        <ele>472.42001342773</ele>
        <time>2011-04-06T16:31:53Z</time>
      </trkpt>
      <trkpt lat="45.03756" lon="4.78821">
        <ele>473.94400024414</ele>
        <time>2011-04-06T16:31:58Z</time>
      </trkpt>
      <trkpt lat="45.03775" lon="4.78802">
        <ele>474.24700927734</ele>
        <time>2011-04-06T16:32:02Z</time>
      </trkpt>
      <trkpt lat="45.03799" lon="4.78773">
        <ele>474.14801025391</ele>
        <time>2011-04-06T16:32:07Z</time>
      </trkpt>
      <trkpt lat="45.03804" lon="4.78767">
        <ele>474.16799926758</ele>
        <time>2011-04-06T16:32:08Z</time>
      </trkpt>
      <trkpt lat="45.03835" lon="4.78754">
        <ele>473.83099365234</ele>
        <time>2011-04-06T16:32:13Z</time>
      </trkpt>
      <trkpt lat="45.03847" lon="4.78756">
        <ele>473.77200317383</ele>
        <time>2011-04-06T16:32:15Z</time>
      </trkpt>
      <trkpt lat="45.03887" lon="4.78766">
        <ele>472.75698852539</ele>
        <time>2011-04-06T16:32:21Z</time>
      </trkpt>
      <trkpt lat="45.03912" lon="4.78783">
        <ele>472.22399902344</ele>
        <time>2011-04-06T16:32:25Z</time>
      </trkpt>
      <trkpt lat="45.03927" lon="4.78803">
        <ele>471.49600219727</ele>
        <time>2011-04-06T16:32:28Z</time>
      </trkpt>
      <trkpt lat="45.03963" lon="4.78853">
        <ele>469.44299316406</ele>
        <time>2011-04-06T16:32:35Z</time>
      </trkpt>
      <trkpt lat="45.04002" lon="4.78906">
        <ele>468.24499511719</ele>
        <time>2011-04-06T16:32:42Z</time>
      </trkpt>
      <trkpt lat="45.04034" lon="4.78951">
        <ele>465.73400878906</ele>
        <time>2011-04-06T16:32:47Z</time>
      </trkpt>
      <trkpt lat="45.04076" lon="4.78993">
        <ele>461.44198608398</ele>
        <time>2011-04-06T16:32:52Z</time>
      </trkpt>
      <trkpt lat="45.04105" lon="4.79017">
        <ele>457.91198730469</ele>
        <time>2011-04-06T16:32:55Z</time>
      </trkpt>
      <trkpt lat="45.04138" lon="4.79063">
        <ele>454.08599853516</ele>
        <time>2011-04-06T16:32:59Z</time>
      </trkpt>
      <trkpt lat="45.04153" lon="4.79088">
        <ele>452.4289855957</ele>
        <time>2011-04-06T16:33:01Z</time>
      </trkpt>
      <trkpt lat="45.04162" lon="4.79098">
        <ele>451.25100708008</ele>
        <time>2011-04-06T16:33:02Z</time>
      </trkpt>
      <trkpt lat="45.04182" lon="4.79115">
        <ele>450.42999267578</ele>
        <time>2011-04-06T16:33:04Z</time>
      </trkpt>
      <trkpt lat="45.04213" lon="4.79127">
        <ele>449.55200195312</ele>
        <time>2011-04-06T16:33:07Z</time>
      </trkpt>
      <trkpt lat="45.04235" lon="4.79131">
        <ele>448.54000854492</ele>
        <time>2011-04-06T16:33:09Z</time>
      </trkpt>
      <trkpt lat="45.04262" lon="4.79156">
        <ele>445.75698852539</ele>
        <time>2011-04-06T16:33:12Z</time>
      </trkpt>
      <trkpt lat="45.04268" lon="4.79172">
        <ele>444.18899536133</ele>
        <time>2011-04-06T16:33:13Z</time>
      </trkpt>
      <trkpt lat="45.04303" lon="4.79241">
        <ele>440.48300170898</ele>
        <time>2011-04-06T16:33:18Z</time>
      </trkpt>
      <trkpt lat="45.04323" lon="4.79252">
        <ele>440.34799194336</ele>
        <time>2011-04-06T16:33:20Z</time>
      </trkpt>
      <trkpt lat="45.04345" lon="4.79254">
        <ele>439.97698974609</ele>
        <time>2011-04-06T16:33:22Z</time>
      </trkpt>
      <trkpt lat="45.04408" lon="4.79262">
        <ele>438.53399658203</ele>
        <time>2011-04-06T16:33:28Z</time>
      </trkpt>
      <trkpt lat="45.04439" lon="4.79265">
        <ele>437.90301513672</ele>
        <time>2011-04-06T16:33:31Z</time>
      </trkpt>
      <trkpt lat="45.0449" lon="4.79259">
        <ele>436.98199462891</ele>
        <time>2011-04-06T16:33:36Z</time>
      </trkpt>
      <trkpt lat="45.04548" lon="4.79253">
        <ele>437.25299072266</ele>
        <time>2011-04-06T16:33:42Z</time>
      </trkpt>
      <trkpt lat="45.04603" lon="4.79251">
        <ele>436.86401367188</ele>
        <time>2011-04-06T16:33:48Z</time>
      </trkpt>
      <trkpt lat="45.04621" lon="4.79252">
        <ele>437.00299072266</ele>
        <time>2011-04-06T16:33:50Z</time>
      </trkpt>
      <trkpt lat="45.04671" lon="4.79273">
        <ele>437.34600830078</ele>
        <time>2011-04-06T16:33:56Z</time>
      </trkpt>
      <trkpt lat="45.04722" lon="4.79304">
        <ele>435.14999389648</ele>
        <time>2011-04-06T16:34:02Z</time>
      </trkpt>
      <trkpt lat="45.04732" lon="4.79309">
        <ele>434.36199951172</ele>
        <time>2011-04-06T16:34:03Z</time>
      </trkpt>
      <trkpt lat="45.0476" lon="4.79315">
        <ele>432.19100952148</ele>
        <time>2011-04-06T16:34:06Z</time>
      </trkpt>
      <trkpt lat="45.0477" lon="4.79312">
        <ele>431.9580078125</ele>
        <time>2011-04-06T16:34:07Z</time>
      </trkpt>
      <trkpt lat="45.0482" lon="4.79305">
        <ele>428.65600585938</ele>
        <time>2011-04-06T16:34:12Z</time>
      </trkpt>
      <trkpt lat="45.04847" lon="4.79325">
        <ele>427.39599609375</ele>
        <time>2011-04-06T16:34:15Z</time>
      </trkpt>
      <trkpt lat="45.04853" lon="4.79336">
        <ele>426.89801025391</ele>
        <time>2011-04-06T16:34:16Z</time>
      </trkpt>
      <trkpt lat="45.04873" lon="4.79371">
        <ele>425.36898803711</ele>
        <time>2011-04-06T16:34:19Z</time>
      </trkpt>
      <trkpt lat="45.04892" lon="4.79387">
        <ele>424.17599487305</ele>
        <time>2011-04-06T16:34:21Z</time>
      </trkpt>
      <trkpt lat="45.04936" lon="4.79429">
        <ele>420.54000854492</ele>
        <time>2011-04-06T16:34:26Z</time>
      </trkpt>
      <trkpt lat="45.04943" lon="4.79439">
        <ele>420.09799194336</ele>
        <time>2011-04-06T16:34:27Z</time>
      </trkpt>
      <trkpt lat="45.04945" lon="4.79481">
        <ele>418.06500244141</ele>
        <time>2011-04-06T16:34:30Z</time>
      </trkpt>
      <trkpt lat="45.04933" lon="4.79506">
        <ele>416.60101318359</ele>
        <time>2011-04-06T16:34:32Z</time>
      </trkpt>
      <trkpt lat="45.04931" lon="4.79521">
        <ele>416.33999633789</ele>
        <time>2011-04-06T16:34:33Z</time>
      </trkpt>
      <trkpt lat="45.04943" lon="4.79542">
        <ele>415.66500854492</ele>
        <time>2011-04-06T16:34:35Z</time>
      </trkpt>
      <trkpt lat="45.04967" lon="4.79583">
        <ele>415.57299804688</ele>
        <time>2011-04-06T16:34:39Z</time>
      </trkpt>
      <trkpt lat="45.04981" lon="4.79617">
        <ele>413.62100219727</ele>
        <time>2011-04-06T16:34:42Z</time>
      </trkpt>
      <trkpt lat="45.04991" lon="4.79622">
        <ele>413.33700561523</ele>
        <time>2011-04-06T16:34:43Z</time>
      </trkpt>
      <trkpt lat="45.05001" lon="4.79625">
        <ele>412.95001220703</ele>
        <time>2011-04-06T16:34:44Z</time>
      </trkpt>
      <trkpt lat="45.05042" lon="4.79633">
        <ele>411.12899780273</ele>
        <time>2011-04-06T16:34:48Z</time>
      </trkpt>
      <trkpt lat="45.05059" lon="4.7966">
        <ele>409.59698486328</ele>
        <time>2011-04-06T16:34:51Z</time>
      </trkpt>
      <trkpt lat="45.05048" lon="4.79678">
        <ele>409.10101318359</ele>
        <time>2011-04-06T16:34:53Z</time>
      </trkpt>
      <trkpt lat="45.05036" lon="4.79696">
        <ele>408.50698852539</ele>
        <time>2011-04-06T16:34:55Z</time>
      </trkpt>
      <trkpt lat="45.05025" lon="4.79731">
        <ele>407.60400390625</ele>
        <time>2011-04-06T16:34:58Z</time>
      </trkpt>
      <trkpt lat="45.05032" lon="4.79755">
        <ele>406.80499267578</ele>
        <time>2011-04-06T16:35:00Z</time>
      </trkpt>
      <trkpt lat="45.05039" lon="4.79764">
        <ele>406.58599853516</ele>
        <time>2011-04-06T16:35:01Z</time>
      </trkpt>
      <trkpt lat="45.05051" lon="4.79809">
        <ele>405.04400634766</ele>
        <time>2011-04-06T16:35:05Z</time>
      </trkpt>
      <trkpt lat="45.05045" lon="4.79817">
        <ele>404.75201416016</ele>
        <time>2011-04-06T16:35:06Z</time>
      </trkpt>
      <trkpt lat="45.05028" lon="4.79832">
        <ele>403.82000732422</ele>
        <time>2011-04-06T16:35:08Z</time>
      </trkpt>
      <trkpt lat="45.04972" lon="4.79872">
        <ele>400.50399780273</ele>
        <time>2011-04-06T16:35:14Z</time>
      </trkpt>
      <trkpt lat="45.04956" lon="4.79902">
        <ele>399.45901489258</ele>
        <time>2011-04-06T16:35:17Z</time>
      </trkpt>
      <trkpt lat="45.0497" lon="4.79919">
        <ele>399.09201049805</ele>
        <time>2011-04-06T16:35:19Z</time>
      </trkpt>
      <trkpt lat="45.04979" lon="4.79926">
        <ele>398.98999023438</ele>
        <time>2011-04-06T16:35:20Z</time>
      </trkpt>
      <trkpt lat="45.05025" lon="4.79955">
        <ele>396.71600341797</ele>
        <time>2011-04-06T16:35:25Z</time>
      </trkpt>
      <trkpt lat="45.05034" lon="4.7996">
        <ele>396.1789855957</ele>
        <time>2011-04-06T16:35:26Z</time>
      </trkpt>
      <trkpt lat="45.05088" lon="4.79967">
        <ele>393.01098632812</ele>
        <time>2011-04-06T16:35:31Z</time>
      </trkpt>
      <trkpt lat="45.0511" lon="4.79974">
        <ele>392.23901367188</ele>
        <time>2011-04-06T16:35:33Z</time>
      </trkpt>
      <trkpt lat="45.05122" lon="4.79995">
        <ele>391.26300048828</ele>
        <time>2011-04-06T16:35:35Z</time>
      </trkpt>
      <trkpt lat="45.05121" lon="4.8002">
        <ele>390.01998901367</ele>
        <time>2011-04-06T16:35:37Z</time>
      </trkpt>
      <trkpt lat="45.05127" lon="4.80047">
        <ele>388.81399536133</ele>
        <time>2011-04-06T16:35:39Z</time>
      </trkpt>
      <trkpt lat="45.05148" lon="4.80054">
        <ele>387.55099487305</ele>
        <time>2011-04-06T16:35:41Z</time>
      </trkpt>
      <trkpt lat="45.0517" lon="4.80056">
        <ele>386.86401367188</ele>
        <time>2011-04-06T16:35:43Z</time>
      </trkpt>
      <trkpt lat="45.05223" lon="4.80068">
        <ele>383.83700561523</ele>
        <time>2011-04-06T16:35:48Z</time>
      </trkpt>
      <trkpt lat="45.05234" lon="4.8007">
        <ele>383.12298583984</ele>
        <time>2011-04-06T16:35:49Z</time>
      </trkpt>
      <trkpt lat="45.05257" lon="4.801">
        <ele>381.4700012207</ele>
        <time>2011-04-06T16:35:52Z</time>
      </trkpt>
      <trkpt lat="45.05271" lon="4.80142">
        <ele>379.48699951172</ele>
        <time>2011-04-06T16:35:55Z</time>
      </trkpt>
      <trkpt lat="45.05262" lon="4.80167">
        <ele>378.77200317383</ele>
        <time>2011-04-06T16:35:57Z</time>
      </trkpt>
      <trkpt lat="45.05255" lon="4.80177">
        <ele>377.97900390625</ele>
        <time>2011-04-06T16:35:58Z</time>
      </trkpt>
      <trkpt lat="45.05236" lon="4.80211">
        <ele>376.62600708008</ele>
        <time>2011-04-06T16:36:01Z</time>
      </trkpt>
      <trkpt lat="45.05243" lon="4.80234">
        <ele>375.44400024414</ele>
        <time>2011-04-06T16:36:03Z</time>
      </trkpt>
      <trkpt lat="45.05261" lon="4.80244">
        <ele>374.68701171875</ele>
        <time>2011-04-06T16:36:05Z</time>
      </trkpt>
      <trkpt lat="45.05271" lon="4.80246">
        <ele>374.61999511719</ele>
        <time>2011-04-06T16:36:06Z</time>
      </trkpt>
      <trkpt lat="45.05301" lon="4.80253">
        <ele>373.3450012207</ele>
        <time>2011-04-06T16:36:09Z</time>
      </trkpt>
      <trkpt lat="45.05322" lon="4.80279">
        <ele>371.38299560547</ele>
        <time>2011-04-06T16:36:12Z</time>
      </trkpt>
      <trkpt lat="45.05322" lon="4.80307">
        <ele>370.1549987793</ele>
        <time>2011-04-06T16:36:14Z</time>
      </trkpt>
      <trkpt lat="45.05312" lon="4.80331">
        <ele>369.18399047852</ele>
        <time>2011-04-06T16:36:16Z</time>
      </trkpt>
      <trkpt lat="45.05284" lon="4.80355">
        <ele>367.52700805664</ele>
        <time>2011-04-06T16:36:19Z</time>
      </trkpt>
      <trkpt lat="45.05274" lon="4.8036">
        <ele>367.23001098633</ele>
        <time>2011-04-06T16:36:20Z</time>
      </trkpt>
      <trkpt lat="45.05211" lon="4.80387">
        <ele>363.99798583984</ele>
        <time>2011-04-06T16:36:26Z</time>
      </trkpt>
      <trkpt lat="45.05169" lon="4.80413">
        <ele>361.19000244141</ele>
        <time>2011-04-06T16:36:30Z</time>
      </trkpt>
      <trkpt lat="45.05143" lon="4.80447">
        <ele>358.79299926758</ele>
        <time>2011-04-06T16:36:33Z</time>
      </trkpt>
      <trkpt lat="45.05136" lon="4.80479">
        <ele>356.93798828125</ele>
        <time>2011-04-06T16:36:35Z</time>
      </trkpt>
      <trkpt lat="45.05141" lon="4.80557">
        <ele>356.22299194336</ele>
        <time>2011-04-06T16:36:40Z</time>
      </trkpt>
      <trkpt lat="45.05149" lon="4.80581">
        <ele>357.24600219727</ele>
        <time>2011-04-06T16:36:42Z</time>
      </trkpt>
      <trkpt lat="45.05165" lon="4.80611">
        <ele>357.5530090332</ele>
        <time>2011-04-06T16:36:45Z</time>
      </trkpt>
      <trkpt lat="45.052" lon="4.80645">
        <ele>357.79998779297</ele>
        <time>2011-04-06T16:36:50Z</time>
      </trkpt>
      <trkpt lat="45.0522" lon="4.80662">
        <ele>358.2919921875</ele>
        <time>2011-04-06T16:36:53Z</time>
      </trkpt>
      <trkpt lat="45.05252" lon="4.80712">
        <ele>357.27200317383</ele>
        <time>2011-04-06T16:36:59Z</time>
      </trkpt>
      <trkpt lat="45.0527" lon="4.80768">
        <ele>355.55200195312</ele>
        <time>2011-04-06T16:37:04Z</time>
      </trkpt>
      <trkpt lat="45.05287" lon="4.80848">
        <ele>354.53799438477</ele>
        <time>2011-04-06T16:37:11Z</time>
      </trkpt>
      <trkpt lat="45.05306" lon="4.80903">
        <ele>355.44299316406</ele>
        <time>2011-04-06T16:37:17Z</time>
      </trkpt>
      <trkpt lat="45.05325" lon="4.80957">
        <ele>357.97399902344</ele>
        <time>2011-04-06T16:37:24Z</time>
      </trkpt>
      <trkpt lat="45.05328" lon="4.8097">
        <ele>359.09899902344</ele>
        <time>2011-04-06T16:37:26Z</time>
      </trkpt>
      <trkpt lat="45.05331" lon="4.80991">
        <ele>360.41000366211</ele>
        <time>2011-04-06T16:37:29Z</time>
      </trkpt>
      <trkpt lat="45.05325" lon="4.81026">
        <ele>361.51400756836</ele>
        <time>2011-04-06T16:37:34Z</time>
      </trkpt>
      <trkpt lat="45.05318" lon="4.81039">
        <ele>362.27499389648</ele>
        <time>2011-04-06T16:37:36Z</time>
      </trkpt>
      <trkpt lat="45.05314" lon="4.81053">
        <ele>363.05599975586</ele>
        <time>2011-04-06T16:37:38Z</time>
      </trkpt>
      <trkpt lat="45.05315" lon="4.81082">
        <ele>364.43200683594</ele>
        <time>2011-04-06T16:37:42Z</time>
      </trkpt>
      <trkpt lat="45.05316" lon="4.81119">
        <ele>366.00698852539</ele>
        <time>2011-04-06T16:37:47Z</time>
      </trkpt>
      <trkpt lat="45.05324" lon="4.81145">
        <ele>367.17300415039</ele>
        <time>2011-04-06T16:37:52Z</time>
      </trkpt>
      <trkpt lat="45.05332" lon="4.81136">
        <ele>368.01998901367</ele>
        <time>2011-04-06T16:37:54Z</time>
      </trkpt>
      <trkpt lat="45.05334" lon="4.81129">
        <ele>368.65798950195</ele>
        <time>2011-04-06T16:37:55Z</time>
      </trkpt>
      <trkpt lat="45.05338" lon="4.81117">
        <ele>369.42599487305</ele>
        <time>2011-04-06T16:37:57Z</time>
      </trkpt>
      <trkpt lat="45.05354" lon="4.81083">
        <ele>371.10299682617</ele>
        <time>2011-04-06T16:38:03Z</time>
      </trkpt>
      <trkpt lat="45.05358" lon="4.81078">
        <ele>371.33099365234</ele>
        <time>2011-04-06T16:38:04Z</time>
      </trkpt>
      <trkpt lat="45.05376" lon="4.81066">
        <ele>372.48599243164</ele>
        <time>2011-04-06T16:38:08Z</time>
      </trkpt>
      <trkpt lat="45.05421" lon="4.81057">
        <ele>375.2080078125</ele>
        <time>2011-04-06T16:38:17Z</time>
      </trkpt>
      <trkpt lat="45.05458" lon="4.81054">
        <ele>377.45599365234</ele>
        <time>2011-04-06T16:38:24Z</time>
      </trkpt>
      <trkpt lat="45.05499" lon="4.81059">
        <ele>380</ele>
        <time>2011-04-06T16:38:32Z</time>
      </trkpt>
      <trkpt lat="45.05553" lon="4.81084">
        <ele>382.41900634766</ele>
        <time>2011-04-06T16:38:43Z</time>
      </trkpt>
      <trkpt lat="45.05592" lon="4.81109">
        <ele>383.01501464844</ele>
        <time>2011-04-06T16:38:51Z</time>
      </trkpt>
      <trkpt lat="45.05635" lon="4.81138">
        <ele>381.98400878906</ele>
        <time>2011-04-06T16:38:59Z</time>
      </trkpt>
      <trkpt lat="45.05646" lon="4.81148">
        <ele>381.11801147461</ele>
        <time>2011-04-06T16:39:01Z</time>
      </trkpt>
      <trkpt lat="45.05674" lon="4.81188">
        <ele>378.75900268555</ele>
        <time>2011-04-06T16:39:06Z</time>
      </trkpt>
      <trkpt lat="45.0568" lon="4.81199">
        <ele>377.70498657227</ele>
        <time>2011-04-06T16:39:07Z</time>
      </trkpt>
      <trkpt lat="45.05718" lon="4.81257">
        <ele>375.54998779297</ele>
        <time>2011-04-06T16:39:13Z</time>
      </trkpt>
      <trkpt lat="45.05733" lon="4.813">
        <ele>375.18701171875</ele>
        <time>2011-04-06T16:39:17Z</time>
      </trkpt>
      <trkpt lat="45.05758" lon="4.81351">
        <ele>372.79699707031</ele>
        <time>2011-04-06T16:39:22Z</time>
      </trkpt>
      <trkpt lat="45.0578" lon="4.814">
        <ele>369.74301147461</ele>
        <time>2011-04-06T16:39:26Z</time>
      </trkpt>
      <trkpt lat="45.05809" lon="4.81431">
        <ele>369.76098632812</ele>
        <time>2011-04-06T16:39:30Z</time>
      </trkpt>
      <trkpt lat="45.05832" lon="4.81438">
        <ele>370.74398803711</ele>
        <time>2011-04-06T16:39:33Z</time>
      </trkpt>
      <trkpt lat="45.05864" lon="4.81452">
        <ele>372.23901367188</ele>
        <time>2011-04-06T16:39:38Z</time>
      </trkpt>
      <trkpt lat="45.05898" lon="4.81504">
        <ele>374.74798583984</ele>
        <time>2011-04-06T16:39:46Z</time>
      </trkpt>
      <trkpt lat="45.05906" lon="4.81518">
        <ele>375.45199584961</ele>
        <time>2011-04-06T16:39:48Z</time>
      </trkpt>
      <trkpt lat="45.05933" lon="4.81571">
        <ele>375.08801269531</ele>
        <time>2011-04-06T16:39:55Z</time>
      </trkpt>
      <trkpt lat="45.05956" lon="4.81603">
        <ele>374.30099487305</ele>
        <time>2011-04-06T16:39:59Z</time>
      </trkpt>
      <trkpt lat="45.05973" lon="4.81642">
        <ele>374.03900146484</ele>
        <time>2011-04-06T16:40:03Z</time>
      </trkpt>
      <trkpt lat="45.05993" lon="4.81704">
        <ele>374.81500244141</ele>
        <time>2011-04-06T16:40:09Z</time>
      </trkpt>
      <trkpt lat="45.06009" lon="4.81745">
        <ele>375.17700195312</ele>
        <time>2011-04-06T16:40:13Z</time>
      </trkpt>
      <trkpt lat="45.06016" lon="4.81795">
        <ele>374.65200805664</ele>
        <time>2011-04-06T16:40:17Z</time>
      </trkpt>
      <trkpt lat="45.06014" lon="4.81809">
        <ele>374.62298583984</ele>
        <time>2011-04-06T16:40:18Z</time>
      </trkpt>
      <trkpt lat="45.06001" lon="4.81887">
        <ele>375.6549987793</ele>
        <time>2011-04-06T16:40:24Z</time>
      </trkpt>
      <trkpt lat="45.06" lon="4.81959">
        <ele>371.80999755859</ele>
        <time>2011-04-06T16:40:29Z</time>
      </trkpt>
      <trkpt lat="45.05998" lon="4.82049">
        <ele>369.7380065918</ele>
        <time>2011-04-06T16:40:35Z</time>
      </trkpt>
      <trkpt lat="45.0598" lon="4.82087">
        <ele>368.09698486328</ele>
        <time>2011-04-06T16:40:38Z</time>
      </trkpt>
      <trkpt lat="45.0597" lon="4.82095">
        <ele>367.88400268555</ele>
        <time>2011-04-06T16:40:39Z</time>
      </trkpt>
      <trkpt lat="45.05902" lon="4.82145">
        <ele>363.67199707031</ele>
        <time>2011-04-06T16:40:45Z</time>
      </trkpt>
      <trkpt lat="45.05852" lon="4.82179">
        <ele>360.03201293945</ele>
        <time>2011-04-06T16:40:49Z</time>
      </trkpt>
      <trkpt lat="45.05795" lon="4.82192">
        <ele>354.41598510742</ele>
        <time>2011-04-06T16:40:53Z</time>
      </trkpt>
      <trkpt lat="45.05753" lon="4.8221">
        <ele>350.19900512695</ele>
        <time>2011-04-06T16:40:56Z</time>
      </trkpt>
      <trkpt lat="45.05738" lon="4.82242">
        <ele>348.29299926758</ele>
        <time>2011-04-06T16:40:58Z</time>
      </trkpt>
      <trkpt lat="45.05747" lon="4.82275">
        <ele>346.21200561523</ele>
        <time>2011-04-06T16:41:00Z</time>
      </trkpt>
      <trkpt lat="45.05755" lon="4.82289">
        <ele>345.14001464844</ele>
        <time>2011-04-06T16:41:01Z</time>
      </trkpt>
      <trkpt lat="45.05775" lon="4.82347">
        <ele>340.64300537109</ele>
        <time>2011-04-06T16:41:05Z</time>
      </trkpt>
      <trkpt lat="45.05753" lon="4.82368">
        <ele>337.68499755859</ele>
        <time>2011-04-06T16:41:08Z</time>
      </trkpt>
      <trkpt lat="45.05741" lon="4.82371">
        <ele>336.94400024414</ele>
        <time>2011-04-06T16:41:09Z</time>
      </trkpt>
      <trkpt lat="45.0569" lon="4.82401">
        <ele>332.12298583984</ele>
        <time>2011-04-06T16:41:13Z</time>
      </trkpt>
      <trkpt lat="45.05663" lon="4.824">
        <ele>328.44100952148</ele>
        <time>2011-04-06T16:41:15Z</time>
      </trkpt>
      <trkpt lat="45.05643" lon="4.82418">
        <ele>326.93899536133</ele>
        <time>2011-04-06T16:41:17Z</time>
      </trkpt>
      <trkpt lat="45.05601" lon="4.82481">
        <ele>321.32598876953</ele>
        <time>2011-04-06T16:41:22Z</time>
      </trkpt>
      <trkpt lat="45.05579" lon="4.8249">
        <ele>318.34298706055</ele>
        <time>2011-04-06T16:41:24Z</time>
      </trkpt>
      <trkpt lat="45.05555" lon="4.82484">
        <ele>316.5</ele>
        <time>2011-04-06T16:41:26Z</time>
      </trkpt>
      <trkpt lat="45.05542" lon="4.82485">
        <ele>315.52700805664</ele>
        <time>2011-04-06T16:41:27Z</time>
      </trkpt>
      <trkpt lat="45.05516" lon="4.82489">
        <ele>313.22198486328</ele>
        <time>2011-04-06T16:41:29Z</time>
      </trkpt>
      <trkpt lat="45.05492" lon="4.82513">
        <ele>310.78900146484</ele>
        <time>2011-04-06T16:41:32Z</time>
      </trkpt>
      <trkpt lat="45.05496" lon="4.82542">
        <ele>309.33801269531</ele>
        <time>2011-04-06T16:41:34Z</time>
      </trkpt>
      <trkpt lat="45.05512" lon="4.82566">
        <ele>307.42599487305</ele>
        <time>2011-04-06T16:41:36Z</time>
      </trkpt>
      <trkpt lat="45.05523" lon="4.82576">
        <ele>306.36599731445</ele>
        <time>2011-04-06T16:41:37Z</time>
      </trkpt>
      <trkpt lat="45.05557" lon="4.82606">
        <ele>303.39300537109</ele>
        <time>2011-04-06T16:41:40Z</time>
      </trkpt>
      <trkpt lat="45.05593" lon="4.82613">
        <ele>300.24798583984</ele>
        <time>2011-04-06T16:41:43Z</time>
      </trkpt>
      <trkpt lat="45.05606" lon="4.82606">
        <ele>299.95901489258</ele>
        <time>2011-04-06T16:41:44Z</time>
      </trkpt>
      <trkpt lat="45.05632" lon="4.82601">
        <ele>297.49301147461</ele>
        <time>2011-04-06T16:41:46Z</time>
      </trkpt>
      <trkpt lat="45.05644" lon="4.82604">
        <ele>296.23098754883</ele>
        <time>2011-04-06T16:41:47Z</time>
      </trkpt>
      <trkpt lat="45.0567" lon="4.82611">
        <ele>294.73098754883</ele>
        <time>2011-04-06T16:41:49Z</time>
      </trkpt>
      <trkpt lat="45.05695" lon="4.82647">
        <ele>291.42401123047</ele>
        <time>2011-04-06T16:41:52Z</time>
      </trkpt>
      <trkpt lat="45.05697" lon="4.8268">
        <ele>289.63299560547</ele>
        <time>2011-04-06T16:41:54Z</time>
      </trkpt>
      <trkpt lat="45.05713" lon="4.82706">
        <ele>287.26800537109</ele>
        <time>2011-04-06T16:41:56Z</time>
      </trkpt>
      <trkpt lat="45.05736" lon="4.82738">
        <ele>284.89199829102</ele>
        <time>2011-04-06T16:41:59Z</time>
      </trkpt>
      <trkpt lat="45.05753" lon="4.8274">
        <ele>282.96499633789</ele>
        <time>2011-04-06T16:42:01Z</time>
      </trkpt>
      <trkpt lat="45.05781" lon="4.8273">
        <ele>280.87100219727</ele>
        <time>2011-04-06T16:42:04Z</time>
      </trkpt>
      <trkpt lat="45.05811" lon="4.82731">
        <ele>278.25601196289</ele>
        <time>2011-04-06T16:42:07Z</time>
      </trkpt>
      <trkpt lat="45.05829" lon="4.82712">
        <ele>275.98300170898</ele>
        <time>2011-04-06T16:42:09Z</time>
      </trkpt>
      <trkpt lat="45.05848" lon="4.82701">
        <ele>275.01699829102</ele>
        <time>2011-04-06T16:42:11Z</time>
      </trkpt>
      <trkpt lat="45.05867" lon="4.82721">
        <ele>272.84799194336</ele>
        <time>2011-04-06T16:42:13Z</time>
      </trkpt>
      <trkpt lat="45.05893" lon="4.82757">
        <ele>269.99200439453</ele>
        <time>2011-04-06T16:42:16Z</time>
      </trkpt>
      <trkpt lat="45.05917" lon="4.82752">
        <ele>267.61499023438</ele>
        <time>2011-04-06T16:42:18Z</time>
      </trkpt>
      <trkpt lat="45.05941" lon="4.82751">
        <ele>265.44198608398</ele>
        <time>2011-04-06T16:42:20Z</time>
      </trkpt>
      <trkpt lat="45.05979" lon="4.82748">
        <ele>262.05499267578</ele>
        <time>2011-04-06T16:42:23Z</time>
      </trkpt>
      <trkpt lat="45.06008" lon="4.8273">
        <ele>259.90399169922</ele>
        <time>2011-04-06T16:42:26Z</time>
      </trkpt>
      <trkpt lat="45.06018" lon="4.82749">
        <ele>258.25601196289</ele>
        <time>2011-04-06T16:42:28Z</time>
      </trkpt>
      <trkpt lat="45.06012" lon="4.82776">
        <ele>256.94900512695</ele>
        <time>2011-04-06T16:42:30Z</time>
      </trkpt>
      <trkpt lat="45.06005" lon="4.8279">
        <ele>255.9109954834</ele>
        <time>2011-04-06T16:42:31Z</time>
      </trkpt>
      <trkpt lat="45.05984" lon="4.82836">
        <ele>252.87399291992</ele>
        <time>2011-04-06T16:42:34Z</time>
      </trkpt>
      <trkpt lat="45.05952" lon="4.82876">
        <ele>248.78300476074</ele>
        <time>2011-04-06T16:42:37Z</time>
      </trkpt>
      <trkpt lat="45.05938" lon="4.82887">
        <ele>247.48599243164</ele>
        <time>2011-04-06T16:42:38Z</time>
      </trkpt>
      <trkpt lat="45.05874" lon="4.82955">
        <ele>241.16900634766</ele>
        <time>2011-04-06T16:42:43Z</time>
      </trkpt>
      <trkpt lat="45.05833" lon="4.82974">
        <ele>238.02400207519</ele>
        <time>2011-04-06T16:42:46Z</time>
      </trkpt>
      <trkpt lat="45.0582" lon="4.83006">
        <ele>236.53799438477</ele>
        <time>2011-04-06T16:42:49Z</time>
      </trkpt>
      <trkpt lat="45.05833" lon="4.83024">
        <ele>235.02900695801</ele>
        <time>2011-04-06T16:42:51Z</time>
      </trkpt>
      <trkpt lat="45.05848" lon="4.83046">
        <ele>233.64399719238</ele>
        <time>2011-04-06T16:42:53Z</time>
      </trkpt>
      <trkpt lat="45.05883" lon="4.8308">
        <ele>228.94799804688</ele>
        <time>2011-04-06T16:42:57Z</time>
      </trkpt>
      <trkpt lat="45.05919" lon="4.83098">
        <ele>225.79299926758</ele>
        <time>2011-04-06T16:43:00Z</time>
      </trkpt>
      <trkpt lat="45.05932" lon="4.83097">
        <ele>224.30599975586</ele>
        <time>2011-04-06T16:43:01Z</time>
      </trkpt>
      <trkpt lat="45.05972" lon="4.83102">
        <ele>221.18600463867</ele>
        <time>2011-04-06T16:43:04Z</time>
      </trkpt>
      <trkpt lat="45.06012" lon="4.83098">
        <ele>217.95500183106</ele>
        <time>2011-04-06T16:43:07Z</time>
      </trkpt>
      <trkpt lat="45.06042" lon="4.83115">
        <ele>215.23199462891</ele>
        <time>2011-04-06T16:43:10Z</time>
      </trkpt>
      <trkpt lat="45.06053" lon="4.83142">
        <ele>213.31300354004</ele>
        <time>2011-04-06T16:43:12Z</time>
      </trkpt>
      <trkpt lat="45.06075" lon="4.83152">
        <ele>210.89399719238</ele>
        <time>2011-04-06T16:43:14Z</time>
      </trkpt>
      <trkpt lat="45.06113" lon="4.83174">
        <ele>208.04299926758</ele>
        <time>2011-04-06T16:43:17Z</time>
      </trkpt>
      <trkpt lat="45.06152" lon="4.83186">
        <ele>203.26300048828</ele>
        <time>2011-04-06T16:43:20Z</time>
      </trkpt>
      <trkpt lat="45.0619" lon="4.83187">
        <ele>200.40100097656</ele>
        <time>2011-04-06T16:43:23Z</time>
      </trkpt>
      <trkpt lat="45.06245" lon="4.83209">
        <ele>195.62899780273</ele>
        <time>2011-04-06T16:43:27Z</time>
      </trkpt>
      <trkpt lat="45.06289" lon="4.83196">
        <ele>191.82499694824</ele>
        <time>2011-04-06T16:43:30Z</time>
      </trkpt>
      <trkpt lat="45.06367" lon="4.83185">
        <ele>185.11700439453</ele>
        <time>2011-04-06T16:43:35Z</time>
      </trkpt>
      <trkpt lat="45.06464" lon="4.83172">
        <ele>176.80999755859</ele>
        <time>2011-04-06T16:43:41Z</time>
      </trkpt>
      <trkpt lat="45.0653" lon="4.8315">
        <ele>171.29200744629</ele>
        <time>2011-04-06T16:43:45Z</time>
      </trkpt>
      <trkpt lat="45.06591" lon="4.83137">
        <ele>166.91299438477</ele>
        <time>2011-04-06T16:43:49Z</time>
      </trkpt>
      <trkpt lat="45.06609" lon="4.83133">
        <ele>164.96299743652</ele>
        <time>2011-04-06T16:43:51Z</time>
      </trkpt>
      <trkpt lat="45.06618" lon="4.83138">
        <ele>164.19599914551</ele>
        <time>2011-04-06T16:43:53Z</time>
      </trkpt>
      <trkpt lat="45.06617" lon="4.83153">
        <ele>162.92700195312</ele>
        <time>2011-04-06T16:43:55Z</time>
      </trkpt>
      <trkpt lat="45.06598" lon="4.83176">
        <ele>160.37199401856</ele>
        <time>2011-04-06T16:43:58Z</time>
      </trkpt>
      <trkpt lat="45.06561" lon="4.83209">
        <ele>157.48899841309</ele>
        <time>2011-04-06T16:44:02Z</time>
      </trkpt>
      <trkpt lat="45.06552" lon="4.83217">
        <ele>156.96099853516</ele>
        <time>2011-04-06T16:44:03Z</time>
      </trkpt>
      <trkpt lat="45.06532" lon="4.83247">
        <ele>155.97399902344</ele>
        <time>2011-04-06T16:44:06Z</time>
      </trkpt>
      <trkpt lat="45.0653" lon="4.8326">
        <ele>155.85699462891</ele>
        <time>2011-04-06T16:44:07Z</time>
      </trkpt>
      <trkpt lat="45.06523" lon="4.83328">
        <ele>152.67700195312</ele>
        <time>2011-04-06T16:44:12Z</time>
      </trkpt>
      <trkpt lat="45.06523" lon="4.83347">
        <ele>151.47500610352</ele>
        <time>2011-04-06T16:44:14Z</time>
      </trkpt>
      <trkpt lat="45.06521" lon="4.83391">
        <ele>148.97099304199</ele>
        <time>2011-04-06T16:44:20Z</time>
      </trkpt>
      <trkpt lat="45.06521" lon="4.83399">
        <ele>148.71200561523</ele>
        <time>2011-04-06T16:44:21Z</time>
      </trkpt>
      <trkpt lat="45.0652" lon="4.83408">
        <ele>148.28199768066</ele>
        <time>2011-04-06T16:44:22Z</time>
      </trkpt>
      <trkpt lat="45.06528" lon="4.83436">
        <ele>147.1369934082</ele>
        <time>2011-04-06T16:44:26Z</time>
      </trkpt>
      <trkpt lat="45.06542" lon="4.83459">
        <ele>145.67399597168</ele>
        <time>2011-04-06T16:44:31Z</time>
      </trkpt>
      <trkpt lat="45.06544" lon="4.83467">
        <ele>145.09899902344</ele>
        <time>2011-04-06T16:44:36Z</time>
      </trkpt>
      <trkpt lat="45.06545" lon="4.83468">
        <ele>145.06199645996</ele>
        <time>2011-04-06T16:44:37Z</time>
      </trkpt>
      <trkpt lat="45.06545" lon="4.83469">
        <ele>144.93499755859</ele>
        <time>2011-04-06T16:44:48Z</time>
      </trkpt>
      <trkpt lat="45.06536" lon="4.83491">
        <ele>143.84399414062</ele>
        <time>2011-04-06T16:45:02Z</time>
      </trkpt>
      <trkpt lat="45.06505" lon="4.8352">
        <ele>143.21200561523</ele>
        <time>2011-04-06T16:45:08Z</time>
      </trkpt>
      <trkpt lat="45.06474" lon="4.83547">
        <ele>142.96200561523</ele>
        <time>2011-04-06T16:45:13Z</time>
      </trkpt>
      <trkpt lat="45.06453" lon="4.83575">
        <ele>142.90600585938</ele>
        <time>2011-04-06T16:45:17Z</time>
      </trkpt>
      <trkpt lat="45.06451" lon="4.83606">
        <ele>142.49499511719</ele>
        <time>2011-04-06T16:45:20Z</time>
      </trkpt>
      <trkpt lat="45.06459" lon="4.83647">
        <ele>142.44700622559</ele>
        <time>2011-04-06T16:45:24Z</time>
      </trkpt>
      <trkpt lat="45.06463" lon="4.83709">
        <ele>142.5359954834</ele>
        <time>2011-04-06T16:45:30Z</time>
      </trkpt>
      <trkpt lat="45.0645" lon="4.83789">
        <ele>141.78999328613</ele>
        <time>2011-04-06T16:45:37Z</time>
      </trkpt>
      <trkpt lat="45.0644" lon="4.83881">
        <ele>141.38299560547</ele>
        <time>2011-04-06T16:45:45Z</time>
      </trkpt>
      <trkpt lat="45.06438" lon="4.83953">
        <ele>142.03399658203</ele>
        <time>2011-04-06T16:45:51Z</time>
      </trkpt>
      <trkpt lat="45.06437" lon="4.84029">
        <ele>140.99499511719</ele>
        <time>2011-04-06T16:45:58Z</time>
      </trkpt>
      <trkpt lat="45.06436" lon="4.8405">
        <ele>141.18600463867</ele>
        <time>2011-04-06T16:46:01Z</time>
      </trkpt>
      <trkpt lat="45.06436" lon="4.84083">
        <ele>141.36799621582</ele>
        <time>2011-04-06T16:46:08Z</time>
      </trkpt>
      <trkpt lat="45.06437" lon="4.84088">
        <ele>141.41700744629</ele>
        <time>2011-04-06T16:46:13Z</time>
      </trkpt>
      <trkpt lat="45.0644" lon="4.84091">
        <ele>141.30900573731</ele>
        <time>2011-04-06T16:46:28Z</time>
      </trkpt>
      <trkpt lat="45.06441" lon="4.84093">
        <ele>141.34300231934</ele>
        <time>2011-04-06T16:46:29Z</time>
      </trkpt>
      <trkpt lat="45.06453" lon="4.84091">
        <ele>141.52000427246</ele>
        <time>2011-04-06T16:46:33Z</time>
      </trkpt>
      <trkpt lat="45.06456" lon="4.84088">
        <ele>141.52400207519</ele>
        <time>2011-04-06T16:46:34Z</time>
      </trkpt>
      <trkpt lat="45.06493" lon="4.84054">
        <ele>142.18899536133</ele>
        <time>2011-04-06T16:46:43Z</time>
      </trkpt>
      <trkpt lat="45.06516" lon="4.84036">
        <ele>143.41499328613</ele>
        <time>2011-04-06T16:46:48Z</time>
      </trkpt>
      <trkpt lat="45.06524" lon="4.8403">
        <ele>143.91200256348</ele>
        <time>2011-04-06T16:46:50Z</time>
      </trkpt>
      <trkpt lat="45.06546" lon="4.84024">
        <ele>144.60299682617</ele>
        <time>2011-04-06T16:46:55Z</time>
      </trkpt>
      <trkpt lat="45.06556" lon="4.8402">
        <ele>144.80000305176</ele>
        <time>2011-04-06T16:46:57Z</time>
      </trkpt>
      <trkpt lat="45.06576" lon="4.84024">
        <ele>145.50300598144</ele>
        <time>2011-04-06T16:47:01Z</time>
      </trkpt>
      <trkpt lat="45.0662" lon="4.84051">
        <ele>146.44700622559</ele>
        <time>2011-04-06T16:47:11Z</time>
      </trkpt>
      <trkpt lat="45.06651" lon="4.8407">
        <ele>147.3450012207</ele>
        <time>2011-04-06T16:47:17Z</time>
      </trkpt>
      <trkpt lat="45.06706" lon="4.84104">
        <ele>147.31900024414</ele>
        <time>2011-04-06T16:47:27Z</time>
      </trkpt>
      <trkpt lat="45.06761" lon="4.84137">
        <ele>146.24000549316</ele>
        <time>2011-04-06T16:47:36Z</time>
      </trkpt>
      <trkpt lat="45.06809" lon="4.84167">
        <ele>144.06199645996</ele>
        <time>2011-04-06T16:47:43Z</time>
      </trkpt>
      <trkpt lat="45.06858" lon="4.84197">
        <ele>143.08399963379</ele>
        <time>2011-04-06T16:47:50Z</time>
      </trkpt>
      <trkpt lat="45.06884" lon="4.84213">
        <ele>142.08099365234</ele>
        <time>2011-04-06T16:47:54Z</time>
      </trkpt>
      <trkpt lat="45.06898" lon="4.84249">
        <ele>141.29100036621</ele>
        <time>2011-04-06T16:47:58Z</time>
      </trkpt>
      <trkpt lat="45.06894" lon="4.8428">
        <ele>140.9049987793</ele>
        <time>2011-04-06T16:48:01Z</time>
      </trkpt>
      <trkpt lat="45.06879" lon="4.84334">
        <ele>140.89500427246</ele>
        <time>2011-04-06T16:48:08Z</time>
      </trkpt>
      <trkpt lat="45.06876" lon="4.8435">
        <ele>140.91900634766</ele>
        <time>2011-04-06T16:48:12Z</time>
      </trkpt>
      <trkpt lat="45.06875" lon="4.8435">
        <ele>140.72799682617</ele>
        <time>2011-04-06T16:48:14Z</time>
      </trkpt>
      <trkpt lat="45.06887" lon="4.84358">
        <ele>140.60699462891</ele>
        <time>2011-04-06T16:48:35Z</time>
      </trkpt>
      <trkpt lat="45.06897" lon="4.84358">
        <ele>140.32200622559</ele>
        <time>2011-04-06T16:48:37Z</time>
      </trkpt>
      <trkpt lat="45.06932" lon="4.84354">
        <ele>140.81900024414</ele>
        <time>2011-04-06T16:48:43Z</time>
      </trkpt>
      <trkpt lat="45.06973" lon="4.8435">
        <ele>140.92700195312</ele>
        <time>2011-04-06T16:48:50Z</time>
      </trkpt>
      <trkpt lat="45.07021" lon="4.84346">
        <ele>141.51899719238</ele>
        <time>2011-04-06T16:48:58Z</time>
      </trkpt>
      <trkpt lat="45.07037" lon="4.84361">
        <ele>141.34800720215</ele>
        <time>2011-04-06T16:49:01Z</time>
      </trkpt>
      <trkpt lat="45.0704" lon="4.84381">
        <ele>141.16200256348</ele>
        <time>2011-04-06T16:49:03Z</time>
      </trkpt>
      <trkpt lat="45.07031" lon="4.84471">
        <ele>140.29899597168</ele>
        <time>2011-04-06T16:49:13Z</time>
      </trkpt>
      <trkpt lat="45.07025" lon="4.84536">
        <ele>141.22700500488</ele>
        <time>2011-04-06T16:49:21Z</time>
      </trkpt>
      <trkpt lat="45.07021" lon="4.8459">
        <ele>141.45899963379</ele>
        <time>2011-04-06T16:49:28Z</time>
      </trkpt>
      <trkpt lat="45.07021" lon="4.84598">
        <ele>141.49200439453</ele>
        <time>2011-04-06T16:49:29Z</time>
      </trkpt>
      <trkpt lat="45.0703" lon="4.84654">
        <ele>141.8390045166</ele>
        <time>2011-04-06T16:49:36Z</time>
      </trkpt>
      <trkpt lat="45.07046" lon="4.84729">
        <ele>142.47900390625</ele>
        <time>2011-04-06T16:49:45Z</time>
      </trkpt>
      <trkpt lat="45.07051" lon="4.84784">
        <ele>142.18899536133</ele>
        <time>2011-04-06T16:49:51Z</time>
      </trkpt>
      <trkpt lat="45.07059" lon="4.84842">
        <ele>141.59399414062</ele>
        <time>2011-04-06T16:49:57Z</time>
      </trkpt>
      <trkpt lat="45.07072" lon="4.84901">
        <ele>138.83700561523</ele>
        <time>2011-04-06T16:50:02Z</time>
      </trkpt>
      <trkpt lat="45.07087" lon="4.84962">
        <ele>139.01499938965</ele>
        <time>2011-04-06T16:50:07Z</time>
      </trkpt>
      <trkpt lat="45.07088" lon="4.85007">
        <ele>139.58399963379</ele>
        <time>2011-04-06T16:50:11Z</time>
      </trkpt>
      <trkpt lat="45.0708" lon="4.85081">
        <ele>142.06700134277</ele>
        <time>2011-04-06T16:50:19Z</time>
      </trkpt>
      <trkpt lat="45.07084" lon="4.85142">
        <ele>142.28199768066</ele>
        <time>2011-04-06T16:50:25Z</time>
      </trkpt>
      <trkpt lat="45.07092" lon="4.85247">
        <ele>142.93899536133</ele>
        <time>2011-04-06T16:50:35Z</time>
      </trkpt>
      <trkpt lat="45.07095" lon="4.85341">
        <ele>143.60000610352</ele>
        <time>2011-04-06T16:50:44Z</time>
      </trkpt>
      <trkpt lat="45.07098" lon="4.85444">
        <ele>144.27299499512</ele>
        <time>2011-04-06T16:50:54Z</time>
      </trkpt>
      <trkpt lat="45.071" lon="4.85544">
        <ele>144.98199462891</ele>
        <time>2011-04-06T16:51:04Z</time>
      </trkpt>
      <trkpt lat="45.07093" lon="4.85642">
        <ele>145.66700744629</ele>
        <time>2011-04-06T16:51:14Z</time>
      </trkpt>
      <trkpt lat="45.07091" lon="4.85735">
        <ele>147.07299804688</ele>
        <time>2011-04-06T16:51:24Z</time>
      </trkpt>
      <trkpt lat="45.07087" lon="4.85792">
        <ele>148.3869934082</ele>
        <time>2011-04-06T16:51:31Z</time>
      </trkpt>
      <trkpt lat="45.07085" lon="4.85807">
        <ele>148.79800415039</ele>
        <time>2011-04-06T16:51:33Z</time>
      </trkpt>
      <trkpt lat="45.07082" lon="4.8582">
        <ele>149.43499755859</ele>
        <time>2011-04-06T16:51:35Z</time>
      </trkpt>
      <trkpt lat="45.07081" lon="4.85851">
        <ele>150.32200622559</ele>
        <time>2011-04-06T16:51:39Z</time>
      </trkpt>
      <trkpt lat="45.07071" lon="4.85924">
        <ele>149.52400207519</ele>
        <time>2011-04-06T16:51:46Z</time>
      </trkpt>
      <trkpt lat="45.07069" lon="4.85989">
        <ele>149.3869934082</ele>
        <time>2011-04-06T16:51:52Z</time>
      </trkpt>
      <trkpt lat="45.07072" lon="4.86083">
        <ele>149.36399841309</ele>
        <time>2011-04-06T16:52:01Z</time>
      </trkpt>
      <trkpt lat="45.07078" lon="4.8617">
        <ele>149.98100280762</ele>
        <time>2011-04-06T16:52:09Z</time>
      </trkpt>
      <trkpt lat="45.07077" lon="4.8623">
        <ele>149.78700256348</ele>
        <time>2011-04-06T16:52:15Z</time>
      </trkpt>
      <trkpt lat="45.07072" lon="4.8627">
        <ele>150.19500732422</ele>
        <time>2011-04-06T16:52:19Z</time>
      </trkpt>
      <trkpt lat="45.07051" lon="4.86324">
        <ele>150.41299438477</ele>
        <time>2011-04-06T16:52:25Z</time>
      </trkpt>
      <trkpt lat="45.07029" lon="4.86376">
        <ele>150.76400756836</ele>
        <time>2011-04-06T16:52:31Z</time>
      </trkpt>
      <trkpt lat="45.07014" lon="4.86397">
        <ele>150.93800354004</ele>
        <time>2011-04-06T16:52:34Z</time>
      </trkpt>
      <trkpt lat="45.06998" lon="4.86431">
        <ele>150.97500610352</ele>
        <time>2011-04-06T16:52:38Z</time>
      </trkpt>
      <trkpt lat="45.07" lon="4.8646">
        <ele>151.30999755859</ele>
        <time>2011-04-06T16:52:41Z</time>
      </trkpt>
      <trkpt lat="45.07015" lon="4.86483">
        <ele>151.31700134277</ele>
        <time>2011-04-06T16:52:44Z</time>
      </trkpt>
      <trkpt lat="45.07037" lon="4.86491">
        <ele>151.24000549316</ele>
        <time>2011-04-06T16:52:47Z</time>
      </trkpt>
      <trkpt lat="45.07059" lon="4.86491">
        <ele>151.14300537109</ele>
        <time>2011-04-06T16:52:50Z</time>
      </trkpt>
      <trkpt lat="45.07078" lon="4.86509">
        <ele>150.72599792481</ele>
        <time>2011-04-06T16:52:53Z</time>
      </trkpt>
      <trkpt lat="45.07093" lon="4.86544">
        <ele>151.61000061035</ele>
        <time>2011-04-06T16:52:57Z</time>
      </trkpt>
      <trkpt lat="45.07095" lon="4.86584">
        <ele>152.62600708008</ele>
        <time>2011-04-06T16:53:01Z</time>
      </trkpt>
      <trkpt lat="45.07085" lon="4.8662">
        <ele>153.94200134277</ele>
        <time>2011-04-06T16:53:05Z</time>
      </trkpt>
      <trkpt lat="45.07057" lon="4.86673">
        <ele>156.09300231934</ele>
        <time>2011-04-06T16:53:12Z</time>
      </trkpt>
      <trkpt lat="45.07039" lon="4.86716">
        <ele>157.40699768066</ele>
        <time>2011-04-06T16:53:18Z</time>
      </trkpt>
      <trkpt lat="45.07037" lon="4.86723">
        <ele>157.72900390625</ele>
        <time>2011-04-06T16:53:19Z</time>
      </trkpt>
      <trkpt lat="45.0703" lon="4.86763">
        <ele>158.52099609375</ele>
        <time>2011-04-06T16:53:24Z</time>
      </trkpt>
      <trkpt lat="45.07026" lon="4.86811">
        <ele>159.51300048828</ele>
        <time>2011-04-06T16:53:30Z</time>
      </trkpt>
      <trkpt lat="45.07021" lon="4.86868">
        <ele>161.28799438477</ele>
        <time>2011-04-06T16:53:37Z</time>
      </trkpt>
      <trkpt lat="45.07008" lon="4.86931">
        <ele>161.63800048828</ele>
        <time>2011-04-06T16:53:45Z</time>
      </trkpt>
      <trkpt lat="45.06989" lon="4.87009">
        <ele>162.16000366211</ele>
        <time>2011-04-06T16:53:54Z</time>
      </trkpt>
      <trkpt lat="45.06968" lon="4.87062">
        <ele>161.91299438477</ele>
        <time>2011-04-06T16:54:00Z</time>
      </trkpt>
      <trkpt lat="45.06941" lon="4.87112">
        <ele>162.12300109863</ele>
        <time>2011-04-06T16:54:06Z</time>
      </trkpt>
      <trkpt lat="45.06899" lon="4.87195">
        <ele>162.39300537109</ele>
        <time>2011-04-06T16:54:16Z</time>
      </trkpt>
      <trkpt lat="45.06877" lon="4.87262">
        <ele>162.42500305176</ele>
        <time>2011-04-06T16:54:23Z</time>
      </trkpt>
      <trkpt lat="45.0686" lon="4.87342">
        <ele>162.55799865723</ele>
        <time>2011-04-06T16:54:31Z</time>
      </trkpt>
      <trkpt lat="45.06851" lon="4.87425">
        <ele>162.68200683594</ele>
        <time>2011-04-06T16:54:39Z</time>
      </trkpt>
      <trkpt lat="45.06852" lon="4.87455">
        <ele>162.64599609375</ele>
        <time>2011-04-06T16:54:42Z</time>
      </trkpt>
      <trkpt lat="45.06848" lon="4.87485">
        <ele>163.07699584961</ele>
        <time>2011-04-06T16:54:46Z</time>
      </trkpt>
      <trkpt lat="45.06853" lon="4.87509">
        <ele>162.91299438477</ele>
        <time>2011-04-06T16:54:50Z</time>
      </trkpt>
      <trkpt lat="45.0687" lon="4.8751">
        <ele>162.98199462891</ele>
        <time>2011-04-06T16:54:53Z</time>
      </trkpt>
      <trkpt lat="45.06893" lon="4.87506">
        <ele>162.82099914551</ele>
        <time>2011-04-06T16:54:57Z</time>
      </trkpt>
      <trkpt lat="45.06913" lon="4.87524">
        <ele>163.38800048828</ele>
        <time>2011-04-06T16:55:01Z</time>
      </trkpt>
      <trkpt lat="45.06917" lon="4.8753">
        <ele>163.41400146484</ele>
        <time>2011-04-06T16:55:02Z</time>
      </trkpt>
      <trkpt lat="45.06951" lon="4.87589">
        <ele>164.81300354004</ele>
        <time>2011-04-06T16:55:11Z</time>
      </trkpt>
      <trkpt lat="45.06969" lon="4.87641">
        <ele>165.72200012207</ele>
        <time>2011-04-06T16:55:18Z</time>
      </trkpt>
      <trkpt lat="45.06986" lon="4.87704">
        <ele>166.84899902344</ele>
        <time>2011-04-06T16:55:26Z</time>
      </trkpt>
      <trkpt lat="45.07006" lon="4.87776">
        <ele>167.75199890137</ele>
        <time>2011-04-06T16:55:35Z</time>
      </trkpt>
      <trkpt lat="45.07023" lon="4.87837">
        <ele>167.99000549316</ele>
        <time>2011-04-06T16:55:42Z</time>
      </trkpt>
      <trkpt lat="45.07045" lon="4.87913">
        <ele>168.72599792481</ele>
        <time>2011-04-06T16:55:51Z</time>
      </trkpt>
      <trkpt lat="45.07068" lon="4.87983">
        <ele>168.46499633789</ele>
        <time>2011-04-06T16:55:59Z</time>
      </trkpt>
      <trkpt lat="45.07097" lon="4.88062">
        <ele>168.34399414062</ele>
        <time>2011-04-06T16:56:08Z</time>
      </trkpt>
      <trkpt lat="45.07123" lon="4.88116">
        <ele>168.71000671387</ele>
        <time>2011-04-06T16:56:15Z</time>
      </trkpt>
      <trkpt lat="45.07158" lon="4.88176">
        <ele>169.51600646973</ele>
        <time>2011-04-06T16:56:24Z</time>
      </trkpt>
      <trkpt lat="45.07194" lon="4.88237">
        <ele>170.38299560547</ele>
        <time>2011-04-06T16:56:33Z</time>
      </trkpt>
      <trkpt lat="45.07234" lon="4.88303">
        <ele>171.80299377441</ele>
        <time>2011-04-06T16:56:43Z</time>
      </trkpt>
      <trkpt lat="45.07265" lon="4.88355">
        <ele>172.36099243164</ele>
        <time>2011-04-06T16:56:51Z</time>
      </trkpt>
      <trkpt lat="45.07293" lon="4.88421">
        <ele>173.17199707031</ele>
        <time>2011-04-06T16:57:00Z</time>
      </trkpt>
      <trkpt lat="45.07314" lon="4.88483">
        <ele>173.84700012207</ele>
        <time>2011-04-06T16:57:08Z</time>
      </trkpt>
      <trkpt lat="45.0734" lon="4.8856">
        <ele>174.80799865723</ele>
        <time>2011-04-06T16:57:18Z</time>
      </trkpt>
      <trkpt lat="45.07361" lon="4.8864">
        <ele>175.73399353027</ele>
        <time>2011-04-06T16:57:28Z</time>
      </trkpt>
      <trkpt lat="45.07367" lon="4.88697">
        <ele>176.49299621582</ele>
        <time>2011-04-06T16:57:35Z</time>
      </trkpt>
      <trkpt lat="45.07376" lon="4.8877">
        <ele>177.66200256348</ele>
        <time>2011-04-06T16:57:44Z</time>
      </trkpt>
      <trkpt lat="45.07389" lon="4.88841">
        <ele>178.26400756836</ele>
        <time>2011-04-06T16:57:53Z</time>
      </trkpt>
      <trkpt lat="45.07407" lon="4.88892">
        <ele>179.32800292969</ele>
        <time>2011-04-06T16:58:00Z</time>
      </trkpt>
      <trkpt lat="45.07431" lon="4.88928">
        <ele>179.875</ele>
        <time>2011-04-06T16:58:06Z</time>
      </trkpt>
      <trkpt lat="45.07467" lon="4.88947">
        <ele>180.8809967041</ele>
        <time>2011-04-06T16:58:13Z</time>
      </trkpt>
      <trkpt lat="45.07504" lon="4.88964">
        <ele>181.16400146484</ele>
        <time>2011-04-06T16:58:20Z</time>
      </trkpt>
      <trkpt lat="45.07513" lon="4.88968">
        <ele>181.4109954834</ele>
        <time>2011-04-06T16:58:22Z</time>
      </trkpt>
      <trkpt lat="45.07528" lon="4.88972">
        <ele>181.50799560547</ele>
        <time>2011-04-06T16:58:25Z</time>
      </trkpt>
      <trkpt lat="45.07554" lon="4.88987">
        <ele>182.17399597168</ele>
        <time>2011-04-06T16:58:30Z</time>
      </trkpt>
      <trkpt lat="45.07558" lon="4.8899">
        <ele>182.57499694824</ele>
        <time>2011-04-06T16:58:31Z</time>
      </trkpt>
      <trkpt lat="45.07573" lon="4.89007">
        <ele>183.17100524902</ele>
        <time>2011-04-06T16:58:35Z</time>
      </trkpt>
      <trkpt lat="45.07595" lon="4.89047">
        <ele>184.54600524902</ele>
        <time>2011-04-06T16:58:43Z</time>
      </trkpt>
      <trkpt lat="45.076" lon="4.89057">
        <ele>184.95300292969</ele>
        <time>2011-04-06T16:58:45Z</time>
      </trkpt>
      <trkpt lat="45.07621" lon="4.89083">
        <ele>186.34700012207</ele>
        <time>2011-04-06T16:58:52Z</time>
      </trkpt>
      <trkpt lat="45.07647" lon="4.89109">
        <ele>187.09700012207</ele>
        <time>2011-04-06T16:58:59Z</time>
      </trkpt>
      <trkpt lat="45.07667" lon="4.89127">
        <ele>188.33999633789</ele>
        <time>2011-04-06T16:59:05Z</time>
      </trkpt>
      <trkpt lat="45.07687" lon="4.89143">
        <ele>190.07299804688</ele>
        <time>2011-04-06T16:59:11Z</time>
      </trkpt>
      <trkpt lat="45.07697" lon="4.89154">
        <ele>191.09399414062</ele>
        <time>2011-04-06T16:59:15Z</time>
      </trkpt>
      <trkpt lat="45.07711" lon="4.89164">
        <ele>192.07800292969</ele>
        <time>2011-04-06T16:59:20Z</time>
      </trkpt>
      <trkpt lat="45.07721" lon="4.89165">
        <ele>192.25999450684</ele>
        <time>2011-04-06T16:59:23Z</time>
      </trkpt>
      <trkpt lat="45.07745" lon="4.89172">
        <ele>192.53700256348</ele>
        <time>2011-04-06T16:59:29Z</time>
      </trkpt>
      <trkpt lat="45.07757" lon="4.89178">
        <ele>192.99099731445</ele>
        <time>2011-04-06T16:59:33Z</time>
      </trkpt>
      <trkpt lat="45.07767" lon="4.89184">
        <ele>193.16900634766</ele>
        <time>2011-04-06T16:59:39Z</time>
      </trkpt>
      <trkpt lat="45.07772" lon="4.89189">
        <ele>193.41600036621</ele>
        <time>2011-04-06T16:59:44Z</time>
      </trkpt>
      <trkpt lat="45.0778" lon="4.89196">
        <ele>193.30700683594</ele>
        <time>2011-04-06T16:59:51Z</time>
      </trkpt>
      <trkpt lat="45.07788" lon="4.89203">
        <ele>193.25100708008</ele>
        <time>2011-04-06T16:59:57Z</time>
      </trkpt>
      <trkpt lat="45.07796" lon="4.89211">
        <ele>193.00700378418</ele>
        <time>2011-04-06T17:00:05Z</time>
      </trkpt>
      <trkpt lat="45.07801" lon="4.89219">
        <ele>192.97200012207</ele>
        <time>2011-04-06T17:00:12Z</time>
      </trkpt>
      <trkpt lat="45.07807" lon="4.89226">
        <ele>192.96600341797</ele>
        <time>2011-04-06T17:00:18Z</time>
      </trkpt>
      <trkpt lat="45.07815" lon="4.8924">
        <ele>192.94200134277</ele>
        <time>2011-04-06T17:00:25Z</time>
      </trkpt>
      <trkpt lat="45.0782" lon="4.8925">
        <ele>192.80000305176</ele>
        <time>2011-04-06T17:00:30Z</time>
      </trkpt>
      <trkpt lat="45.07828" lon="4.89265">
        <ele>192.50799560547</ele>
        <time>2011-04-06T17:00:35Z</time>
      </trkpt>
      <trkpt lat="45.07838" lon="4.8929">
        <ele>192.79200744629</ele>
        <time>2011-04-06T17:00:40Z</time>
      </trkpt>
      <trkpt lat="45.07853" lon="4.89328">
        <ele>193.03799438477</ele>
        <time>2011-04-06T17:00:47Z</time>
      </trkpt>
      <trkpt lat="45.07867" lon="4.89377">
        <ele>192.80400085449</ele>
        <time>2011-04-06T17:00:54Z</time>
      </trkpt>
      <trkpt lat="45.07881" lon="4.89426">
        <ele>192.5359954834</ele>
        <time>2011-04-06T17:01:00Z</time>
      </trkpt>
      <trkpt lat="45.07888" lon="4.8949">
        <ele>192.36199951172</ele>
        <time>2011-04-06T17:01:07Z</time>
      </trkpt>
      <trkpt lat="45.0789" lon="4.89568">
        <ele>191.98300170898</ele>
        <time>2011-04-06T17:01:15Z</time>
      </trkpt>
      <trkpt lat="45.07886" lon="4.89631">
        <ele>191.71899414062</ele>
        <time>2011-04-06T17:01:22Z</time>
      </trkpt>
      <trkpt lat="45.07879" lon="4.89687">
        <ele>192.50300598144</ele>
        <time>2011-04-06T17:01:29Z</time>
      </trkpt>
      <trkpt lat="45.07878" lon="4.89744">
        <ele>193.08700561523</ele>
        <time>2011-04-06T17:01:36Z</time>
      </trkpt>
      <trkpt lat="45.07866" lon="4.89788">
        <ele>193.45500183106</ele>
        <time>2011-04-06T17:01:42Z</time>
      </trkpt>
      <trkpt lat="45.07863" lon="4.89794">
        <ele>193.58599853516</ele>
        <time>2011-04-06T17:01:43Z</time>
      </trkpt>
      <trkpt lat="45.07816" lon="4.89875">
        <ele>194.91499328613</ele>
        <time>2011-04-06T17:01:56Z</time>
      </trkpt>
      <trkpt lat="45.0778" lon="4.89937">
        <ele>196.11199951172</ele>
        <time>2011-04-06T17:02:06Z</time>
      </trkpt>
      <trkpt lat="45.07753" lon="4.89985">
        <ele>197.32899475098</ele>
        <time>2011-04-06T17:02:14Z</time>
      </trkpt>
      <trkpt lat="45.0774" lon="4.90026">
        <ele>198.25100708008</ele>
        <time>2011-04-06T17:02:20Z</time>
      </trkpt>
      <trkpt lat="45.07723" lon="4.90101">
        <ele>199.42300415039</ele>
        <time>2011-04-06T17:02:30Z</time>
      </trkpt>
      <trkpt lat="45.0772" lon="4.90155">
        <ele>200.35400390625</ele>
        <time>2011-04-06T17:02:37Z</time>
      </trkpt>
      <trkpt lat="45.07719" lon="4.90226">
        <ele>201.69999694824</ele>
        <time>2011-04-06T17:02:47Z</time>
      </trkpt>
      <trkpt lat="45.07717" lon="4.90274">
        <ele>202.34599304199</ele>
        <time>2011-04-06T17:02:54Z</time>
      </trkpt>
      <trkpt lat="45.07714" lon="4.90324">
        <ele>203.74899291992</ele>
        <time>2011-04-06T17:03:01Z</time>
      </trkpt>
      <trkpt lat="45.07703" lon="4.90387">
        <ele>205.48399353027</ele>
        <time>2011-04-06T17:03:10Z</time>
      </trkpt>
      <trkpt lat="45.07685" lon="4.90433">
        <ele>207.15199279785</ele>
        <time>2011-04-06T17:03:18Z</time>
      </trkpt>
      <trkpt lat="45.07667" lon="4.90473">
        <ele>208.80400085449</ele>
        <time>2011-04-06T17:03:26Z</time>
      </trkpt>
      <trkpt lat="45.07653" lon="4.90502">
        <ele>210.58299255371</ele>
        <time>2011-04-06T17:03:32Z</time>
      </trkpt>
      <trkpt lat="45.07645" lon="4.90517">
        <ele>211.29699707031</ele>
        <time>2011-04-06T17:03:35Z</time>
      </trkpt>
      <trkpt lat="45.07632" lon="4.90551">
        <ele>213.09199523926</ele>
        <time>2011-04-06T17:03:41Z</time>
      </trkpt>
      <trkpt lat="45.07624" lon="4.90587">
        <ele>214.82699584961</ele>
        <time>2011-04-06T17:03:48Z</time>
      </trkpt>
      <trkpt lat="45.07621" lon="4.90623">
        <ele>215.95799255371</ele>
        <time>2011-04-06T17:03:55Z</time>
      </trkpt>
      <trkpt lat="45.07617" lon="4.90674">
        <ele>217.56700134277</ele>
        <time>2011-04-06T17:04:05Z</time>
      </trkpt>
      <trkpt lat="45.07616" lon="4.90707">
        <ele>218.29400634766</ele>
        <time>2011-04-06T17:04:11Z</time>
      </trkpt>
      <trkpt lat="45.07624" lon="4.90761">
        <ele>218.72399902344</ele>
        <time>2011-04-06T17:04:20Z</time>
      </trkpt>
      <trkpt lat="45.07638" lon="4.90802">
        <ele>219.22099304199</ele>
        <time>2011-04-06T17:04:27Z</time>
      </trkpt>
      <trkpt lat="45.07658" lon="4.9086">
        <ele>220.48199462891</ele>
        <time>2011-04-06T17:04:36Z</time>
      </trkpt>
      <trkpt lat="45.07684" lon="4.9093">
        <ele>221.68499755859</ele>
        <time>2011-04-06T17:04:47Z</time>
      </trkpt>
      <trkpt lat="45.0771" lon="4.90978">
        <ele>222.52299499512</ele>
        <time>2011-04-06T17:04:55Z</time>
      </trkpt>
      <trkpt lat="45.07743" lon="4.91027">
        <ele>223.50700378418</ele>
        <time>2011-04-06T17:05:04Z</time>
      </trkpt>
      <trkpt lat="45.0777" lon="4.91066">
        <ele>224.18800354004</ele>
        <time>2011-04-06T17:05:11Z</time>
      </trkpt>
      <trkpt lat="45.07802" lon="4.91111">
        <ele>225.16900634766</ele>
        <time>2011-04-06T17:05:19Z</time>
      </trkpt>
      <trkpt lat="45.07835" lon="4.91143">
        <ele>225.92900085449</ele>
        <time>2011-04-06T17:05:26Z</time>
      </trkpt>
      <trkpt lat="45.07872" lon="4.91186">
        <ele>226.92399597168</ele>
        <time>2011-04-06T17:05:35Z</time>
      </trkpt>
      <trkpt lat="45.07901" lon="4.91231">
        <ele>228.80799865723</ele>
        <time>2011-04-06T17:05:44Z</time>
      </trkpt>
      <trkpt lat="45.07926" lon="4.91275">
        <ele>230.17999267578</ele>
        <time>2011-04-06T17:05:53Z</time>
      </trkpt>
      <trkpt lat="45.07957" lon="4.91327">
        <ele>232.20100402832</ele>
        <time>2011-04-06T17:06:03Z</time>
      </trkpt>
      <trkpt lat="45.0799" lon="4.91371">
        <ele>233.8630065918</ele>
        <time>2011-04-06T17:06:13Z</time>
      </trkpt>
      <trkpt lat="45.08013" lon="4.91401">
        <ele>235.36399841309</ele>
        <time>2011-04-06T17:06:21Z</time>
      </trkpt>
      <trkpt lat="45.08038" lon="4.91432">
        <ele>236.88200378418</ele>
        <time>2011-04-06T17:06:29Z</time>
      </trkpt>
      <trkpt lat="45.0806" lon="4.91459">
        <ele>238.09100341797</ele>
        <time>2011-04-06T17:06:36Z</time>
      </trkpt>
      <trkpt lat="45.08085" lon="4.91485">
        <ele>240.13000488281</ele>
        <time>2011-04-06T17:06:44Z</time>
      </trkpt>
      <trkpt lat="45.08108" lon="4.91507">
        <ele>241.45399475098</ele>
        <time>2011-04-06T17:06:50Z</time>
      </trkpt>
      <trkpt lat="45.08146" lon="4.91545">
        <ele>244.43800354004</ele>
        <time>2011-04-06T17:06:59Z</time>
      </trkpt>
      <trkpt lat="45.08163" lon="4.91565">
        <ele>245.34199523926</ele>
        <time>2011-04-06T17:07:03Z</time>
      </trkpt>
      <trkpt lat="45.08173" lon="4.91583">
        <ele>246.38400268555</ele>
        <time>2011-04-06T17:07:06Z</time>
      </trkpt>
      <trkpt lat="45.08178" lon="4.91597">
        <ele>247.22700500488</ele>
        <time>2011-04-06T17:07:08Z</time>
      </trkpt>
      <trkpt lat="45.08181" lon="4.91612">
        <ele>248.20700073242</ele>
        <time>2011-04-06T17:07:10Z</time>
      </trkpt>
      <trkpt lat="45.08183" lon="4.91627">
        <ele>248.65600585938</ele>
        <time>2011-04-06T17:07:12Z</time>
      </trkpt>
      <trkpt lat="45.08184" lon="4.91643">
        <ele>249.47399902344</ele>
        <time>2011-04-06T17:07:14Z</time>
      </trkpt>
      <trkpt lat="45.08182" lon="4.91665">
        <ele>250.70599365234</ele>
        <time>2011-04-06T17:07:17Z</time>
      </trkpt>
      <trkpt lat="45.08175" lon="4.91713">
        <ele>253.00700378418</ele>
        <time>2011-04-06T17:07:24Z</time>
      </trkpt>
      <trkpt lat="45.08166" lon="4.91763">
        <ele>254.80599975586</ele>
        <time>2011-04-06T17:07:31Z</time>
      </trkpt>
      <trkpt lat="45.08157" lon="4.91822">
        <ele>257.13900756836</ele>
        <time>2011-04-06T17:07:39Z</time>
      </trkpt>
      <trkpt lat="45.08155" lon="4.91857">
        <ele>258.36801147461</ele>
        <time>2011-04-06T17:07:44Z</time>
      </trkpt>
      <trkpt lat="45.08158" lon="4.91892">
        <ele>259.82400512695</ele>
        <time>2011-04-06T17:07:50Z</time>
      </trkpt>
      <trkpt lat="45.08168" lon="4.91922">
        <ele>260.96301269531</ele>
        <time>2011-04-06T17:07:56Z</time>
      </trkpt>
      <trkpt lat="45.08183" lon="4.91961">
        <ele>261.40301513672</ele>
        <time>2011-04-06T17:08:05Z</time>
      </trkpt>
      <trkpt lat="45.08198" lon="4.91994">
        <ele>260.76901245117</ele>
        <time>2011-04-06T17:08:11Z</time>
      </trkpt>
      <trkpt lat="45.08219" lon="4.92024">
        <ele>259.52499389648</ele>
        <time>2011-04-06T17:08:16Z</time>
      </trkpt>
      <trkpt lat="45.08249" lon="4.92044">
        <ele>258.22399902344</ele>
        <time>2011-04-06T17:08:21Z</time>
      </trkpt>
      <trkpt lat="45.08264" lon="4.92046">
        <ele>257.67199707031</ele>
        <time>2011-04-06T17:08:23Z</time>
      </trkpt>
      <trkpt lat="45.08323" lon="4.92041">
        <ele>255.62899780273</ele>
        <time>2011-04-06T17:08:30Z</time>
      </trkpt>
      <trkpt lat="45.08364" lon="4.92033">
        <ele>255.84800720215</ele>
        <time>2011-04-06T17:08:35Z</time>
      </trkpt>
      <trkpt lat="45.08411" lon="4.92012">
        <ele>256.52499389648</ele>
        <time>2011-04-06T17:08:41Z</time>
      </trkpt>
      <trkpt lat="45.08456" lon="4.91994">
        <ele>257.28399658203</ele>
        <time>2011-04-06T17:08:47Z</time>
      </trkpt>
      <trkpt lat="45.08511" lon="4.9197">
        <ele>257.23699951172</ele>
        <time>2011-04-06T17:08:55Z</time>
      </trkpt>
      <trkpt lat="45.08556" lon="4.91952">
        <ele>255.98199462891</ele>
        <time>2011-04-06T17:09:01Z</time>
      </trkpt>
      <trkpt lat="45.08613" lon="4.91932">
        <ele>253.56900024414</ele>
        <time>2011-04-06T17:09:08Z</time>
      </trkpt>
      <trkpt lat="45.08649" lon="4.91927">
        <ele>251.68800354004</ele>
        <time>2011-04-06T17:09:12Z</time>
      </trkpt>
      <trkpt lat="45.08717" lon="4.91923">
        <ele>248.7559967041</ele>
        <time>2011-04-06T17:09:19Z</time>
      </trkpt>
      <trkpt lat="45.08727" lon="4.91922">
        <ele>248.46800231934</ele>
        <time>2011-04-06T17:09:20Z</time>
      </trkpt>
      <trkpt lat="45.08828" lon="4.91914">
        <ele>245.32800292969</ele>
        <time>2011-04-06T17:09:30Z</time>
      </trkpt>
      <trkpt lat="45.08879" lon="4.9191">
        <ele>243.32099914551</ele>
        <time>2011-04-06T17:09:35Z</time>
      </trkpt>
      <trkpt lat="45.08936" lon="4.91899">
        <ele>241.91200256348</ele>
        <time>2011-04-06T17:09:41Z</time>
      </trkpt>
      <trkpt lat="45.0901" lon="4.91883">
        <ele>239.69099426269</ele>
        <time>2011-04-06T17:09:49Z</time>
      </trkpt>
      <trkpt lat="45.09037" lon="4.91877">
        <ele>238.76899719238</ele>
        <time>2011-04-06T17:09:52Z</time>
      </trkpt>
      <trkpt lat="45.09084" lon="4.91862">
        <ele>236.03399658203</ele>
        <time>2011-04-06T17:09:57Z</time>
      </trkpt>
      <trkpt lat="45.09156" lon="4.91836">
        <ele>232.13299560547</ele>
        <time>2011-04-06T17:10:04Z</time>
      </trkpt>
      <trkpt lat="45.09221" lon="4.91814">
        <ele>227.48599243164</ele>
        <time>2011-04-06T17:10:10Z</time>
      </trkpt>
      <trkpt lat="45.09267" lon="4.91817">
        <ele>223.86399841309</ele>
        <time>2011-04-06T17:10:14Z</time>
      </trkpt>
      <trkpt lat="45.09336" lon="4.91842">
        <ele>220.21499633789</ele>
        <time>2011-04-06T17:10:20Z</time>
      </trkpt>
      <trkpt lat="45.0937" lon="4.91854">
        <ele>218.95500183106</ele>
        <time>2011-04-06T17:10:23Z</time>
      </trkpt>
      <trkpt lat="45.09479" lon="4.91893">
        <ele>213.38400268555</ele>
        <time>2011-04-06T17:10:32Z</time>
      </trkpt>
      <trkpt lat="45.09527" lon="4.919">
        <ele>212.44000244141</ele>
        <time>2011-04-06T17:10:36Z</time>
      </trkpt>
      <trkpt lat="45.09584" lon="4.91891">
        <ele>211.5299987793</ele>
        <time>2011-04-06T17:10:41Z</time>
      </trkpt>
      <trkpt lat="45.09657" lon="4.9188">
        <ele>210.13200378418</ele>
        <time>2011-04-06T17:10:48Z</time>
      </trkpt>
      <trkpt lat="45.0971" lon="4.9187">
        <ele>208.59300231934</ele>
        <time>2011-04-06T17:10:53Z</time>
      </trkpt>
      <trkpt lat="45.09791" lon="4.91855">
        <ele>207.16200256348</ele>
        <time>2011-04-06T17:11:01Z</time>
      </trkpt>
      <trkpt lat="45.0988" lon="4.91838">
        <ele>206.22700500488</ele>
        <time>2011-04-06T17:11:10Z</time>
      </trkpt>
      <trkpt lat="45.09954" lon="4.91823">
        <ele>205.7799987793</ele>
        <time>2011-04-06T17:11:18Z</time>
      </trkpt>
      <trkpt lat="45.10051" lon="4.91805">
        <ele>204.84599304199</ele>
        <time>2011-04-06T17:11:29Z</time>
      </trkpt>
      <trkpt lat="45.10162" lon="4.91787">
        <ele>204.53399658203</ele>
        <time>2011-04-06T17:11:42Z</time>
      </trkpt>
      <trkpt lat="45.10226" lon="4.91778">
        <ele>205.09800720215</ele>
        <time>2011-04-06T17:11:50Z</time>
      </trkpt>
      <trkpt lat="45.10289" lon="4.91771">
        <ele>205.27000427246</ele>
        <time>2011-04-06T17:11:58Z</time>
      </trkpt>
      <trkpt lat="45.10315" lon="4.9179">
        <ele>204.99200439453</ele>
        <time>2011-04-06T17:12:02Z</time>
      </trkpt>
      <trkpt lat="45.10321" lon="4.91811">
        <ele>204.80099487305</ele>
        <time>2011-04-06T17:12:04Z</time>
      </trkpt>
      <trkpt lat="45.10336" lon="4.91904">
        <ele>203.82499694824</ele>
        <time>2011-04-06T17:12:12Z</time>
      </trkpt>
      <trkpt lat="45.10357" lon="4.92022">
        <ele>202.67500305176</ele>
        <time>2011-04-06T17:12:22Z</time>
      </trkpt>
      <trkpt lat="45.10375" lon="4.9213">
        <ele>201.83399963379</ele>
        <time>2011-04-06T17:12:31Z</time>
      </trkpt>
      <trkpt lat="45.10388" lon="4.92204">
        <ele>201.75700378418</ele>
        <time>2011-04-06T17:12:37Z</time>
      </trkpt>
      <trkpt lat="45.10405" lon="4.92304">
        <ele>201.97999572754</ele>
        <time>2011-04-06T17:12:45Z</time>
      </trkpt>
      <trkpt lat="45.10419" lon="4.92386">
        <ele>201.93699645996</ele>
        <time>2011-04-06T17:12:52Z</time>
      </trkpt>
      <trkpt lat="45.10432" lon="4.9246">
        <ele>202.96099853516</ele>
        <time>2011-04-06T17:12:59Z</time>
      </trkpt>
      <trkpt lat="45.10443" lon="4.92526">
        <ele>204.09300231934</ele>
        <time>2011-04-06T17:13:06Z</time>
      </trkpt>
      <trkpt lat="45.10455" lon="4.92599">
        <ele>204.99299621582</ele>
        <time>2011-04-06T17:13:14Z</time>
      </trkpt>
      <trkpt lat="45.10459" lon="4.92623">
        <ele>205.43200683594</ele>
        <time>2011-04-06T17:13:17Z</time>
      </trkpt>
      <trkpt lat="45.10471" lon="4.9268">
        <ele>204.78900146484</ele>
        <time>2011-04-06T17:13:24Z</time>
      </trkpt>
      <trkpt lat="45.1048" lon="4.92728">
        <ele>204.85899353027</ele>
        <time>2011-04-06T17:13:30Z</time>
      </trkpt>
      <trkpt lat="45.10492" lon="4.9278">
        <ele>205.53300476074</ele>
        <time>2011-04-06T17:13:37Z</time>
      </trkpt>
      <trkpt lat="45.105" lon="4.92828">
        <ele>205.65600585938</ele>
        <time>2011-04-06T17:13:43Z</time>
      </trkpt>
      <trkpt lat="45.1051" lon="4.92881">
        <ele>205.52000427246</ele>
        <time>2011-04-06T17:13:49Z</time>
      </trkpt>
      <trkpt lat="45.1052" lon="4.92931">
        <ele>205.49899291992</ele>
        <time>2011-04-06T17:13:55Z</time>
      </trkpt>
      <trkpt lat="45.10533" lon="4.92993">
        <ele>206.28399658203</ele>
        <time>2011-04-06T17:14:02Z</time>
      </trkpt>
      <trkpt lat="45.10548" lon="4.93069">
        <ele>206.58799743652</ele>
        <time>2011-04-06T17:14:11Z</time>
      </trkpt>
      <trkpt lat="45.10556" lon="4.93114">
        <ele>206.51899719238</ele>
        <time>2011-04-06T17:14:17Z</time>
      </trkpt>
      <trkpt lat="45.10567" lon="4.93171">
        <ele>206.6130065918</ele>
        <time>2011-04-06T17:14:24Z</time>
      </trkpt>
      <trkpt lat="45.1058" lon="4.93237">
        <ele>207.80299377441</ele>
        <time>2011-04-06T17:14:32Z</time>
      </trkpt>
      <trkpt lat="45.10595" lon="4.93318">
        <ele>209.45500183106</ele>
        <time>2011-04-06T17:14:43Z</time>
      </trkpt>
      <trkpt lat="45.10607" lon="4.93377">
        <ele>210.31599426269</ele>
        <time>2011-04-06T17:14:51Z</time>
      </trkpt>
      <trkpt lat="45.1062" lon="4.93442">
        <ele>211.03399658203</ele>
        <time>2011-04-06T17:15:00Z</time>
      </trkpt>
      <trkpt lat="45.1063" lon="4.93497">
        <ele>212.39300537109</ele>
        <time>2011-04-06T17:15:08Z</time>
      </trkpt>
      <trkpt lat="45.1064" lon="4.9355">
        <ele>214.95199584961</ele>
        <time>2011-04-06T17:15:16Z</time>
      </trkpt>
      <trkpt lat="45.10649" lon="4.936">
        <ele>217.35699462891</ele>
        <time>2011-04-06T17:15:24Z</time>
      </trkpt>
      <trkpt lat="45.10658" lon="4.93651">
        <ele>219.85299682617</ele>
        <time>2011-04-06T17:15:33Z</time>
      </trkpt>
      <trkpt lat="45.10662" lon="4.93693">
        <ele>221.81300354004</ele>
        <time>2011-04-06T17:15:41Z</time>
      </trkpt>
      <trkpt lat="45.10667" lon="4.93728">
        <ele>223.19200134277</ele>
        <time>2011-04-06T17:15:48Z</time>
      </trkpt>
      <trkpt lat="45.1067" lon="4.93763">
        <ele>224.39999389648</ele>
        <time>2011-04-06T17:15:55Z</time>
      </trkpt>
      <trkpt lat="45.10674" lon="4.93808">
        <ele>225.62300109863</ele>
        <time>2011-04-06T17:16:03Z</time>
      </trkpt>
      <trkpt lat="45.10678" lon="4.9383">
        <ele>225.91400146484</ele>
        <time>2011-04-06T17:16:07Z</time>
      </trkpt>
      <trkpt lat="45.10684" lon="4.93881">
        <ele>226.46499633789</ele>
        <time>2011-04-06T17:16:15Z</time>
      </trkpt>
      <trkpt lat="45.1069" lon="4.93941">
        <ele>226.30799865723</ele>
        <time>2011-04-06T17:16:23Z</time>
      </trkpt>
      <trkpt lat="45.10702" lon="4.94">
        <ele>225.68800354004</ele>
        <time>2011-04-06T17:16:30Z</time>
      </trkpt>
      <trkpt lat="45.10715" lon="4.94042">
        <ele>225.18899536133</ele>
        <time>2011-04-06T17:16:35Z</time>
      </trkpt>
      <trkpt lat="45.10735" lon="4.94091">
        <ele>224.3390045166</ele>
        <time>2011-04-06T17:16:41Z</time>
      </trkpt>
      <trkpt lat="45.10752" lon="4.94122">
        <ele>223.3690032959</ele>
        <time>2011-04-06T17:16:45Z</time>
      </trkpt>
      <trkpt lat="45.10792" lon="4.94179">
        <ele>222.01600646973</ele>
        <time>2011-04-06T17:16:53Z</time>
      </trkpt>
      <trkpt lat="45.10836" lon="4.9423">
        <ele>221.94099426269</ele>
        <time>2011-04-06T17:17:01Z</time>
      </trkpt>
      <trkpt lat="45.10883" lon="4.94284">
        <ele>222.63200378418</ele>
        <time>2011-04-06T17:17:10Z</time>
      </trkpt>
      <trkpt lat="45.10899" lon="4.94302">
        <ele>222.73699951172</ele>
        <time>2011-04-06T17:17:13Z</time>
      </trkpt>
      <trkpt lat="45.10918" lon="4.94349">
        <ele>222.94799804688</ele>
        <time>2011-04-06T17:17:19Z</time>
      </trkpt>
      <trkpt lat="45.10919" lon="4.94358">
        <ele>222.89599609375</ele>
        <time>2011-04-06T17:17:20Z</time>
      </trkpt>
      <trkpt lat="45.10925" lon="4.94446">
        <ele>222.8450012207</ele>
        <time>2011-04-06T17:17:29Z</time>
      </trkpt>
      <trkpt lat="45.10928" lon="4.94525">
        <ele>222.98199462891</ele>
        <time>2011-04-06T17:17:37Z</time>
      </trkpt>
      <trkpt lat="45.10927" lon="4.94593">
        <ele>223.23300170898</ele>
        <time>2011-04-06T17:17:44Z</time>
      </trkpt>
      <trkpt lat="45.10915" lon="4.94659">
        <ele>223.51300048828</ele>
        <time>2011-04-06T17:17:51Z</time>
      </trkpt>
      <trkpt lat="45.10894" lon="4.94725">
        <ele>223.70899963379</ele>
        <time>2011-04-06T17:17:59Z</time>
      </trkpt>
      <trkpt lat="45.1088" lon="4.94775">
        <ele>223.71600341797</ele>
        <time>2011-04-06T17:18:05Z</time>
      </trkpt>
      <trkpt lat="45.10858" lon="4.94837">
        <ele>223.45700073242</ele>
        <time>2011-04-06T17:18:13Z</time>
      </trkpt>
      <trkpt lat="45.10855" lon="4.9488">
        <ele>222.35800170898</ele>
        <time>2011-04-06T17:18:18Z</time>
      </trkpt>
      <trkpt lat="45.10852" lon="4.94941">
        <ele>219.70500183106</ele>
        <time>2011-04-06T17:18:24Z</time>
      </trkpt>
      <trkpt lat="45.10848" lon="4.95017">
        <ele>216.10499572754</ele>
        <time>2011-04-06T17:18:30Z</time>
      </trkpt>
      <trkpt lat="45.10847" lon="4.95104">
        <ele>211.88999938965</ele>
        <time>2011-04-06T17:18:36Z</time>
      </trkpt>
      <trkpt lat="45.10859" lon="4.95173">
        <ele>208.88299560547</ele>
        <time>2011-04-06T17:18:41Z</time>
      </trkpt>
      <trkpt lat="45.10871" lon="4.95209">
        <ele>207.45300292969</ele>
        <time>2011-04-06T17:18:44Z</time>
      </trkpt>
      <trkpt lat="45.10873" lon="4.95241">
        <ele>206.16200256348</ele>
        <time>2011-04-06T17:18:47Z</time>
      </trkpt>
      <trkpt lat="45.1087" lon="4.95254">
        <ele>205.49499511719</ele>
        <time>2011-04-06T17:18:49Z</time>
      </trkpt>
      <trkpt lat="45.10872" lon="4.95273">
        <ele>204.69500732422</ele>
        <time>2011-04-06T17:18:52Z</time>
      </trkpt>
      <trkpt lat="45.10876" lon="4.95279">
        <ele>204.54800415039</ele>
        <time>2011-04-06T17:18:53Z</time>
      </trkpt>
      <trkpt lat="45.10889" lon="4.95294">
        <ele>204.54400634766</ele>
        <time>2011-04-06T17:18:56Z</time>
      </trkpt>
      <trkpt lat="45.1091" lon="4.95326">
        <ele>204.59399414062</ele>
        <time>2011-04-06T17:19:01Z</time>
      </trkpt>
      <trkpt lat="45.10928" lon="4.95375">
        <ele>204.72200012207</ele>
        <time>2011-04-06T17:19:07Z</time>
      </trkpt>
      <trkpt lat="45.10946" lon="4.95448">
        <ele>205.24699401856</ele>
        <time>2011-04-06T17:19:15Z</time>
      </trkpt>
      <trkpt lat="45.10962" lon="4.95506">
        <ele>205.53900146484</ele>
        <time>2011-04-06T17:19:22Z</time>
      </trkpt>
      <trkpt lat="45.10988" lon="4.95568">
        <ele>206.34899902344</ele>
        <time>2011-04-06T17:19:30Z</time>
      </trkpt>
      <trkpt lat="45.11009" lon="4.95602">
        <ele>206.83500671387</ele>
        <time>2011-04-06T17:19:35Z</time>
      </trkpt>
      <trkpt lat="45.11044" lon="4.95643">
        <ele>207.17199707031</ele>
        <time>2011-04-06T17:19:42Z</time>
      </trkpt>
      <trkpt lat="45.11088" lon="4.95686">
        <ele>206.93600463867</ele>
        <time>2011-04-06T17:19:50Z</time>
      </trkpt>
      <trkpt lat="45.11118" lon="4.95726">
        <ele>206.58500671387</ele>
        <time>2011-04-06T17:19:56Z</time>
      </trkpt>
      <trkpt lat="45.11155" lon="4.95798">
        <ele>205.92500305176</ele>
        <time>2011-04-06T17:20:05Z</time>
      </trkpt>
      <trkpt lat="45.11187" lon="4.95847">
        <ele>205.86700439453</ele>
        <time>2011-04-06T17:20:12Z</time>
      </trkpt>
      <trkpt lat="45.11234" lon="4.95914">
        <ele>206.01499938965</ele>
        <time>2011-04-06T17:20:22Z</time>
      </trkpt>
      <trkpt lat="45.1126" lon="4.95953">
        <ele>205.93699645996</ele>
        <time>2011-04-06T17:20:28Z</time>
      </trkpt>
      <trkpt lat="45.11283" lon="4.95994">
        <ele>206.86500549316</ele>
        <time>2011-04-06T17:20:34Z</time>
      </trkpt>
      <trkpt lat="45.11316" lon="4.96048">
        <ele>207.28399658203</ele>
        <time>2011-04-06T17:20:42Z</time>
      </trkpt>
      <trkpt lat="45.1134" lon="4.96089">
        <ele>208.01699829102</ele>
        <time>2011-04-06T17:20:48Z</time>
      </trkpt>
      <trkpt lat="45.11358" lon="4.96122">
        <ele>208.05000305176</ele>
        <time>2011-04-06T17:20:52Z</time>
      </trkpt>
      <trkpt lat="45.11382" lon="4.96172">
        <ele>208.73500061035</ele>
        <time>2011-04-06T17:20:58Z</time>
      </trkpt>
      <trkpt lat="45.11406" lon="4.96219">
        <ele>209.08200073242</ele>
        <time>2011-04-06T17:21:04Z</time>
      </trkpt>
      <trkpt lat="45.11431" lon="4.96271">
        <ele>209.80599975586</ele>
        <time>2011-04-06T17:21:11Z</time>
      </trkpt>
      <trkpt lat="45.11462" lon="4.96323">
        <ele>209.5059967041</ele>
        <time>2011-04-06T17:21:18Z</time>
      </trkpt>
      <trkpt lat="45.11504" lon="4.96388">
        <ele>208.07800292969</ele>
        <time>2011-04-06T17:21:27Z</time>
      </trkpt>
      <trkpt lat="45.11531" lon="4.96429">
        <ele>206.83299255371</ele>
        <time>2011-04-06T17:21:33Z</time>
      </trkpt>
      <trkpt lat="45.1156" lon="4.96475">
        <ele>206.48899841309</ele>
        <time>2011-04-06T17:21:40Z</time>
      </trkpt>
      <trkpt lat="45.11568" lon="4.96487">
        <ele>206.52600097656</ele>
        <time>2011-04-06T17:21:42Z</time>
      </trkpt>
      <trkpt lat="45.1158" lon="4.96493">
        <ele>206.9049987793</ele>
        <time>2011-04-06T17:21:45Z</time>
      </trkpt>
      <trkpt lat="45.11584" lon="4.96481">
        <ele>207.45700073242</ele>
        <time>2011-04-06T17:21:48Z</time>
      </trkpt>
      <trkpt lat="45.11584" lon="4.96476">
        <ele>207.54800415039</ele>
        <time>2011-04-06T17:21:49Z</time>
      </trkpt>
      <trkpt lat="45.11584" lon="4.96462">
        <ele>207.85600280762</ele>
        <time>2011-04-06T17:21:52Z</time>
      </trkpt>
      <trkpt lat="45.11578" lon="4.96454">
        <ele>208.22500610352</ele>
        <time>2011-04-06T17:21:57Z</time>
      </trkpt>
      <trkpt lat="45.11578" lon="4.96454">
        <ele>208.17199707031</ele>
        <time>2011-04-06T17:21:58Z</time>
      </trkpt>
      <trkpt lat="45.11575" lon="4.96457">
        <ele>208.14999389648</ele>
        <time>2011-04-06T17:22:15Z</time>
      </trkpt>
      <trkpt lat="45.11567" lon="4.96456">
        <ele>207.69000244141</ele>
        <time>2011-04-06T17:22:19Z</time>
      </trkpt>
      <trkpt lat="45.11561" lon="4.96441">
        <ele>207.64599609375</ele>
        <time>2011-04-06T17:22:23Z</time>
      </trkpt>
      <trkpt lat="45.11564" lon="4.96431">
        <ele>208.37600708008</ele>
        <time>2011-04-06T17:22:26Z</time>
      </trkpt>
      <trkpt lat="45.11567" lon="4.96431">
        <ele>208.86700439453</ele>
        <time>2011-04-06T17:22:30Z</time>
      </trkpt>
      <trkpt lat="45.11568" lon="4.96433">
        <ele>208.69999694824</ele>
        <time>2011-04-06T17:22:34Z</time>
      </trkpt>
    </trkseg>
  </trk>
</gpx>